<?xml version='1.0' encoding='UTF-8'?><gpx version="1.1" creator="JPX - https://github.com/jenetics/jpx" xmlns="http://www.topografix.com/GPX/1/1"><trk><trkseg><trkpt lat="44.52496960356359" lon="10.866855438751022"><ele>133.0</ele><time>2026-04-18T07:13:58Z</time></trkpt><trkpt lat="44.52489204375612" lon="10.866798119155781"><ele>133.0</ele><time>2026-04-18T07:14:01Z</time></trkpt><trkpt lat="44.52481247049114" lon="10.866763035626745"><ele>133.0</ele><time>2026-04-18T07:14:04Z</time></trkpt><trkpt lat="44.52475116564146" lon="10.866722877280024"><ele>133.0</ele><time>2026-04-18T07:14:15Z</time></trkpt><trkpt lat="44.524684399148086" lon="10.866717290603624"><ele>133.0</ele><time>2026-04-18T07:14:25.999Z</time></trkpt><trkpt lat="44.52463425774798" lon="10.86689186062355"><ele>133.0</ele><time>2026-04-18T07:14:27.999Z</time></trkpt><trkpt lat="44.524615154455844" lon="10.867011120489995"><ele>133.0</ele><time>2026-04-18T07:14:28.999Z</time></trkpt><trkpt lat="44.52459686095177" lon="10.867116736741979"><ele>133.0</ele><time>2026-04-18T07:14:29.999Z</time></trkpt><trkpt lat="44.5245915838036" lon="10.867218048537158"><ele>133.0</ele><time>2026-04-18T07:14:30.999Z</time></trkpt><trkpt lat="44.52456827562462" lon="10.867312814052205"><ele>133.0</ele><time>2026-04-18T07:14:31.999Z</time></trkpt><trkpt lat="44.52455541779686" lon="10.867424098737567"><ele>133.0</ele><time>2026-04-18T07:14:32.999Z</time></trkpt><trkpt lat="44.52452227975696" lon="10.867516948116167"><ele>133.0</ele><time>2026-04-18T07:14:33.999Z</time></trkpt><trkpt lat="44.52448917213058" lon="10.867671909708642"><ele>133.8</ele><time>2026-04-18T07:14:35.999Z</time></trkpt><trkpt lat="44.52448169355562" lon="10.867776527179355"><ele>134.60000000000002</ele><time>2026-04-18T07:14:36.999Z</time></trkpt><trkpt lat="44.52443383991805" lon="10.867931549979755"><ele>135.39999999999998</ele><time>2026-04-18T07:14:37.999Z</time></trkpt><trkpt lat="44.52440430008393" lon="10.86807004990906"><ele>136.2</ele><time>2026-04-18T07:14:38.999Z</time></trkpt><trkpt lat="44.52438384450587" lon="10.868164553619147"><ele>137.0</ele><time>2026-04-18T07:14:39.999Z</time></trkpt><trkpt lat="44.52435250501159" lon="10.868310151865268"><ele>137.0</ele><time>2026-04-18T07:14:41.999Z</time></trkpt><trkpt lat="44.52432519316217" lon="10.868437147433845"><ele>137.0</ele><time>2026-04-18T07:14:43.999Z</time></trkpt><trkpt lat="44.524298328353034" lon="10.868563601977204"><ele>137.0</ele><time>2026-04-18T07:14:45.999Z</time></trkpt><trkpt lat="44.52426862562051" lon="10.868703624362247"><ele>137.0</ele><time>2026-04-18T07:14:47.999Z</time></trkpt><trkpt lat="44.524246308458345" lon="10.868873294234419"><ele>137.0</ele><time>2026-04-18T07:14:49.999Z</time></trkpt><trkpt lat="44.52420113807017" lon="10.869036581058133"><ele>137.00000000000003</ele><time>2026-04-18T07:14:51.999Z</time></trkpt><trkpt lat="44.524199623008634" lon="10.869134718400977"><ele>137.0</ele><time>2026-04-18T07:14:52.999Z</time></trkpt><trkpt lat="44.52418694341911" lon="10.86922390341915"><ele>137.0</ele><time>2026-04-18T07:14:53.999Z</time></trkpt><trkpt lat="44.524177743364326" lon="10.869313470920732"><ele>137.0</ele><time>2026-04-18T07:14:54.999Z</time></trkpt><trkpt lat="44.52416881784633" lon="10.869413205730249"><ele>137.0</ele><time>2026-04-18T07:14:55.999Z</time></trkpt><trkpt lat="44.52415312016381" lon="10.869504683073023"><ele>137.00000000000003</ele><time>2026-04-18T07:14:56.999Z</time></trkpt><trkpt lat="44.524140401026656" lon="10.869604881114693"><ele>137.0</ele><time>2026-04-18T07:14:57.999Z</time></trkpt><trkpt lat="44.52414068708276" lon="10.869723666786344"><ele>136.85714285714286</ele><time>2026-04-18T07:14:58.999Z</time></trkpt><trkpt lat="44.52414501078726" lon="10.869845797311726"><ele>136.71428571428572</ele><time>2026-04-18T07:14:59.999Z</time></trkpt><trkpt lat="44.524133106579164" lon="10.869954600070526"><ele>136.57142857142856</ele><time>2026-04-18T07:15:00.999Z</time></trkpt><trkpt lat="44.5241280372633" lon="10.870053247773054"><ele>136.42857142857144</ele><time>2026-04-18T07:15:01.999Z</time></trkpt><trkpt lat="44.52412867750212" lon="10.870151544483974"><ele>136.28571428571428</ele><time>2026-04-18T07:15:02.999Z</time></trkpt><trkpt lat="44.52412851079431" lon="10.870240935150024"><ele>136.14285714285714</ele><time>2026-04-18T07:15:03.999Z</time></trkpt><trkpt lat="44.524121029182034" lon="10.870340801556148"><ele>136.0</ele><time>2026-04-18T07:15:04.999Z</time></trkpt><trkpt lat="44.52412136157667" lon="10.870441564547242"><ele>135.7142857142857</ele><time>2026-04-18T07:15:05.999Z</time></trkpt><trkpt lat="44.52411622980542" lon="10.87053989770141"><ele>135.42857142857142</ele><time>2026-04-18T07:15:06.999Z</time></trkpt><trkpt lat="44.52411132010559" lon="10.870636534297319"><ele>135.14285714285714</ele><time>2026-04-18T07:15:07.999Z</time></trkpt><trkpt lat="44.524110352517" lon="10.870740403728796"><ele>134.85714285714283</ele><time>2026-04-18T07:15:08.999Z</time></trkpt><trkpt lat="44.524106509376075" lon="10.870850254173916"><ele>134.57142857142856</ele><time>2026-04-18T07:15:09.999Z</time></trkpt><trkpt lat="44.52411094531468" lon="10.870963479328498"><ele>134.28571428571428</ele><time>2026-04-18T07:15:10.999Z</time></trkpt><trkpt lat="44.52411039267531" lon="10.871060641507118"><ele>134.0</ele><time>2026-04-18T07:15:11.999Z</time></trkpt><trkpt lat="44.52410645686608" lon="10.871207031209027"><ele>134.0</ele><time>2026-04-18T07:15:14Z</time></trkpt><trkpt lat="44.52411300439888" lon="10.871320830406942"><ele>134.0</ele><time>2026-04-18T07:15:18Z</time></trkpt><trkpt lat="44.5241010524811" lon="10.871429904519742"><ele>134.0</ele><time>2026-04-18T07:15:21Z</time></trkpt><trkpt lat="44.52409111612364" lon="10.871566019117818"><ele>134.0</ele><time>2026-04-18T07:15:28Z</time></trkpt><trkpt lat="44.52403600694195" lon="10.871722297905114"><ele>134.0</ele><time>2026-04-18T07:15:30Z</time></trkpt><trkpt lat="44.52393172111979" lon="10.871778920292622"><ele>134.0</ele><time>2026-04-18T07:15:32Z</time></trkpt><trkpt lat="44.52385573940339" lon="10.871766808507518"><ele>134.0</ele><time>2026-04-18T07:15:33Z</time></trkpt><trkpt lat="44.52377632752193" lon="10.871722843769383"><ele>134.0</ele><time>2026-04-18T07:15:34Z</time></trkpt><trkpt lat="44.523693421238825" lon="10.871683153333796"><ele>134.0</ele><time>2026-04-18T07:15:35Z</time></trkpt><trkpt lat="44.52360626163993" lon="10.871649390714186"><ele>134.0</ele><time>2026-04-18T07:15:36Z</time></trkpt><trkpt lat="44.52351340188492" lon="10.871616416151882"><ele>134.0</ele><time>2026-04-18T07:15:37Z</time></trkpt><trkpt lat="44.52341636205259" lon="10.87158467173162"><ele>135.4</ele><time>2026-04-18T07:15:38Z</time></trkpt><trkpt lat="44.52331879845185" lon="10.87154508924398"><ele>136.8</ele><time>2026-04-18T07:15:39Z</time></trkpt><trkpt lat="44.523223616426115" lon="10.871507379228905"><ele>138.2</ele><time>2026-04-18T07:15:40Z</time></trkpt><trkpt lat="44.52313054293438" lon="10.871465302035006"><ele>139.6</ele><time>2026-04-18T07:15:41Z</time></trkpt><trkpt lat="44.523033457047624" lon="10.87142702900068"><ele>141.0</ele><time>2026-04-18T07:15:42Z</time></trkpt><trkpt lat="44.52293547860569" lon="10.871396888382286"><ele>141.8</ele><time>2026-04-18T07:15:43Z</time></trkpt><trkpt lat="44.52283964648285" lon="10.87136169924261"><ele>142.6</ele><time>2026-04-18T07:15:44Z</time></trkpt><trkpt lat="44.52274318565633" lon="10.871321812919545"><ele>143.4</ele><time>2026-04-18T07:15:45Z</time></trkpt><trkpt lat="44.522647901851336" lon="10.871276311157985"><ele>144.2</ele><time>2026-04-18T07:15:46Z</time></trkpt><trkpt lat="44.52255353155127" lon="10.871234900932786"><ele>145.0</ele><time>2026-04-18T07:15:47Z</time></trkpt><trkpt lat="44.5224646426434" lon="10.87119735541885"><ele>145.0</ele><time>2026-04-18T07:15:48Z</time></trkpt><trkpt lat="44.52237002876057" lon="10.871146567042024"><ele>145.0</ele><time>2026-04-18T07:15:49Z</time></trkpt><trkpt lat="44.52228434411492" lon="10.871097673900739"><ele>145.0</ele><time>2026-04-18T07:15:50Z</time></trkpt><trkpt lat="44.522195009125596" lon="10.871056176445896"><ele>145.0</ele><time>2026-04-18T07:15:51Z</time></trkpt><trkpt lat="44.52210268655599" lon="10.871013786317771"><ele>145.0</ele><time>2026-04-18T07:15:52Z</time></trkpt><trkpt lat="44.522015646579774" lon="10.870967543998045"><ele>145.8</ele><time>2026-04-18T07:15:53Z</time></trkpt><trkpt lat="44.521923397966106" lon="10.870923067183275"><ele>146.6</ele><time>2026-04-18T07:15:54Z</time></trkpt><trkpt lat="44.521830057862566" lon="10.870872042847852"><ele>147.4</ele><time>2026-04-18T07:15:55Z</time></trkpt><trkpt lat="44.521734577508845" lon="10.870816357073892"><ele>148.2</ele><time>2026-04-18T07:15:56Z</time></trkpt><trkpt lat="44.52164430208413" lon="10.870759849061312"><ele>149.0</ele><time>2026-04-18T07:15:57Z</time></trkpt><trkpt lat="44.52155795630678" lon="10.870741753908867"><ele>149.0</ele><time>2026-04-18T07:15:58Z</time></trkpt><trkpt lat="44.52148109689136" lon="10.870707951316566"><ele>149.0</ele><time>2026-04-18T07:15:59Z</time></trkpt><trkpt lat="44.52140773993321" lon="10.870683594717248"><ele>149.0</ele><time>2026-04-18T07:16:00Z</time></trkpt><trkpt lat="44.52135011933739" lon="10.870642329931124"><ele>149.0</ele><time>2026-04-18T07:16:01Z</time></trkpt><trkpt lat="44.52129763916852" lon="10.870468165679037"><ele>149.0</ele><time>2026-04-18T07:16:03Z</time></trkpt><trkpt lat="44.52126422228523" lon="10.870358937990373"><ele>149.0</ele><time>2026-04-18T07:16:04Z</time></trkpt><trkpt lat="44.5212133481268" lon="10.870277135806452"><ele>149.14285714285714</ele><time>2026-04-18T07:16:05Z</time></trkpt><trkpt lat="44.521172873392864" lon="10.870183401265423"><ele>149.28571428571428</ele><time>2026-04-18T07:16:06Z</time></trkpt><trkpt lat="44.52113594954204" lon="10.870097252141079"><ele>149.42857142857142</ele><time>2026-04-18T07:16:07Z</time></trkpt><trkpt lat="44.52109952048574" lon="10.870012588265833"><ele>149.57142857142856</ele><time>2026-04-18T07:16:08Z</time></trkpt><trkpt lat="44.52105682627248" lon="10.86993304828672"><ele>149.71428571428572</ele><time>2026-04-18T07:16:09Z</time></trkpt><trkpt lat="44.52101834284421" lon="10.869853422842846"><ele>149.85714285714283</ele><time>2026-04-18T07:16:10Z</time></trkpt><trkpt lat="44.520982661491416" lon="10.86977338143691"><ele>150.0</ele><time>2026-04-18T07:16:11Z</time></trkpt><trkpt lat="44.5209477689041" lon="10.869690921599554"><ele>149.28571428571428</ele><time>2026-04-18T07:16:12Z</time></trkpt><trkpt lat="44.520921670355285" lon="10.869596319879731"><ele>148.57142857142856</ele><time>2026-04-18T07:16:13Z</time></trkpt><trkpt lat="44.520882041215216" lon="10.869510041941213"><ele>147.85714285714286</ele><time>2026-04-18T07:16:14Z</time></trkpt><trkpt lat="44.52084250893784" lon="10.869425665188357"><ele>147.14285714285714</ele><time>2026-04-18T07:16:15Z</time></trkpt><trkpt lat="44.520781099141836" lon="10.869361466758098"><ele>146.42857142857144</ele><time>2026-04-18T07:16:16Z</time></trkpt><trkpt lat="44.520742605743436" lon="10.869267177610993"><ele>145.71428571428572</ele><time>2026-04-18T07:16:17Z</time></trkpt><trkpt lat="44.52068366292951" lon="10.869209241999513"><ele>145.0</ele><time>2026-04-18T07:16:18Z</time></trkpt><trkpt lat="44.52062008465857" lon="10.869137188746633"><ele>144.2</ele><time>2026-04-18T07:16:19Z</time></trkpt><trkpt lat="44.52055664467065" lon="10.869056227898726"><ele>143.4</ele><time>2026-04-18T07:16:20Z</time></trkpt><trkpt lat="44.520454484555984" lon="10.868992597296513"><ele>142.6</ele><time>2026-04-18T07:16:21Z</time></trkpt><trkpt lat="44.520339407240535" lon="10.868983142563721"><ele>141.8</ele><time>2026-04-18T07:16:22Z</time></trkpt><trkpt lat="44.52022922800776" lon="10.868966950989304"><ele>141.0</ele><time>2026-04-18T07:16:23Z</time></trkpt><trkpt lat="44.520129420575564" lon="10.868952330809007"><ele>141.0</ele><time>2026-04-18T07:16:24Z</time></trkpt><trkpt lat="44.52003194293301" lon="10.868938911044989"><ele>141.0</ele><time>2026-04-18T07:16:25Z</time></trkpt><trkpt lat="44.5199279038538" lon="10.868924328919372"><ele>141.0</ele><time>2026-04-18T07:16:26Z</time></trkpt><trkpt lat="44.5198117280359" lon="10.868907068827468"><ele>141.0</ele><time>2026-04-18T07:16:27Z</time></trkpt><trkpt lat="44.519689767135276" lon="10.86888754259537"><ele>141.0</ele><time>2026-04-18T07:16:27.999Z</time></trkpt><trkpt lat="44.51957129574297" lon="10.868869460995763"><ele>142.0</ele><time>2026-04-18T07:16:28.999Z</time></trkpt><trkpt lat="44.519485984981756" lon="10.868860027962597"><ele>143.0</ele><time>2026-04-18T07:16:29.999Z</time></trkpt><trkpt lat="44.51937930459913" lon="10.868842954898964"><ele>144.0</ele><time>2026-04-18T07:16:30.999Z</time></trkpt><trkpt lat="44.519267128145216" lon="10.86882605231635"><ele>145.0</ele><time>2026-04-18T07:16:31.999Z</time></trkpt><trkpt lat="44.51917216053739" lon="10.868818670500525"><ele>146.0</ele><time>2026-04-18T07:16:32.999Z</time></trkpt><trkpt lat="44.51909225840234" lon="10.868785239656907"><ele>146.0</ele><time>2026-04-18T07:16:33.999Z</time></trkpt><trkpt lat="44.51900256436969" lon="10.868781275170786"><ele>146.0</ele><time>2026-04-18T07:16:34.999Z</time></trkpt><trkpt lat="44.518934900336035" lon="10.868743690234725"><ele>146.0</ele><time>2026-04-18T07:16:35.999Z</time></trkpt><trkpt lat="44.51888683639609" lon="10.868671158498067"><ele>146.0</ele><time>2026-04-18T07:16:36.999Z</time></trkpt><trkpt lat="44.518867524916054" lon="10.868552570320203"><ele>146.0</ele><time>2026-04-18T07:16:37.999Z</time></trkpt><trkpt lat="44.518839101251544" lon="10.868407362264975"><ele>146.0</ele><time>2026-04-18T07:16:38.999Z</time></trkpt><trkpt lat="44.51879626635683" lon="10.868243845732458"><ele>146.6</ele><time>2026-04-18T07:16:39.999Z</time></trkpt><trkpt lat="44.51873866847761" lon="10.868089679987726"><ele>147.2</ele><time>2026-04-18T07:16:40.999Z</time></trkpt><trkpt lat="44.518707488816105" lon="10.867966100902617"><ele>147.8</ele><time>2026-04-18T07:16:41.999Z</time></trkpt><trkpt lat="44.51868133833887" lon="10.867866020427236"><ele>148.4</ele><time>2026-04-18T07:16:42.999Z</time></trkpt><trkpt lat="44.51865201716961" lon="10.867758994294782"><ele>149.0</ele><time>2026-04-18T07:16:43.999Z</time></trkpt><trkpt lat="44.518621685729805" lon="10.86766232458217"><ele>150.83333333333331</ele><time>2026-04-18T07:16:44.999Z</time></trkpt><trkpt lat="44.518593589580526" lon="10.867556875756323"><ele>152.66666666666666</ele><time>2026-04-18T07:16:45.999Z</time></trkpt><trkpt lat="44.51856648121353" lon="10.867448138127104"><ele>154.5</ele><time>2026-04-18T07:16:46.999Z</time></trkpt><trkpt lat="44.51854270295524" lon="10.867349245835493"><ele>156.33333333333334</ele><time>2026-04-18T07:16:47.999Z</time></trkpt><trkpt lat="44.518500217092814" lon="10.867217387504335"><ele>158.16666666666669</ele><time>2026-04-18T07:16:49.999Z</time></trkpt><trkpt lat="44.5184342570761" lon="10.867162383821874"><ele>160.0</ele><time>2026-04-18T07:17:21Z</time></trkpt><trkpt lat="44.518340619839556" lon="10.867207298592168"><ele>160.0</ele><time>2026-04-18T07:17:23Z</time></trkpt><trkpt lat="44.51826809418446" lon="10.867271559007513"><ele>160.0</ele><time>2026-04-18T07:17:24Z</time></trkpt><trkpt lat="44.51819825651315" lon="10.8673224979473"><ele>160.0</ele><time>2026-04-18T07:17:25Z</time></trkpt><trkpt lat="44.51811550550077" lon="10.86734037332396"><ele>160.0</ele><time>2026-04-18T07:17:26Z</time></trkpt><trkpt lat="44.51804631861924" lon="10.867381950941832"><ele>160.0</ele><time>2026-04-18T07:17:27Z</time></trkpt><trkpt lat="44.5179845796749" lon="10.867442859022324"><ele>160.0</ele><time>2026-04-18T07:17:28Z</time></trkpt><trkpt lat="44.51790488924804" lon="10.867466942419446"><ele>160.16666666666669</ele><time>2026-04-18T07:17:29Z</time></trkpt><trkpt lat="44.51782606695456" lon="10.867514310358363"><ele>160.33333333333334</ele><time>2026-04-18T07:17:30Z</time></trkpt><trkpt lat="44.517744917706544" lon="10.867563076653722"><ele>160.5</ele><time>2026-04-18T07:17:31Z</time></trkpt><trkpt lat="44.5176628979623" lon="10.867613011261742"><ele>160.66666666666666</ele><time>2026-04-18T07:17:32Z</time></trkpt><trkpt lat="44.51758588319101" lon="10.867685225260496"><ele>160.83333333333331</ele><time>2026-04-18T07:17:33Z</time></trkpt><trkpt lat="44.517501672829766" lon="10.867731309098879"><ele>161.0</ele><time>2026-04-18T07:17:34Z</time></trkpt><trkpt lat="44.51741494536684" lon="10.867764201719615"><ele>161.0</ele><time>2026-04-18T07:17:35Z</time></trkpt><trkpt lat="44.5173344189355" lon="10.86779766501753"><ele>161.0</ele><time>2026-04-18T07:17:36Z</time></trkpt><trkpt lat="44.51725224116861" lon="10.867800715148912"><ele>161.0</ele><time>2026-04-18T07:17:37Z</time></trkpt><trkpt lat="44.517181035765" lon="10.867735935579036"><ele>161.0</ele><time>2026-04-18T07:17:38Z</time></trkpt><trkpt lat="44.51708802472183" lon="10.867688755016403"><ele>161.0</ele><time>2026-04-18T07:17:39Z</time></trkpt><trkpt lat="44.516983493880645" lon="10.86768875840463"><ele>161.60000000000002</ele><time>2026-04-18T07:17:40Z</time></trkpt><trkpt lat="44.51688107633194" lon="10.867701189207223"><ele>162.2</ele><time>2026-04-18T07:17:41Z</time></trkpt><trkpt lat="44.51677621083312" lon="10.867744555294497"><ele>162.8</ele><time>2026-04-18T07:17:42Z</time></trkpt><trkpt lat="44.51667944728981" lon="10.867758121895257"><ele>163.39999999999998</ele><time>2026-04-18T07:17:43Z</time></trkpt><trkpt lat="44.51659373268684" lon="10.867782054641635"><ele>164.0</ele><time>2026-04-18T07:17:44Z</time></trkpt><trkpt lat="44.51652678818469" lon="10.867805200017024"><ele>164.0</ele><time>2026-04-18T07:17:45Z</time></trkpt><trkpt lat="44.516446224233405" lon="10.867721311195112"><ele>164.0</ele><time>2026-04-18T07:17:47Z</time></trkpt><trkpt lat="44.51642748608182" lon="10.867545942517625"><ele>164.0</ele><time>2026-04-18T07:17:49Z</time></trkpt><trkpt lat="44.51642852647683" lon="10.867429979962537"><ele>164.0</ele><time>2026-04-18T07:17:50Z</time></trkpt><trkpt lat="44.51640969783639" lon="10.867332181053138"><ele>164.0</ele><time>2026-04-18T07:17:51Z</time></trkpt><trkpt lat="44.51635949794277" lon="10.867260528740985"><ele>165.2</ele><time>2026-04-18T07:17:52Z</time></trkpt><trkpt lat="44.5162813161698" lon="10.867191123215099"><ele>166.39999999999998</ele><time>2026-04-18T07:17:53Z</time></trkpt><trkpt lat="44.51618587069942" lon="10.8671725325158"><ele>167.6</ele><time>2026-04-18T07:17:54Z</time></trkpt><trkpt lat="44.51608950986007" lon="10.867213311214208"><ele>168.8</ele><time>2026-04-18T07:17:55Z</time></trkpt><trkpt lat="44.51599023365579" lon="10.86724351464092"><ele>170.0</ele><time>2026-04-18T07:17:56Z</time></trkpt><trkpt lat="44.51588755551341" lon="10.867282250603493"><ele>170.4</ele><time>2026-04-18T07:17:57Z</time></trkpt><trkpt lat="44.51577929903909" lon="10.867324909991144"><ele>170.8</ele><time>2026-04-18T07:17:58Z</time></trkpt><trkpt lat="44.51567323424481" lon="10.867361614547566"><ele>171.2</ele><time>2026-04-18T07:17:59Z</time></trkpt><trkpt lat="44.51558232291917" lon="10.867385871616174"><ele>171.6</ele><time>2026-04-18T07:18:00Z</time></trkpt><trkpt lat="44.51549594879223" lon="10.867411616374994"><ele>172.0</ele><time>2026-04-18T07:18:01Z</time></trkpt><trkpt lat="44.51541455527921" lon="10.86743340269192"><ele>172.0</ele><time>2026-04-18T07:18:02Z</time></trkpt><trkpt lat="44.51532468724679" lon="10.867458580067884"><ele>172.0</ele><time>2026-04-18T07:18:03Z</time></trkpt><trkpt lat="44.515238466117964" lon="10.86748045376076"><ele>172.0</ele><time>2026-04-18T07:18:04Z</time></trkpt><trkpt lat="44.51515312950183" lon="10.867502077337965"><ele>172.0</ele><time>2026-04-18T07:18:05Z</time></trkpt><trkpt lat="44.51506811839892" lon="10.867518799825397"><ele>172.0</ele><time>2026-04-18T07:18:06Z</time></trkpt><trkpt lat="44.514962861213725" lon="10.867545330280945"><ele>172.0</ele><time>2026-04-18T07:18:07Z</time></trkpt><trkpt lat="44.51485422941076" lon="10.867551369571729"><ele>172.0</ele><time>2026-04-18T07:18:08Z</time></trkpt><trkpt lat="44.51475015689693" lon="10.867573868735764"><ele>172.0</ele><time>2026-04-18T07:18:09Z</time></trkpt><trkpt lat="44.51465912186634" lon="10.867591860739532"><ele>172.0</ele><time>2026-04-18T07:18:10Z</time></trkpt><trkpt lat="44.51457672872762" lon="10.867607865813941"><ele>172.0</ele><time>2026-04-18T07:18:11Z</time></trkpt><trkpt lat="44.51448699449754" lon="10.867625296816682"><ele>172.5</ele><time>2026-04-18T07:18:12Z</time></trkpt><trkpt lat="44.5143862710798" lon="10.867666460253911"><ele>173.0</ele><time>2026-04-18T07:18:13Z</time></trkpt><trkpt lat="44.514277475847315" lon="10.867677025373503"><ele>173.5</ele><time>2026-04-18T07:18:14Z</time></trkpt><trkpt lat="44.51415724413964" lon="10.867699761598248"><ele>174.0</ele><time>2026-04-18T07:18:15Z</time></trkpt><trkpt lat="44.51403946868866" lon="10.867718235698911"><ele>174.0</ele><time>2026-04-18T07:18:16Z</time></trkpt><trkpt lat="44.51393048349062" lon="10.867718449992486"><ele>174.0</ele><time>2026-04-18T07:18:17Z</time></trkpt><trkpt lat="44.513832754621795" lon="10.867722895632916"><ele>174.0</ele><time>2026-04-18T07:18:18Z</time></trkpt><trkpt lat="44.513735399384196" lon="10.8677182488689"><ele>174.0</ele><time>2026-04-18T07:18:19Z</time></trkpt><trkpt lat="44.5136403714594" lon="10.867677967823608"><ele>174.0</ele><time>2026-04-18T07:18:20Z</time></trkpt><trkpt lat="44.513550769858604" lon="10.867613810044771"><ele>175.39999999999998</ele><time>2026-04-18T07:18:21Z</time></trkpt><trkpt lat="44.51345952756673" lon="10.867538740539151"><ele>176.8</ele><time>2026-04-18T07:18:22Z</time></trkpt><trkpt lat="44.51336080962874" lon="10.867467437905253"><ele>178.2</ele><time>2026-04-18T07:18:23Z</time></trkpt><trkpt lat="44.51325371665535" lon="10.867416138605344"><ele>179.60000000000002</ele><time>2026-04-18T07:18:24Z</time></trkpt><trkpt lat="44.51319321258185" lon="10.867346480966072"><ele>181.0</ele><time>2026-04-18T07:18:25Z</time></trkpt><trkpt lat="44.51310518033267" lon="10.867284030076206"><ele>181.0</ele><time>2026-04-18T07:18:26Z</time></trkpt><trkpt lat="44.51301079031952" lon="10.867217069017512"><ele>181.0</ele><time>2026-04-18T07:18:27Z</time></trkpt><trkpt lat="44.51290921147868" lon="10.867145007929285"><ele>181.0</ele><time>2026-04-18T07:18:28Z</time></trkpt><trkpt lat="44.512813977691096" lon="10.867078991557538"><ele>181.0</ele><time>2026-04-18T07:18:29Z</time></trkpt><trkpt lat="44.51271293447925" lon="10.867011654807362"><ele>181.0</ele><time>2026-04-18T07:18:30Z</time></trkpt><trkpt lat="44.512615922430456" lon="10.866947379556542"><ele>182.20000000000002</ele><time>2026-04-18T07:18:31Z</time></trkpt><trkpt lat="44.512510947908616" lon="10.866901076653491"><ele>183.4</ele><time>2026-04-18T07:18:32Z</time></trkpt><trkpt lat="44.51242740237461" lon="10.866841121538343"><ele>184.6</ele><time>2026-04-18T07:18:33Z</time></trkpt><trkpt lat="44.512356901417945" lon="10.866784690630404"><ele>185.8</ele><time>2026-04-18T07:18:34Z</time></trkpt><trkpt lat="44.512281525266836" lon="10.866697864435599"><ele>187.0</ele><time>2026-04-18T07:18:35.999Z</time></trkpt><trkpt lat="44.51219920170745" lon="10.86681287049384"><ele>187.0</ele><time>2026-04-18T07:18:36.999Z</time></trkpt><trkpt lat="44.51214228459925" lon="10.866894944497112"><ele>187.0</ele><time>2026-04-18T07:18:37.999Z</time></trkpt><trkpt lat="44.51206781952267" lon="10.867031696489448"><ele>187.0</ele><time>2026-04-18T07:18:38.999Z</time></trkpt><trkpt lat="44.51198165360787" lon="10.867143218390185"><ele>187.0</ele><time>2026-04-18T07:18:39.999Z</time></trkpt><trkpt lat="44.51193266257601" lon="10.867255677910252"><ele>187.0</ele><time>2026-04-18T07:18:40.999Z</time></trkpt><trkpt lat="44.511874423757156" lon="10.86730690347941"><ele>189.2</ele><time>2026-04-18T07:18:41.999Z</time></trkpt><trkpt lat="44.511807213706135" lon="10.867286303089596"><ele>191.39999999999998</ele><time>2026-04-18T07:18:42.999Z</time></trkpt><trkpt lat="44.5117337498334" lon="10.867222799836776"><ele>193.60000000000002</ele><time>2026-04-18T07:18:43.999Z</time></trkpt><trkpt lat="44.51168958057423" lon="10.867106313293666"><ele>195.8</ele><time>2026-04-18T07:18:44.999Z</time></trkpt><trkpt lat="44.51161771274674" lon="10.867023540557716"><ele>198.0</ele><time>2026-04-18T07:18:45.999Z</time></trkpt><trkpt lat="44.51153497133974" lon="10.86691661439193"><ele>198.0</ele><time>2026-04-18T07:18:46.999Z</time></trkpt><trkpt lat="44.51145598850513" lon="10.866807469863119"><ele>198.0</ele><time>2026-04-18T07:18:47.999Z</time></trkpt><trkpt lat="44.51140057077284" lon="10.866729459569227"><ele>198.0</ele><time>2026-04-18T07:18:48.999Z</time></trkpt><trkpt lat="44.511332516446785" lon="10.86663172664438"><ele>198.0</ele><time>2026-04-18T07:18:50.999Z</time></trkpt><trkpt lat="44.51130393492034" lon="10.866551849798427"><ele>198.0</ele><time>2026-04-18T07:18:53.999Z</time></trkpt><trkpt lat="44.511155547407526" lon="10.866703702939649"><ele>199.8</ele><time>2026-04-18T07:18:58.999Z</time></trkpt><trkpt lat="44.51110387351144" lon="10.866777729094109"><ele>201.60000000000002</ele><time>2026-04-18T07:18:59.999Z</time></trkpt><trkpt lat="44.511049324158115" lon="10.866891820262449"><ele>203.39999999999998</ele><time>2026-04-18T07:19:00.999Z</time></trkpt><trkpt lat="44.510987946440224" lon="10.867004881931237"><ele>205.2</ele><time>2026-04-18T07:19:01.999Z</time></trkpt><trkpt lat="44.51091604514456" lon="10.867108205991219"><ele>207.0</ele><time>2026-04-18T07:19:02.999Z</time></trkpt><trkpt lat="44.51085298346213" lon="10.867199109418591"><ele>207.0</ele><time>2026-04-18T07:19:03.999Z</time></trkpt><trkpt lat="44.51077896078768" lon="10.867313260363897"><ele>207.0</ele><time>2026-04-18T07:19:04.999Z</time></trkpt><trkpt lat="44.510698860151535" lon="10.867435430525665"><ele>207.0</ele><time>2026-04-18T07:19:05.999Z</time></trkpt><trkpt lat="44.51062730945722" lon="10.867539865421994"><ele>207.0</ele><time>2026-04-18T07:19:06.999Z</time></trkpt><trkpt lat="44.510551573794196" lon="10.867646223849247"><ele>207.0</ele><time>2026-04-18T07:19:07.999Z</time></trkpt><trkpt lat="44.51048285079893" lon="10.86773964304092"><ele>207.33333333333334</ele><time>2026-04-18T07:19:08.999Z</time></trkpt><trkpt lat="44.5104289928664" lon="10.867814484135062"><ele>207.66666666666669</ele><time>2026-04-18T07:19:09.999Z</time></trkpt><trkpt lat="44.5103802275741" lon="10.867884132376561"><ele>208.0</ele><time>2026-04-18T07:19:10.999Z</time></trkpt><trkpt lat="44.51032572510954" lon="10.867964514116844"><ele>208.33333333333334</ele><time>2026-04-18T07:19:11.999Z</time></trkpt><trkpt lat="44.5102677402279" lon="10.868038554682327"><ele>208.66666666666669</ele><time>2026-04-18T07:19:12.999Z</time></trkpt><trkpt lat="44.51021145376863" lon="10.868126614539355"><ele>209.0</ele><time>2026-04-18T07:19:13.999Z</time></trkpt><trkpt lat="44.510150591791586" lon="10.868216829158648"><ele>209.00000000000003</ele><time>2026-04-18T07:19:14.999Z</time></trkpt><trkpt lat="44.51009585141994" lon="10.868303469428833"><ele>209.0</ele><time>2026-04-18T07:19:15.999Z</time></trkpt><trkpt lat="44.51004095335864" lon="10.868395724337837"><ele>209.0</ele><time>2026-04-18T07:19:16.999Z</time></trkpt><trkpt lat="44.50998835878597" lon="10.868470832718092"><ele>209.0</ele><time>2026-04-18T07:19:17.999Z</time></trkpt><trkpt lat="44.50992193967657" lon="10.868565458939852"><ele>209.00000000000003</ele><time>2026-04-18T07:19:19.999Z</time></trkpt><trkpt lat="44.509835018407074" lon="10.86853873917678"><ele>209.0</ele><time>2026-04-18T07:19:24.999Z</time></trkpt><trkpt lat="44.50983053112201" lon="10.868450452972887"><ele>209.0</ele><time>2026-04-18T07:19:28Z</time></trkpt><trkpt lat="44.50980898191181" lon="10.868313462838818"><ele>209.0</ele><time>2026-04-18T07:19:31Z</time></trkpt><trkpt lat="44.50981570874314" lon="10.868185962873492"><ele>209.0</ele><time>2026-04-18T07:19:32Z</time></trkpt><trkpt lat="44.5098257212055" lon="10.86806550858064"><ele>209.0</ele><time>2026-04-18T07:19:33Z</time></trkpt><trkpt lat="44.509817758321574" lon="10.867925690537357"><ele>209.0</ele><time>2026-04-18T07:19:34Z</time></trkpt><trkpt lat="44.5098357866768" lon="10.867789802855935"><ele>209.00000000000003</ele><time>2026-04-18T07:19:35Z</time></trkpt><trkpt lat="44.50984082470426" lon="10.86769779963417"><ele>209.0</ele><time>2026-04-18T07:19:36Z</time></trkpt><trkpt lat="44.50985386220402" lon="10.867584460903126"><ele>209.0</ele><time>2026-04-18T07:19:38Z</time></trkpt><trkpt lat="44.509918678338174" lon="10.867445049453686"><ele>209.0</ele><time>2026-04-18T07:19:40Z</time></trkpt><trkpt lat="44.509944234957985" lon="10.867331101639335"><ele>209.00000000000003</ele><time>2026-04-18T07:19:41Z</time></trkpt><trkpt lat="44.50995578877972" lon="10.86722857835003"><ele>209.0</ele><time>2026-04-18T07:19:42Z</time></trkpt><trkpt lat="44.50996708519664" lon="10.867118714373229"><ele>211.00000000000003</ele><time>2026-04-18T07:19:43Z</time></trkpt><trkpt lat="44.5099677968536" lon="10.867006137003115"><ele>213.0</ele><time>2026-04-18T07:19:44Z</time></trkpt><trkpt lat="44.50996884425861" lon="10.866879772839761"><ele>215.0</ele><time>2026-04-18T07:19:45Z</time></trkpt><trkpt lat="44.509959954371325" lon="10.86677392274976"><ele>217.0</ele><time>2026-04-18T07:19:46Z</time></trkpt><trkpt lat="44.509967516754116" lon="10.86666658199535"><ele>219.00000000000003</ele><time>2026-04-18T07:19:47Z</time></trkpt><trkpt lat="44.50996400572709" lon="10.866545633045467"><ele>221.0</ele><time>2026-04-18T07:19:48Z</time></trkpt><trkpt lat="44.50995995673385" lon="10.866406142632963"><ele>223.5</ele><time>2026-04-18T07:19:49Z</time></trkpt><trkpt lat="44.50995526905787" lon="10.866244648137588"><ele>226.0</ele><time>2026-04-18T07:19:50Z</time></trkpt><trkpt lat="44.509950646428074" lon="10.86608539415288"><ele>228.5</ele><time>2026-04-18T07:19:51Z</time></trkpt><trkpt lat="44.50994378516231" lon="10.865928634570883"><ele>231.0</ele><time>2026-04-18T07:19:52Z</time></trkpt><trkpt lat="44.50993738275117" lon="10.865769787082762"><ele>233.25</ele><time>2026-04-18T07:19:53Z</time></trkpt><trkpt lat="44.50993454770215" lon="10.865598271352177"><ele>235.5</ele><time>2026-04-18T07:19:54Z</time></trkpt><trkpt lat="44.50993367004717" lon="10.865422490158764"><ele>237.75</ele><time>2026-04-18T07:19:55Z</time></trkpt><trkpt lat="44.509931389628754" lon="10.865277623877825"><ele>240.0</ele><time>2026-04-18T07:19:56Z</time></trkpt><trkpt lat="44.509912901340805" lon="10.865135129572742"><ele>241.2</ele><time>2026-04-18T07:19:57Z</time></trkpt><trkpt lat="44.50989216610412" lon="10.864990177822351"><ele>242.4</ele><time>2026-04-18T07:19:58Z</time></trkpt><trkpt lat="44.50984687750948" lon="10.864856146750244"><ele>243.60000000000002</ele><time>2026-04-18T07:19:59Z</time></trkpt><trkpt lat="44.50978681246223" lon="10.864731367280925"><ele>244.8</ele><time>2026-04-18T07:20:00Z</time></trkpt><trkpt lat="44.50971966849786" lon="10.864608032063968"><ele>246.0</ele><time>2026-04-18T07:20:01Z</time></trkpt><trkpt lat="44.509634741286796" lon="10.864494921022885"><ele>246.0</ele><time>2026-04-18T07:20:02Z</time></trkpt><trkpt lat="44.50957744229937" lon="10.864400611155387"><ele>246.0</ele><time>2026-04-18T07:20:03Z</time></trkpt><trkpt lat="44.50950378069948" lon="10.864291727980259"><ele>246.0</ele><time>2026-04-18T07:20:05Z</time></trkpt><trkpt lat="44.50943598592971" lon="10.864223311206091"><ele>246.0</ele><time>2026-04-18T07:20:10Z</time></trkpt><trkpt lat="44.50937293778143" lon="10.864196689362316"><ele>246.0</ele><time>2026-04-18T07:20:11Z</time></trkpt><trkpt lat="44.50928908690772" lon="10.864192565314918"><ele>246.0</ele><time>2026-04-18T07:20:12Z</time></trkpt><trkpt lat="44.5092275122472" lon="10.86413318479093"><ele>248.75</ele><time>2026-04-18T07:20:13Z</time></trkpt><trkpt lat="44.509184732636506" lon="10.863998695986107"><ele>251.5</ele><time>2026-04-18T07:20:14Z</time></trkpt><trkpt lat="44.509131291616015" lon="10.863857941647474"><ele>254.25</ele><time>2026-04-18T07:20:15Z</time></trkpt><trkpt lat="44.50906908504703" lon="10.863703887989438"><ele>257.0</ele><time>2026-04-18T07:20:16Z</time></trkpt><trkpt lat="44.50900119199388" lon="10.863557197751502"><ele>256.5</ele><time>2026-04-18T07:20:17Z</time></trkpt><trkpt lat="44.50892635630403" lon="10.863387329140506"><ele>256.0</ele><time>2026-04-18T07:20:18Z</time></trkpt><trkpt lat="44.508862654126006" lon="10.863198951283312"><ele>255.5</ele><time>2026-04-18T07:20:19Z</time></trkpt><trkpt lat="44.50879231768164" lon="10.8630293929285"><ele>255.0</ele><time>2026-04-18T07:20:20Z</time></trkpt><trkpt lat="44.508702591215005" lon="10.862862747518358"><ele>255.0</ele><time>2026-04-18T07:20:21Z</time></trkpt><trkpt lat="44.50862579534099" lon="10.862678990603307"><ele>255.0</ele><time>2026-04-18T07:20:22Z</time></trkpt><trkpt lat="44.50854935862365" lon="10.862505854762578"><ele>255.0</ele><time>2026-04-18T07:20:23Z</time></trkpt><trkpt lat="44.50845809978994" lon="10.862343707637432"><ele>255.0</ele><time>2026-04-18T07:20:24Z</time></trkpt><trkpt lat="44.508390123829486" lon="10.862172328355406"><ele>256.5</ele><time>2026-04-18T07:20:25Z</time></trkpt><trkpt lat="44.50834056517373" lon="10.861974738507993"><ele>258.0</ele><time>2026-04-18T07:20:26Z</time></trkpt><trkpt lat="44.50829473450151" lon="10.861775166938411"><ele>259.5</ele><time>2026-04-18T07:20:27Z</time></trkpt><trkpt lat="44.50823772325398" lon="10.861582438574944"><ele>261.0</ele><time>2026-04-18T07:20:28Z</time></trkpt><trkpt lat="44.50816310472105" lon="10.861410501754376"><ele>262.25</ele><time>2026-04-18T07:20:29Z</time></trkpt><trkpt lat="44.50807079107899" lon="10.86125699369912"><ele>263.5</ele><time>2026-04-18T07:20:30Z</time></trkpt><trkpt lat="44.507952087179206" lon="10.861125068524657"><ele>264.75</ele><time>2026-04-18T07:20:31Z</time></trkpt><trkpt lat="44.50782112908509" lon="10.861011941400472"><ele>266.0</ele><time>2026-04-18T07:20:32Z</time></trkpt><trkpt lat="44.507674576732896" lon="10.860942879250176"><ele>266.0</ele><time>2026-04-18T07:20:33Z</time></trkpt><trkpt lat="44.50752662093604" lon="10.86090040498275"><ele>266.0</ele><time>2026-04-18T07:20:34Z</time></trkpt><trkpt lat="44.50738466267746" lon="10.860854321028615"><ele>266.0</ele><time>2026-04-18T07:20:35Z</time></trkpt><trkpt lat="44.507236864614846" lon="10.860829014746491"><ele>266.0</ele><time>2026-04-18T07:20:36Z</time></trkpt><trkpt lat="44.507101115968894" lon="10.860775079048805"><ele>263.75</ele><time>2026-04-18T07:20:37Z</time></trkpt><trkpt lat="44.506967004495486" lon="10.8607322740856"><ele>261.5</ele><time>2026-04-18T07:20:38Z</time></trkpt><trkpt lat="44.506855915157196" lon="10.860676316616102"><ele>259.25</ele><time>2026-04-18T07:20:39Z</time></trkpt><trkpt lat="44.506750596785636" lon="10.860587470821555"><ele>257.0</ele><time>2026-04-18T07:20:40Z</time></trkpt><trkpt lat="44.506654795707995" lon="10.860456721276709"><ele>257.0</ele><time>2026-04-18T07:20:41Z</time></trkpt><trkpt lat="44.50659028958365" lon="10.86028051382072"><ele>257.0</ele><time>2026-04-18T07:20:42Z</time></trkpt><trkpt lat="44.506515185917145" lon="10.860082395336041"><ele>257.0</ele><time>2026-04-18T07:20:43Z</time></trkpt><trkpt lat="44.5064491033546" lon="10.859899950648964"><ele>257.0</ele><time>2026-04-18T07:20:44Z</time></trkpt><trkpt lat="44.506400625169846" lon="10.859728957788723"><ele>257.5</ele><time>2026-04-18T07:20:45Z</time></trkpt><trkpt lat="44.50633337440369" lon="10.859567932488178"><ele>258.0</ele><time>2026-04-18T07:20:46Z</time></trkpt><trkpt lat="44.506260670692406" lon="10.859412437186874"><ele>258.5</ele><time>2026-04-18T07:20:47Z</time></trkpt><trkpt lat="44.50616497275555" lon="10.859278134359265"><ele>259.0</ele><time>2026-04-18T07:20:48Z</time></trkpt><trkpt lat="44.50604686234699" lon="10.859178608826387"><ele>259.0</ele><time>2026-04-18T07:20:49Z</time></trkpt><trkpt lat="44.505912528168636" lon="10.859104703021403"><ele>259.0</ele><time>2026-04-18T07:20:50Z</time></trkpt><trkpt lat="44.50576838440878" lon="10.859043085780083"><ele>259.0</ele><time>2026-04-18T07:20:51Z</time></trkpt><trkpt lat="44.505619906128686" lon="10.858985022039725"><ele>259.0</ele><time>2026-04-18T07:20:52Z</time></trkpt><trkpt lat="44.50547324068601" lon="10.858908319132842"><ele>259.25</ele><time>2026-04-18T07:20:53Z</time></trkpt><trkpt lat="44.5053251817359" lon="10.85887794929661"><ele>259.5</ele><time>2026-04-18T07:20:53.999Z</time></trkpt><trkpt lat="44.50518491330003" lon="10.858805064428894"><ele>259.75</ele><time>2026-04-18T07:20:54.999Z</time></trkpt><trkpt lat="44.505047383002974" lon="10.85875845273778"><ele>260.0</ele><time>2026-04-18T07:20:55.999Z</time></trkpt><trkpt lat="44.50491617067038" lon="10.858715428473873"><ele>260.0</ele><time>2026-04-18T07:20:56.999Z</time></trkpt><trkpt lat="44.50478875521372" lon="10.85867364933785"><ele>260.0</ele><time>2026-04-18T07:20:57.999Z</time></trkpt><trkpt lat="44.50466285043991" lon="10.858645934490664"><ele>260.0</ele><time>2026-04-18T07:20:58.999Z</time></trkpt><trkpt lat="44.50454104921483" lon="10.858597196929136"><ele>260.0</ele><time>2026-04-18T07:20:59.999Z</time></trkpt><trkpt lat="44.504423329014486" lon="10.858541599961931"><ele>260.0</ele><time>2026-04-18T07:21:00.999Z</time></trkpt><trkpt lat="44.50431041506644" lon="10.858486383975714"><ele>260.0</ele><time>2026-04-18T07:21:01.999Z</time></trkpt><trkpt lat="44.504201929099416" lon="10.858438360530393"><ele>260.0</ele><time>2026-04-18T07:21:02.999Z</time></trkpt><trkpt lat="44.50409299899894" lon="10.858389742040272"><ele>260.0</ele><time>2026-04-18T07:21:03.999Z</time></trkpt><trkpt lat="44.50398832558518" lon="10.85832724128748"><ele>260.0</ele><time>2026-04-18T07:21:04.999Z</time></trkpt><trkpt lat="44.50388166024744" lon="10.858267968882929"><ele>260.0</ele><time>2026-04-18T07:21:05.999Z</time></trkpt><trkpt lat="44.50377731467721" lon="10.858206478663048"><ele>260.0</ele><time>2026-04-18T07:21:06.999Z</time></trkpt><trkpt lat="44.50367183853619" lon="10.858149689624138"><ele>260.0</ele><time>2026-04-18T07:21:07.999Z</time></trkpt><trkpt lat="44.503567393364506" lon="10.858080458683565"><ele>260.0</ele><time>2026-04-18T07:21:08.999Z</time></trkpt><trkpt lat="44.50345451347602" lon="10.858008143828906"><ele>260.0</ele><time>2026-04-18T07:21:09.999Z</time></trkpt><trkpt lat="44.5033210663994" lon="10.857934217076965"><ele>260.0</ele><time>2026-04-18T07:21:10.999Z</time></trkpt><trkpt lat="44.50319361548601" lon="10.857862986027579"><ele>260.0</ele><time>2026-04-18T07:21:11.999Z</time></trkpt><trkpt lat="44.50307216342081" lon="10.857792227824307"><ele>260.0</ele><time>2026-04-18T07:21:12.999Z</time></trkpt><trkpt lat="44.502949855107666" lon="10.8577197577185"><ele>260.0</ele><time>2026-04-18T07:21:13.999Z</time></trkpt><trkpt lat="44.50283072030591" lon="10.857639046738326"><ele>260.0</ele><time>2026-04-18T07:21:14.999Z</time></trkpt><trkpt lat="44.502710563905" lon="10.857553637194174"><ele>260.0</ele><time>2026-04-18T07:21:15.999Z</time></trkpt><trkpt lat="44.502584456288794" lon="10.857462342850672"><ele>260.0</ele><time>2026-04-18T07:21:16.999Z</time></trkpt><trkpt lat="44.50245602480181" lon="10.857352742979892"><ele>260.0</ele><time>2026-04-18T07:21:17.999Z</time></trkpt><trkpt lat="44.5023366209332" lon="10.857262767230813"><ele>260.0</ele><time>2026-04-18T07:21:18.999Z</time></trkpt><trkpt lat="44.502209670415894" lon="10.85715505181595"><ele>260.0</ele><time>2026-04-18T07:21:19.999Z</time></trkpt><trkpt lat="44.50208564217585" lon="10.857052889299602"><ele>258.0</ele><time>2026-04-18T07:21:20.999Z</time></trkpt><trkpt lat="44.50195024701284" lon="10.85695968117791"><ele>256.0</ele><time>2026-04-18T07:21:21.999Z</time></trkpt><trkpt lat="44.50179675404302" lon="10.856889846947661"><ele>254.0</ele><time>2026-04-18T07:21:22.999Z</time></trkpt><trkpt lat="44.50164147027157" lon="10.856846153657962"><ele>254.0</ele><time>2026-04-18T07:21:23.999Z</time></trkpt><trkpt lat="44.50149206231564" lon="10.856804459005053"><ele>254.0</ele><time>2026-04-18T07:21:24.999Z</time></trkpt><trkpt lat="44.50133325306732" lon="10.856768373819547"><ele>254.0</ele><time>2026-04-18T07:21:25.999Z</time></trkpt><trkpt lat="44.50117172439706" lon="10.856737535008017"><ele>256.0</ele><time>2026-04-18T07:21:26.999Z</time></trkpt><trkpt lat="44.501007821971854" lon="10.856698799273405"><ele>258.0</ele><time>2026-04-18T07:21:27.999Z</time></trkpt><trkpt lat="44.50085469828096" lon="10.856652052497953"><ele>260.0</ele><time>2026-04-18T07:21:28.999Z</time></trkpt><trkpt lat="44.500708217154276" lon="10.856614069568037"><ele>260.0</ele><time>2026-04-18T07:21:29.999Z</time></trkpt><trkpt lat="44.50056184532734" lon="10.856570419486196"><ele>260.0</ele><time>2026-04-18T07:21:30.999Z</time></trkpt><trkpt lat="44.50042716913424" lon="10.856523140054385"><ele>260.0</ele><time>2026-04-18T07:21:32Z</time></trkpt><trkpt lat="44.500284275998325" lon="10.856463011811769"><ele>260.0</ele><time>2026-04-18T07:21:33Z</time></trkpt><trkpt lat="44.500139061026324" lon="10.856394246471615"><ele>263.33333333333337</ele><time>2026-04-18T07:21:34Z</time></trkpt><trkpt lat="44.499983783078186" lon="10.856340941364355"><ele>266.6666666666667</ele><time>2026-04-18T07:21:35Z</time></trkpt><trkpt lat="44.49982540023509" lon="10.85631043209719"><ele>270.0</ele><time>2026-04-18T07:21:36Z</time></trkpt><trkpt lat="44.499665666806685" lon="10.856320003858139"><ele>272.6666666666667</ele><time>2026-04-18T07:21:37Z</time></trkpt><trkpt lat="44.49950451554651" lon="10.856361818195687"><ele>275.33333333333337</ele><time>2026-04-18T07:21:38Z</time></trkpt><trkpt lat="44.49934390364685" lon="10.8564264409112"><ele>278.0</ele><time>2026-04-18T07:21:39Z</time></trkpt><trkpt lat="44.49918258760223" lon="10.856483806748837"><ele>278.0</ele><time>2026-04-18T07:21:40Z</time></trkpt><trkpt lat="44.499013693374806" lon="10.856522884622427"><ele>278.0</ele><time>2026-04-18T07:21:41Z</time></trkpt><trkpt lat="44.498844290034235" lon="10.856534320688409"><ele>278.0</ele><time>2026-04-18T07:21:42Z</time></trkpt><trkpt lat="44.49868195490321" lon="10.856546421824506"><ele>279.33333333333337</ele><time>2026-04-18T07:21:43Z</time></trkpt><trkpt lat="44.4985209795085" lon="10.856562561816451"><ele>280.6666666666667</ele><time>2026-04-18T07:21:44Z</time></trkpt><trkpt lat="44.498370387469386" lon="10.856558834629652"><ele>282.0</ele><time>2026-04-18T07:21:45Z</time></trkpt><trkpt lat="44.49823298930853" lon="10.856529081012456"><ele>282.0</ele><time>2026-04-18T07:21:46Z</time></trkpt><trkpt lat="44.498087234282195" lon="10.856506195127963"><ele>282.0</ele><time>2026-04-18T07:21:47Z</time></trkpt><trkpt lat="44.497930995030444" lon="10.856482700382555"><ele>282.0</ele><time>2026-04-18T07:21:48Z</time></trkpt><trkpt lat="44.49776899655294" lon="10.856458427597268"><ele>282.0</ele><time>2026-04-18T07:21:49Z</time></trkpt><trkpt lat="44.497595121865196" lon="10.856434295259932"><ele>282.0</ele><time>2026-04-18T07:21:50Z</time></trkpt><trkpt lat="44.49742826112438" lon="10.856403518708946"><ele>282.0</ele><time>2026-04-18T07:21:51Z</time></trkpt><trkpt lat="44.497299954804" lon="10.85633772919999"><ele>282.0</ele><time>2026-04-18T07:21:52Z</time></trkpt><trkpt lat="44.497176217904496" lon="10.856250746552243"><ele>282.0</ele><time>2026-04-18T07:21:53Z</time></trkpt><trkpt lat="44.49706080625826" lon="10.856128997914178"><ele>282.0</ele><time>2026-04-18T07:21:54Z</time></trkpt><trkpt lat="44.496968004825334" lon="10.855986365649903"><ele>282.0</ele><time>2026-04-18T07:21:55Z</time></trkpt><trkpt lat="44.496890353686105" lon="10.855838753204342"><ele>281.2</ele><time>2026-04-18T07:21:56Z</time></trkpt><trkpt lat="44.4968314838287" lon="10.855695810679643"><ele>280.4</ele><time>2026-04-18T07:21:57Z</time></trkpt><trkpt lat="44.49678305845638" lon="10.855559987583346"><ele>279.6</ele><time>2026-04-18T07:21:58Z</time></trkpt><trkpt lat="44.49673565500747" lon="10.855446993048197"><ele>278.8</ele><time>2026-04-18T07:21:59Z</time></trkpt><trkpt lat="44.49668214047284" lon="10.855335517616288"><ele>278.0</ele><time>2026-04-18T07:22:00Z</time></trkpt><trkpt lat="44.49662471021913" lon="10.85522040533248"><ele>277.4</ele><time>2026-04-18T07:22:01Z</time></trkpt><trkpt lat="44.496559799841116" lon="10.855095675330324"><ele>276.8</ele><time>2026-04-18T07:22:02Z</time></trkpt><trkpt lat="44.49649352673359" lon="10.854972220178404"><ele>276.2</ele><time>2026-04-18T07:22:03Z</time></trkpt><trkpt lat="44.49643132231083" lon="10.854870741467957"><ele>275.6</ele><time>2026-04-18T07:22:04Z</time></trkpt><trkpt lat="44.496383042768144" lon="10.854804134084182"><ele>275.0</ele><time>2026-04-18T07:22:05Z</time></trkpt><trkpt lat="44.49633812377394" lon="10.854735447243776"><ele>275.0</ele><time>2026-04-18T07:22:06Z</time></trkpt><trkpt lat="44.49630590554692" lon="10.854656083177574"><ele>275.0</ele><time>2026-04-18T07:22:08Z</time></trkpt><trkpt lat="44.49620350626725" lon="10.854737718877443"><ele>275.0</ele><time>2026-04-18T07:22:10Z</time></trkpt><trkpt lat="44.496111593796066" lon="10.85480650187573"><ele>275.0</ele><time>2026-04-18T07:22:12Z</time></trkpt><trkpt lat="44.496006475802105" lon="10.854867797488602"><ele>275.0</ele><time>2026-04-18T07:22:14Z</time></trkpt><trkpt lat="44.49594065285092" lon="10.854893302886623"><ele>275.1666666666667</ele><time>2026-04-18T07:22:15Z</time></trkpt><trkpt lat="44.49587867766344" lon="10.854933810576338"><ele>275.33333333333337</ele><time>2026-04-18T07:22:16Z</time></trkpt><trkpt lat="44.49580995633468" lon="10.854935416268505"><ele>275.5</ele><time>2026-04-18T07:22:17Z</time></trkpt><trkpt lat="44.495732962414976" lon="10.854916700722779"><ele>275.6666666666667</ele><time>2026-04-18T07:22:18Z</time></trkpt><trkpt lat="44.49562807210141" lon="10.854890274896988"><ele>275.8333333333333</ele><time>2026-04-18T07:22:19Z</time></trkpt><trkpt lat="44.495514604578396" lon="10.854856375670273"><ele>276.0</ele><time>2026-04-18T07:22:20Z</time></trkpt><trkpt lat="44.49542883162539" lon="10.854809436085628"><ele>273.8</ele><time>2026-04-18T07:22:21Z</time></trkpt><trkpt lat="44.49533818230913" lon="10.854778200649848"><ele>271.6</ele><time>2026-04-18T07:22:22Z</time></trkpt><trkpt lat="44.495237668007476" lon="10.854752597452418"><ele>269.4</ele><time>2026-04-18T07:22:23Z</time></trkpt><trkpt lat="44.49515399582978" lon="10.85471577935794"><ele>267.2</ele><time>2026-04-18T07:22:24Z</time></trkpt><trkpt lat="44.495060486826866" lon="10.85471227575318"><ele>265.0</ele><time>2026-04-18T07:22:25Z</time></trkpt><trkpt lat="44.49497639446637" lon="10.854762277603069"><ele>265.0</ele><time>2026-04-18T07:22:26Z</time></trkpt><trkpt lat="44.49486515055841" lon="10.854821670615845"><ele>265.0</ele><time>2026-04-18T07:22:27Z</time></trkpt><trkpt lat="44.494726480606886" lon="10.854895489147713"><ele>265.0</ele><time>2026-04-18T07:22:28Z</time></trkpt><trkpt lat="44.494582412309086" lon="10.85498320822094"><ele>265.0</ele><time>2026-04-18T07:22:29Z</time></trkpt><trkpt lat="44.49444848266322" lon="10.855046545223908"><ele>265.75</ele><time>2026-04-18T07:22:30Z</time></trkpt><trkpt lat="44.49433587907363" lon="10.85510229136966"><ele>266.5</ele><time>2026-04-18T07:22:31Z</time></trkpt><trkpt lat="44.49423897362575" lon="10.855188778533636"><ele>267.25</ele><time>2026-04-18T07:22:32Z</time></trkpt><trkpt lat="44.49413381182918" lon="10.85529066363971"><ele>268.0</ele><time>2026-04-18T07:22:33Z</time></trkpt><trkpt lat="44.4940245643996" lon="10.855408922281836"><ele>269.25</ele><time>2026-04-18T07:22:34Z</time></trkpt><trkpt lat="44.49390421660256" lon="10.855537435612067"><ele>270.5</ele><time>2026-04-18T07:22:35Z</time></trkpt><trkpt lat="44.493772673184154" lon="10.855644254621717"><ele>271.75</ele><time>2026-04-18T07:22:36Z</time></trkpt><trkpt lat="44.493670857495985" lon="10.855752877136714"><ele>273.0</ele><time>2026-04-18T07:22:37Z</time></trkpt><trkpt lat="44.49358508929851" lon="10.855854645827378"><ele>271.6666666666667</ele><time>2026-04-18T07:22:38Z</time></trkpt><trkpt lat="44.49352628883761" lon="10.855960036201331"><ele>270.3333333333333</ele><time>2026-04-18T07:22:39Z</time></trkpt><trkpt lat="44.49346615737905" lon="10.856032539440312"><ele>269.0</ele><time>2026-04-18T07:22:40Z</time></trkpt><trkpt lat="44.49341817822278" lon="10.856105631585573"><ele>267.66666666666663</ele><time>2026-04-18T07:22:41Z</time></trkpt><trkpt lat="44.49338793516799" lon="10.856202286346756"><ele>266.3333333333333</ele><time>2026-04-18T07:22:42Z</time></trkpt><trkpt lat="44.49335618702591" lon="10.856312970854791"><ele>265.0</ele><time>2026-04-18T07:22:43Z</time></trkpt><trkpt lat="44.493365396899854" lon="10.856443634596301"><ele>265.0</ele><time>2026-04-18T07:22:44Z</time></trkpt><trkpt lat="44.49343026277474" lon="10.856576784748821"><ele>265.0</ele><time>2026-04-18T07:22:45Z</time></trkpt><trkpt lat="44.493489392812286" lon="10.85673230536704"><ele>265.0</ele><time>2026-04-18T07:22:46Z</time></trkpt><trkpt lat="44.49355791672267" lon="10.856878132095485"><ele>265.0</ele><time>2026-04-18T07:22:47Z</time></trkpt><trkpt lat="44.49360422715474" lon="10.857016824803514"><ele>263.4</ele><time>2026-04-18T07:22:48Z</time></trkpt><trkpt lat="44.49365572046908" lon="10.857148212710479"><ele>261.8</ele><time>2026-04-18T07:22:49Z</time></trkpt><trkpt lat="44.493702922279994" lon="10.857276124434787"><ele>260.2</ele><time>2026-04-18T07:22:50Z</time></trkpt><trkpt lat="44.493755385978446" lon="10.85739196121494"><ele>258.6</ele><time>2026-04-18T07:22:51Z</time></trkpt><trkpt lat="44.493789758082535" lon="10.857526810421271"><ele>257.0</ele><time>2026-04-18T07:22:52Z</time></trkpt><trkpt lat="44.49382937183307" lon="10.857691178230686"><ele>253.2</ele><time>2026-04-18T07:22:53Z</time></trkpt><trkpt lat="44.493867828793995" lon="10.857848256202207"><ele>249.39999999999998</ele><time>2026-04-18T07:22:54Z</time></trkpt><trkpt lat="44.49390094890218" lon="10.85799306024289"><ele>245.60000000000002</ele><time>2026-04-18T07:22:55Z</time></trkpt><trkpt lat="44.49393109174533" lon="10.85813430119101"><ele>241.8</ele><time>2026-04-18T07:22:56Z</time></trkpt><trkpt lat="44.49394838501291" lon="10.858258935390829"><ele>238.0</ele><time>2026-04-18T07:22:56.999Z</time></trkpt><trkpt lat="44.493942293504716" lon="10.858372053382253"><ele>237.2</ele><time>2026-04-18T07:22:57.999Z</time></trkpt><trkpt lat="44.493920425525694" lon="10.858478468839131"><ele>236.4</ele><time>2026-04-18T07:22:58.999Z</time></trkpt><trkpt lat="44.49389483893038" lon="10.858605564196388"><ele>235.59999999999997</ele><time>2026-04-18T07:22:59.999Z</time></trkpt><trkpt lat="44.49384674155785" lon="10.85873980020231"><ele>234.79999999999998</ele><time>2026-04-18T07:23:00.999Z</time></trkpt><trkpt lat="44.49380195954992" lon="10.85885376934889"><ele>234.0</ele><time>2026-04-18T07:23:01.999Z</time></trkpt><trkpt lat="44.493757290405554" lon="10.85896656890998"><ele>233.79999999999998</ele><time>2026-04-18T07:23:02.999Z</time></trkpt><trkpt lat="44.49371257209271" lon="10.859078479656725"><ele>233.59999999999997</ele><time>2026-04-18T07:23:03.999Z</time></trkpt><trkpt lat="44.49366652931521" lon="10.859183727582403"><ele>233.4</ele><time>2026-04-18T07:23:04.999Z</time></trkpt><trkpt lat="44.493626763777016" lon="10.859303775740967"><ele>233.2</ele><time>2026-04-18T07:23:05.999Z</time></trkpt><trkpt lat="44.49357889776589" lon="10.859443640202597"><ele>233.0</ele><time>2026-04-18T07:23:06.999Z</time></trkpt><trkpt lat="44.49353572282307" lon="10.859573017040663"><ele>233.0</ele><time>2026-04-18T07:23:07.999Z</time></trkpt><trkpt lat="44.49349572749164" lon="10.859687090834425"><ele>233.0</ele><time>2026-04-18T07:23:08.999Z</time></trkpt><trkpt lat="44.49345621349765" lon="10.859803424952247"><ele>233.0</ele><time>2026-04-18T07:23:09.999Z</time></trkpt><trkpt lat="44.49341757448234" lon="10.85991546432863"><ele>233.0</ele><time>2026-04-18T07:23:10.999Z</time></trkpt><trkpt lat="44.493374589677316" lon="10.860040605629067"><ele>233.0</ele><time>2026-04-18T07:23:11.999Z</time></trkpt><trkpt lat="44.493337281815606" lon="10.860170832984167"><ele>232.0</ele><time>2026-04-18T07:23:12.999Z</time></trkpt><trkpt lat="44.493307304671134" lon="10.860300310744114"><ele>231.0</ele><time>2026-04-18T07:23:13.999Z</time></trkpt><trkpt lat="44.49329048525266" lon="10.860427634929174"><ele>230.0</ele><time>2026-04-18T07:23:14.999Z</time></trkpt><trkpt lat="44.49327842810923" lon="10.860561385757723"><ele>229.0</ele><time>2026-04-18T07:23:15.999Z</time></trkpt><trkpt lat="44.493264537629074" lon="10.86069966398503"><ele>228.0</ele><time>2026-04-18T07:23:16.999Z</time></trkpt><trkpt lat="44.493249691364916" lon="10.860818968880718"><ele>228.0</ele><time>2026-04-18T07:23:17.999Z</time></trkpt><trkpt lat="44.49323608112179" lon="10.860946868646417"><ele>228.0</ele><time>2026-04-18T07:23:18.999Z</time></trkpt><trkpt lat="44.49322441674733" lon="10.861093438282083"><ele>228.0</ele><time>2026-04-18T07:23:19.999Z</time></trkpt><trkpt lat="44.49321322700633" lon="10.861252564104351"><ele>228.0</ele><time>2026-04-18T07:23:20.999Z</time></trkpt><trkpt lat="44.49319912111317" lon="10.861396340909634"><ele>228.0</ele><time>2026-04-18T07:23:21.999Z</time></trkpt><trkpt lat="44.49318870089263" lon="10.861525233542555"><ele>226.5</ele><time>2026-04-18T07:23:22.999Z</time></trkpt><trkpt lat="44.493181654873155" lon="10.86165335597467"><ele>225.0</ele><time>2026-04-18T07:23:23.999Z</time></trkpt><trkpt lat="44.49317215468254" lon="10.861779841737658"><ele>223.5</ele><time>2026-04-18T07:23:24.999Z</time></trkpt><trkpt lat="44.49315189941858" lon="10.861900111354494"><ele>222.0</ele><time>2026-04-18T07:23:25.999Z</time></trkpt><trkpt lat="44.493133098607835" lon="10.862017609835778"><ele>220.5</ele><time>2026-04-18T07:23:26.999Z</time></trkpt><trkpt lat="44.493101105802936" lon="10.862100515579222"><ele>219.0</ele><time>2026-04-18T07:23:27.999Z</time></trkpt><trkpt lat="44.49303691300241" lon="10.862145000042831"><ele>216.39999999999998</ele><time>2026-04-18T07:23:28.999Z</time></trkpt><trkpt lat="44.4929625003658" lon="10.862134298556178"><ele>213.79999999999998</ele><time>2026-04-18T07:23:29.999Z</time></trkpt><trkpt lat="44.49290774920376" lon="10.86203907495357"><ele>211.2</ele><time>2026-04-18T07:23:30.999Z</time></trkpt><trkpt lat="44.49281426422184" lon="10.86196684274388"><ele>208.60000000000002</ele><time>2026-04-18T07:23:31.999Z</time></trkpt><trkpt lat="44.49270383675846" lon="10.861873788799953"><ele>206.0</ele><time>2026-04-18T07:23:32.999Z</time></trkpt><trkpt lat="44.49259721535087" lon="10.861787581762364"><ele>208.4</ele><time>2026-04-18T07:23:33.999Z</time></trkpt><trkpt lat="44.4925007087089" lon="10.86173414978312"><ele>210.8</ele><time>2026-04-18T07:23:34.999Z</time></trkpt><trkpt lat="44.49241445435081" lon="10.861685519908773"><ele>213.20000000000002</ele><time>2026-04-18T07:23:35.999Z</time></trkpt><trkpt lat="44.492326897701005" lon="10.861674400386892"><ele>215.60000000000002</ele><time>2026-04-18T07:23:36.999Z</time></trkpt><trkpt lat="44.492234243180334" lon="10.8617119282775"><ele>218.0</ele><time>2026-04-18T07:23:38Z</time></trkpt><trkpt lat="44.492128975108116" lon="10.86177623687086"><ele>214.8</ele><time>2026-04-18T07:23:39Z</time></trkpt><trkpt lat="44.492036155911975" lon="10.861855347964827"><ele>211.60000000000002</ele><time>2026-04-18T07:23:40Z</time></trkpt><trkpt lat="44.4919510494612" lon="10.861934803681205"><ele>208.39999999999998</ele><time>2026-04-18T07:23:41Z</time></trkpt><trkpt lat="44.491866563611325" lon="10.862011741653031"><ele>205.2</ele><time>2026-04-18T07:23:42Z</time></trkpt><trkpt lat="44.49178171509978" lon="10.862062288204692"><ele>202.0</ele><time>2026-04-18T07:23:43Z</time></trkpt><trkpt lat="44.49170366267268" lon="10.862136848749847"><ele>202.0</ele><time>2026-04-18T07:23:44Z</time></trkpt><trkpt lat="44.4916348454578" lon="10.862233120195995"><ele>202.0</ele><time>2026-04-18T07:23:45Z</time></trkpt><trkpt lat="44.49158723295422" lon="10.86234406486687"><ele>202.0</ele><time>2026-04-18T07:23:46Z</time></trkpt><trkpt lat="44.49155729095207" lon="10.862470949126681"><ele>202.0</ele><time>2026-04-18T07:23:47Z</time></trkpt><trkpt lat="44.4915321199044" lon="10.86265050156293"><ele>202.0</ele><time>2026-04-18T07:23:48Z</time></trkpt><trkpt lat="44.4914991553839" lon="10.862813803612221"><ele>199.83333333333331</ele><time>2026-04-18T07:23:49Z</time></trkpt><trkpt lat="44.49146900598412" lon="10.862944467440027"><ele>197.66666666666666</ele><time>2026-04-18T07:23:50Z</time></trkpt><trkpt lat="44.49144850222074" lon="10.86306289822875"><ele>195.5</ele><time>2026-04-18T07:23:51Z</time></trkpt><trkpt lat="44.49142760958877" lon="10.86316582808349"><ele>193.33333333333331</ele><time>2026-04-18T07:23:52Z</time></trkpt><trkpt lat="44.49140370760258" lon="10.863299544925667"><ele>191.16666666666666</ele><time>2026-04-18T07:23:54Z</time></trkpt><trkpt lat="44.49137452727162" lon="10.863400572797456"><ele>189.0</ele><time>2026-04-18T07:24:01Z</time></trkpt><trkpt lat="44.49133008416334" lon="10.86346769923983"><ele>189.25</ele><time>2026-04-18T07:24:14Z</time></trkpt><trkpt lat="44.49120655696979" lon="10.863424830558735"><ele>189.5</ele><time>2026-04-18T07:24:16Z</time></trkpt><trkpt lat="44.49114024407621" lon="10.863354278142518"><ele>189.75</ele><time>2026-04-18T07:24:17Z</time></trkpt><trkpt lat="44.49105449525695" lon="10.863291899408647"><ele>190.0</ele><time>2026-04-18T07:24:18Z</time></trkpt><trkpt lat="44.4909195374906" lon="10.863189913194015"><ele>190.0</ele><time>2026-04-18T07:24:19Z</time></trkpt><trkpt lat="44.49076398638874" lon="10.863068193367615"><ele>190.0</ele><time>2026-04-18T07:24:20Z</time></trkpt><trkpt lat="44.49058748162275" lon="10.862931200520919"><ele>190.0</ele><time>2026-04-18T07:24:21Z</time></trkpt><trkpt lat="44.49042897057342" lon="10.862806112560706"><ele>190.0</ele><time>2026-04-18T07:24:22Z</time></trkpt><trkpt lat="44.490268426822354" lon="10.862674296587967"><ele>190.0</ele><time>2026-04-18T07:24:23Z</time></trkpt><trkpt lat="44.49009077112093" lon="10.862527816765102"><ele>190.0</ele><time>2026-04-18T07:24:24Z</time></trkpt><trkpt lat="44.48991956660242" lon="10.86238964183762"><ele>189.66666666666669</ele><time>2026-04-18T07:24:25Z</time></trkpt><trkpt lat="44.48974933695433" lon="10.862249067887358"><ele>189.33333333333334</ele><time>2026-04-18T07:24:26Z</time></trkpt><trkpt lat="44.48958252385193" lon="10.862109816284566"><ele>189.0</ele><time>2026-04-18T07:24:27Z</time></trkpt><trkpt lat="44.48942642253158" lon="10.861977064753926"><ele>189.0</ele><time>2026-04-18T07:24:28Z</time></trkpt><trkpt lat="44.4892732923685" lon="10.861850673770531"><ele>189.0</ele><time>2026-04-18T07:24:29Z</time></trkpt><trkpt lat="44.489123030536454" lon="10.861727599683284"><ele>189.0</ele><time>2026-04-18T07:24:30Z</time></trkpt><trkpt lat="44.488972242758464" lon="10.86160510396976"><ele>189.0</ele><time>2026-04-18T07:24:31Z</time></trkpt><trkpt lat="44.48882107608831" lon="10.861479517741593"><ele>189.0</ele><time>2026-04-18T07:24:32Z</time></trkpt><trkpt lat="44.4886714794512" lon="10.861357059851573"><ele>189.0</ele><time>2026-04-18T07:24:33Z</time></trkpt><trkpt lat="44.488523993871375" lon="10.86123720765364"><ele>189.66666666666666</ele><time>2026-04-18T07:24:34Z</time></trkpt><trkpt lat="44.488384406762634" lon="10.86112257763382"><ele>190.33333333333331</ele><time>2026-04-18T07:24:35Z</time></trkpt><trkpt lat="44.48824074900938" lon="10.861003956704392"><ele>191.0</ele><time>2026-04-18T07:24:36Z</time></trkpt><trkpt lat="44.488101841779034" lon="10.860887220539002"><ele>191.66666666666666</ele><time>2026-04-18T07:24:37Z</time></trkpt><trkpt lat="44.48796416143088" lon="10.860769373153017"><ele>192.33333333333331</ele><time>2026-04-18T07:24:38Z</time></trkpt><trkpt lat="44.48782461003784" lon="10.860655088747551"><ele>193.0</ele><time>2026-04-18T07:24:39Z</time></trkpt><trkpt lat="44.48768733720177" lon="10.860543085678637"><ele>193.0</ele><time>2026-04-18T07:24:40Z</time></trkpt><trkpt lat="44.487548354921294" lon="10.860423941530376"><ele>193.0</ele><time>2026-04-18T07:24:41Z</time></trkpt><trkpt lat="44.48740669484759" lon="10.860306086987363"><ele>193.0</ele><time>2026-04-18T07:24:42Z</time></trkpt><trkpt lat="44.48726311618147" lon="10.860190555886572"><ele>193.66666666666666</ele><time>2026-04-18T07:24:43Z</time></trkpt><trkpt lat="44.48712627383767" lon="10.860069182850996"><ele>194.33333333333331</ele><time>2026-04-18T07:24:44Z</time></trkpt><trkpt lat="44.486983780790645" lon="10.85995262340814"><ele>195.0</ele><time>2026-04-18T07:24:45Z</time></trkpt><trkpt lat="44.48685224169921" lon="10.859842965075382"><ele>196.0</ele><time>2026-04-18T07:24:46Z</time></trkpt><trkpt lat="44.48671805550187" lon="10.859724093697707"><ele>197.0</ele><time>2026-04-18T07:24:47Z</time></trkpt><trkpt lat="44.486590196538835" lon="10.859588076567178"><ele>198.0</ele><time>2026-04-18T07:24:48Z</time></trkpt><trkpt lat="44.486469507478375" lon="10.859440770049966"><ele>198.66666666666669</ele><time>2026-04-18T07:24:49Z</time></trkpt><trkpt lat="44.486366659726436" lon="10.859274942826472"><ele>199.33333333333334</ele><time>2026-04-18T07:24:50Z</time></trkpt><trkpt lat="44.48627289436253" lon="10.85909870909905"><ele>200.0</ele><time>2026-04-18T07:24:51Z</time></trkpt><trkpt lat="44.48617663194619" lon="10.858923071313724"><ele>200.0</ele><time>2026-04-18T07:24:52Z</time></trkpt><trkpt lat="44.48608465672552" lon="10.858753753558853"><ele>200.0</ele><time>2026-04-18T07:24:53Z</time></trkpt><trkpt lat="44.48600077595294" lon="10.858595015085115"><ele>200.0</ele><time>2026-04-18T07:24:54Z</time></trkpt><trkpt lat="44.48591320327139" lon="10.858436882910713"><ele>200.0</ele><time>2026-04-18T07:24:55Z</time></trkpt><trkpt lat="44.48582199693834" lon="10.858280537393416"><ele>201.0</ele><time>2026-04-18T07:24:56Z</time></trkpt><trkpt lat="44.48573375111094" lon="10.858121226941114"><ele>202.0</ele><time>2026-04-18T07:24:57Z</time></trkpt><trkpt lat="44.48564683841729" lon="10.857962033036314"><ele>203.0</ele><time>2026-04-18T07:24:58Z</time></trkpt><trkpt lat="44.485557849110336" lon="10.857801332107213"><ele>204.0</ele><time>2026-04-18T07:24:59Z</time></trkpt><trkpt lat="44.48546946971781" lon="10.857639617521498"><ele>203.66666666666669</ele><time>2026-04-18T07:25:00Z</time></trkpt><trkpt lat="44.48538137857324" lon="10.857475405235178"><ele>203.33333333333334</ele><time>2026-04-18T07:25:01Z</time></trkpt><trkpt lat="44.48528848627471" lon="10.85730713855045"><ele>203.0</ele><time>2026-04-18T07:25:02Z</time></trkpt><trkpt lat="44.485186636676815" lon="10.857132729396094"><ele>203.0</ele><time>2026-04-18T07:25:02.999Z</time></trkpt><trkpt lat="44.48507693773809" lon="10.856964965532908"><ele>203.0</ele><time>2026-04-18T07:25:03.999Z</time></trkpt><trkpt lat="44.48495126577463" lon="10.856812054798425"><ele>203.0</ele><time>2026-04-18T07:25:04.999Z</time></trkpt><trkpt lat="44.48481380739062" lon="10.856678036294891"><ele>203.66666666666669</ele><time>2026-04-18T07:25:05.999Z</time></trkpt><trkpt lat="44.48467252377427" lon="10.856553100633823"><ele>204.33333333333331</ele><time>2026-04-18T07:25:06.999Z</time></trkpt><trkpt lat="44.48452968384609" lon="10.856447126029503"><ele>205.0</ele><time>2026-04-18T07:25:07.999Z</time></trkpt><trkpt lat="44.48437999256231" lon="10.856362490756661"><ele>205.0</ele><time>2026-04-18T07:25:08.999Z</time></trkpt><trkpt lat="44.48422784356892" lon="10.856291411234444"><ele>205.0</ele><time>2026-04-18T07:25:09.999Z</time></trkpt><trkpt lat="44.4840733082666" lon="10.85623615882713"><ele>205.0</ele><time>2026-04-18T07:25:10.999Z</time></trkpt><trkpt lat="44.483920548018" lon="10.856184895916734"><ele>205.0</ele><time>2026-04-18T07:25:11.999Z</time></trkpt><trkpt lat="44.483765368223075" lon="10.856133218278076"><ele>205.0</ele><time>2026-04-18T07:25:12.999Z</time></trkpt><trkpt lat="44.48360702919837" lon="10.856085005104639"><ele>205.0</ele><time>2026-04-18T07:25:13.999Z</time></trkpt><trkpt lat="44.48345052851547" lon="10.856035192622102"><ele>205.33333333333331</ele><time>2026-04-18T07:25:14.999Z</time></trkpt><trkpt lat="44.48329215903272" lon="10.855983499653496"><ele>205.66666666666669</ele><time>2026-04-18T07:25:15.999Z</time></trkpt><trkpt lat="44.48313340501609" lon="10.855930709593297"><ele>206.0</ele><time>2026-04-18T07:25:16.999Z</time></trkpt><trkpt lat="44.4829755546022" lon="10.855878804336603"><ele>206.66666666666669</ele><time>2026-04-18T07:25:17.999Z</time></trkpt><trkpt lat="44.48282242751856" lon="10.855829589569625"><ele>207.33333333333331</ele><time>2026-04-18T07:25:18.999Z</time></trkpt><trkpt lat="44.48267101839034" lon="10.855778511169348"><ele>208.0</ele><time>2026-04-18T07:25:19.999Z</time></trkpt><trkpt lat="44.482523425001204" lon="10.855729015076927"><ele>208.0</ele><time>2026-04-18T07:25:20.999Z</time></trkpt><trkpt lat="44.482371478778006" lon="10.85567894252582"><ele>208.0</ele><time>2026-04-18T07:25:21.999Z</time></trkpt><trkpt lat="44.482219761728274" lon="10.855624693553384"><ele>208.0</ele><time>2026-04-18T07:25:22.999Z</time></trkpt><trkpt lat="44.482068262863514" lon="10.855570388598808"><ele>208.0</ele><time>2026-04-18T07:25:23.999Z</time></trkpt><trkpt lat="44.48191463922234" lon="10.855510201632555"><ele>208.0</ele><time>2026-04-18T07:25:24.999Z</time></trkpt><trkpt lat="44.48175544786205" lon="10.855433308226505"><ele>208.0</ele><time>2026-04-18T07:25:25.999Z</time></trkpt><trkpt lat="44.48159386010986" lon="10.855342934330654"><ele>208.0</ele><time>2026-04-18T07:25:26.999Z</time></trkpt><trkpt lat="44.48143712955617" lon="10.8552395024786"><ele>208.0</ele><time>2026-04-18T07:25:27.999Z</time></trkpt><trkpt lat="44.481284975366606" lon="10.855130587015124"><ele>208.0</ele><time>2026-04-18T07:25:28.999Z</time></trkpt><trkpt lat="44.48114497242743" lon="10.855006704871432"><ele>209.0</ele><time>2026-04-18T07:25:29.999Z</time></trkpt><trkpt lat="44.48100432477371" lon="10.854876447000322"><ele>210.0</ele><time>2026-04-18T07:25:30.999Z</time></trkpt><trkpt lat="44.480867354931526" lon="10.854732951324529"><ele>211.0</ele><time>2026-04-18T07:25:31.999Z</time></trkpt><trkpt lat="44.4807286893297" lon="10.854570319101523"><ele>211.0</ele><time>2026-04-18T07:25:32.999Z</time></trkpt><trkpt lat="44.4805934511511" lon="10.854391256507148"><ele>211.0</ele><time>2026-04-18T07:25:33.999Z</time></trkpt><trkpt lat="44.480475308412444" lon="10.854219815640597"><ele>211.0</ele><time>2026-04-18T07:25:34.999Z</time></trkpt><trkpt lat="44.48034678232223" lon="10.854040510966216"><ele>213.0</ele><time>2026-04-18T07:25:35.999Z</time></trkpt><trkpt lat="44.48019013506585" lon="10.853837140521595"><ele>215.0</ele><time>2026-04-18T07:25:36.999Z</time></trkpt><trkpt lat="44.48002628780653" lon="10.853579120006227"><ele>218.0</ele><time>2026-04-18T07:25:37.999Z</time></trkpt><trkpt lat="44.47983668143866" lon="10.853312310147718"><ele>221.0</ele><time>2026-04-18T07:25:38.999Z</time></trkpt><trkpt lat="44.47965468152606" lon="10.85305769803133"><ele>220.5</ele><time>2026-04-18T07:25:39.999Z</time></trkpt><trkpt lat="44.479483025647966" lon="10.852834129355674"><ele>220.0</ele><time>2026-04-18T07:25:40.999Z</time></trkpt><trkpt lat="44.47933505577464" lon="10.852607017345242"><ele>220.0</ele><time>2026-04-18T07:25:41.999Z</time></trkpt><trkpt lat="44.47918945523779" lon="10.852392150209322"><ele>220.0</ele><time>2026-04-18T07:25:42.999Z</time></trkpt><trkpt lat="44.479052906419945" lon="10.852192219835299"><ele>220.0</ele><time>2026-04-18T07:25:44Z</time></trkpt><trkpt lat="44.47890861471573" lon="10.851986475073918"><ele>221.0</ele><time>2026-04-18T07:25:45Z</time></trkpt><trkpt lat="44.47876230720612" lon="10.85178019080663"><ele>222.0</ele><time>2026-04-18T07:25:46Z</time></trkpt><trkpt lat="44.478613919777395" lon="10.851575897384953"><ele>223.0</ele><time>2026-04-18T07:25:47Z</time></trkpt><trkpt lat="44.4784667989671" lon="10.85137940105409"><ele>223.0</ele><time>2026-04-18T07:25:48Z</time></trkpt><trkpt lat="44.478317000156" lon="10.851202015826955"><ele>223.0</ele><time>2026-04-18T07:25:49Z</time></trkpt><trkpt lat="44.47816061430529" lon="10.851050430038354"><ele>223.0</ele><time>2026-04-18T07:25:50Z</time></trkpt><trkpt lat="44.4779962164184" lon="10.850913831307766"><ele>225.0</ele><time>2026-04-18T07:25:51Z</time></trkpt><trkpt lat="44.47783755335362" lon="10.850794737492102"><ele>227.0</ele><time>2026-04-18T07:25:52Z</time></trkpt><trkpt lat="44.47768486862483" lon="10.850677670069926"><ele>229.0</ele><time>2026-04-18T07:25:53Z</time></trkpt><trkpt lat="44.47752313562724" lon="10.850559455398463"><ele>229.0</ele><time>2026-04-18T07:25:54Z</time></trkpt><trkpt lat="44.47735732256412" lon="10.850432938189298"><ele>229.0</ele><time>2026-04-18T07:25:55Z</time></trkpt><trkpt lat="44.47719522976666" lon="10.850308200564008"><ele>229.0</ele><time>2026-04-18T07:25:56Z</time></trkpt><trkpt lat="44.47703874201398" lon="10.85017912171318"><ele>229.33333333333331</ele><time>2026-04-18T07:25:57Z</time></trkpt><trkpt lat="44.47688874721435" lon="10.850062437202187"><ele>229.66666666666669</ele><time>2026-04-18T07:25:58Z</time></trkpt><trkpt lat="44.47673927266382" lon="10.849949652801548"><ele>230.0</ele><time>2026-04-18T07:25:59Z</time></trkpt><trkpt lat="44.47659737669313" lon="10.849833341366029"><ele>230.0</ele><time>2026-04-18T07:26:00Z</time></trkpt><trkpt lat="44.476456675335186" lon="10.849718986199138"><ele>230.0</ele><time>2026-04-18T07:26:01Z</time></trkpt><trkpt lat="44.476315922970365" lon="10.849612724397296"><ele>230.0</ele><time>2026-04-18T07:26:02Z</time></trkpt><trkpt lat="44.47617369691747" lon="10.849507522264227"><ele>230.0</ele><time>2026-04-18T07:26:03Z</time></trkpt><trkpt lat="44.476027532833065" lon="10.849402100459077"><ele>230.0</ele><time>2026-04-18T07:26:04Z</time></trkpt><trkpt lat="44.47588414593765" lon="10.849294886660648"><ele>230.0</ele><time>2026-04-18T07:26:05Z</time></trkpt><trkpt lat="44.47574363399019" lon="10.849189922477212"><ele>230.33333333333334</ele><time>2026-04-18T07:26:06Z</time></trkpt><trkpt lat="44.47560172561319" lon="10.849084213818841"><ele>230.66666666666669</ele><time>2026-04-18T07:26:07Z</time></trkpt><trkpt lat="44.475462527773615" lon="10.848975742222672"><ele>231.0</ele><time>2026-04-18T07:26:08Z</time></trkpt><trkpt lat="44.47532352873658" lon="10.848868164369007"><ele>231.0</ele><time>2026-04-18T07:26:09Z</time></trkpt><trkpt lat="44.47518421538751" lon="10.848765607277468"><ele>231.0</ele><time>2026-04-18T07:26:10Z</time></trkpt><trkpt lat="44.47504693376978" lon="10.848659115455728"><ele>231.0</ele><time>2026-04-18T07:26:11Z</time></trkpt><trkpt lat="44.474909493450305" lon="10.84855451674702"><ele>231.33333333333331</ele><time>2026-04-18T07:26:12Z</time></trkpt><trkpt lat="44.47476895076004" lon="10.848446302623799"><ele>231.66666666666666</ele><time>2026-04-18T07:26:13Z</time></trkpt><trkpt lat="44.47461826606687" lon="10.848332906788512"><ele>232.0</ele><time>2026-04-18T07:26:14Z</time></trkpt><trkpt lat="44.4744624822321" lon="10.848215326361906"><ele>231.33333333333331</ele><time>2026-04-18T07:26:15Z</time></trkpt><trkpt lat="44.47430631976745" lon="10.848096819350582"><ele>230.66666666666669</ele><time>2026-04-18T07:26:16Z</time></trkpt><trkpt lat="44.474151438239346" lon="10.847977635962016"><ele>230.0</ele><time>2026-04-18T07:26:17Z</time></trkpt><trkpt lat="44.47399370624454" lon="10.8478570586857"><ele>230.0</ele><time>2026-04-18T07:26:18Z</time></trkpt><trkpt lat="44.47383502651147" lon="10.847742983538422"><ele>230.0</ele><time>2026-04-18T07:26:19Z</time></trkpt><trkpt lat="44.473695901755256" lon="10.84763494946846"><ele>230.0</ele><time>2026-04-18T07:26:20Z</time></trkpt><trkpt lat="44.473553094416985" lon="10.847528967421134"><ele>232.66666666666669</ele><time>2026-04-18T07:26:21Z</time></trkpt><trkpt lat="44.473408249532724" lon="10.847415373782445"><ele>235.33333333333331</ele><time>2026-04-18T07:26:22Z</time></trkpt><trkpt lat="44.47326741509481" lon="10.847304723616936"><ele>238.0</ele><time>2026-04-18T07:26:23Z</time></trkpt><trkpt lat="44.47312349408084" lon="10.847196991969637"><ele>238.0</ele><time>2026-04-18T07:26:24Z</time></trkpt><trkpt lat="44.47298383539439" lon="10.847083231225648"><ele>238.0</ele><time>2026-04-18T07:26:25Z</time></trkpt><trkpt lat="44.47285142257197" lon="10.846957418464907"><ele>238.0</ele><time>2026-04-18T07:26:26Z</time></trkpt><trkpt lat="44.472716043976966" lon="10.846815147339166"><ele>238.66666666666666</ele><time>2026-04-18T07:26:27Z</time></trkpt><trkpt lat="44.47258634369459" lon="10.846656168781095"><ele>239.33333333333331</ele><time>2026-04-18T07:26:28Z</time></trkpt><trkpt lat="44.47246054310793" lon="10.84648951224157"><ele>240.0</ele><time>2026-04-18T07:26:29Z</time></trkpt><trkpt lat="44.47233191074149" lon="10.84631929671116"><ele>240.0</ele><time>2026-04-18T07:26:30Z</time></trkpt><trkpt lat="44.47220299101908" lon="10.84614365698017"><ele>240.0</ele><time>2026-04-18T07:26:31Z</time></trkpt><trkpt lat="44.47207183718046" lon="10.84597318648602"><ele>240.0</ele><time>2026-04-18T07:26:32Z</time></trkpt><trkpt lat="44.47194675642412" lon="10.845801476926352"><ele>238.33333333333331</ele><time>2026-04-18T07:26:33Z</time></trkpt><trkpt lat="44.47181917140595" lon="10.84563431945162"><ele>236.66666666666666</ele><time>2026-04-18T07:26:34Z</time></trkpt><trkpt lat="44.47169122790577" lon="10.845468523459978"><ele>235.0</ele><time>2026-04-18T07:26:35Z</time></trkpt><trkpt lat="44.471571266876744" lon="10.845303454649144"><ele>235.0</ele><time>2026-04-18T07:26:36Z</time></trkpt><trkpt lat="44.471448377752374" lon="10.845141706813736"><ele>235.0</ele><time>2026-04-18T07:26:37Z</time></trkpt><trkpt lat="44.47132290540532" lon="10.84497927070788"><ele>235.0</ele><time>2026-04-18T07:26:38Z</time></trkpt><trkpt lat="44.471204103328475" lon="10.844820073857683"><ele>236.33333333333331</ele><time>2026-04-18T07:26:39Z</time></trkpt><trkpt lat="44.47108598053986" lon="10.844665561362014"><ele>237.66666666666669</ele><time>2026-04-18T07:26:40Z</time></trkpt><trkpt lat="44.470967810511695" lon="10.84451001625859"><ele>239.0</ele><time>2026-04-18T07:26:41Z</time></trkpt><trkpt lat="44.4708487529697" lon="10.844357777720276"><ele>240.33333333333334</ele><time>2026-04-18T07:26:42Z</time></trkpt><trkpt lat="44.470737304705864" lon="10.84421359402216"><ele>241.66666666666669</ele><time>2026-04-18T07:26:43Z</time></trkpt><trkpt lat="44.47062994834297" lon="10.844067826772235"><ele>243.0</ele><time>2026-04-18T07:26:44Z</time></trkpt><trkpt lat="44.470513394408556" lon="10.843916259786209"><ele>242.66666666666669</ele><time>2026-04-18T07:26:45Z</time></trkpt><trkpt lat="44.47039974084458" lon="10.843768927598502"><ele>242.33333333333334</ele><time>2026-04-18T07:26:46Z</time></trkpt><trkpt lat="44.47029014627265" lon="10.843624921822649"><ele>242.0</ele><time>2026-04-18T07:26:47Z</time></trkpt><trkpt lat="44.470180147351776" lon="10.843481874166777"><ele>242.75</ele><time>2026-04-18T07:26:48Z</time></trkpt><trkpt lat="44.47007706508734" lon="10.843343944122875"><ele>243.5</ele><time>2026-04-18T07:26:49Z</time></trkpt><trkpt lat="44.469974809869996" lon="10.84320443805128"><ele>244.25</ele><time>2026-04-18T07:26:50Z</time></trkpt><trkpt lat="44.46986061809426" lon="10.843059873673033"><ele>245.0</ele><time>2026-04-18T07:26:51Z</time></trkpt><trkpt lat="44.46974432859666" lon="10.842904490624896"><ele>245.0</ele><time>2026-04-18T07:26:52Z</time></trkpt><trkpt lat="44.46962599745012" lon="10.842747648368938"><ele>245.0</ele><time>2026-04-18T07:26:53Z</time></trkpt><trkpt lat="44.469504107231785" lon="10.842588039976212"><ele>245.0</ele><time>2026-04-18T07:26:54Z</time></trkpt><trkpt lat="44.46937681825035" lon="10.842425315434244"><ele>244.66666666666669</ele><time>2026-04-18T07:26:55Z</time></trkpt><trkpt lat="44.46923929829535" lon="10.842238945368821"><ele>244.33333333333331</ele><time>2026-04-18T07:26:56Z</time></trkpt><trkpt lat="44.46909949850608" lon="10.842058965319058"><ele>244.0</ele><time>2026-04-18T07:26:57Z</time></trkpt><trkpt lat="44.46896251727768" lon="10.841873111178868"><ele>244.33333333333331</ele><time>2026-04-18T07:26:58Z</time></trkpt><trkpt lat="44.46882828269261" lon="10.841682383677943"><ele>244.66666666666669</ele><time>2026-04-18T07:26:59Z</time></trkpt><trkpt lat="44.46869587107824" lon="10.841492813994192"><ele>245.0</ele><time>2026-04-18T07:27:00Z</time></trkpt><trkpt lat="44.46856465128452" lon="10.841303972057355"><ele>245.0</ele><time>2026-04-18T07:27:01Z</time></trkpt><trkpt lat="44.46843558600025" lon="10.841117751864937"><ele>245.0</ele><time>2026-04-18T07:27:02Z</time></trkpt><trkpt lat="44.46830978647461" lon="10.840934893803576"><ele>245.0</ele><time>2026-04-18T07:27:03Z</time></trkpt><trkpt lat="44.46818471022948" lon="10.840750195491418"><ele>245.66666666666669</ele><time>2026-04-18T07:27:04Z</time></trkpt><trkpt lat="44.46806269045642" lon="10.840569241899129"><ele>246.33333333333331</ele><time>2026-04-18T07:27:05Z</time></trkpt><trkpt lat="44.46793791103519" lon="10.84038945642416"><ele>247.0</ele><time>2026-04-18T07:27:06Z</time></trkpt><trkpt lat="44.46781361758174" lon="10.840207702995116"><ele>247.33333333333331</ele><time>2026-04-18T07:27:07Z</time></trkpt><trkpt lat="44.4676886464961" lon="10.840025089951805"><ele>247.66666666666669</ele><time>2026-04-18T07:27:07.999Z</time></trkpt><trkpt lat="44.46756543039912" lon="10.839840473163536"><ele>248.0</ele><time>2026-04-18T07:27:08.999Z</time></trkpt><trkpt lat="44.467435847708245" lon="10.839657903174471"><ele>248.0</ele><time>2026-04-18T07:27:09.999Z</time></trkpt><trkpt lat="44.46730236956179" lon="10.839471065869887"><ele>248.0</ele><time>2026-04-18T07:27:10.999Z</time></trkpt><trkpt lat="44.46717029215573" lon="10.839287090955866"><ele>248.0</ele><time>2026-04-18T07:27:11.999Z</time></trkpt><trkpt lat="44.46702794436317" lon="10.839112802552433"><ele>248.0</ele><time>2026-04-18T07:27:12.999Z</time></trkpt><trkpt lat="44.46687956249318" lon="10.838961677837931"><ele>248.0</ele><time>2026-04-18T07:27:13.999Z</time></trkpt><trkpt lat="44.466725613806126" lon="10.838822894848784"><ele>248.0</ele><time>2026-04-18T07:27:14.999Z</time></trkpt><trkpt lat="44.4665618794916" lon="10.838703099559206"><ele>248.0</ele><time>2026-04-18T07:27:15.999Z</time></trkpt><trkpt lat="44.46639817056812" lon="10.838600649032923"><ele>248.0</ele><time>2026-04-18T07:27:16.999Z</time></trkpt><trkpt lat="44.46623457699528" lon="10.838510890612474"><ele>248.0</ele><time>2026-04-18T07:27:17.999Z</time></trkpt><trkpt lat="44.466060845647775" lon="10.838427190451194"><ele>249.0</ele><time>2026-04-18T07:27:18.999Z</time></trkpt><trkpt lat="44.46588768809891" lon="10.838338345678785"><ele>250.0</ele><time>2026-04-18T07:27:19.999Z</time></trkpt><trkpt lat="44.46570989675052" lon="10.838251027618908"><ele>251.0</ele><time>2026-04-18T07:27:20.999Z</time></trkpt><trkpt lat="44.46554324313129" lon="10.838165049846872"><ele>251.0</ele><time>2026-04-18T07:27:21.999Z</time></trkpt><trkpt lat="44.4653861535904" lon="10.838068323335031"><ele>251.0</ele><time>2026-04-18T07:27:22.999Z</time></trkpt><trkpt lat="44.46522524720721" lon="10.83798719987918"><ele>251.0</ele><time>2026-04-18T07:27:23.999Z</time></trkpt><trkpt lat="44.46506454268644" lon="10.837906324773634"><ele>251.0</ele><time>2026-04-18T07:27:24.999Z</time></trkpt><trkpt lat="44.464898948509415" lon="10.8378254810364"><ele>251.0</ele><time>2026-04-18T07:27:25.999Z</time></trkpt><trkpt lat="44.46473458381523" lon="10.83774460630479"><ele>251.0</ele><time>2026-04-18T07:27:26.999Z</time></trkpt><trkpt lat="44.46457772678383" lon="10.837666128646859"><ele>253.0</ele><time>2026-04-18T07:27:27.999Z</time></trkpt><trkpt lat="44.46442761061202" lon="10.837585788642873"><ele>255.0</ele><time>2026-04-18T07:27:28.999Z</time></trkpt><trkpt lat="44.46427159219413" lon="10.837506649913404"><ele>257.0</ele><time>2026-04-18T07:27:29.999Z</time></trkpt><trkpt lat="44.46411166867214" lon="10.837427212523968"><ele>257.0</ele><time>2026-04-18T07:27:30.999Z</time></trkpt><trkpt lat="44.46395356778506" lon="10.837347906786006"><ele>257.0</ele><time>2026-04-18T07:27:31.999Z</time></trkpt><trkpt lat="44.463793550211264" lon="10.83727205446387"><ele>257.0</ele><time>2026-04-18T07:27:32.999Z</time></trkpt><trkpt lat="44.463639934878984" lon="10.83719072271452"><ele>257.33333333333337</ele><time>2026-04-18T07:27:33.999Z</time></trkpt><trkpt lat="44.46348433149594" lon="10.837110673785082"><ele>257.6666666666667</ele><time>2026-04-18T07:27:34.999Z</time></trkpt><trkpt lat="44.46333001543028" lon="10.837010572826292"><ele>258.0</ele><time>2026-04-18T07:27:35.999Z</time></trkpt><trkpt lat="44.46318154643421" lon="10.836887955303332"><ele>258.6666666666667</ele><time>2026-04-18T07:27:36.999Z</time></trkpt><trkpt lat="44.46303996060844" lon="10.836742626968595"><ele>259.33333333333337</ele><time>2026-04-18T07:27:37.999Z</time></trkpt><trkpt lat="44.46291546584169" lon="10.83657302284497"><ele>260.0</ele><time>2026-04-18T07:27:38.999Z</time></trkpt><trkpt lat="44.46279935212425" lon="10.836384956978412"><ele>260.0</ele><time>2026-04-18T07:27:39.999Z</time></trkpt><trkpt lat="44.46268524536218" lon="10.836181036324737"><ele>260.0</ele><time>2026-04-18T07:27:40.999Z</time></trkpt><trkpt lat="44.462578251821085" lon="10.835962585284891"><ele>260.0</ele><time>2026-04-18T07:27:41.999Z</time></trkpt><trkpt lat="44.46245678025045" lon="10.83574456937157"><ele>260.6666666666667</ele><time>2026-04-18T07:27:42.999Z</time></trkpt><trkpt lat="44.46233745159601" lon="10.835527690152103"><ele>261.3333333333333</ele><time>2026-04-18T07:27:43.999Z</time></trkpt><trkpt lat="44.46222384174741" lon="10.835301045221149"><ele>262.0</ele><time>2026-04-18T07:27:44.999Z</time></trkpt><trkpt lat="44.46210820738151" lon="10.83508719797004"><ele>262.0</ele><time>2026-04-18T07:27:45.999Z</time></trkpt><trkpt lat="44.46199328560147" lon="10.834877005272276"><ele>262.0</ele><time>2026-04-18T07:27:46.999Z</time></trkpt><trkpt lat="44.461876904874025" lon="10.834659829434825"><ele>262.0</ele><time>2026-04-18T07:27:47.999Z</time></trkpt><trkpt lat="44.46176183480611" lon="10.834434898509194"><ele>262.3333333333333</ele><time>2026-04-18T07:27:48.999Z</time></trkpt><trkpt lat="44.46163468422695" lon="10.834198625667034"><ele>262.6666666666667</ele><time>2026-04-18T07:27:50Z</time></trkpt><trkpt lat="44.46150370584697" lon="10.833958712752457"><ele>263.0</ele><time>2026-04-18T07:27:51Z</time></trkpt><trkpt lat="44.461376138528095" lon="10.833719972997734"><ele>263.6666666666667</ele><time>2026-04-18T07:27:52Z</time></trkpt><trkpt lat="44.46125361458733" lon="10.83348411769838"><ele>264.3333333333333</ele><time>2026-04-18T07:27:53Z</time></trkpt><trkpt lat="44.46113350429842" lon="10.833251862269995"><ele>265.0</ele><time>2026-04-18T07:27:54Z</time></trkpt><trkpt lat="44.46100674926145" lon="10.833023799899792"><ele>265.66666666666663</ele><time>2026-04-18T07:27:55Z</time></trkpt><trkpt lat="44.46087443786313" lon="10.832804249559773"><ele>266.3333333333333</ele><time>2026-04-18T07:27:56Z</time></trkpt><trkpt lat="44.46073080622308" lon="10.83260409637889"><ele>267.0</ele><time>2026-04-18T07:27:57Z</time></trkpt><trkpt lat="44.46057495984316" lon="10.832427766150563"><ele>267.0</ele><time>2026-04-18T07:27:58Z</time></trkpt><trkpt lat="44.460410759215065" lon="10.832283760138713"><ele>267.0</ele><time>2026-04-18T07:27:59Z</time></trkpt><trkpt lat="44.46024451012546" lon="10.832164292500101"><ele>267.0</ele><time>2026-04-18T07:28:00Z</time></trkpt><trkpt lat="44.4600780779671" lon="10.832082968022362"><ele>267.0</ele><time>2026-04-18T07:28:01Z</time></trkpt><trkpt lat="44.45990446266994" lon="10.832021669034798"><ele>267.0</ele><time>2026-04-18T07:28:02Z</time></trkpt><trkpt lat="44.45971718761982" lon="10.831979108011609"><ele>267.0</ele><time>2026-04-18T07:28:03Z</time></trkpt><trkpt lat="44.4595345650025" lon="10.83196260893923"><ele>268.3333333333333</ele><time>2026-04-18T07:28:04Z</time></trkpt><trkpt lat="44.45935293994095" lon="10.831960648410579"><ele>269.66666666666663</ele><time>2026-04-18T07:28:05Z</time></trkpt><trkpt lat="44.45917940261768" lon="10.831960513434934"><ele>271.0</ele><time>2026-04-18T07:28:06Z</time></trkpt><trkpt lat="44.45900307256683" lon="10.831962909719948"><ele>271.0</ele><time>2026-04-18T07:28:07Z</time></trkpt><trkpt lat="44.45882804198423" lon="10.831973583237465"><ele>271.0</ele><time>2026-04-18T07:28:08Z</time></trkpt><trkpt lat="44.45865646130411" lon="10.831993527305533"><ele>271.0</ele><time>2026-04-18T07:28:09Z</time></trkpt><trkpt lat="44.45848657414965" lon="10.832029959359167"><ele>272.5</ele><time>2026-04-18T07:28:10Z</time></trkpt><trkpt lat="44.458334606842996" lon="10.83207873326206"><ele>274.0</ele><time>2026-04-18T07:28:11Z</time></trkpt><trkpt lat="44.45819697854799" lon="10.83213719650542"><ele>275.5</ele><time>2026-04-18T07:28:12Z</time></trkpt><trkpt lat="44.45806389690863" lon="10.832199048541158"><ele>277.0</ele><time>2026-04-18T07:28:13Z</time></trkpt><trkpt lat="44.45794116743281" lon="10.832265457949424"><ele>277.6</ele><time>2026-04-18T07:28:14Z</time></trkpt><trkpt lat="44.45782217883584" lon="10.832337978503304"><ele>278.2</ele><time>2026-04-18T07:28:15Z</time></trkpt><trkpt lat="44.45771895411961" lon="10.832403154027386"><ele>278.8</ele><time>2026-04-18T07:28:16Z</time></trkpt><trkpt lat="44.45762470808758" lon="10.832460994862279"><ele>279.4</ele><time>2026-04-18T07:28:17Z</time></trkpt><trkpt lat="44.45754573434805" lon="10.832510649167945"><ele>280.0</ele><time>2026-04-18T07:28:18Z</time></trkpt><trkpt lat="44.45748385172218" lon="10.832548046932413"><ele>280.0</ele><time>2026-04-18T07:28:19Z</time></trkpt><trkpt lat="44.457400622260224" lon="10.832591509591778"><ele>280.0</ele><time>2026-04-18T07:28:21Z</time></trkpt><trkpt lat="44.457331444247465" lon="10.832569392775135"><ele>280.0</ele><time>2026-04-18T07:28:23Z</time></trkpt><trkpt lat="44.45726136346901" lon="10.832588747560818"><ele>280.0</ele><time>2026-04-18T07:28:25Z</time></trkpt><trkpt lat="44.457184492476834" lon="10.832623095391067"><ele>280.0</ele><time>2026-04-18T07:28:27Z</time></trkpt><trkpt lat="44.45712104887555" lon="10.832694597364002"><ele>280.0</ele><time>2026-04-18T07:28:32Z</time></trkpt><trkpt lat="44.457054200055715" lon="10.832738148848492"><ele>280.0</ele><time>2026-04-18T07:28:33Z</time></trkpt><trkpt lat="44.456975735216936" lon="10.832788314869005"><ele>280.0</ele><time>2026-04-18T07:28:34Z</time></trkpt><trkpt lat="44.45687740510259" lon="10.83284966918354"><ele>280.0</ele><time>2026-04-18T07:28:36Z</time></trkpt><trkpt lat="44.45680937137656" lon="10.832892119690845"><ele>280.0</ele><time>2026-04-18T07:28:39Z</time></trkpt><trkpt lat="44.456638250178635" lon="10.832508594125446"><ele>280.0</ele><time>2026-04-18T07:28:40Z</time></trkpt><trkpt lat="44.45654096821785" lon="10.832584332602805"><ele>280.0</ele><time>2026-04-18T07:28:42Z</time></trkpt><trkpt lat="44.4564769837983" lon="10.832635167174615"><ele>280.0</ele><time>2026-04-18T07:28:44Z</time></trkpt><trkpt lat="44.45642836836833" lon="10.83270630307526"><ele>280.0</ele><time>2026-04-18T07:28:46Z</time></trkpt><trkpt lat="44.456340572241544" lon="10.832799187001278"><ele>280.0</ele><time>2026-04-18T07:28:49Z</time></trkpt><trkpt lat="44.45626219487897" lon="10.832852811722022"><ele>281.16666666666663</ele><time>2026-04-18T07:28:51Z</time></trkpt><trkpt lat="44.45616802165639" lon="10.832850873146441"><ele>282.3333333333333</ele><time>2026-04-18T07:28:53Z</time></trkpt><trkpt lat="44.4560594281699" lon="10.832842071592431"><ele>283.5</ele><time>2026-04-18T07:28:55Z</time></trkpt><trkpt lat="44.4559876677156" lon="10.832832523436103"><ele>284.6666666666667</ele><time>2026-04-18T07:28:57Z</time></trkpt><trkpt lat="44.455915037668525" lon="10.832865096880678"><ele>285.83333333333337</ele><time>2026-04-18T07:29:00Z</time></trkpt><trkpt lat="44.455852075986584" lon="10.832933029859532"><ele>287.0</ele><time>2026-04-18T07:29:02Z</time></trkpt><trkpt lat="44.455731735717876" lon="10.833024554299449"><ele>287.0</ele><time>2026-04-18T07:29:04Z</time></trkpt><trkpt lat="44.455657514856576" lon="10.833098812417907"><ele>287.0</ele><time>2026-04-18T07:29:05Z</time></trkpt><trkpt lat="44.45557845023944" lon="10.83315913673188"><ele>287.0</ele><time>2026-04-18T07:29:06Z</time></trkpt><trkpt lat="44.45548819829445" lon="10.83320785307206"><ele>287.0</ele><time>2026-04-18T07:29:08Z</time></trkpt><trkpt lat="44.455392513397285" lon="10.833269702651432"><ele>287.0</ele><time>2026-04-18T07:29:09.999Z</time></trkpt><trkpt lat="44.45532969807975" lon="10.83329927841296"><ele>287.0</ele><time>2026-04-18T07:29:10.999Z</time></trkpt><trkpt lat="44.455260956511026" lon="10.8333163324105"><ele>287.0</ele><time>2026-04-18T07:29:11.999Z</time></trkpt><trkpt lat="44.45515756064866" lon="10.833327698263645"><ele>287.0</ele><time>2026-04-18T07:29:13.999Z</time></trkpt><trkpt lat="44.45505205624792" lon="10.833389490398895"><ele>287.0</ele><time>2026-04-18T07:29:15.999Z</time></trkpt><trkpt lat="44.45497935815648" lon="10.833469039253096"><ele>287.0</ele><time>2026-04-18T07:29:17.999Z</time></trkpt><trkpt lat="44.45492192464687" lon="10.833550350347771"><ele>287.0</ele><time>2026-04-18T07:29:20.999Z</time></trkpt><trkpt lat="44.454860670629266" lon="10.833599748876534"><ele>287.0</ele><time>2026-04-18T07:29:22.999Z</time></trkpt><trkpt lat="44.45476701725339" lon="10.833617564139335"><ele>287.0</ele><time>2026-04-18T07:29:24.999Z</time></trkpt><trkpt lat="44.454700315217" lon="10.833615897214987"><ele>287.0</ele><time>2026-04-18T07:29:25.999Z</time></trkpt><trkpt lat="44.45459700392247" lon="10.83360078470839"><ele>287.0</ele><time>2026-04-18T07:29:27.999Z</time></trkpt><trkpt lat="44.454492959064844" lon="10.833569449961537"><ele>287.0</ele><time>2026-04-18T07:29:29.999Z</time></trkpt><trkpt lat="44.45442753176887" lon="10.833553378980591"><ele>288.0</ele><time>2026-04-18T07:29:32.999Z</time></trkpt><trkpt lat="44.45432271608379" lon="10.833590823256237"><ele>289.0</ele><time>2026-04-18T07:29:35.999Z</time></trkpt><trkpt lat="44.45423742598279" lon="10.833582407718225"><ele>290.0</ele><time>2026-04-18T07:29:38.999Z</time></trkpt><trkpt lat="44.454137051757115" lon="10.83359508592918"><ele>291.0</ele><time>2026-04-18T07:29:40.999Z</time></trkpt><trkpt lat="44.45405875632793" lon="10.833647018994146"><ele>292.0</ele><time>2026-04-18T07:29:44.999Z</time></trkpt><trkpt lat="44.45384763376282" lon="10.833788464870317"><ele>293.0</ele><time>2026-04-18T07:29:47.999Z</time></trkpt><trkpt lat="44.45377768143069" lon="10.833766725373316"><ele>294.0</ele><time>2026-04-18T07:29:48.999Z</time></trkpt><trkpt lat="44.453699705619705" lon="10.833741801886376"><ele>295.0</ele><time>2026-04-18T07:29:49.999Z</time></trkpt><trkpt lat="44.45361345443104" lon="10.833704956610932"><ele>296.0</ele><time>2026-04-18T07:29:50.999Z</time></trkpt><trkpt lat="44.45353092937703" lon="10.833689400143744"><ele>297.0</ele><time>2026-04-18T07:29:52.999Z</time></trkpt><trkpt lat="44.45343292022452" lon="10.833627610208316"><ele>298.0</ele><time>2026-04-18T07:29:54.999Z</time></trkpt><trkpt lat="44.45334534131347" lon="10.833608999730933"><ele>298.0</ele><time>2026-04-18T07:29:56Z</time></trkpt><trkpt lat="44.453278156758195" lon="10.833606007851731"><ele>298.0</ele><time>2026-04-18T07:29:57Z</time></trkpt><trkpt lat="44.45320088459849" lon="10.833600334018701"><ele>298.0</ele><time>2026-04-18T07:29:58Z</time></trkpt><trkpt lat="44.45313166059058" lon="10.833614246134818"><ele>298.0</ele><time>2026-04-18T07:29:59Z</time></trkpt><trkpt lat="44.45305519099235" lon="10.833638468668818"><ele>298.0</ele><time>2026-04-18T07:30:00Z</time></trkpt><trkpt lat="44.45298154404899" lon="10.83363669683345"><ele>298.0</ele><time>2026-04-18T07:30:01Z</time></trkpt><trkpt lat="44.45291098980192" lon="10.83364007399172"><ele>298.0</ele><time>2026-04-18T07:30:02Z</time></trkpt><trkpt lat="44.45284180791438" lon="10.833645097518065"><ele>298.8333333333333</ele><time>2026-04-18T07:30:03Z</time></trkpt><trkpt lat="44.45276218917593" lon="10.833633729191293"><ele>299.66666666666663</ele><time>2026-04-18T07:30:05Z</time></trkpt><trkpt lat="44.452677298770396" lon="10.833561245438673"><ele>300.5</ele><time>2026-04-18T07:30:08Z</time></trkpt><trkpt lat="44.452625858046886" lon="10.833500247413332"><ele>301.3333333333333</ele><time>2026-04-18T07:30:10Z</time></trkpt><trkpt lat="44.45256951214518" lon="10.833542479479151"><ele>302.1666666666667</ele><time>2026-04-18T07:30:20Z</time></trkpt><trkpt lat="44.452502624644445" lon="10.833577533422881"><ele>303.0</ele><time>2026-04-18T07:30:28Z</time></trkpt><trkpt lat="44.45244478417956" lon="10.833634805799436"><ele>303.0</ele><time>2026-04-18T07:30:36Z</time></trkpt><trkpt lat="44.45244041419593" lon="10.83372613313497"><ele>303.0</ele><time>2026-04-18T07:30:39Z</time></trkpt><trkpt lat="44.452394104197246" lon="10.833791991869667"><ele>303.0</ele><time>2026-04-18T07:30:41Z</time></trkpt><trkpt lat="44.452283634857594" lon="10.833941053239057"><ele>303.0</ele><time>2026-04-18T07:32:07Z</time></trkpt><trkpt lat="44.452209941053205" lon="10.833967700203305"><ele>303.0</ele><time>2026-04-18T07:32:09Z</time></trkpt><trkpt lat="44.45211484410797" lon="10.834011504644922"><ele>305.0</ele><time>2026-04-18T07:32:11Z</time></trkpt><trkpt lat="44.452004716267986" lon="10.834033428035331"><ele>307.0</ele><time>2026-04-18T07:32:13Z</time></trkpt><trkpt lat="44.45191128230828" lon="10.834007077981331"><ele>309.0</ele><time>2026-04-18T07:32:15Z</time></trkpt><trkpt lat="44.451823784136124" lon="10.833958488075343"><ele>311.0</ele><time>2026-04-18T07:32:17Z</time></trkpt><trkpt lat="44.45176349629539" lon="10.833928238979402"><ele>313.0</ele><time>2026-04-18T07:32:18Z</time></trkpt><trkpt lat="44.45164921422075" lon="10.833905079563795"><ele>313.0</ele><time>2026-04-18T07:32:20Z</time></trkpt><trkpt lat="44.451585604219986" lon="10.833882126262118"><ele>313.0</ele><time>2026-04-18T07:32:21Z</time></trkpt><trkpt lat="44.451512741385464" lon="10.83387913019943"><ele>313.0</ele><time>2026-04-18T07:32:22Z</time></trkpt><trkpt lat="44.451409400529215" lon="10.833797758546053"><ele>313.0</ele><time>2026-04-18T07:32:24Z</time></trkpt><trkpt lat="44.451309691939734" lon="10.833768178566533"><ele>313.0</ele><time>2026-04-18T07:32:26Z</time></trkpt><trkpt lat="44.45122981997112" lon="10.833761895078561"><ele>313.0</ele><time>2026-04-18T07:32:28Z</time></trkpt><trkpt lat="44.45114467672093" lon="10.83380667012556"><ele>313.5</ele><time>2026-04-18T07:32:29Z</time></trkpt><trkpt lat="44.451065684049276" lon="10.833836861466605"><ele>314.0</ele><time>2026-04-18T07:32:30Z</time></trkpt><trkpt lat="44.45098441767223" lon="10.833891733986842"><ele>314.5</ele><time>2026-04-18T07:32:32Z</time></trkpt><trkpt lat="44.45087966381272" lon="10.833876318963254"><ele>315.0</ele><time>2026-04-18T07:32:35Z</time></trkpt><trkpt lat="44.450802414998556" lon="10.833894255095343"><ele>315.5</ele><time>2026-04-18T07:32:38Z</time></trkpt><trkpt lat="44.45073816667135" lon="10.833918748359677"><ele>316.0</ele><time>2026-04-18T07:32:40Z</time></trkpt><trkpt lat="44.450671258591996" lon="10.833944593690417"><ele>316.0</ele><time>2026-04-18T07:32:42Z</time></trkpt><trkpt lat="44.45059548644614" lon="10.833956582972618"><ele>316.0</ele><time>2026-04-18T07:32:45Z</time></trkpt><trkpt lat="44.450483711113655" lon="10.833957741141145"><ele>316.0</ele><time>2026-04-18T07:32:47Z</time></trkpt><trkpt lat="44.45040346630538" lon="10.833991734010267"><ele>316.0</ele><time>2026-04-18T07:32:49Z</time></trkpt><trkpt lat="44.45032649723613" lon="10.834031313259437"><ele>316.0</ele><time>2026-04-18T07:32:53Z</time></trkpt><trkpt lat="44.450257135100614" lon="10.834023891557425"><ele>316.0</ele><time>2026-04-18T07:32:56Z</time></trkpt><trkpt lat="44.45017756852932" lon="10.834042458249487"><ele>317.3333333333333</ele><time>2026-04-18T07:32:59Z</time></trkpt><trkpt lat="44.450122067997846" lon="10.834091414606375"><ele>318.66666666666663</ele><time>2026-04-18T07:33:00Z</time></trkpt><trkpt lat="44.45003836764475" lon="10.834072434160866"><ele>320.0</ele><time>2026-04-18T07:33:03Z</time></trkpt><trkpt lat="44.44995298853653" lon="10.834072891988932"><ele>321.3333333333333</ele><time>2026-04-18T07:33:06Z</time></trkpt><trkpt lat="44.44987505603819" lon="10.83405089231654"><ele>322.6666666666667</ele><time>2026-04-18T07:33:08Z</time></trkpt><trkpt lat="44.44976688152501" lon="10.834013344670993"><ele>324.0</ele><time>2026-04-18T07:33:11Z</time></trkpt><trkpt lat="44.449689183844384" lon="10.833993809505206"><ele>324.7142857142857</ele><time>2026-04-18T07:33:13.999Z</time></trkpt><trkpt lat="44.44960857819681" lon="10.833997324024292"><ele>325.42857142857144</ele><time>2026-04-18T07:33:16.999Z</time></trkpt><trkpt lat="44.449545767846914" lon="10.834017052130969"><ele>326.1428571428571</ele><time>2026-04-18T07:33:23.999Z</time></trkpt><trkpt lat="44.44947801979927" lon="10.834013399644933"><ele>326.8571428571429</ele><time>2026-04-18T07:33:40.999Z</time></trkpt><trkpt lat="44.44941677036935" lon="10.834053015176659"><ele>327.57142857142856</ele><time>2026-04-18T07:34:24Z</time></trkpt><trkpt lat="44.449341823098955" lon="10.834075222566623"><ele>328.2857142857143</ele><time>2026-04-18T07:34:33Z</time></trkpt><trkpt lat="44.44925854083746" lon="10.834084365894043"><ele>329.0</ele><time>2026-04-18T07:34:36Z</time></trkpt><trkpt lat="44.44917797929024" lon="10.834058751385381"><ele>329.0</ele><time>2026-04-18T07:34:39Z</time></trkpt><trkpt lat="44.44911833128884" lon="10.834018177249334"><ele>329.0</ele><time>2026-04-18T07:34:41Z</time></trkpt><trkpt lat="44.44903931309432" lon="10.83399973428441"><ele>329.0</ele><time>2026-04-18T07:34:43Z</time></trkpt><trkpt lat="44.448970046030965" lon="10.833995381309022"><ele>329.0</ele><time>2026-04-18T07:34:45Z</time></trkpt><trkpt lat="44.44888209266219" lon="10.834020985868614"><ele>329.0</ele><time>2026-04-18T07:34:48Z</time></trkpt><trkpt lat="44.4488170918846" lon="10.834058146348438"><ele>329.0</ele><time>2026-04-18T07:34:50Z</time></trkpt><trkpt lat="44.44874031117211" lon="10.834081765314574"><ele>329.2</ele><time>2026-04-18T07:34:52Z</time></trkpt><trkpt lat="44.44866258542973" lon="10.834059555454706"><ele>329.4</ele><time>2026-04-18T07:34:54Z</time></trkpt><trkpt lat="44.44857608277033" lon="10.833990486534365"><ele>329.6</ele><time>2026-04-18T07:34:56Z</time></trkpt><trkpt lat="44.44850160510762" lon="10.8338753991803"><ele>329.8</ele><time>2026-04-18T07:34:58Z</time></trkpt><trkpt lat="44.448404206579184" lon="10.83377118304977"><ele>330.0</ele><time>2026-04-18T07:35:00Z</time></trkpt><trkpt lat="44.44828051739135" lon="10.833748907145088"><ele>330.0</ele><time>2026-04-18T07:35:02Z</time></trkpt><trkpt lat="44.448149992750345" lon="10.833702657398655"><ele>330.0</ele><time>2026-04-18T07:35:04Z</time></trkpt><trkpt lat="44.44809448755199" lon="10.833648918326018"><ele>330.0</ele><time>2026-04-18T07:35:05Z</time></trkpt><trkpt lat="44.448014959611086" lon="10.833534560535881"><ele>330.0</ele><time>2026-04-18T07:35:07Z</time></trkpt><trkpt lat="44.44797054407137" lon="10.83346184580181"><ele>330.0</ele><time>2026-04-18T07:35:08Z</time></trkpt><trkpt lat="44.447915026209905" lon="10.833385275017553"><ele>332.0</ele><time>2026-04-18T07:35:10Z</time></trkpt><trkpt lat="44.44782254673224" lon="10.833310675331571"><ele>334.0</ele><time>2026-04-18T07:35:12Z</time></trkpt><trkpt lat="44.447721367323155" lon="10.833232179952388"><ele>336.0</ele><time>2026-04-18T07:35:14Z</time></trkpt><trkpt lat="44.44759605382681" lon="10.83320926258784"><ele>338.0</ele><time>2026-04-18T07:35:16Z</time></trkpt><trkpt lat="44.447532214502246" lon="10.83319843175403"><ele>340.0</ele><time>2026-04-18T07:35:17Z</time></trkpt><trkpt lat="44.44746621142173" lon="10.833187495000203"><ele>340.0</ele><time>2026-04-18T07:35:18Z</time></trkpt><trkpt lat="44.447387927291295" lon="10.833165027840616"><ele>340.0</ele><time>2026-04-18T07:35:19Z</time></trkpt><trkpt lat="44.44730899508139" lon="10.833144518645966"><ele>340.0</ele><time>2026-04-18T07:35:20Z</time></trkpt><trkpt lat="44.4472321369356" lon="10.833125186583246"><ele>340.0</ele><time>2026-04-18T07:35:21Z</time></trkpt><trkpt lat="44.447151492129294" lon="10.83310119718545"><ele>340.0</ele><time>2026-04-18T07:35:21.999Z</time></trkpt><trkpt lat="44.44708827528269" lon="10.833090537072655"><ele>340.0</ele><time>2026-04-18T07:35:22.999Z</time></trkpt><trkpt lat="44.447019867284986" lon="10.833084718310065"><ele>340.2857142857143</ele><time>2026-04-18T07:35:23.999Z</time></trkpt><trkpt lat="44.446955366371036" lon="10.833057561458938"><ele>340.57142857142856</ele><time>2026-04-18T07:35:24.999Z</time></trkpt><trkpt lat="44.446869471482756" lon="10.833024498775272"><ele>340.85714285714283</ele><time>2026-04-18T07:35:25.999Z</time></trkpt><trkpt lat="44.44679574147297" lon="10.83299437313895"><ele>341.1428571428571</ele><time>2026-04-18T07:35:26.999Z</time></trkpt><trkpt lat="44.44673017887427" lon="10.832963668124835"><ele>341.42857142857144</ele><time>2026-04-18T07:35:27.999Z</time></trkpt><trkpt lat="44.446661390267856" lon="10.832945577392668"><ele>341.71428571428567</ele><time>2026-04-18T07:35:28.999Z</time></trkpt><trkpt lat="44.44658635290309" lon="10.83293425955071"><ele>342.0</ele><time>2026-04-18T07:35:29.999Z</time></trkpt><trkpt lat="44.446464226420716" lon="10.832976842695198"><ele>342.0</ele><time>2026-04-18T07:35:31.999Z</time></trkpt><trkpt lat="44.446394372791055" lon="10.833005970109879"><ele>342.0</ele><time>2026-04-18T07:35:32.999Z</time></trkpt><trkpt lat="44.4463012094192" lon="10.833055067635769"><ele>342.0</ele><time>2026-04-18T07:35:34.999Z</time></trkpt><trkpt lat="44.44621149454258" lon="10.832979496456725"><ele>342.0</ele><time>2026-04-18T07:35:35.999Z</time></trkpt><trkpt lat="44.44615007317953" lon="10.833059790349509"><ele>342.0</ele><time>2026-04-18T07:35:37.999Z</time></trkpt><trkpt lat="44.4460903907455" lon="10.833118078380657"><ele>342.0</ele><time>2026-04-18T07:35:41.999Z</time></trkpt><trkpt lat="44.446022673154395" lon="10.833176818623437"><ele>343.5</ele><time>2026-04-18T07:35:44.999Z</time></trkpt><trkpt lat="44.44595566653961" lon="10.833191401367836"><ele>345.0</ele><time>2026-04-18T07:35:46.999Z</time></trkpt><trkpt lat="44.44589335699432" lon="10.833241711246819"><ele>346.5</ele><time>2026-04-18T07:36:28Z</time></trkpt><trkpt lat="44.445779479955384" lon="10.833305897994988"><ele>348.0</ele><time>2026-04-18T07:36:30Z</time></trkpt><trkpt lat="44.445711963744046" lon="10.833325581360375"><ele>349.5</ele><time>2026-04-18T07:36:31Z</time></trkpt><trkpt lat="44.44560585090491" lon="10.833352539353625"><ele>351.0</ele><time>2026-04-18T07:36:33Z</time></trkpt><trkpt lat="44.445540267766575" lon="10.833365770578148"><ele>351.0</ele><time>2026-04-18T07:36:34Z</time></trkpt><trkpt lat="44.44547251088893" lon="10.83340280121558"><ele>351.0</ele><time>2026-04-18T07:36:35Z</time></trkpt><trkpt lat="44.44536460802827" lon="10.833445439887067"><ele>351.0</ele><time>2026-04-18T07:36:37Z</time></trkpt><trkpt lat="44.44530328848287" lon="10.833489446493902"><ele>351.0</ele><time>2026-04-18T07:36:38Z</time></trkpt><trkpt lat="44.44523023757586" lon="10.833528151629942"><ele>351.0</ele><time>2026-04-18T07:36:39Z</time></trkpt><trkpt lat="44.4451550125997" lon="10.833559115710552"><ele>351.0</ele><time>2026-04-18T07:36:40Z</time></trkpt><trkpt lat="44.44506398912417" lon="10.833596775238439"><ele>350.0</ele><time>2026-04-18T07:36:41Z</time></trkpt><trkpt lat="44.444973050626636" lon="10.833630738680469"><ele>349.0</ele><time>2026-04-18T07:36:42Z</time></trkpt><trkpt lat="44.44487919524263" lon="10.833655222237114"><ele>348.0</ele><time>2026-04-18T07:36:43Z</time></trkpt><trkpt lat="44.44480055070533" lon="10.833621168669021"><ele>347.0</ele><time>2026-04-18T07:36:44Z</time></trkpt><trkpt lat="44.44470910104021" lon="10.833556339446318"><ele>346.0</ele><time>2026-04-18T07:36:45Z</time></trkpt><trkpt lat="44.44460474466907" lon="10.833448006946156"><ele>350.20000000000005</ele><time>2026-04-18T07:36:46Z</time></trkpt><trkpt lat="44.44452912718729" lon="10.833347409218701"><ele>354.40000000000003</ele><time>2026-04-18T07:36:47Z</time></trkpt><trkpt lat="44.44447044636021" lon="10.833287890385254"><ele>358.6</ele><time>2026-04-18T07:36:48Z</time></trkpt><trkpt lat="44.44438417094234" lon="10.833257539903613"><ele>362.8</ele><time>2026-04-18T07:36:49Z</time></trkpt><trkpt lat="44.44428364031405" lon="10.833244276673431"><ele>367.0</ele><time>2026-04-18T07:36:50Z</time></trkpt><trkpt lat="44.444182217156765" lon="10.833287948350339"><ele>367.0</ele><time>2026-04-18T07:36:51Z</time></trkpt><trkpt lat="44.44406507898634" lon="10.833367224971955"><ele>367.0</ele><time>2026-04-18T07:36:52Z</time></trkpt><trkpt lat="44.443961404938776" lon="10.8334643495219"><ele>367.0</ele><time>2026-04-18T07:36:53Z</time></trkpt><trkpt lat="44.44389598858301" lon="10.833536440841465"><ele>367.0</ele><time>2026-04-18T07:36:54Z</time></trkpt><trkpt lat="44.443835643866514" lon="10.833605095527084"><ele>367.0</ele><time>2026-04-18T07:36:55Z</time></trkpt><trkpt lat="44.443771283551754" lon="10.833681282196524"><ele>365.5</ele><time>2026-04-18T07:36:56Z</time></trkpt><trkpt lat="44.44371502524078" lon="10.833746131764968"><ele>364.0</ele><time>2026-04-18T07:36:57Z</time></trkpt><trkpt lat="44.44364133951201" lon="10.833813517319365"><ele>362.5</ele><time>2026-04-18T07:36:58Z</time></trkpt><trkpt lat="44.443589743391215" lon="10.833872963204026"><ele>361.0</ele><time>2026-04-18T07:36:59Z</time></trkpt><trkpt lat="44.44345608651003" lon="10.833880070066904"><ele>359.5</ele><time>2026-04-18T07:37:01Z</time></trkpt><trkpt lat="44.44337558496718" lon="10.8338397306309"><ele>358.0</ele><time>2026-04-18T07:37:02Z</time></trkpt><trkpt lat="44.44331980836075" lon="10.83376621077175"><ele>358.0</ele><time>2026-04-18T07:37:03Z</time></trkpt><trkpt lat="44.4432914169451" lon="10.833670044725281"><ele>358.0</ele><time>2026-04-18T07:37:04Z</time></trkpt><trkpt lat="44.44328131561974" lon="10.833574243318594"><ele>358.0</ele><time>2026-04-18T07:37:05Z</time></trkpt><trkpt lat="44.44328896548867" lon="10.833473212779415"><ele>358.0</ele><time>2026-04-18T07:37:06Z</time></trkpt><trkpt lat="44.443309154813036" lon="10.833370802937115"><ele>358.0</ele><time>2026-04-18T07:37:07Z</time></trkpt><trkpt lat="44.44328803328517" lon="10.83326718392533"><ele>358.0</ele><time>2026-04-18T07:37:08Z</time></trkpt><trkpt lat="44.443280037695885" lon="10.83314639769678"><ele>359.8333333333333</ele><time>2026-04-18T07:37:09Z</time></trkpt><trkpt lat="44.443282644942016" lon="10.833013444020391"><ele>361.66666666666663</ele><time>2026-04-18T07:37:10Z</time></trkpt><trkpt lat="44.443277597448265" lon="10.832924504802858"><ele>363.5</ele><time>2026-04-18T07:37:11Z</time></trkpt><trkpt lat="44.44327181889307" lon="10.832825255916333"><ele>365.3333333333333</ele><time>2026-04-18T07:37:12Z</time></trkpt><trkpt lat="44.44325115652864" lon="10.832708037507327"><ele>367.1666666666667</ele><time>2026-04-18T07:37:13Z</time></trkpt><trkpt lat="44.44325314309164" lon="10.83261629941353"><ele>369.0</ele><time>2026-04-18T07:37:14Z</time></trkpt><trkpt lat="44.443273364886906" lon="10.832510922402104"><ele>371.0</ele><time>2026-04-18T07:37:15Z</time></trkpt><trkpt lat="44.44330001687119" lon="10.832390892193386"><ele>373.0</ele><time>2026-04-18T07:37:16Z</time></trkpt><trkpt lat="44.44333687881487" lon="10.832263053921029"><ele>375.0</ele><time>2026-04-18T07:37:17Z</time></trkpt><trkpt lat="44.443375524474696" lon="10.832144229188188"><ele>377.0</ele><time>2026-04-18T07:37:18Z</time></trkpt><trkpt lat="44.44341908091436" lon="10.832039321703325"><ele>379.0</ele><time>2026-04-18T07:37:19Z</time></trkpt><trkpt lat="44.44346256655205" lon="10.831869804046535"><ele>381.0</ele><time>2026-04-18T07:37:21Z</time></trkpt><trkpt lat="44.44344465661924" lon="10.831781231833942"><ele>383.0</ele><time>2026-04-18T07:37:22Z</time></trkpt><trkpt lat="44.443399353559286" lon="10.831703497468913"><ele>385.0</ele><time>2026-04-18T07:37:23Z</time></trkpt><trkpt lat="44.44332547764437" lon="10.831662047027303"><ele>387.0</ele><time>2026-04-18T07:37:24Z</time></trkpt><trkpt lat="44.4432494727471" lon="10.831617657631245"><ele>389.00000000000006</ele><time>2026-04-18T07:37:25Z</time></trkpt><trkpt lat="44.44320034243099" lon="10.83154972655507"><ele>391.0</ele><time>2026-04-18T07:37:26Z</time></trkpt><trkpt lat="44.44319613162433" lon="10.831433817303449"><ele>391.00000000000006</ele><time>2026-04-18T07:37:27Z</time></trkpt><trkpt lat="44.443214147751114" lon="10.831305774658679"><ele>391.0</ele><time>2026-04-18T07:37:28Z</time></trkpt><trkpt lat="44.443227806204625" lon="10.831196548794196"><ele>391.0</ele><time>2026-04-18T07:37:28.999Z</time></trkpt><trkpt lat="44.44322768761777" lon="10.831075678223199"><ele>391.0</ele><time>2026-04-18T07:37:29.999Z</time></trkpt><trkpt lat="44.44321265620999" lon="10.830953623064056"><ele>391.00000000000006</ele><time>2026-04-18T07:37:30.999Z</time></trkpt><trkpt lat="44.44318161617684" lon="10.830863716418289"><ele>391.0</ele><time>2026-04-18T07:37:31.999Z</time></trkpt><trkpt lat="44.44312438732155" lon="10.830795750514273"><ele>392.8</ele><time>2026-04-18T07:37:32.999Z</time></trkpt><trkpt lat="44.44305073118238" lon="10.830772580138113"><ele>394.6</ele><time>2026-04-18T07:37:33.999Z</time></trkpt><trkpt lat="44.44295887141192" lon="10.83078877982587"><ele>396.4</ele><time>2026-04-18T07:37:34.999Z</time></trkpt><trkpt lat="44.442861712184154" lon="10.83084899009171"><ele>398.2</ele><time>2026-04-18T07:37:35.999Z</time></trkpt><trkpt lat="44.442778377857096" lon="10.830897881449772"><ele>400.0</ele><time>2026-04-18T07:37:36.999Z</time></trkpt><trkpt lat="44.44267368452904" lon="10.830806043544776"><ele>400.0</ele><time>2026-04-18T07:37:38.999Z</time></trkpt><trkpt lat="44.44265912690721" lon="10.830690849912354"><ele>400.0</ele><time>2026-04-18T07:37:39.999Z</time></trkpt><trkpt lat="44.44268109198175" lon="10.830565438334135"><ele>400.0</ele><time>2026-04-18T07:37:40.999Z</time></trkpt><trkpt lat="44.442704390231064" lon="10.830428208905277"><ele>400.0</ele><time>2026-04-18T07:37:41.999Z</time></trkpt><trkpt lat="44.442729150181954" lon="10.830263744991107"><ele>400.0</ele><time>2026-04-18T07:37:42.999Z</time></trkpt><trkpt lat="44.44276533838984" lon="10.830129067062659"><ele>401.33333333333337</ele><time>2026-04-18T07:37:43.999Z</time></trkpt><trkpt lat="44.442809069678205" lon="10.830031339290539"><ele>402.6666666666667</ele><time>2026-04-18T07:37:44.999Z</time></trkpt><trkpt lat="44.442848571255986" lon="10.82993823673659"><ele>404.0</ele><time>2026-04-18T07:37:45.999Z</time></trkpt><trkpt lat="44.442896628350624" lon="10.829870548017764"><ele>405.33333333333337</ele><time>2026-04-18T07:37:46.999Z</time></trkpt><trkpt lat="44.44294640911314" lon="10.829782781610374"><ele>406.6666666666667</ele><time>2026-04-18T07:37:47.999Z</time></trkpt><trkpt lat="44.44299410014296" lon="10.829707005417056"><ele>408.0</ele><time>2026-04-18T07:37:48.999Z</time></trkpt><trkpt lat="44.44303384692156" lon="10.829614047497316"><ele>409.42857142857144</ele><time>2026-04-18T07:37:49.999Z</time></trkpt><trkpt lat="44.44306803417576" lon="10.82952126849668"><ele>410.8571428571429</ele><time>2026-04-18T07:37:50.999Z</time></trkpt><trkpt lat="44.44312754436578" lon="10.829425393678243"><ele>412.2857142857143</ele><time>2026-04-18T07:37:52.999Z</time></trkpt><trkpt lat="44.443134993408286" lon="10.829336841860647"><ele>413.7142857142857</ele><time>2026-04-18T07:37:55.999Z</time></trkpt><trkpt lat="44.44311730129598" lon="10.829250957684529"><ele>415.1428571428571</ele><time>2026-04-18T07:37:57.999Z</time></trkpt><trkpt lat="44.44307129476892" lon="10.829185077618055"><ele>416.57142857142856</ele><time>2026-04-18T07:38:01.999Z</time></trkpt><trkpt lat="44.44299831212633" lon="10.829148816771768"><ele>418.0</ele><time>2026-04-18T07:38:04.999Z</time></trkpt><trkpt lat="44.442930948547506" lon="10.829132048583448"><ele>418.42857142857144</ele><time>2026-04-18T07:38:10.999Z</time></trkpt><trkpt lat="44.44286348723394" lon="10.82913667960612"><ele>418.85714285714283</ele><time>2026-04-18T07:38:13.999Z</time></trkpt><trkpt lat="44.44278972961721" lon="10.829118247431905"><ele>419.28571428571433</ele><time>2026-04-18T07:38:16.999Z</time></trkpt><trkpt lat="44.4427286418635" lon="10.829077093903313"><ele>419.7142857142857</ele><time>2026-04-18T07:38:20Z</time></trkpt><trkpt lat="44.442658270162816" lon="10.829039977596121"><ele>420.14285714285717</ele><time>2026-04-18T07:38:24Z</time></trkpt><trkpt lat="44.44260148155459" lon="10.828994138324243"><ele>420.5714285714286</ele><time>2026-04-18T07:38:28Z</time></trkpt><trkpt lat="44.44251965088194" lon="10.828952803638977"><ele>421.0</ele><time>2026-04-18T07:38:32Z</time></trkpt><trkpt lat="44.44243304783944" lon="10.828894686642942"><ele>421.00000000000006</ele><time>2026-04-18T07:38:34Z</time></trkpt><trkpt lat="44.44236916772437" lon="10.828830567465177"><ele>421.0</ele><time>2026-04-18T07:38:36Z</time></trkpt><trkpt lat="44.44231924872264" lon="10.828749651937287"><ele>421.0</ele><time>2026-04-18T07:38:39Z</time></trkpt><trkpt lat="44.44226237601505" lon="10.828704965451157"><ele>421.0</ele><time>2026-04-18T07:38:47Z</time></trkpt><trkpt lat="44.442192136825405" lon="10.828673308024243"><ele>421.0</ele><time>2026-04-18T07:38:54Z</time></trkpt><trkpt lat="44.442125506160814" lon="10.828682670686721"><ele>421.00000000000006</ele><time>2026-04-18T07:39:05Z</time></trkpt><trkpt lat="44.44205118895952" lon="10.828686153805087"><ele>421.0</ele><time>2026-04-18T07:39:45.999Z</time></trkpt><trkpt lat="44.44199220191548" lon="10.828644027761994"><ele>420.00000000000006</ele><time>2026-04-18T07:39:54.999Z</time></trkpt><trkpt lat="44.4419305867284" lon="10.82859840871135"><ele>419.0</ele><time>2026-04-18T07:40:36Z</time></trkpt><trkpt lat="44.44185980438743" lon="10.828532387359727"><ele>418.0</ele><time>2026-04-18T07:40:40Z</time></trkpt><trkpt lat="44.441832333118" lon="10.828452272122671"><ele>417.0</ele><time>2026-04-18T07:40:49Z</time></trkpt><trkpt lat="44.44181289899032" lon="10.828361080096935"><ele>416.0</ele><time>2026-04-18T07:41:09Z</time></trkpt><trkpt lat="44.4418050457844" lon="10.828248761559935"><ele>415.00000000000006</ele><time>2026-04-18T07:41:13Z</time></trkpt><trkpt lat="44.44178817183973" lon="10.828140679461635"><ele>414.0</ele><time>2026-04-18T07:41:16Z</time></trkpt><trkpt lat="44.44178474890603" lon="10.828015066187703"><ele>416.8333333333333</ele><time>2026-04-18T07:41:19Z</time></trkpt><trkpt lat="44.44179282640182" lon="10.82791655408152"><ele>419.66666666666663</ele><time>2026-04-18T07:41:21Z</time></trkpt><trkpt lat="44.44176973179308" lon="10.82778938998124"><ele>422.5</ele><time>2026-04-18T07:41:23Z</time></trkpt><trkpt lat="44.44180737738363" lon="10.827717003338126"><ele>425.3333333333333</ele><time>2026-04-18T07:41:25Z</time></trkpt><trkpt lat="44.44191403881614" lon="10.82764255595325"><ele>428.16666666666663</ele><time>2026-04-18T07:41:28Z</time></trkpt><trkpt lat="44.44199228815392" lon="10.827589170164627"><ele>431.0</ele><time>2026-04-18T07:41:30Z</time></trkpt><trkpt lat="44.44205502948433" lon="10.827535375633934"><ele>433.8333333333333</ele><time>2026-04-18T07:41:33Z</time></trkpt><trkpt lat="44.44210126830017" lon="10.827454133870809"><ele>436.66666666666663</ele><time>2026-04-18T07:41:35Z</time></trkpt><trkpt lat="44.4420996050626" lon="10.827365660089066"><ele>439.5</ele><time>2026-04-18T07:41:36.999Z</time></trkpt><trkpt lat="44.44202712423344" lon="10.827274025937708"><ele>442.33333333333337</ele><time>2026-04-18T07:41:39.999Z</time></trkpt><trkpt lat="44.44197802972136" lon="10.827159246743008"><ele>445.1666666666667</ele><time>2026-04-18T07:41:41.999Z</time></trkpt><trkpt lat="44.441919146268475" lon="10.827066725982284"><ele>448.0</ele><time>2026-04-18T07:41:43.999Z</time></trkpt><trkpt lat="44.44185680516317" lon="10.826977066825265"><ele>448.00000000000006</ele><time>2026-04-18T07:41:45.999Z</time></trkpt><trkpt lat="44.44178312610039" lon="10.82687339152079"><ele>448.0</ele><time>2026-04-18T07:41:47.999Z</time></trkpt><trkpt lat="44.44173869514051" lon="10.826756107687322"><ele>448.0</ele><time>2026-04-18T07:41:49.999Z</time></trkpt><trkpt lat="44.44170816249764" lon="10.82664856326733"><ele>448.0</ele><time>2026-04-18T07:41:51.999Z</time></trkpt><trkpt lat="44.44168255431821" lon="10.826547413200892"><ele>448.00000000000006</ele><time>2026-04-18T07:41:54.999Z</time></trkpt><trkpt lat="44.44165402100727" lon="10.826444671344243"><ele>448.0</ele><time>2026-04-18T07:41:58.999Z</time></trkpt><trkpt lat="44.441621898583556" lon="10.82633810183918"><ele>450.33333333333337</ele><time>2026-04-18T07:42:00.999Z</time></trkpt><trkpt lat="44.441573915921275" lon="10.826260981517454"><ele>452.6666666666667</ele><time>2026-04-18T07:42:03.999Z</time></trkpt><trkpt lat="44.44152664714782" lon="10.826147397404263"><ele>455.0</ele><time>2026-04-18T07:42:06.999Z</time></trkpt><trkpt lat="44.44148368005437" lon="10.82602912679618"><ele>457.33333333333337</ele><time>2026-04-18T07:42:08.999Z</time></trkpt><trkpt lat="44.44144821964581" lon="10.825935154111653"><ele>459.6666666666667</ele><time>2026-04-18T07:42:10.999Z</time></trkpt><trkpt lat="44.441423885825216" lon="10.825813328562159"><ele>462.0</ele><time>2026-04-18T07:42:14.999Z</time></trkpt><trkpt lat="44.44137897892904" lon="10.8257021138739"><ele>464.3333333333333</ele><time>2026-04-18T07:42:15.999Z</time></trkpt><trkpt lat="44.44134624584161" lon="10.825617009811786"><ele>466.66666666666663</ele><time>2026-04-18T07:42:16.999Z</time></trkpt><trkpt lat="44.441332274814364" lon="10.825492946581406"><ele>469.0</ele><time>2026-04-18T07:42:18.999Z</time></trkpt><trkpt lat="44.44132474107194" lon="10.825354792274966"><ele>471.3333333333333</ele><time>2026-04-18T07:42:20.999Z</time></trkpt><trkpt lat="44.441328225282035" lon="10.825247023406533"><ele>473.66666666666663</ele><time>2026-04-18T07:42:22.999Z</time></trkpt><trkpt lat="44.44135268922911" lon="10.825161011852199"><ele>476.0</ele><time>2026-04-18T07:42:24.999Z</time></trkpt><trkpt lat="44.44139950184346" lon="10.82507253935462"><ele>477.99999999999994</ele><time>2026-04-18T07:42:26.999Z</time></trkpt><trkpt lat="44.44144109065263" lon="10.82497360979579"><ele>480.0</ele><time>2026-04-18T07:42:28.999Z</time></trkpt><trkpt lat="44.44145878567604" lon="10.824884333337776"><ele>482.0</ele><time>2026-04-18T07:42:32Z</time></trkpt><trkpt lat="44.44150443868841" lon="10.824800131674627"><ele>484.0</ele><time>2026-04-18T07:42:34Z</time></trkpt><trkpt lat="44.44153598137223" lon="10.824717508262516"><ele>485.99999999999994</ele><time>2026-04-18T07:42:36Z</time></trkpt><trkpt lat="44.441585327654245" lon="10.82452541261736"><ele>488.0</ele><time>2026-04-18T07:42:38Z</time></trkpt><trkpt lat="44.441617509876394" lon="10.824371623758044"><ele>489.16666666666663</ele><time>2026-04-18T07:42:40Z</time></trkpt><trkpt lat="44.44161920923149" lon="10.824221789706664"><ele>490.3333333333333</ele><time>2026-04-18T07:42:42Z</time></trkpt><trkpt lat="44.44161409519214" lon="10.824078332079072"><ele>491.5</ele><time>2026-04-18T07:42:44Z</time></trkpt><trkpt lat="44.44160558975403" lon="10.823990712357634"><ele>492.66666666666663</ele><time>2026-04-18T07:42:45Z</time></trkpt><trkpt lat="44.4415921054733" lon="10.823887449537278"><ele>493.8333333333333</ele><time>2026-04-18T07:42:46Z</time></trkpt><trkpt lat="44.441570838390504" lon="10.823782989425014"><ele>495.0</ele><time>2026-04-18T07:42:47Z</time></trkpt><trkpt lat="44.44154362935269" lon="10.823682560375842"><ele>495.0</ele><time>2026-04-18T07:42:48Z</time></trkpt><trkpt lat="44.44152127160231" lon="10.82356952522422"><ele>495.0</ele><time>2026-04-18T07:42:49Z</time></trkpt><trkpt lat="44.44150186116989" lon="10.823443810513458"><ele>495.0</ele><time>2026-04-18T07:42:50Z</time></trkpt><trkpt lat="44.44148855472815" lon="10.823332180423808"><ele>495.0</ele><time>2026-04-18T07:42:51Z</time></trkpt><trkpt lat="44.44146990844222" lon="10.823221903545253"><ele>495.0</ele><time>2026-04-18T07:42:52Z</time></trkpt><trkpt lat="44.441453993269796" lon="10.823130037119544"><ele>495.0</ele><time>2026-04-18T07:42:53Z</time></trkpt><trkpt lat="44.441428373496805" lon="10.823013473551592"><ele>496.5</ele><time>2026-04-18T07:42:57Z</time></trkpt><trkpt lat="44.44140582524683" lon="10.822927232975116"><ele>498.0</ele><time>2026-04-18T07:42:58Z</time></trkpt><trkpt lat="44.44138886492232" lon="10.822817656932617"><ele>499.5</ele><time>2026-04-18T07:42:59Z</time></trkpt><trkpt lat="44.44136745330274" lon="10.822709073002041"><ele>501.0</ele><time>2026-04-18T07:43:01Z</time></trkpt><trkpt lat="44.44144129665753" lon="10.82271671939695"><ele>502.5</ele><time>2026-04-18T07:43:04Z</time></trkpt><trkpt lat="44.44148743714069" lon="10.82279437289946"><ele>504.0</ele><time>2026-04-18T07:43:06Z</time></trkpt><trkpt lat="44.44156038644699" lon="10.822839944548019"><ele>504.0</ele><time>2026-04-18T07:43:12Z</time></trkpt><trkpt lat="44.44163226731833" lon="10.822868575009336"><ele>504.0</ele><time>2026-04-18T07:43:13Z</time></trkpt><trkpt lat="44.44170097989866" lon="10.822897462898084"><ele>504.0</ele><time>2026-04-18T07:43:14Z</time></trkpt><trkpt lat="44.44176777396661" lon="10.822928497975152"><ele>504.0</ele><time>2026-04-18T07:43:15Z</time></trkpt><trkpt lat="44.441829525638774" lon="10.82296158195314"><ele>504.0</ele><time>2026-04-18T07:43:16Z</time></trkpt><trkpt lat="44.441927283438915" lon="10.823002165213927"><ele>504.0</ele><time>2026-04-18T07:43:18Z</time></trkpt><trkpt lat="44.44202483090379" lon="10.823063198944936"><ele>504.0</ele><time>2026-04-18T07:43:20Z</time></trkpt><trkpt lat="44.442129499086626" lon="10.823154172546035"><ele>504.0</ele><time>2026-04-18T07:43:22Z</time></trkpt><trkpt lat="44.44219027609687" lon="10.82320453290564"><ele>504.0</ele><time>2026-04-18T07:43:23Z</time></trkpt><trkpt lat="44.442259363907645" lon="10.82326083531043"><ele>504.0</ele><time>2026-04-18T07:43:24Z</time></trkpt><trkpt lat="44.44232418665269" lon="10.823328220787149"><ele>504.0</ele><time>2026-04-18T07:43:25Z</time></trkpt><trkpt lat="44.442393357518306" lon="10.823391846844967"><ele>504.0</ele><time>2026-04-18T07:43:26Z</time></trkpt><trkpt lat="44.44246640303406" lon="10.823452055684916"><ele>504.1666666666667</ele><time>2026-04-18T07:43:27Z</time></trkpt><trkpt lat="44.44254113049254" lon="10.823512853665026"><ele>504.33333333333337</ele><time>2026-04-18T07:43:28Z</time></trkpt><trkpt lat="44.44260880624156" lon="10.823580942874644"><ele>504.5</ele><time>2026-04-18T07:43:29Z</time></trkpt><trkpt lat="44.442680596759445" lon="10.823641031649835"><ele>504.6666666666667</ele><time>2026-04-18T07:43:30Z</time></trkpt><trkpt lat="44.442757207285105" lon="10.823688546522982"><ele>504.83333333333337</ele><time>2026-04-18T07:43:31Z</time></trkpt><trkpt lat="44.442847113167396" lon="10.823725612385713"><ele>505.0</ele><time>2026-04-18T07:43:32Z</time></trkpt><trkpt lat="44.44293264735263" lon="10.82376054524382"><ele>505.75</ele><time>2026-04-18T07:43:33Z</time></trkpt><trkpt lat="44.44303883890945" lon="10.823812576152843"><ele>506.5</ele><time>2026-04-18T07:43:34Z</time></trkpt><trkpt lat="44.44316171672423" lon="10.823886946954952"><ele>507.25</ele><time>2026-04-18T07:43:35Z</time></trkpt><trkpt lat="44.44328764564775" lon="10.82397337052486"><ele>508.0</ele><time>2026-04-18T07:43:36Z</time></trkpt><trkpt lat="44.44343454221969" lon="10.82407689285668"><ele>508.0</ele><time>2026-04-18T07:43:36.999Z</time></trkpt><trkpt lat="44.44356950072027" lon="10.824161335530782"><ele>508.0</ele><time>2026-04-18T07:43:37.999Z</time></trkpt><trkpt lat="44.44370023448418" lon="10.824233585445132"><ele>508.0</ele><time>2026-04-18T07:43:38.999Z</time></trkpt><trkpt lat="44.443801899713776" lon="10.824324643203436"><ele>508.0</ele><time>2026-04-18T07:43:39.999Z</time></trkpt><trkpt lat="44.44390964720442" lon="10.824363546218299"><ele>505.79999999999995</ele><time>2026-04-18T07:43:40.999Z</time></trkpt><trkpt lat="44.44399702626326" lon="10.82441179964656"><ele>503.59999999999997</ele><time>2026-04-18T07:43:41.999Z</time></trkpt><trkpt lat="44.44408895536918" lon="10.824432216730175"><ele>501.40000000000003</ele><time>2026-04-18T07:43:42.999Z</time></trkpt><trkpt lat="44.44420075178502" lon="10.824474169827015"><ele>499.20000000000005</ele><time>2026-04-18T07:43:43.999Z</time></trkpt><trkpt lat="44.444322664250954" lon="10.824478950159591"><ele>497.0</ele><time>2026-04-18T07:43:44.999Z</time></trkpt><trkpt lat="44.44445288054334" lon="10.82446617953076"><ele>497.0</ele><time>2026-04-18T07:43:45.999Z</time></trkpt><trkpt lat="44.444564592866165" lon="10.824447945309776"><ele>497.00000000000006</ele><time>2026-04-18T07:43:46.999Z</time></trkpt><trkpt lat="44.4446751947524" lon="10.824420375715992"><ele>497.00000000000006</ele><time>2026-04-18T07:43:47.999Z</time></trkpt><trkpt lat="44.444781348220644" lon="10.824375033986511"><ele>497.0</ele><time>2026-04-18T07:43:48.999Z</time></trkpt><trkpt lat="44.44489036881003" lon="10.824386152991543"><ele>497.0</ele><time>2026-04-18T07:43:49.999Z</time></trkpt><trkpt lat="44.44498946503284" lon="10.824403681394719"><ele>496.8</ele><time>2026-04-18T07:43:50.999Z</time></trkpt><trkpt lat="44.44508206445361" lon="10.824468266180508"><ele>496.6</ele><time>2026-04-18T07:43:51.999Z</time></trkpt><trkpt lat="44.44517178141329" lon="10.824535349932098"><ele>496.40000000000003</ele><time>2026-04-18T07:43:52.999Z</time></trkpt><trkpt lat="44.44526361164735" lon="10.82460999740196"><ele>496.20000000000005</ele><time>2026-04-18T07:43:53.999Z</time></trkpt><trkpt lat="44.445352816980936" lon="10.824660706216275"><ele>496.0</ele><time>2026-04-18T07:43:54.999Z</time></trkpt><trkpt lat="44.445447733759266" lon="10.82468775325886"><ele>495.8</ele><time>2026-04-18T07:43:55.999Z</time></trkpt><trkpt lat="44.44554607728753" lon="10.824737898198576"><ele>495.6</ele><time>2026-04-18T07:43:56.999Z</time></trkpt><trkpt lat="44.445647902632444" lon="10.824785316757376"><ele>495.4</ele><time>2026-04-18T07:43:57.999Z</time></trkpt><trkpt lat="44.44575600903624" lon="10.824833106282762"><ele>495.2</ele><time>2026-04-18T07:43:58.999Z</time></trkpt><trkpt lat="44.44586230691932" lon="10.824875762358982"><ele>495.0</ele><time>2026-04-18T07:43:59.999Z</time></trkpt><trkpt lat="44.44597885917459" lon="10.824914229436573"><ele>495.0</ele><time>2026-04-18T07:44:00.999Z</time></trkpt><trkpt lat="44.44609194938915" lon="10.824943022027876"><ele>495.0</ele><time>2026-04-18T07:44:01.999Z</time></trkpt><trkpt lat="44.44621954803627" lon="10.824895680050655"><ele>495.0</ele><time>2026-04-18T07:44:02.999Z</time></trkpt><trkpt lat="44.446347705829275" lon="10.824881297546995"><ele>495.0</ele><time>2026-04-18T07:44:03.999Z</time></trkpt><trkpt lat="44.446457719972756" lon="10.824829718511879"><ele>494.0</ele><time>2026-04-18T07:44:04.999Z</time></trkpt><trkpt lat="44.446566218433055" lon="10.824820752298727"><ele>493.0</ele><time>2026-04-18T07:44:05.999Z</time></trkpt><trkpt lat="44.44666762027834" lon="10.824798017505735"><ele>492.0</ele><time>2026-04-18T07:44:06.999Z</time></trkpt><trkpt lat="44.44676081723842" lon="10.824766372227257"><ele>491.0</ele><time>2026-04-18T07:44:07.999Z</time></trkpt><trkpt lat="44.44685696586343" lon="10.82479262976324"><ele>490.0</ele><time>2026-04-18T07:44:08.999Z</time></trkpt><trkpt lat="44.44694070160591" lon="10.824845681294889"><ele>490.0</ele><time>2026-04-18T07:44:09.999Z</time></trkpt><trkpt lat="44.447022402942665" lon="10.824935590186715"><ele>490.0</ele><time>2026-04-18T07:44:10.999Z</time></trkpt><trkpt lat="44.44710253947212" lon="10.825040678673773"><ele>490.0</ele><time>2026-04-18T07:44:11.999Z</time></trkpt><trkpt lat="44.44717612947959" lon="10.825140619046339"><ele>490.0</ele><time>2026-04-18T07:44:12.999Z</time></trkpt><trkpt lat="44.44723796565996" lon="10.825225404297758"><ele>490.0</ele><time>2026-04-18T07:44:13.999Z</time></trkpt><trkpt lat="44.447313771091395" lon="10.825284251390338"><ele>487.75</ele><time>2026-04-18T07:44:14.999Z</time></trkpt><trkpt lat="44.44741314157139" lon="10.825334396025019"><ele>485.5</ele><time>2026-04-18T07:44:15.999Z</time></trkpt><trkpt lat="44.44752860109005" lon="10.825359739875728"><ele>483.25</ele><time>2026-04-18T07:44:16.999Z</time></trkpt><trkpt lat="44.447650962053466" lon="10.8253613271731"><ele>481.0</ele><time>2026-04-18T07:44:17.999Z</time></trkpt><trkpt lat="44.44776179491737" lon="10.825368809521068"><ele>481.0</ele><time>2026-04-18T07:44:18.999Z</time></trkpt><trkpt lat="44.44785955855483" lon="10.825360251236415"><ele>481.0</ele><time>2026-04-18T07:44:19.999Z</time></trkpt><trkpt lat="44.44794648963108" lon="10.82538004367832"><ele>481.0</ele><time>2026-04-18T07:44:20.999Z</time></trkpt><trkpt lat="44.4480271413036" lon="10.825375721498784"><ele>481.0</ele><time>2026-04-18T07:44:21.999Z</time></trkpt><trkpt lat="44.44812085972646" lon="10.825383609568345"><ele>481.0</ele><time>2026-04-18T07:44:22.999Z</time></trkpt><trkpt lat="44.448225860725714" lon="10.825408341327433"><ele>480.20000000000005</ele><time>2026-04-18T07:44:23.999Z</time></trkpt><trkpt lat="44.44832671074922" lon="10.825438121356054"><ele>479.40000000000003</ele><time>2026-04-18T07:44:24.999Z</time></trkpt><trkpt lat="44.448429491217944" lon="10.82546539300633"><ele>478.6</ele><time>2026-04-18T07:44:25.999Z</time></trkpt><trkpt lat="44.44852957536285" lon="10.825492804824098"><ele>477.8</ele><time>2026-04-18T07:44:26.999Z</time></trkpt><trkpt lat="44.44862743346686" lon="10.825521575794903"><ele>477.0</ele><time>2026-04-18T07:44:27.999Z</time></trkpt><trkpt lat="44.4487213095767" lon="10.8255608264359"><ele>475.6</ele><time>2026-04-18T07:44:28.999Z</time></trkpt><trkpt lat="44.448818512709046" lon="10.825595785861877"><ele>474.20000000000005</ele><time>2026-04-18T07:44:29.999Z</time></trkpt><trkpt lat="44.44891379370178" lon="10.825637827658266"><ele>472.8</ele><time>2026-04-18T07:44:30.999Z</time></trkpt><trkpt lat="44.449023600407465" lon="10.825675575149694"><ele>471.4</ele><time>2026-04-18T07:44:31.999Z</time></trkpt><trkpt lat="44.4491304346059" lon="10.825699949699757"><ele>470.0</ele><time>2026-04-18T07:44:32.999Z</time></trkpt><trkpt lat="44.449229453253906" lon="10.82571771047959"><ele>470.0</ele><time>2026-04-18T07:44:33.999Z</time></trkpt><trkpt lat="44.4493177348354" lon="10.82573826277037"><ele>470.0</ele><time>2026-04-18T07:44:34.999Z</time></trkpt><trkpt lat="44.44941219478596" lon="10.825756757699013"><ele>470.0</ele><time>2026-04-18T07:44:35.999Z</time></trkpt><trkpt lat="44.44950138245439" lon="10.825762250375382"><ele>470.0</ele><time>2026-04-18T07:44:36.999Z</time></trkpt><trkpt lat="44.44957769379584" lon="10.825784783728011"><ele>470.0</ele><time>2026-04-18T07:44:38Z</time></trkpt><trkpt lat="44.44970228226299" lon="10.825826886743497"><ele>467.8</ele><time>2026-04-18T07:44:40Z</time></trkpt><trkpt lat="44.449760395313504" lon="10.825929674486963"><ele>465.6</ele><time>2026-04-18T07:44:41Z</time></trkpt><trkpt lat="44.44979714643749" lon="10.826051297278093"><ele>463.4</ele><time>2026-04-18T07:44:42Z</time></trkpt><trkpt lat="44.44983926773367" lon="10.826165339235098"><ele>461.2</ele><time>2026-04-18T07:44:43Z</time></trkpt><trkpt lat="44.449911719917374" lon="10.826242302893048"><ele>459.0</ele><time>2026-04-18T07:44:44Z</time></trkpt><trkpt lat="44.449988044775296" lon="10.826300225888826"><ele>458.5</ele><time>2026-04-18T07:44:45Z</time></trkpt><trkpt lat="44.45006184422717" lon="10.826354033964835"><ele>458.0</ele><time>2026-04-18T07:44:46Z</time></trkpt><trkpt lat="44.45012903970731" lon="10.826408482111916"><ele>457.5</ele><time>2026-04-18T07:44:47Z</time></trkpt><trkpt lat="44.450195155678465" lon="10.826475891024574"><ele>457.0</ele><time>2026-04-18T07:44:48Z</time></trkpt><trkpt lat="44.45025693955064" lon="10.826545403260301"><ele>456.5</ele><time>2026-04-18T07:44:49Z</time></trkpt><trkpt lat="44.450320910418256" lon="10.826612379972142"><ele>456.0</ele><time>2026-04-18T07:44:50Z</time></trkpt><trkpt lat="44.45038437838178" lon="10.826677882070024"><ele>456.0</ele><time>2026-04-18T07:44:51Z</time></trkpt><trkpt lat="44.450446644936" lon="10.826729439579756"><ele>456.0</ele><time>2026-04-18T07:44:52Z</time></trkpt><trkpt lat="44.450520103140576" lon="10.826765852456008"><ele>456.0</ele><time>2026-04-18T07:44:53Z</time></trkpt><trkpt lat="44.45057936977275" lon="10.826819741364245"><ele>456.0</ele><time>2026-04-18T07:44:54Z</time></trkpt><trkpt lat="44.45063908647538" lon="10.826850956072255"><ele>456.0</ele><time>2026-04-18T07:44:55Z</time></trkpt><trkpt lat="44.45075668166341" lon="10.826911702465608"><ele>456.0</ele><time>2026-04-18T07:44:57Z</time></trkpt><trkpt lat="44.45084243872799" lon="10.826949240534079"><ele>454.75</ele><time>2026-04-18T07:44:59Z</time></trkpt><trkpt lat="44.450977704302915" lon="10.82674375513825"><ele>453.5</ele><time>2026-04-18T07:45:02Z</time></trkpt><trkpt lat="44.45100052308574" lon="10.82662863982751"><ele>452.25</ele><time>2026-04-18T07:45:03Z</time></trkpt><trkpt lat="44.45101894861953" lon="10.826507529605545"><ele>451.0</ele><time>2026-04-18T07:45:04Z</time></trkpt><trkpt lat="44.451019047329744" lon="10.826396604947384"><ele>451.0</ele><time>2026-04-18T07:45:05Z</time></trkpt><trkpt lat="44.45099385742508" lon="10.826305153688157"><ele>451.0</ele><time>2026-04-18T07:45:06Z</time></trkpt><trkpt lat="44.450945411032855" lon="10.826228992235523"><ele>451.0</ele><time>2026-04-18T07:45:07Z</time></trkpt><trkpt lat="44.45087622857579" lon="10.82616554758554"><ele>451.0</ele><time>2026-04-18T07:45:08Z</time></trkpt><trkpt lat="44.45081566254843" lon="10.826097035902638"><ele>451.0</ele><time>2026-04-18T07:45:09Z</time></trkpt><trkpt lat="44.45074775378635" lon="10.826057401010074"><ele>451.0</ele><time>2026-04-18T07:45:10Z</time></trkpt><trkpt lat="44.450692811542496" lon="10.826010345546758"><ele>451.0</ele><time>2026-04-18T07:45:11Z</time></trkpt><trkpt lat="44.45062971890747" lon="10.825998206725572"><ele>451.0</ele><time>2026-04-18T07:45:12Z</time></trkpt><trkpt lat="44.450524945704196" lon="10.826035144410177"><ele>451.0</ele><time>2026-04-18T07:45:14Z</time></trkpt><trkpt lat="44.45040861723765" lon="10.826041935775013"><ele>451.0</ele><time>2026-04-18T07:45:16Z</time></trkpt><trkpt lat="44.45031126723694" lon="10.825953685287658"><ele>451.0</ele><time>2026-04-18T07:45:18Z</time></trkpt><trkpt lat="44.45021051733107" lon="10.825845631056493"><ele>452.1428571428571</ele><time>2026-04-18T07:45:20Z</time></trkpt><trkpt lat="44.450160708314634" lon="10.825771066683052"><ele>453.28571428571433</ele><time>2026-04-18T07:45:21Z</time></trkpt><trkpt lat="44.45011927910017" lon="10.825692797087564"><ele>454.42857142857144</ele><time>2026-04-18T07:45:22Z</time></trkpt><trkpt lat="44.450066659068455" lon="10.82562904427519"><ele>455.57142857142856</ele><time>2026-04-18T07:45:23Z</time></trkpt><trkpt lat="44.45003420210221" lon="10.825545266774032"><ele>456.71428571428567</ele><time>2026-04-18T07:45:24Z</time></trkpt><trkpt lat="44.45000366033859" lon="10.825438110226141"><ele>457.8571428571429</ele><time>2026-04-18T07:45:25Z</time></trkpt><trkpt lat="44.449982819325896" lon="10.825334107512878"><ele>459.0</ele><time>2026-04-18T07:45:26Z</time></trkpt><trkpt lat="44.449962687827195" lon="10.825238304732531"><ele>456.4</ele><time>2026-04-18T07:45:27Z</time></trkpt><trkpt lat="44.44993046130727" lon="10.825132376308364"><ele>453.79999999999995</ele><time>2026-04-18T07:45:28Z</time></trkpt><trkpt lat="44.44988524694467" lon="10.824965403313886"><ele>451.20000000000005</ele><time>2026-04-18T07:45:30Z</time></trkpt><trkpt lat="44.44986958504339" lon="10.824803233764014"><ele>448.6</ele><time>2026-04-18T07:45:32Z</time></trkpt><trkpt lat="44.44981817285806" lon="10.824668069541383"><ele>446.0</ele><time>2026-04-18T07:45:34Z</time></trkpt><trkpt lat="44.4497744678495" lon="10.824576333197307"><ele>445.99999999999994</ele><time>2026-04-18T07:45:35Z</time></trkpt><trkpt lat="44.44970855653072" lon="10.82449844485854"><ele>446.0</ele><time>2026-04-18T07:45:36Z</time></trkpt><trkpt lat="44.44963864790455" lon="10.82442465922321"><ele>446.0</ele><time>2026-04-18T07:45:37Z</time></trkpt><trkpt lat="44.44956531465055" lon="10.824364288676623"><ele>446.0</ele><time>2026-04-18T07:45:37.999Z</time></trkpt><trkpt lat="44.449505783538264" lon="10.824312915538101"><ele>445.99999999999994</ele><time>2026-04-18T07:45:38.999Z</time></trkpt><trkpt lat="44.44944565391411" lon="10.824277050145982"><ele>446.0</ele><time>2026-04-18T07:45:39.999Z</time></trkpt><trkpt lat="44.44941062893306" lon="10.824201271981222"><ele>446.4</ele><time>2026-04-18T07:45:40.999Z</time></trkpt><trkpt lat="44.449329174898956" lon="10.824076740714515"><ele>446.8</ele><time>2026-04-18T07:45:42.999Z</time></trkpt><trkpt lat="44.44922428745853" lon="10.823977958959983"><ele>447.19999999999993</ele><time>2026-04-18T07:45:44.999Z</time></trkpt><trkpt lat="44.449171734449955" lon="10.823919948585768"><ele>447.59999999999997</ele><time>2026-04-18T07:45:45.999Z</time></trkpt><trkpt lat="44.449106406566294" lon="10.823787178371472"><ele>448.0</ele><time>2026-04-18T07:45:47.999Z</time></trkpt><trkpt lat="44.449104248630796" lon="10.823631324792913"><ele>448.0</ele><time>2026-04-18T07:45:49.999Z</time></trkpt><trkpt lat="44.44911575225093" lon="10.823543704449275"><ele>447.99999999999994</ele><time>2026-04-18T07:45:50.999Z</time></trkpt><trkpt lat="44.44914524524201" lon="10.823401857422343"><ele>447.99999999999994</ele><time>2026-04-18T07:45:52.999Z</time></trkpt><trkpt lat="44.449197474450024" lon="10.82326928653767"><ele>448.0</ele><time>2026-04-18T07:45:54.999Z</time></trkpt><trkpt lat="44.44924346645481" lon="10.823138970537016"><ele>448.0</ele><time>2026-04-18T07:45:56.999Z</time></trkpt><trkpt lat="44.449288694457344" lon="10.82301332051297"><ele>444.75</ele><time>2026-04-18T07:45:58.999Z</time></trkpt><trkpt lat="44.44932136372848" lon="10.822921778144314"><ele>441.5</ele><time>2026-04-18T07:45:59.999Z</time></trkpt><trkpt lat="44.44936005551875" lon="10.822796035311788"><ele>438.25</ele><time>2026-04-18T07:46:01.999Z</time></trkpt><trkpt lat="44.449382999994235" lon="10.82267277733321"><ele>435.0</ele><time>2026-04-18T07:46:04.999Z</time></trkpt><trkpt lat="44.44889393538255" lon="10.82238619372873"><ele>434.8333333333333</ele><time>2026-04-18T07:46:06.999Z</time></trkpt><trkpt lat="44.44883202587877" lon="10.82233205947026"><ele>434.66666666666663</ele><time>2026-04-18T07:46:07.999Z</time></trkpt><trkpt lat="44.44877867772834" lon="10.82227321110439"><ele>434.5</ele><time>2026-04-18T07:46:08.999Z</time></trkpt><trkpt lat="44.44872189647651" lon="10.82220679154439"><ele>434.3333333333333</ele><time>2026-04-18T07:46:09.999Z</time></trkpt><trkpt lat="44.44867949010384" lon="10.822135523824834"><ele>434.16666666666663</ele><time>2026-04-18T07:46:10.999Z</time></trkpt><trkpt lat="44.448569931328734" lon="10.82200489899361"><ele>434.0</ele><time>2026-04-18T07:46:12.999Z</time></trkpt><trkpt lat="44.4485010000852" lon="10.821918833815792"><ele>437.49999999999994</ele><time>2026-04-18T07:46:13.999Z</time></trkpt><trkpt lat="44.44843992537744" lon="10.82183285750281"><ele>441.0</ele><time>2026-04-18T07:46:14.999Z</time></trkpt><trkpt lat="44.44838410541356" lon="10.821750904539782"><ele>444.5</ele><time>2026-04-18T07:46:15.999Z</time></trkpt><trkpt lat="44.44833266762864" lon="10.821683600340705"><ele>448.0</ele><time>2026-04-18T07:46:16.999Z</time></trkpt><trkpt lat="44.448292727456305" lon="10.821590133064966"><ele>451.49999999999994</ele><time>2026-04-18T07:46:18.999Z</time></trkpt><trkpt lat="44.44830030460334" lon="10.821427244039644"><ele>455.0</ele><time>2026-04-18T07:46:20.999Z</time></trkpt><trkpt lat="44.448337536036185" lon="10.821338823595486"><ele>455.8333333333333</ele><time>2026-04-18T07:46:21.999Z</time></trkpt><trkpt lat="44.448391314698284" lon="10.821255897495426"><ele>456.66666666666663</ele><time>2026-04-18T07:46:22.999Z</time></trkpt><trkpt lat="44.4484343477254" lon="10.821174263029667"><ele>457.5</ele><time>2026-04-18T07:46:23.999Z</time></trkpt><trkpt lat="44.44846359249957" lon="10.82108286492742"><ele>458.33333333333337</ele><time>2026-04-18T07:46:25.999Z</time></trkpt><trkpt lat="44.44842369936184" lon="10.820982108675599"><ele>459.1666666666667</ele><time>2026-04-18T07:46:27.999Z</time></trkpt><trkpt lat="44.448332928880916" lon="10.820904489000736"><ele>460.0</ele><time>2026-04-18T07:46:29.999Z</time></trkpt><trkpt lat="44.4482407592268" lon="10.820837957255465"><ele>461.2857142857142</ele><time>2026-04-18T07:46:31.999Z</time></trkpt><trkpt lat="44.44818438389007" lon="10.820788931116898"><ele>462.57142857142856</ele><time>2026-04-18T07:46:33.999Z</time></trkpt><trkpt lat="44.44814635398812" lon="10.820698613070714"><ele>463.85714285714283</ele><time>2026-04-18T07:46:57Z</time></trkpt><trkpt lat="44.44820502497915" lon="10.820643962743349"><ele>465.1428571428571</ele><time>2026-04-18T07:47:01Z</time></trkpt><trkpt lat="44.44825970842624" lon="10.820600069712013"><ele>466.42857142857144</ele><time>2026-04-18T07:47:06Z</time></trkpt><trkpt lat="44.44831082372393" lon="10.820525997135357"><ele>467.7142857142857</ele><time>2026-04-18T07:47:10Z</time></trkpt><trkpt lat="44.448365009242586" lon="10.820446082759592"><ele>469.0</ele><time>2026-04-18T07:47:14Z</time></trkpt><trkpt lat="44.44840915290554" lon="10.82036854749089"><ele>469.00000000000006</ele><time>2026-04-18T07:47:18Z</time></trkpt><trkpt lat="44.44844831896004" lon="10.820265944724536"><ele>469.0</ele><time>2026-04-18T07:47:22Z</time></trkpt><trkpt lat="44.448484965351724" lon="10.820179174574939"><ele>469.0</ele><time>2026-04-18T07:47:25Z</time></trkpt><trkpt lat="44.44853038334229" lon="10.820086501624235"><ele>469.0</ele><time>2026-04-18T07:47:28Z</time></trkpt><trkpt lat="44.44857977218392" lon="10.820003237079339"><ele>469.00000000000006</ele><time>2026-04-18T07:47:31Z</time></trkpt><trkpt lat="44.44862082214128" lon="10.819919223655567"><ele>469.0</ele><time>2026-04-18T07:47:34Z</time></trkpt><trkpt lat="44.44865376332874" lon="10.819829594411862"><ele>467.33333333333337</ele><time>2026-04-18T07:47:37Z</time></trkpt><trkpt lat="44.448666886500426" lon="10.819708852572658"><ele>465.6666666666667</ele><time>2026-04-18T07:47:40Z</time></trkpt><trkpt lat="44.44866725392981" lon="10.819592711384455"><ele>464.0</ele><time>2026-04-18T07:47:43Z</time></trkpt><trkpt lat="44.44864706397289" lon="10.819504266350153"><ele>462.33333333333337</ele><time>2026-04-18T07:47:45Z</time></trkpt><trkpt lat="44.44860531398105" lon="10.819412453027034"><ele>460.6666666666667</ele><time>2026-04-18T07:47:46.999Z</time></trkpt><trkpt lat="44.448587840922926" lon="10.819312861678316"><ele>459.0</ele><time>2026-04-18T07:47:48.999Z</time></trkpt><trkpt lat="44.44861642848168" lon="10.819229746386197"><ele>456.14285714285717</ele><time>2026-04-18T07:47:50.999Z</time></trkpt><trkpt lat="44.44863497057296" lon="10.819125823647799"><ele>453.2857142857143</ele><time>2026-04-18T07:47:52.999Z</time></trkpt><trkpt lat="44.44866109001318" lon="10.819009239021339"><ele>450.42857142857144</ele><time>2026-04-18T07:47:55.999Z</time></trkpt><trkpt lat="44.4486809910807" lon="10.818909450368329"><ele>447.57142857142856</ele><time>2026-04-18T07:47:57.999Z</time></trkpt><trkpt lat="44.44868121872137" lon="10.818811333056594"><ele>444.71428571428567</ele><time>2026-04-18T07:47:59.999Z</time></trkpt><trkpt lat="44.44867522267047" lon="10.818710469289822"><ele>441.85714285714283</ele><time>2026-04-18T07:48:01.999Z</time></trkpt><trkpt lat="44.44865557460896" lon="10.818623750181281"><ele>439.0</ele><time>2026-04-18T07:48:03.999Z</time></trkpt><trkpt lat="44.44857861912896" lon="10.818572254496837"><ele>439.00000000000006</ele><time>2026-04-18T07:48:05.999Z</time></trkpt><trkpt lat="44.448511291624094" lon="10.81854673011032"><ele>439.0</ele><time>2026-04-18T07:48:06.999Z</time></trkpt><trkpt lat="44.448442780086374" lon="10.818537108422584"><ele>439.0</ele><time>2026-04-18T07:48:07.999Z</time></trkpt><trkpt lat="44.448378432497414" lon="10.818517846869526"><ele>439.0</ele><time>2026-04-18T07:48:08.999Z</time></trkpt><trkpt lat="44.44824950449072" lon="10.818522730595785"><ele>439.00000000000006</ele><time>2026-04-18T07:48:10.999Z</time></trkpt><trkpt lat="44.44817372609202" lon="10.818530369496976"><ele>439.0</ele><time>2026-04-18T07:48:11.999Z</time></trkpt><trkpt lat="44.448099682656284" lon="10.8185291141834"><ele>439.0</ele><time>2026-04-18T07:48:12.999Z</time></trkpt><trkpt lat="44.447999723557096" lon="10.81852753290633"><ele>439.0</ele><time>2026-04-18T07:48:14.999Z</time></trkpt><trkpt lat="44.44787390202256" lon="10.818556774247892"><ele>439.0</ele><time>2026-04-18T07:48:16.999Z</time></trkpt><trkpt lat="44.447793959574156" lon="10.818546254686689"><ele>439.0</ele><time>2026-04-18T07:48:17.999Z</time></trkpt><trkpt lat="44.44771542560608" lon="10.818517750880916"><ele>439.0</ele><time>2026-04-18T07:48:18.999Z</time></trkpt><trkpt lat="44.44763255957743" lon="10.818480356569316"><ele>436.50000000000006</ele><time>2026-04-18T07:48:19.999Z</time></trkpt><trkpt lat="44.44756854553331" lon="10.818455090715986"><ele>434.0</ele><time>2026-04-18T07:48:20.999Z</time></trkpt><trkpt lat="44.44747516817627" lon="10.81842383637382"><ele>431.5</ele><time>2026-04-18T07:48:22.999Z</time></trkpt><trkpt lat="44.447436760791625" lon="10.818319816398438"><ele>429.0</ele><time>2026-04-18T07:48:24.999Z</time></trkpt><trkpt lat="44.44746138790691" lon="10.81817668460787"><ele>426.50000000000006</ele><time>2026-04-18T07:48:26.999Z</time></trkpt><trkpt lat="44.44750224334549" lon="10.81805252389041"><ele>424.0</ele><time>2026-04-18T07:48:28.999Z</time></trkpt><trkpt lat="44.44755472900067" lon="10.817913681772207"><ele>424.00000000000006</ele><time>2026-04-18T07:48:30.999Z</time></trkpt><trkpt lat="44.44759810949767" lon="10.817810559948454"><ele>424.0</ele><time>2026-04-18T07:48:32.999Z</time></trkpt><trkpt lat="44.447604317724974" lon="10.817708045555122"><ele>424.0</ele><time>2026-04-18T07:48:35.999Z</time></trkpt><trkpt lat="44.447516494567864" lon="10.817640934735529"><ele>424.0</ele><time>2026-04-18T07:48:38.999Z</time></trkpt><trkpt lat="44.44744876562879" lon="10.817606147381744"><ele>424.00000000000006</ele><time>2026-04-18T07:48:39.999Z</time></trkpt><trkpt lat="44.44737543039139" lon="10.817573794937845"><ele>424.0</ele><time>2026-04-18T07:48:41.999Z</time></trkpt><trkpt lat="44.44731633344752" lon="10.817536152289888"><ele>421.79999999999995</ele><time>2026-04-18T07:48:45.999Z</time></trkpt><trkpt lat="44.447257882729126" lon="10.817492913766708"><ele>419.59999999999997</ele><time>2026-04-18T07:48:50Z</time></trkpt><trkpt lat="44.44718662462472" lon="10.817438194974248"><ele>417.4</ele><time>2026-04-18T07:48:52Z</time></trkpt><trkpt lat="44.447101405592925" lon="10.817396403684333"><ele>415.2</ele><time>2026-04-18T07:48:54Z</time></trkpt><trkpt lat="44.446986293689406" lon="10.817400600023914"><ele>413.0</ele><time>2026-04-18T07:48:56Z</time></trkpt><trkpt lat="44.446892324832326" lon="10.817433262772795"><ele>412.99999999999994</ele><time>2026-04-18T07:48:58Z</time></trkpt><trkpt lat="44.44680750957644" lon="10.817477306210861"><ele>413.0</ele><time>2026-04-18T07:49:00Z</time></trkpt><trkpt lat="44.44669850851665" lon="10.817528363666126"><ele>413.0</ele><time>2026-04-18T07:49:02Z</time></trkpt><trkpt lat="44.44664067223261" lon="10.817572385675122"><ele>413.0</ele><time>2026-04-18T07:49:03Z</time></trkpt><trkpt lat="44.44653903155804" lon="10.817620913711854"><ele>412.99999999999994</ele><time>2026-04-18T07:49:05Z</time></trkpt><trkpt lat="44.4464704805207" lon="10.817643029846002"><ele>413.0</ele><time>2026-04-18T07:49:06Z</time></trkpt><trkpt lat="44.4464029410596" lon="10.817655301606994"><ele>412.99999999999994</ele><time>2026-04-18T07:49:07Z</time></trkpt><trkpt lat="44.44629099935988" lon="10.817610912595583"><ele>413.0</ele><time>2026-04-18T07:49:09Z</time></trkpt><trkpt lat="44.44622825413274" lon="10.81756140752407"><ele>413.0</ele><time>2026-04-18T07:49:10Z</time></trkpt><trkpt lat="44.44616915265443" lon="10.817511834642902"><ele>413.0</ele><time>2026-04-18T07:49:11Z</time></trkpt><trkpt lat="44.446114292918686" lon="10.817463462124055"><ele>412.99999999999994</ele><time>2026-04-18T07:49:12Z</time></trkpt><trkpt lat="44.44600728475194" lon="10.81741728167751"><ele>413.0</ele><time>2026-04-18T07:49:14Z</time></trkpt><trkpt lat="44.445898495137456" lon="10.81735414772635"><ele>412.99999999999994</ele><time>2026-04-18T07:49:16Z</time></trkpt><trkpt lat="44.44580631852158" lon="10.817316421954072"><ele>413.0</ele><time>2026-04-18T07:49:18Z</time></trkpt><trkpt lat="44.44570988895981" lon="10.817276093172296"><ele>413.0</ele><time>2026-04-18T07:49:20Z</time></trkpt><trkpt lat="44.44560255549237" lon="10.81722589427472"><ele>413.0</ele><time>2026-04-18T07:49:22Z</time></trkpt><trkpt lat="44.445537591017654" lon="10.817221171492141"><ele>412.99999999999994</ele><time>2026-04-18T07:49:23Z</time></trkpt><trkpt lat="44.445463698477155" lon="10.817213705956624"><ele>413.0</ele><time>2026-04-18T07:49:24Z</time></trkpt><trkpt lat="44.44538407993364" lon="10.817178844843308"><ele>414.2</ele><time>2026-04-18T07:49:25Z</time></trkpt><trkpt lat="44.445293439141885" lon="10.817144035381276"><ele>415.4</ele><time>2026-04-18T07:49:26Z</time></trkpt><trkpt lat="44.44520857002535" lon="10.817115130648926"><ele>416.59999999999997</ele><time>2026-04-18T07:49:27Z</time></trkpt><trkpt lat="44.44514379689143" lon="10.81709866075967"><ele>417.79999999999995</ele><time>2026-04-18T07:49:28Z</time></trkpt><trkpt lat="44.44503230003713" lon="10.817090696433853"><ele>419.0</ele><time>2026-04-18T07:49:30Z</time></trkpt><trkpt lat="44.44493749550365" lon="10.817091203710687"><ele>419.0</ele><time>2026-04-18T07:49:32Z</time></trkpt><trkpt lat="44.444859510381846" lon="10.817016632903563"><ele>419.0</ele><time>2026-04-18T07:49:34Z</time></trkpt><trkpt lat="44.44480840607855" lon="10.816919634737522"><ele>419.0</ele><time>2026-04-18T07:49:35Z</time></trkpt><trkpt lat="44.44475127496914" lon="10.816803137889138"><ele>419.0</ele><time>2026-04-18T07:49:36Z</time></trkpt><trkpt lat="44.44467785768373" lon="10.81669481628708"><ele>419.0</ele><time>2026-04-18T07:49:37Z</time></trkpt><trkpt lat="44.444619920390416" lon="10.816619715547567"><ele>418.8333333333333</ele><time>2026-04-18T07:49:38Z</time></trkpt><trkpt lat="44.44456769580397" lon="10.81655811611358"><ele>418.66666666666663</ele><time>2026-04-18T07:49:39Z</time></trkpt><trkpt lat="44.44451603729318" lon="10.816498740774803"><ele>418.5</ele><time>2026-04-18T07:49:40Z</time></trkpt><trkpt lat="44.44442457683472" lon="10.81641327771501"><ele>418.33333333333337</ele><time>2026-04-18T07:49:42Z</time></trkpt><trkpt lat="44.44437182695918" lon="10.816357796455973"><ele>418.1666666666667</ele><time>2026-04-18T07:49:44Z</time></trkpt><trkpt lat="44.44430606626752" lon="10.816309396874503"><ele>418.0</ele><time>2026-04-18T07:49:46Z</time></trkpt><trkpt lat="44.44422386241837" lon="10.816233634474552"><ele>418.0</ele><time>2026-04-18T07:49:48Z</time></trkpt><trkpt lat="44.44416062138497" lon="10.816173487838803"><ele>418.0</ele><time>2026-04-18T07:49:50Z</time></trkpt><trkpt lat="44.444088686854855" lon="10.81610917885193"><ele>418.0</ele><time>2026-04-18T07:49:52Z</time></trkpt><trkpt lat="44.444033710834994" lon="10.816055220889398"><ele>418.0</ele><time>2026-04-18T07:49:54Z</time></trkpt><trkpt lat="44.44397717515238" lon="10.815975285769602"><ele>418.0</ele><time>2026-04-18T07:49:56.999Z</time></trkpt><trkpt lat="44.44392410694611" lon="10.81592039931469"><ele>418.0</ele><time>2026-04-18T07:49:59.999Z</time></trkpt><trkpt lat="44.44387117316005" lon="10.815856934933558"><ele>418.0</ele><time>2026-04-18T07:50:01.999Z</time></trkpt><trkpt lat="44.443790661780184" lon="10.81577110956656"><ele>418.1428571428571</ele><time>2026-04-18T07:50:03.999Z</time></trkpt><trkpt lat="44.44373419746391" lon="10.815715612657002"><ele>418.2857142857143</ele><time>2026-04-18T07:50:04.999Z</time></trkpt><trkpt lat="44.443675142569546" lon="10.815674315831872"><ele>418.42857142857144</ele><time>2026-04-18T07:50:05.999Z</time></trkpt><trkpt lat="44.44360743309113" lon="10.815648134452594"><ele>418.57142857142856</ele><time>2026-04-18T07:50:06.999Z</time></trkpt><trkpt lat="44.44353039998918" lon="10.815651755045119"><ele>418.7142857142857</ele><time>2026-04-18T07:50:07.999Z</time></trkpt><trkpt lat="44.44344286966855" lon="10.815664423304934"><ele>418.85714285714283</ele><time>2026-04-18T07:50:08.999Z</time></trkpt><trkpt lat="44.44336445668295" lon="10.815673648691401"><ele>419.0</ele><time>2026-04-18T07:50:09.999Z</time></trkpt><trkpt lat="44.443284822919836" lon="10.815657429345245"><ele>418.99999999999994</ele><time>2026-04-18T07:50:10.999Z</time></trkpt><trkpt lat="44.44320373650433" lon="10.815611737102545"><ele>419.0</ele><time>2026-04-18T07:50:11.999Z</time></trkpt><trkpt lat="44.443130958318235" lon="10.81557709049616"><ele>419.0</ele><time>2026-04-18T07:50:12.999Z</time></trkpt><trkpt lat="44.443062209092425" lon="10.815575851980238"><ele>419.0</ele><time>2026-04-18T07:50:13.999Z</time></trkpt><trkpt lat="44.4429710927665" lon="10.815617169476093"><ele>418.99999999999994</ele><time>2026-04-18T07:50:14.999Z</time></trkpt><trkpt lat="44.44288082000976" lon="10.81568709715182"><ele>419.0</ele><time>2026-04-18T07:50:15.999Z</time></trkpt><trkpt lat="44.442809260921656" lon="10.815763177869112"><ele>419.8333333333333</ele><time>2026-04-18T07:50:16.999Z</time></trkpt><trkpt lat="44.4427455886496" lon="10.81583769643967"><ele>420.66666666666663</ele><time>2026-04-18T07:50:17.999Z</time></trkpt><trkpt lat="44.44268464100446" lon="10.81590672514897"><ele>421.5</ele><time>2026-04-18T07:50:18.999Z</time></trkpt><trkpt lat="44.442640152945806" lon="10.815970611742072"><ele>422.33333333333337</ele><time>2026-04-18T07:50:19.999Z</time></trkpt><trkpt lat="44.44257966759162" lon="10.816131808972683"><ele>423.1666666666667</ele><time>2026-04-18T07:50:21.999Z</time></trkpt><trkpt lat="44.44255077662864" lon="10.8162487720869"><ele>424.0</ele><time>2026-04-18T07:50:22.999Z</time></trkpt><trkpt lat="44.442521864502204" lon="10.816339542891129"><ele>427.1666666666667</ele><time>2026-04-18T07:50:23.999Z</time></trkpt><trkpt lat="44.44245877838105" lon="10.816426557150718"><ele>430.33333333333337</ele><time>2026-04-18T07:50:25.999Z</time></trkpt><trkpt lat="44.442386349324586" lon="10.816452394921228"><ele>433.5</ele><time>2026-04-18T07:50:26.999Z</time></trkpt><trkpt lat="44.44231056179889" lon="10.816462207513448"><ele>436.66666666666663</ele><time>2026-04-18T07:50:27.999Z</time></trkpt><trkpt lat="44.442228526827705" lon="10.816482598826454"><ele>439.8333333333333</ele><time>2026-04-18T07:50:28.999Z</time></trkpt><trkpt lat="44.442143498284906" lon="10.81644462187433"><ele>443.0</ele><time>2026-04-18T07:50:29.999Z</time></trkpt><trkpt lat="44.442056023664506" lon="10.816383031196457"><ele>443.59999999999997</ele><time>2026-04-18T07:50:30.999Z</time></trkpt><trkpt lat="44.44199645888623" lon="10.81633398218312"><ele>444.19999999999993</ele><time>2026-04-18T07:50:31.999Z</time></trkpt><trkpt lat="44.441901166762655" lon="10.816265504325779"><ele>444.8</ele><time>2026-04-18T07:50:33.999Z</time></trkpt><trkpt lat="44.44179780936567" lon="10.816220727374883"><ele>445.4</ele><time>2026-04-18T07:50:35.999Z</time></trkpt><trkpt lat="44.4417011634474" lon="10.816193793860748"><ele>446.0</ele><time>2026-04-18T07:50:37.999Z</time></trkpt><trkpt lat="44.44161927675234" lon="10.81617568437198"><ele>446.0</ele><time>2026-04-18T07:50:39.999Z</time></trkpt><trkpt lat="44.4415475632937" lon="10.816149676892781"><ele>446.0</ele><time>2026-04-18T07:51:05Z</time></trkpt><trkpt lat="44.441477424198624" lon="10.8160217850235"><ele>446.0</ele><time>2026-04-18T07:51:08Z</time></trkpt><trkpt lat="44.44142147571342" lon="10.815961522445157"><ele>446.0</ele><time>2026-04-18T07:51:10Z</time></trkpt><trkpt lat="44.44132559650568" lon="10.815898366988332"><ele>446.0</ele><time>2026-04-18T07:51:12Z</time></trkpt><trkpt lat="44.44126358724948" lon="10.81581304743673"><ele>442.57142857142856</ele><time>2026-04-18T07:51:14Z</time></trkpt><trkpt lat="44.44118997968678" lon="10.815809139086543"><ele>439.1428571428571</ele><time>2026-04-18T07:51:15Z</time></trkpt><trkpt lat="44.44111466756817" lon="10.815834009337593"><ele>435.7142857142857</ele><time>2026-04-18T07:51:16Z</time></trkpt><trkpt lat="44.44103578798979" lon="10.815877464118447"><ele>432.2857142857143</ele><time>2026-04-18T07:51:17Z</time></trkpt><trkpt lat="44.44096112360532" lon="10.815894506166762"><ele>428.8571428571429</ele><time>2026-04-18T07:51:18Z</time></trkpt><trkpt lat="44.44089440355916" lon="10.8158896750591"><ele>425.42857142857144</ele><time>2026-04-18T07:51:19Z</time></trkpt><trkpt lat="44.44082819412554" lon="10.815871186719157"><ele>422.0</ele><time>2026-04-18T07:51:20Z</time></trkpt><trkpt lat="44.44076616933254" lon="10.815846051520406"><ele>422.0</ele><time>2026-04-18T07:51:21Z</time></trkpt><trkpt lat="44.44070053597897" lon="10.81583398836467"><ele>422.0</ele><time>2026-04-18T07:51:22Z</time></trkpt><trkpt lat="44.440631894845524" lon="10.815820737404866"><ele>422.0</ele><time>2026-04-18T07:51:23Z</time></trkpt><trkpt lat="44.44056816671962" lon="10.815799259303233"><ele>422.0</ele><time>2026-04-18T07:51:24Z</time></trkpt><trkpt lat="44.440507914761795" lon="10.815767653148399"><ele>422.0</ele><time>2026-04-18T07:51:25Z</time></trkpt><trkpt lat="44.44045858975034" lon="10.815707103544879"><ele>422.0</ele><time>2026-04-18T07:51:26Z</time></trkpt><trkpt lat="44.4404018058068" lon="10.815617405806751"><ele>422.0</ele><time>2026-04-18T07:51:27Z</time></trkpt><trkpt lat="44.440375006677165" lon="10.815510859270091"><ele>421.49999999999994</ele><time>2026-04-18T07:51:28Z</time></trkpt><trkpt lat="44.44035708119495" lon="10.815393064121615"><ele>421.0</ele><time>2026-04-18T07:51:29Z</time></trkpt><trkpt lat="44.44035503140253" lon="10.815282560243366"><ele>420.5</ele><time>2026-04-18T07:51:30Z</time></trkpt><trkpt lat="44.44037010723212" lon="10.815171026824698"><ele>420.0</ele><time>2026-04-18T07:51:31Z</time></trkpt><trkpt lat="44.440390677747644" lon="10.815062898474622"><ele>419.49999999999994</ele><time>2026-04-18T07:51:32Z</time></trkpt><trkpt lat="44.44041775250685" lon="10.814947767075273"><ele>419.0</ele><time>2026-04-18T07:51:33Z</time></trkpt><trkpt lat="44.440451872012" lon="10.81483620919707"><ele>417.66666666666663</ele><time>2026-04-18T07:51:34Z</time></trkpt><trkpt lat="44.44048298349325" lon="10.814731313562532"><ele>416.3333333333333</ele><time>2026-04-18T07:51:35Z</time></trkpt><trkpt lat="44.44051552824796" lon="10.814643479919402"><ele>415.0</ele><time>2026-04-18T07:51:36Z</time></trkpt><trkpt lat="44.44056371764589" lon="10.814540654149873"><ele>413.66666666666663</ele><time>2026-04-18T07:51:38Z</time></trkpt><trkpt lat="44.44061320398998" lon="10.814479841210758"><ele>412.3333333333333</ele><time>2026-04-18T07:53:29Z</time></trkpt><trkpt lat="44.440665570018325" lon="10.814418990728042"><ele>411.0</ele><time>2026-04-18T07:53:31Z</time></trkpt><trkpt lat="44.4407412282207" lon="10.814303470412943"><ele>409.5</ele><time>2026-04-18T07:53:33Z</time></trkpt><trkpt lat="44.440771793966455" lon="10.814214590581212"><ele>408.0</ele><time>2026-04-18T07:53:34Z</time></trkpt><trkpt lat="44.440791233394634" lon="10.81410212529389"><ele>406.5</ele><time>2026-04-18T07:53:35Z</time></trkpt><trkpt lat="44.44083387068917" lon="10.813989877778713"><ele>405.0</ele><time>2026-04-18T07:53:36Z</time></trkpt><trkpt lat="44.44087663293793" lon="10.81388575766631"><ele>403.5</ele><time>2026-04-18T07:53:37Z</time></trkpt><trkpt lat="44.440939980239165" lon="10.8137961557865"><ele>402.0</ele><time>2026-04-18T07:53:38Z</time></trkpt><trkpt lat="44.44101072324498" lon="10.813691899750815"><ele>402.0</ele><time>2026-04-18T07:53:39Z</time></trkpt><trkpt lat="44.44106712612135" lon="10.813575413470051"><ele>402.0</ele><time>2026-04-18T07:53:40Z</time></trkpt><trkpt lat="44.44109439472482" lon="10.813431585059549"><ele>402.0</ele><time>2026-04-18T07:53:41Z</time></trkpt><trkpt lat="44.441131778507916" lon="10.813302627111245"><ele>402.0</ele><time>2026-04-18T07:53:42Z</time></trkpt><trkpt lat="44.44117299965676" lon="10.813194311963196"><ele>402.0</ele><time>2026-04-18T07:53:43Z</time></trkpt><trkpt lat="44.44123575733252" lon="10.813125575240749"><ele>400.6</ele><time>2026-04-18T07:53:44Z</time></trkpt><trkpt lat="44.44128656293218" lon="10.813056113515534"><ele>399.20000000000005</ele><time>2026-04-18T07:53:45Z</time></trkpt><trkpt lat="44.44138023526819" lon="10.81303307981545"><ele>397.8</ele><time>2026-04-18T07:53:46Z</time></trkpt><trkpt lat="44.44150325052305" lon="10.813035976936726"><ele>396.4</ele><time>2026-04-18T07:53:47Z</time></trkpt><trkpt lat="44.44163925432638" lon="10.813040681759006"><ele>395.0</ele><time>2026-04-18T07:53:48Z</time></trkpt><trkpt lat="44.44178282549371" lon="10.813037356266856"><ele>395.0</ele><time>2026-04-18T07:53:49Z</time></trkpt><trkpt lat="44.441904612399455" lon="10.81303178842895"><ele>395.0</ele><time>2026-04-18T07:53:50Z</time></trkpt><trkpt lat="44.442003310055995" lon="10.813031076828873"><ele>395.0</ele><time>2026-04-18T07:53:51Z</time></trkpt><trkpt lat="44.442094749069106" lon="10.813058579505434"><ele>395.0</ele><time>2026-04-18T07:53:52Z</time></trkpt><trkpt lat="44.44217709219775" lon="10.813111752017166"><ele>395.0</ele><time>2026-04-18T07:53:53Z</time></trkpt><trkpt lat="44.442268393681275" lon="10.813172404939381"><ele>393.0</ele><time>2026-04-18T07:53:54Z</time></trkpt><trkpt lat="44.4423799264211" lon="10.81321185161643"><ele>391.0</ele><time>2026-04-18T07:53:55Z</time></trkpt><trkpt lat="44.44249890486935" lon="10.813253682669997"><ele>389.0</ele><time>2026-04-18T07:53:56Z</time></trkpt><trkpt lat="44.442589068074064" lon="10.813330163332992"><ele>387.0</ele><time>2026-04-18T07:53:57Z</time></trkpt><trkpt lat="44.44267359398659" lon="10.813422412949576"><ele>388.0</ele><time>2026-04-18T07:53:58Z</time></trkpt><trkpt lat="44.44276411238381" lon="10.813514628697694"><ele>389.0</ele><time>2026-04-18T07:53:59Z</time></trkpt><trkpt lat="44.4428670560727" lon="10.813600142187534"><ele>390.0</ele><time>2026-04-18T07:54:00Z</time></trkpt><trkpt lat="44.44297970359003" lon="10.813664648903762"><ele>391.0</ele><time>2026-04-18T07:54:01Z</time></trkpt><trkpt lat="44.44307977671292" lon="10.813691016934142"><ele>391.0</ele><time>2026-04-18T07:54:02Z</time></trkpt><trkpt lat="44.44318742919696" lon="10.813713709411173"><ele>391.0</ele><time>2026-04-18T07:54:03Z</time></trkpt><trkpt lat="44.443300720678835" lon="10.81375567771411"><ele>391.0</ele><time>2026-04-18T07:54:04Z</time></trkpt><trkpt lat="44.44339813726485" lon="10.813841726680664"><ele>391.0</ele><time>2026-04-18T07:54:05Z</time></trkpt><trkpt lat="44.443493548323026" lon="10.813945294268946"><ele>391.0</ele><time>2026-04-18T07:54:05.999Z</time></trkpt><trkpt lat="44.44362044959051" lon="10.813963069858753"><ele>391.0</ele><time>2026-04-18T07:54:06.999Z</time></trkpt><trkpt lat="44.443752270633055" lon="10.813975677515911"><ele>391.0</ele><time>2026-04-18T07:54:07.999Z</time></trkpt><trkpt lat="44.44387635838198" lon="10.813966857036425"><ele>391.0</ele><time>2026-04-18T07:54:08.999Z</time></trkpt><trkpt lat="44.443984060644624" lon="10.813960169080781"><ele>390.8</ele><time>2026-04-18T07:54:09.999Z</time></trkpt><trkpt lat="44.44408271493521" lon="10.813941879903538"><ele>390.6</ele><time>2026-04-18T07:54:10.999Z</time></trkpt><trkpt lat="44.4441904822821" lon="10.813910741096901"><ele>390.4</ele><time>2026-04-18T07:54:11.999Z</time></trkpt><trkpt lat="44.4442863405857" lon="10.813885668014057"><ele>390.2</ele><time>2026-04-18T07:54:12.999Z</time></trkpt><trkpt lat="44.44436586372622" lon="10.813837306995595"><ele>390.0</ele><time>2026-04-18T07:54:13.999Z</time></trkpt><trkpt lat="44.44442982275372" lon="10.813764954601423"><ele>390.0</ele><time>2026-04-18T07:54:14.999Z</time></trkpt><trkpt lat="44.4444995579443" lon="10.81372913559406"><ele>390.0</ele><time>2026-04-18T07:54:15.999Z</time></trkpt><trkpt lat="44.4445617618226" lon="10.813671305999765"><ele>390.0</ele><time>2026-04-18T07:54:16.999Z</time></trkpt><trkpt lat="44.444629392779056" lon="10.813617263169641"><ele>390.0</ele><time>2026-04-18T07:54:17.999Z</time></trkpt><trkpt lat="44.44468967063317" lon="10.813556706486759"><ele>390.0</ele><time>2026-04-18T07:54:18.999Z</time></trkpt><trkpt lat="44.44475102128349" lon="10.813533233771146"><ele>390.0</ele><time>2026-04-18T07:54:19.999Z</time></trkpt><trkpt lat="44.444846649158116" lon="10.813509118431286"><ele>387.0</ele><time>2026-04-18T07:54:21.999Z</time></trkpt><trkpt lat="44.44489393055978" lon="10.813308788758102"><ele>384.0</ele><time>2026-04-18T07:54:25.999Z</time></trkpt><trkpt lat="44.444849081138024" lon="10.81322280545322"><ele>381.0</ele><time>2026-04-18T07:54:26.999Z</time></trkpt><trkpt lat="44.44479498087754" lon="10.813162701755429"><ele>378.0</ele><time>2026-04-18T07:54:27.999Z</time></trkpt><trkpt lat="44.44468336468373" lon="10.813096107047297"><ele>375.0</ele><time>2026-04-18T07:54:29.999Z</time></trkpt><trkpt lat="44.44455594961129" lon="10.813067072468336"><ele>374.8</ele><time>2026-04-18T07:54:31.999Z</time></trkpt><trkpt lat="44.44446589424489" lon="10.812999805520603"><ele>374.6</ele><time>2026-04-18T07:54:32.999Z</time></trkpt><trkpt lat="44.44437762560271" lon="10.812918341285341"><ele>374.4</ele><time>2026-04-18T07:54:33.999Z</time></trkpt><trkpt lat="44.444277042253404" lon="10.8128544935599"><ele>374.2</ele><time>2026-04-18T07:54:34.999Z</time></trkpt><trkpt lat="44.4441956998493" lon="10.812814517167132"><ele>374.0</ele><time>2026-04-18T07:54:35.999Z</time></trkpt><trkpt lat="44.444123860651914" lon="10.812793943494881"><ele>374.0</ele><time>2026-04-18T07:54:36.999Z</time></trkpt><trkpt lat="44.44401929841491" lon="10.812731229675821"><ele>374.0</ele><time>2026-04-18T07:54:38.999Z</time></trkpt><trkpt lat="44.44399537509604" lon="10.812599825367181"><ele>374.0</ele><time>2026-04-18T07:54:40.999Z</time></trkpt><trkpt lat="44.44402895764751" lon="10.812513647904321"><ele>374.0</ele><time>2026-04-18T07:54:43.999Z</time></trkpt><trkpt lat="44.443944101408675" lon="10.812461099344581"><ele>374.0</ele><time>2026-04-18T07:54:45.999Z</time></trkpt><trkpt lat="44.44383613983887" lon="10.812415940914812"><ele>374.0</ele><time>2026-04-18T07:54:47.999Z</time></trkpt><trkpt lat="44.4437670516994" lon="10.812407296757616"><ele>374.0</ele><time>2026-04-18T07:54:48.999Z</time></trkpt><trkpt lat="44.44370247114063" lon="10.812412201858209"><ele>374.0</ele><time>2026-04-18T07:54:49.999Z</time></trkpt><trkpt lat="44.44363739566457" lon="10.81241801411166"><ele>374.0</ele><time>2026-04-18T07:54:50.999Z</time></trkpt><trkpt lat="44.443555112087665" lon="10.812421555233975"><ele>374.0</ele><time>2026-04-18T07:54:51.999Z</time></trkpt><trkpt lat="44.443474656659454" lon="10.812432205196853"><ele>374.0</ele><time>2026-04-18T07:54:52.999Z</time></trkpt><trkpt lat="44.44340702603868" lon="10.8124360605496"><ele>374.0</ele><time>2026-04-18T07:54:53.999Z</time></trkpt><trkpt lat="44.44331110316013" lon="10.812454841545996"><ele>374.0</ele><time>2026-04-18T07:54:55.999Z</time></trkpt><trkpt lat="44.44324513464161" lon="10.812389157965885"><ele>374.0</ele><time>2026-04-18T07:54:57.999Z</time></trkpt><trkpt lat="44.44319020053257" lon="10.81227931377011"><ele>374.0</ele><time>2026-04-18T07:54:59.999Z</time></trkpt><trkpt lat="44.44316052552221" lon="10.812191506317022"><ele>374.0</ele><time>2026-04-18T07:55:00.999Z</time></trkpt><trkpt lat="44.44318007472038" lon="10.812096125569164"><ele>374.0</ele><time>2026-04-18T07:55:01.999Z</time></trkpt><trkpt lat="44.44319788070329" lon="10.81199268707074"><ele>374.0</ele><time>2026-04-18T07:55:03.999Z</time></trkpt><trkpt lat="44.443217825370304" lon="10.811845609844205"><ele>375.33333333333337</ele><time>2026-04-18T07:55:05.999Z</time></trkpt><trkpt lat="44.44321014238854" lon="10.811686474106414"><ele>376.6666666666667</ele><time>2026-04-18T07:55:08Z</time></trkpt><trkpt lat="44.44320372703183" lon="10.81157031732671"><ele>378.0</ele><time>2026-04-18T07:55:11Z</time></trkpt><trkpt lat="44.4431319605659" lon="10.811531264215294"><ele>379.3333333333333</ele><time>2026-04-18T07:55:12Z</time></trkpt><trkpt lat="44.44309203931529" lon="10.811439326979443"><ele>380.66666666666663</ele><time>2026-04-18T07:55:13Z</time></trkpt><trkpt lat="44.44305115226028" lon="10.811327842490563"><ele>382.0</ele><time>2026-04-18T07:55:15Z</time></trkpt><trkpt lat="44.44296843807472" lon="10.811252494286208"><ele>382.5</ele><time>2026-04-18T07:55:17Z</time></trkpt><trkpt lat="44.44287016920816" lon="10.811194079572696"><ele>383.0</ele><time>2026-04-18T07:55:19Z</time></trkpt><trkpt lat="44.442822753594925" lon="10.811121768108038"><ele>383.5</ele><time>2026-04-18T07:55:21Z</time></trkpt><trkpt lat="44.44274684398773" lon="10.811048424650304"><ele>384.0</ele><time>2026-04-18T07:55:23Z</time></trkpt><trkpt lat="44.44268380412332" lon="10.811038964029729"><ele>384.50000000000006</ele><time>2026-04-18T07:55:25Z</time></trkpt><trkpt lat="44.442617342681096" lon="10.810998048303116"><ele>385.0</ele><time>2026-04-18T07:55:27Z</time></trkpt><trkpt lat="44.44255431508849" lon="10.810952662059815"><ele>386.83333333333337</ele><time>2026-04-18T07:55:30Z</time></trkpt><trkpt lat="44.442492428808336" lon="10.810881170500029"><ele>388.6666666666667</ele><time>2026-04-18T07:55:35Z</time></trkpt><trkpt lat="44.442421967964" lon="10.810813532643035"><ele>390.5</ele><time>2026-04-18T07:55:38Z</time></trkpt><trkpt lat="44.442374921437406" lon="10.810686309967274"><ele>392.33333333333337</ele><time>2026-04-18T07:55:41Z</time></trkpt><trkpt lat="44.44231507470594" lon="10.81061272243548"><ele>394.1666666666667</ele><time>2026-04-18T07:55:44Z</time></trkpt><trkpt lat="44.442255621517575" lon="10.810559015145328"><ele>396.0</ele><time>2026-04-18T07:55:49Z</time></trkpt><trkpt lat="44.442176899092864" lon="10.810539870817289"><ele>396.42857142857144</ele><time>2026-04-18T07:55:52Z</time></trkpt><trkpt lat="44.44209209637233" lon="10.810539322298466"><ele>396.85714285714283</ele><time>2026-04-18T07:55:55Z</time></trkpt><trkpt lat="44.442021133603326" lon="10.810561304112817"><ele>397.2857142857143</ele><time>2026-04-18T07:55:59Z</time></trkpt><trkpt lat="44.441949539690036" lon="10.810542172967525"><ele>397.7142857142857</ele><time>2026-04-18T07:56:06Z</time></trkpt><trkpt lat="44.441887967506965" lon="10.810468804360184"><ele>398.1428571428571</ele><time>2026-04-18T07:56:09.999Z</time></trkpt><trkpt lat="44.44184471244873" lon="10.81039960201177"><ele>398.57142857142856</ele><time>2026-04-18T07:56:16.999Z</time></trkpt><trkpt lat="44.441784861291005" lon="10.810366638054116"><ele>399.0</ele><time>2026-04-18T07:58:22.999Z</time></trkpt><trkpt lat="44.44172152823463" lon="10.810377195043136"><ele>399.0</ele><time>2026-04-18T07:58:38.999Z</time></trkpt><trkpt lat="44.441625722244574" lon="10.810400076341422"><ele>399.0</ele><time>2026-04-18T07:58:45.999Z</time></trkpt><trkpt lat="44.44156193115825" lon="10.810433484028863"><ele>399.0</ele><time>2026-04-18T07:58:48.999Z</time></trkpt><trkpt lat="44.441501179135315" lon="10.810384238773752"><ele>399.0</ele><time>2026-04-18T08:04:01Z</time></trkpt><trkpt lat="44.44139877352387" lon="10.810399470058881"><ele>399.0</ele><time>2026-04-18T08:04:27Z</time></trkpt><trkpt lat="44.441310006897844" lon="10.810376585811676"><ele>399.0</ele><time>2026-04-18T08:04:29Z</time></trkpt><trkpt lat="44.44124141341023" lon="10.810344813093113"><ele>400.0</ele><time>2026-04-18T08:04:31Z</time></trkpt><trkpt lat="44.4411613582771" lon="10.810282101726099"><ele>401.0</ele><time>2026-04-18T08:04:33Z</time></trkpt><trkpt lat="44.44109821170134" lon="10.810205226504204"><ele>402.0</ele><time>2026-04-18T08:04:35Z</time></trkpt><trkpt lat="44.4410323871872" lon="10.810133703670704"><ele>403.0</ele><time>2026-04-18T08:04:37Z</time></trkpt><trkpt lat="44.44096855489704" lon="10.810050817488136"><ele>404.0</ele><time>2026-04-18T08:04:39Z</time></trkpt><trkpt lat="44.44089540005475" lon="10.809982628616039"><ele>405.0</ele><time>2026-04-18T08:04:41Z</time></trkpt><trkpt lat="44.440821058237866" lon="10.809912916710958"><ele>406.8333333333333</ele><time>2026-04-18T08:04:43Z</time></trkpt><trkpt lat="44.44076502911198" lon="10.809862775983095"><ele>408.66666666666663</ele><time>2026-04-18T08:04:49Z</time></trkpt><trkpt lat="44.440710537908906" lon="10.80981426607485"><ele>410.5</ele><time>2026-04-18T08:04:51.999Z</time></trkpt><trkpt lat="44.440636975751985" lon="10.809728025436291"><ele>412.3333333333333</ele><time>2026-04-18T08:04:53.999Z</time></trkpt><trkpt lat="44.440538936187245" lon="10.809609850960184"><ele>414.16666666666663</ele><time>2026-04-18T08:04:55.999Z</time></trkpt><trkpt lat="44.440479057578315" lon="10.809542324946758"><ele>416.0</ele><time>2026-04-18T08:04:57.999Z</time></trkpt><trkpt lat="44.44047748505354" lon="10.809411810244663"><ele>417.49999999999994</ele><time>2026-04-18T08:06:34Z</time></trkpt><trkpt lat="44.44052506103911" lon="10.80928741288931"><ele>419.0</ele><time>2026-04-18T08:06:38Z</time></trkpt><trkpt lat="44.44056029984156" lon="10.809210694166858"><ele>420.5</ele><time>2026-04-18T08:06:39Z</time></trkpt><trkpt lat="44.440630575338936" lon="10.80906717898466"><ele>422.0</ele><time>2026-04-18T08:06:41Z</time></trkpt><trkpt lat="44.4407212937107" lon="10.809064012097263"><ele>423.49999999999994</ele><time>2026-04-18T08:06:42Z</time></trkpt><trkpt lat="44.44078585596338" lon="10.809043662947447"><ele>425.0</ele><time>2026-04-18T08:06:43Z</time></trkpt><trkpt lat="44.440850962900576" lon="10.809024881526735"><ele>424.99999999999994</ele><time>2026-04-18T08:06:44Z</time></trkpt><trkpt lat="44.440942511763375" lon="10.809150797311592"><ele>425.0</ele><time>2026-04-18T08:06:46Z</time></trkpt><trkpt lat="44.440994178552536" lon="10.809206892329794"><ele>425.0</ele><time>2026-04-18T08:06:47Z</time></trkpt><trkpt lat="44.44104925850854" lon="10.809252527730001"><ele>425.0</ele><time>2026-04-18T08:06:48Z</time></trkpt><trkpt lat="44.44112788706296" lon="10.80930642552214"><ele>424.99999999999994</ele><time>2026-04-18T08:06:49Z</time></trkpt><trkpt lat="44.44121838915443" lon="10.809338239707344"><ele>425.0</ele><time>2026-04-18T08:06:50Z</time></trkpt><trkpt lat="44.44129200521615" lon="10.80940976585048"><ele>422.99999999999994</ele><time>2026-04-18T08:06:51Z</time></trkpt><trkpt lat="44.44136563664033" lon="10.809457259102722"><ele>421.0</ele><time>2026-04-18T08:06:52Z</time></trkpt><trkpt lat="44.44144827932801" lon="10.809499850137463"><ele>419.0</ele><time>2026-04-18T08:06:53Z</time></trkpt><trkpt lat="44.44154737593046" lon="10.809518448325925"><ele>417.0</ele><time>2026-04-18T08:06:54Z</time></trkpt><trkpt lat="44.44162702530323" lon="10.809567302013162"><ele>414.99999999999994</ele><time>2026-04-18T08:06:55Z</time></trkpt><trkpt lat="44.44170101742384" lon="10.809583588995368"><ele>413.0</ele><time>2026-04-18T08:06:56Z</time></trkpt><trkpt lat="44.44177110631511" lon="10.809629260615909"><ele>413.0</ele><time>2026-04-18T08:06:57Z</time></trkpt><trkpt lat="44.44187190420652" lon="10.809635715225655"><ele>413.0</ele><time>2026-04-18T08:06:59Z</time></trkpt><trkpt lat="44.44199766075105" lon="10.809635068414561"><ele>413.0</ele><time>2026-04-18T08:07:01Z</time></trkpt><trkpt lat="44.44207976587536" lon="10.809654315674907"><ele>413.0</ele><time>2026-04-18T08:07:02Z</time></trkpt><trkpt lat="44.44215117862117" lon="10.809655013163962"><ele>413.0</ele><time>2026-04-18T08:07:03Z</time></trkpt><trkpt lat="44.44222113828232" lon="10.809632060145645"><ele>413.4</ele><time>2026-04-18T08:07:04Z</time></trkpt><trkpt lat="44.44232303106939" lon="10.809631950774342"><ele>413.79999999999995</ele><time>2026-04-18T08:07:05Z</time></trkpt><trkpt lat="44.44241406215402" lon="10.809632841261175"><ele>414.2</ele><time>2026-04-18T08:07:06Z</time></trkpt><trkpt lat="44.44250541660309" lon="10.809618245947265"><ele>414.6</ele><time>2026-04-18T08:07:07Z</time></trkpt><trkpt lat="44.44258424421622" lon="10.809614916454827"><ele>415.0</ele><time>2026-04-18T08:07:07.999Z</time></trkpt><trkpt lat="44.44269025959129" lon="10.809600102388265"><ele>415.0</ele><time>2026-04-18T08:07:08.999Z</time></trkpt><trkpt lat="44.44277440285248" lon="10.80958203379947"><ele>415.0</ele><time>2026-04-18T08:07:09.999Z</time></trkpt><trkpt lat="44.442865324902264" lon="10.809560845667392"><ele>415.0</ele><time>2026-04-18T08:07:10.999Z</time></trkpt><trkpt lat="44.4429343612003" lon="10.809528919478161"><ele>415.0</ele><time>2026-04-18T08:07:11.999Z</time></trkpt><trkpt lat="44.443093225757046" lon="10.809483330730284"><ele>415.0</ele><time>2026-04-18T08:07:13.999Z</time></trkpt><trkpt lat="44.44321407461243" lon="10.809420950092274"><ele>414.83333333333337</ele><time>2026-04-18T08:07:15.999Z</time></trkpt><trkpt lat="44.44328016406018" lon="10.809361744565782"><ele>414.6666666666667</ele><time>2026-04-18T08:07:16.999Z</time></trkpt><trkpt lat="44.44335533841096" lon="10.809283315577673"><ele>414.5</ele><time>2026-04-18T08:07:17.999Z</time></trkpt><trkpt lat="44.443414841119896" lon="10.809221366482214"><ele>414.33333333333337</ele><time>2026-04-18T08:07:18.999Z</time></trkpt><trkpt lat="44.44347532475912" lon="10.809127170958115"><ele>414.1666666666667</ele><time>2026-04-18T08:07:19.999Z</time></trkpt><trkpt lat="44.443536994466335" lon="10.809047557363055"><ele>414.0</ele><time>2026-04-18T08:07:20.999Z</time></trkpt><trkpt lat="44.443617986794344" lon="10.80896443002206"><ele>417.2</ele><time>2026-04-18T08:07:21.999Z</time></trkpt><trkpt lat="44.44370867253872" lon="10.808880621385285"><ele>420.4</ele><time>2026-04-18T08:07:22.999Z</time></trkpt><trkpt lat="44.44379088700492" lon="10.808807120915427"><ele>423.6</ele><time>2026-04-18T08:07:23.999Z</time></trkpt><trkpt lat="44.44385732385923" lon="10.808743535088784"><ele>426.8</ele><time>2026-04-18T08:07:24.999Z</time></trkpt><trkpt lat="44.44391276833791" lon="10.808662207295322"><ele>430.0</ele><time>2026-04-18T08:07:25.999Z</time></trkpt><trkpt lat="44.44393928596252" lon="10.808538659046352"><ele>433.50000000000006</ele><time>2026-04-18T08:07:26.999Z</time></trkpt><trkpt lat="44.44399646663357" lon="10.808413105717626"><ele>437.0</ele><time>2026-04-18T08:07:27.999Z</time></trkpt><trkpt lat="44.4440653536112" lon="10.808353651640218"><ele>440.5</ele><time>2026-04-18T08:07:28.999Z</time></trkpt><trkpt lat="44.44411997855736" lon="10.808305190994583"><ele>444.0</ele><time>2026-04-18T08:07:29.999Z</time></trkpt><trkpt lat="44.444194544511" lon="10.808239878818734"><ele>447.50000000000006</ele><time>2026-04-18T08:07:30.999Z</time></trkpt><trkpt lat="44.44426760877279" lon="10.808185022747246"><ele>451.0</ele><time>2026-04-18T08:07:31.999Z</time></trkpt><trkpt lat="44.444366409511204" lon="10.808118483439003"><ele>451.0</ele><time>2026-04-18T08:07:32.999Z</time></trkpt><trkpt lat="44.44444199745889" lon="10.808044677316298"><ele>451.0</ele><time>2026-04-18T08:07:33.999Z</time></trkpt><trkpt lat="44.444527465830966" lon="10.807913293198915"><ele>451.0</ele><time>2026-04-18T08:07:35.999Z</time></trkpt><trkpt lat="44.44455982760981" lon="10.807814041502866"><ele>451.0</ele><time>2026-04-18T08:07:36.999Z</time></trkpt><trkpt lat="44.44458518336881" lon="10.807719158685686"><ele>451.0</ele><time>2026-04-18T08:07:37.999Z</time></trkpt><trkpt lat="44.44463584307845" lon="10.807561147009151"><ele>450.0</ele><time>2026-04-18T08:07:39.999Z</time></trkpt><trkpt lat="44.444716003267814" lon="10.80743331657924"><ele>449.0</ele><time>2026-04-18T08:07:41.999Z</time></trkpt><trkpt lat="44.444784290750356" lon="10.807353611452886"><ele>448.0</ele><time>2026-04-18T08:07:42.999Z</time></trkpt><trkpt lat="44.44486889817333" lon="10.807247837469555"><ele>447.0</ele><time>2026-04-18T08:07:44Z</time></trkpt><trkpt lat="44.444921200664496" lon="10.807126416848336"><ele>446.0</ele><time>2026-04-18T08:07:45Z</time></trkpt><trkpt lat="44.4449690174926" lon="10.807034610151874"><ele>446.0</ele><time>2026-04-18T08:07:46Z</time></trkpt><trkpt lat="44.44503417219713" lon="10.80696319457304"><ele>446.0</ele><time>2026-04-18T08:07:47Z</time></trkpt><trkpt lat="44.44508550460923" lon="10.806883513429478"><ele>446.0</ele><time>2026-04-18T08:07:48Z</time></trkpt><trkpt lat="44.44514113140798" lon="10.806804628541276"><ele>446.0</ele><time>2026-04-18T08:07:49Z</time></trkpt><trkpt lat="44.44519302211412" lon="10.806739463659929"><ele>446.0</ele><time>2026-04-18T08:07:50Z</time></trkpt><trkpt lat="44.44524977083601" lon="10.806682865999186"><ele>446.0</ele><time>2026-04-18T08:07:51Z</time></trkpt><trkpt lat="44.44530816823872" lon="10.806646894254252"><ele>446.0</ele><time>2026-04-18T08:07:52Z</time></trkpt><trkpt lat="44.445367385112824" lon="10.806616404545995"><ele>447.42857142857144</ele><time>2026-04-18T08:07:53Z</time></trkpt><trkpt lat="44.44543742236128" lon="10.80658244733362"><ele>448.85714285714283</ele><time>2026-04-18T08:07:54Z</time></trkpt><trkpt lat="44.44552293271368" lon="10.806531029475673"><ele>450.2857142857143</ele><time>2026-04-18T08:07:55Z</time></trkpt><trkpt lat="44.44558770049289" lon="10.806488679332265"><ele>451.71428571428567</ele><time>2026-04-18T08:07:56Z</time></trkpt><trkpt lat="44.445658126594736" lon="10.806461340012207"><ele>453.1428571428571</ele><time>2026-04-18T08:07:57Z</time></trkpt><trkpt lat="44.44572324415203" lon="10.806449570801838"><ele>454.57142857142856</ele><time>2026-04-18T08:07:58Z</time></trkpt><trkpt lat="44.44579019935916" lon="10.806454450017089"><ele>456.0</ele><time>2026-04-18T08:07:59Z</time></trkpt><trkpt lat="44.44588614283608" lon="10.806464518389156"><ele>456.0</ele><time>2026-04-18T08:08:00Z</time></trkpt><trkpt lat="44.445977979188335" lon="10.80648502662885"><ele>456.0</ele><time>2026-04-18T08:08:01Z</time></trkpt><trkpt lat="44.446057485482285" lon="10.806531000828565"><ele>456.0</ele><time>2026-04-18T08:08:02Z</time></trkpt><trkpt lat="44.446126192457825" lon="10.806600764242154"><ele>456.0</ele><time>2026-04-18T08:08:03Z</time></trkpt><trkpt lat="44.44620748065593" lon="10.80668130517166"><ele>456.0</ele><time>2026-04-18T08:08:04Z</time></trkpt><trkpt lat="44.44628050928704" lon="10.806747852089723"><ele>457.20000000000005</ele><time>2026-04-18T08:08:05Z</time></trkpt><trkpt lat="44.44634980540054" lon="10.806797212785801"><ele>458.40000000000003</ele><time>2026-04-18T08:08:06Z</time></trkpt><trkpt lat="44.44642682901931" lon="10.806817611866787"><ele>459.6</ele><time>2026-04-18T08:08:07Z</time></trkpt><trkpt lat="44.446501908456995" lon="10.806855119942918"><ele>460.8</ele><time>2026-04-18T08:08:08Z</time></trkpt><trkpt lat="44.446609718428945" lon="10.806903591743444"><ele>462.0</ele><time>2026-04-18T08:08:09Z</time></trkpt><trkpt lat="44.446707618845146" lon="10.806938859900884"><ele>459.20000000000005</ele><time>2026-04-18T08:08:10Z</time></trkpt><trkpt lat="44.446781589631904" lon="10.807014206155726"><ele>456.40000000000003</ele><time>2026-04-18T08:08:11Z</time></trkpt><trkpt lat="44.446849486803536" lon="10.8070483629496"><ele>453.59999999999997</ele><time>2026-04-18T08:08:12Z</time></trkpt><trkpt lat="44.44694051478899" lon="10.807063610462171"><ele>450.79999999999995</ele><time>2026-04-18T08:08:14Z</time></trkpt><trkpt lat="44.447042714103134" lon="10.807041008504457"><ele>448.0</ele><time>2026-04-18T08:08:16Z</time></trkpt><trkpt lat="44.44708415325629" lon="10.806895809071488"><ele>451.5</ele><time>2026-04-18T08:08:18Z</time></trkpt><trkpt lat="44.44703480800107" lon="10.806783033748763"><ele>455.0</ele><time>2026-04-18T08:08:19Z</time></trkpt><trkpt lat="44.44692134372661" lon="10.806752224045374"><ele>458.5</ele><time>2026-04-18T08:08:20Z</time></trkpt><trkpt lat="44.44682116277562" lon="10.806543089879746"><ele>462.0</ele><time>2026-04-18T08:08:24Z</time></trkpt><trkpt lat="44.44678801017231" lon="10.80645886508185"><ele>462.0</ele><time>2026-04-18T08:08:26Z</time></trkpt><trkpt lat="44.44669623609209" lon="10.80635534484449"><ele>462.00000000000006</ele><time>2026-04-18T08:08:29Z</time></trkpt><trkpt lat="44.44663644778959" lon="10.806277363884751"><ele>462.00000000000006</ele><time>2026-04-18T08:08:31Z</time></trkpt><trkpt lat="44.44655383766977" lon="10.806192308337843"><ele>462.0</ele><time>2026-04-18T08:08:33Z</time></trkpt><trkpt lat="44.44648413496599" lon="10.806125401360552"><ele>462.0</ele><time>2026-04-18T08:08:35Z</time></trkpt><trkpt lat="44.44642067127323" lon="10.80605333449819"><ele>462.6666666666667</ele><time>2026-04-18T08:08:37Z</time></trkpt><trkpt lat="44.4463601326122" lon="10.805978845605132"><ele>463.33333333333337</ele><time>2026-04-18T08:08:39Z</time></trkpt><trkpt lat="44.44628958498013" lon="10.8058804117035"><ele>464.0</ele><time>2026-04-18T08:08:41Z</time></trkpt><trkpt lat="44.44624022233658" lon="10.805795340183838"><ele>464.6666666666667</ele><time>2026-04-18T08:08:44Z</time></trkpt><trkpt lat="44.44619112554042" lon="10.80573926410573"><ele>465.33333333333337</ele><time>2026-04-18T08:08:46Z</time></trkpt><trkpt lat="44.446138087534464" lon="10.805670936321787"><ele>466.0</ele><time>2026-04-18T08:08:49Z</time></trkpt><trkpt lat="44.446099961860355" lon="10.805599301594652"><ele>467.4</ele><time>2026-04-18T08:08:52Z</time></trkpt><trkpt lat="44.44604520029204" lon="10.805523098460357"><ele>468.8</ele><time>2026-04-18T08:09:13.999Z</time></trkpt><trkpt lat="44.44597289366667" lon="10.805514724749937"><ele>470.19999999999993</ele><time>2026-04-18T08:09:18.999Z</time></trkpt><trkpt lat="44.445891223663686" lon="10.805400572395342"><ele>471.59999999999997</ele><time>2026-04-18T08:09:20.999Z</time></trkpt><trkpt lat="44.44580418451617" lon="10.805304287593378"><ele>473.0</ele><time>2026-04-18T08:09:22.999Z</time></trkpt><trkpt lat="44.44583588229261" lon="10.805150696892369"><ele>474.79999999999995</ele><time>2026-04-18T08:09:23.999Z</time></trkpt><trkpt lat="44.445761340129366" lon="10.805051961808005"><ele>476.59999999999997</ele><time>2026-04-18T08:09:25.999Z</time></trkpt><trkpt lat="44.4456896651233" lon="10.804960052892266"><ele>478.40000000000003</ele><time>2026-04-18T08:09:45.999Z</time></trkpt><trkpt lat="44.44562769043415" lon="10.80485970443434"><ele>480.20000000000005</ele><time>2026-04-18T08:09:46.999Z</time></trkpt><trkpt lat="44.445544988924624" lon="10.804795315411376"><ele>482.0</ele><time>2026-04-18T08:09:48.999Z</time></trkpt><trkpt lat="44.44547325559995" lon="10.804759958141243"><ele>487.66666666666663</ele><time>2026-04-18T08:09:50Z</time></trkpt><trkpt lat="44.445320927464095" lon="10.80497913610823"><ele>493.33333333333337</ele><time>2026-04-18T08:09:52Z</time></trkpt><trkpt lat="44.44531452411361" lon="10.804706555862278"><ele>499.0</ele><time>2026-04-18T08:09:53Z</time></trkpt><trkpt lat="44.44520467746152" lon="10.804669297612776"><ele>499.00000000000006</ele><time>2026-04-18T08:09:55Z</time></trkpt><trkpt lat="44.44511151391035" lon="10.804636489816179"><ele>499.0</ele><time>2026-04-18T08:09:57Z</time></trkpt><trkpt lat="44.445028460333276" lon="10.804604699427829"><ele>499.0</ele><time>2026-04-18T08:09:59Z</time></trkpt><trkpt lat="44.44491458040038" lon="10.804559202738377"><ele>499.0</ele><time>2026-04-18T08:10:01Z</time></trkpt><trkpt lat="44.444851141193375" lon="10.804533308299234"><ele>499.00000000000006</ele><time>2026-04-18T08:10:02Z</time></trkpt><trkpt lat="44.44478605013969" lon="10.80450617252345"><ele>499.0</ele><time>2026-04-18T08:10:03Z</time></trkpt><trkpt lat="44.44471334154574" lon="10.80447586120922"><ele>502.25</ele><time>2026-04-18T08:10:04Z</time></trkpt><trkpt lat="44.44459358193166" lon="10.804424079409632"><ele>505.5</ele><time>2026-04-18T08:10:06Z</time></trkpt><trkpt lat="44.4444777953497" lon="10.804365450350238"><ele>508.75</ele><time>2026-04-18T08:10:08Z</time></trkpt><trkpt lat="44.44435978822514" lon="10.804301769097847"><ele>512.0</ele><time>2026-04-18T08:10:10Z</time></trkpt><trkpt lat="44.44429236968869" lon="10.80424414978596"><ele>513.7142857142857</ele><time>2026-04-18T08:10:11Z</time></trkpt><trkpt lat="44.44424936328449" lon="10.804170922495109"><ele>515.4285714285713</ele><time>2026-04-18T08:10:12Z</time></trkpt><trkpt lat="44.44419240879435" lon="10.804120547101968"><ele>517.1428571428571</ele><time>2026-04-18T08:10:13Z</time></trkpt><trkpt lat="44.44414482177208" lon="10.804054956848818"><ele>518.8571428571429</ele><time>2026-04-18T08:10:14Z</time></trkpt><trkpt lat="44.44409433008066" lon="10.803987917030277"><ele>520.5714285714287</ele><time>2026-04-18T08:10:15Z</time></trkpt><trkpt lat="44.444045913884516" lon="10.803928972857086"><ele>522.2857142857143</ele><time>2026-04-18T08:10:16Z</time></trkpt><trkpt lat="44.44399112729746" lon="10.803828717188305"><ele>524.0</ele><time>2026-04-18T08:10:17Z</time></trkpt><trkpt lat="44.44393640854171" lon="10.803755255232208"><ele>524.0</ele><time>2026-04-18T08:10:18Z</time></trkpt><trkpt lat="44.44388595280644" lon="10.80368857164965"><ele>524.0</ele><time>2026-04-18T08:10:19Z</time></trkpt><trkpt lat="44.443837470736376" lon="10.803626861899735"><ele>524.0</ele><time>2026-04-18T08:10:20Z</time></trkpt><trkpt lat="44.44372991337985" lon="10.803535169352033"><ele>524.0</ele><time>2026-04-18T08:10:22Z</time></trkpt><trkpt lat="44.44367381307964" lon="10.803490715776109"><ele>524.0</ele><time>2026-04-18T08:10:23Z</time></trkpt><trkpt lat="44.4436087974987" lon="10.803426501057492"><ele>524.0</ele><time>2026-04-18T08:10:25Z</time></trkpt><trkpt lat="44.44354658809479" lon="10.803336914951194"><ele>527.6666666666666</ele><time>2026-04-18T08:10:27Z</time></trkpt><trkpt lat="44.44354844572724" lon="10.803200264784062"><ele>531.3333333333333</ele><time>2026-04-18T08:10:31Z</time></trkpt><trkpt lat="44.44352421272022" lon="10.803108215760075"><ele>535.0</ele><time>2026-04-18T08:10:38Z</time></trkpt><trkpt lat="44.44351434367033" lon="10.802958712650199"><ele>538.6666666666666</ele><time>2026-04-18T08:10:42Z</time></trkpt><trkpt lat="44.4434955167501" lon="10.802825358191471"><ele>542.3333333333334</ele><time>2026-04-18T08:10:44Z</time></trkpt><trkpt lat="44.443484261258135" lon="10.802732914104032"><ele>546.0</ele><time>2026-04-18T08:10:45Z</time></trkpt><trkpt lat="44.44344845059323" lon="10.802557787157264"><ele>546.6</ele><time>2026-04-18T08:10:47Z</time></trkpt><trkpt lat="44.44343751256504" lon="10.80245468100241"><ele>547.2</ele><time>2026-04-18T08:10:48Z</time></trkpt><trkpt lat="44.44341882669206" lon="10.80232457657915"><ele>547.8</ele><time>2026-04-18T08:10:49Z</time></trkpt><trkpt lat="44.44339657122563" lon="10.802202934032058"><ele>548.4</ele><time>2026-04-18T08:10:50Z</time></trkpt><trkpt lat="44.44337639519835" lon="10.802048133421412"><ele>549.0</ele><time>2026-04-18T08:10:51Z</time></trkpt><trkpt lat="44.44332284653731" lon="10.801904283328218"><ele>549.0</ele><time>2026-04-18T08:10:52Z</time></trkpt><trkpt lat="44.44328434254816" lon="10.801792464143439"><ele>549.0</ele><time>2026-04-18T08:10:53Z</time></trkpt><trkpt lat="44.44323882311154" lon="10.801692281568261"><ele>549.0</ele><time>2026-04-18T08:10:54Z</time></trkpt><trkpt lat="44.443190200552166" lon="10.801605814329172"><ele>549.0</ele><time>2026-04-18T08:10:55Z</time></trkpt><trkpt lat="44.44312753329505" lon="10.80158719360465"><ele>549.0</ele><time>2026-04-18T08:10:56Z</time></trkpt><trkpt lat="44.44305141834487" lon="10.801605600243398"><ele>549.0</ele><time>2026-04-18T08:10:57Z</time></trkpt><trkpt lat="44.44299111439371" lon="10.80167189008424"><ele>550.0</ele><time>2026-04-18T08:10:58Z</time></trkpt><trkpt lat="44.44294592449376" lon="10.801753756476481"><ele>551.0</ele><time>2026-04-18T08:10:59Z</time></trkpt><trkpt lat="44.44294291654269" lon="10.801889364458956"><ele>552.0</ele><time>2026-04-18T08:11:00Z</time></trkpt><trkpt lat="44.442918700967425" lon="10.802100604365185"><ele>553.0</ele><time>2026-04-18T08:11:01Z</time></trkpt><trkpt lat="44.44291747799578" lon="10.802309470098091"><ele>553.0</ele><time>2026-04-18T08:11:02Z</time></trkpt><trkpt lat="44.44288254157402" lon="10.802392144620821"><ele>553.0</ele><time>2026-04-18T08:11:03Z</time></trkpt><trkpt lat="44.4428306129424" lon="10.802459400689576"><ele>553.0</ele><time>2026-04-18T08:11:04Z</time></trkpt><trkpt lat="44.44276131082018" lon="10.802426933855509"><ele>553.0</ele><time>2026-04-18T08:11:05Z</time></trkpt><trkpt lat="44.44270658922077" lon="10.80234403066214"><ele>553.0</ele><time>2026-04-18T08:11:06Z</time></trkpt><trkpt lat="44.442656555830574" lon="10.802283754603463"><ele>553.0</ele><time>2026-04-18T08:11:07Z</time></trkpt><trkpt lat="44.442669503654756" lon="10.802033601057168"><ele>553.0</ele><time>2026-04-18T08:11:08Z</time></trkpt><trkpt lat="44.4426268420362" lon="10.80184386410957"><ele>553.0</ele><time>2026-04-18T08:11:09Z</time></trkpt><trkpt lat="44.44257457276478" lon="10.801679632346366"><ele>553.0</ele><time>2026-04-18T08:11:10Z</time></trkpt><trkpt lat="44.44251831267747" lon="10.801538156991247"><ele>553.0</ele><time>2026-04-18T08:11:11Z</time></trkpt><trkpt lat="44.4424542420598" lon="10.801396289630691"><ele>554.8</ele><time>2026-04-18T08:11:12Z</time></trkpt><trkpt lat="44.44239911757927" lon="10.801265070915308"><ele>556.5999999999999</ele><time>2026-04-18T08:11:13Z</time></trkpt><trkpt lat="44.44234420889109" lon="10.801142568361994"><ele>558.4000000000001</ele><time>2026-04-18T08:11:14Z</time></trkpt><trkpt lat="44.44228219556" lon="10.801034586505383"><ele>560.2</ele><time>2026-04-18T08:11:15Z</time></trkpt><trkpt lat="44.44220012119446" lon="10.80096302716777"><ele>562.0</ele><time>2026-04-18T08:11:16Z</time></trkpt><trkpt lat="44.44209426801359" lon="10.800996279061389"><ele>563.8000000000001</ele><time>2026-04-18T08:11:16.999Z</time></trkpt><trkpt lat="44.44200396270759" lon="10.801092942217084"><ele>565.6</ele><time>2026-04-18T08:11:17.999Z</time></trkpt><trkpt lat="44.44193697316345" lon="10.801186800867214"><ele>567.4000000000001</ele><time>2026-04-18T08:11:18.999Z</time></trkpt><trkpt lat="44.44185352739494" lon="10.801272113349444"><ele>569.2</ele><time>2026-04-18T08:11:19.999Z</time></trkpt><trkpt lat="44.4417573409731" lon="10.801338028378781"><ele>571.0</ele><time>2026-04-18T08:11:20.999Z</time></trkpt><trkpt lat="44.44168058395021" lon="10.801293186772824"><ele>571.0</ele><time>2026-04-18T08:11:21.999Z</time></trkpt><trkpt lat="44.441625801520615" lon="10.801208417887596"><ele>571.0</ele><time>2026-04-18T08:11:22.999Z</time></trkpt><trkpt lat="44.441595581343734" lon="10.801043807992306"><ele>571.0</ele><time>2026-04-18T08:11:23.999Z</time></trkpt><trkpt lat="44.44151355887661" lon="10.800885971267302"><ele>571.0</ele><time>2026-04-18T08:11:24.999Z</time></trkpt><trkpt lat="44.44140805992445" lon="10.800742893383886"><ele>573.3333333333334</ele><time>2026-04-18T08:11:25.999Z</time></trkpt><trkpt lat="44.44131747101865" lon="10.800573060063286"><ele>575.6666666666666</ele><time>2026-04-18T08:11:26.999Z</time></trkpt><trkpt lat="44.44126240513033" lon="10.800372332419533"><ele>578.0</ele><time>2026-04-18T08:11:27.999Z</time></trkpt><trkpt lat="44.44120672204793" lon="10.800183252125038"><ele>582.0</ele><time>2026-04-18T08:11:28.999Z</time></trkpt><trkpt lat="44.44116268425598" lon="10.8000104197326"><ele>586.0</ele><time>2026-04-18T08:11:29.999Z</time></trkpt><trkpt lat="44.44112670041418" lon="10.79983467099778"><ele>590.0</ele><time>2026-04-18T08:11:30.999Z</time></trkpt><trkpt lat="44.4411153049886" lon="10.79969506217095"><ele>594.0</ele><time>2026-04-18T08:11:31.999Z</time></trkpt><trkpt lat="44.441130223164" lon="10.799542894670754"><ele>594.0</ele><time>2026-04-18T08:11:32.999Z</time></trkpt><trkpt lat="44.44121810647316" lon="10.799412869594775"><ele>594.0</ele><time>2026-04-18T08:11:33.999Z</time></trkpt><trkpt lat="44.44127862287948" lon="10.799269418218959"><ele>594.0</ele><time>2026-04-18T08:11:34.999Z</time></trkpt><trkpt lat="44.4413160890883" lon="10.79916853081068"><ele>594.0</ele><time>2026-04-18T08:11:35.999Z</time></trkpt><trkpt lat="44.44135381932489" lon="10.799058044547417"><ele>594.0</ele><time>2026-04-18T08:11:37.999Z</time></trkpt><trkpt lat="44.441216712373084" lon="10.79911784861528"><ele>594.0</ele><time>2026-04-18T08:11:41.999Z</time></trkpt><trkpt lat="44.44115331371281" lon="10.799267394403605"><ele>594.0</ele><time>2026-04-18T08:11:42.999Z</time></trkpt><trkpt lat="44.441100103371184" lon="10.799399109573038"><ele>594.0</ele><time>2026-04-18T08:11:43.999Z</time></trkpt><trkpt lat="44.441012870946345" lon="10.799531829071388"><ele>594.0</ele><time>2026-04-18T08:11:44.999Z</time></trkpt><trkpt lat="44.440948863183216" lon="10.799648614107795"><ele>594.0</ele><time>2026-04-18T08:11:45.999Z</time></trkpt><trkpt lat="44.44089795778473" lon="10.799786155144046"><ele>594.0</ele><time>2026-04-18T08:11:46.999Z</time></trkpt><trkpt lat="44.44082947299974" lon="10.799891326433283"><ele>594.0</ele><time>2026-04-18T08:11:47.999Z</time></trkpt><trkpt lat="44.4407897581471" lon="10.800038158131752"><ele>594.0</ele><time>2026-04-18T08:11:48.999Z</time></trkpt><trkpt lat="44.44074285510666" lon="10.800172945534916"><ele>594.0</ele><time>2026-04-18T08:11:49.999Z</time></trkpt><trkpt lat="44.44065533123926" lon="10.80026358526394"><ele>592.6</ele><time>2026-04-18T08:11:50.999Z</time></trkpt><trkpt lat="44.440593081268894" lon="10.800369040198875"><ele>591.2</ele><time>2026-04-18T08:11:51.999Z</time></trkpt><trkpt lat="44.44053037324716" lon="10.800463706608072"><ele>589.8000000000001</ele><time>2026-04-18T08:11:52.999Z</time></trkpt><trkpt lat="44.44047717521359" lon="10.800575754013284"><ele>588.4</ele><time>2026-04-18T08:11:53.999Z</time></trkpt><trkpt lat="44.440414134336514" lon="10.800707448832819"><ele>587.0</ele><time>2026-04-18T08:11:54.999Z</time></trkpt><trkpt lat="44.44032677655532" lon="10.800804285370926"><ele>587.8000000000001</ele><time>2026-04-18T08:11:56Z</time></trkpt><trkpt lat="44.440251860028916" lon="10.8009193717266"><ele>588.6</ele><time>2026-04-18T08:11:57Z</time></trkpt><trkpt lat="44.440172132771046" lon="10.801006784931266"><ele>589.4000000000001</ele><time>2026-04-18T08:11:58Z</time></trkpt><trkpt lat="44.44007260460991" lon="10.80109784972729"><ele>590.2</ele><time>2026-04-18T08:11:59Z</time></trkpt><trkpt lat="44.43998612758701" lon="10.8011799404993"><ele>591.0</ele><time>2026-04-18T08:12:00Z</time></trkpt><trkpt lat="44.43991761800018" lon="10.801235493792372"><ele>591.0</ele><time>2026-04-18T08:12:01Z</time></trkpt><trkpt lat="44.43984517661411" lon="10.801290348801665"><ele>591.0</ele><time>2026-04-18T08:12:02Z</time></trkpt><trkpt lat="44.43976482352616" lon="10.801362402425223"><ele>591.0</ele><time>2026-04-18T08:12:03Z</time></trkpt><trkpt lat="44.43967666349023" lon="10.801413295988498"><ele>591.0</ele><time>2026-04-18T08:12:04Z</time></trkpt><trkpt lat="44.43958478281494" lon="10.801457288193978"><ele>591.0</ele><time>2026-04-18T08:12:05Z</time></trkpt><trkpt lat="44.43948954894283" lon="10.801512233386406"><ele>592.8</ele><time>2026-04-18T08:12:06Z</time></trkpt><trkpt lat="44.43940619028324" lon="10.801541268773319"><ele>594.6</ele><time>2026-04-18T08:12:07Z</time></trkpt><trkpt lat="44.43930949296176" lon="10.801572275811274"><ele>596.4</ele><time>2026-04-18T08:12:08Z</time></trkpt><trkpt lat="44.439209089995124" lon="10.80160573482046"><ele>598.2</ele><time>2026-04-18T08:12:09Z</time></trkpt><trkpt lat="44.43910580542954" lon="10.801640274560784"><ele>600.0</ele><time>2026-04-18T08:12:10Z</time></trkpt><trkpt lat="44.43899969603285" lon="10.801661444674913"><ele>600.0</ele><time>2026-04-18T08:12:11Z</time></trkpt><trkpt lat="44.43889722071717" lon="10.801682669514472"><ele>600.0</ele><time>2026-04-18T08:12:12Z</time></trkpt><trkpt lat="44.43879291403879" lon="10.801667059504142"><ele>600.0</ele><time>2026-04-18T08:12:13Z</time></trkpt><trkpt lat="44.43869477465191" lon="10.801595381210465"><ele>600.0</ele><time>2026-04-18T08:12:14Z</time></trkpt><trkpt lat="44.438602584459" lon="10.801511536261419"><ele>600.0</ele><time>2026-04-18T08:12:15Z</time></trkpt><trkpt lat="44.43851001164423" lon="10.801459290945608"><ele>603.1666666666666</ele><time>2026-04-18T08:12:16Z</time></trkpt><trkpt lat="44.438436319484694" lon="10.801448835820835"><ele>606.3333333333334</ele><time>2026-04-18T08:12:17Z</time></trkpt><trkpt lat="44.43834467431562" lon="10.801471911016428"><ele>609.5</ele><time>2026-04-18T08:12:18Z</time></trkpt><trkpt lat="44.43825564609174" lon="10.801519996574608"><ele>612.6666666666667</ele><time>2026-04-18T08:12:19Z</time></trkpt><trkpt lat="44.43818564482144" lon="10.801580697195963"><ele>615.8333333333334</ele><time>2026-04-18T08:12:20Z</time></trkpt><trkpt lat="44.4381173339208" lon="10.801629423140716"><ele>619.0</ele><time>2026-04-18T08:12:21Z</time></trkpt><trkpt lat="44.43803556524534" lon="10.801680989656436"><ele>618.8</ele><time>2026-04-18T08:12:22Z</time></trkpt><trkpt lat="44.437964511137054" lon="10.801728709026074"><ele>618.5999999999999</ele><time>2026-04-18T08:12:23Z</time></trkpt><trkpt lat="44.43788652204096" lon="10.801796865417975"><ele>618.4</ele><time>2026-04-18T08:12:24Z</time></trkpt><trkpt lat="44.437797430371035" lon="10.801867077414824"><ele>618.1999999999999</ele><time>2026-04-18T08:12:25Z</time></trkpt><trkpt lat="44.437687508613486" lon="10.80192579015134"><ele>618.0</ele><time>2026-04-18T08:12:26Z</time></trkpt><trkpt lat="44.4376104858597" lon="10.801985013937356"><ele>618.0</ele><time>2026-04-18T08:12:27Z</time></trkpt><trkpt lat="44.43750666259233" lon="10.802044922086594"><ele>618.0</ele><time>2026-04-18T08:12:28Z</time></trkpt><trkpt lat="44.43741196161994" lon="10.802084529091607"><ele>618.0</ele><time>2026-04-18T08:12:29Z</time></trkpt><trkpt lat="44.437331162918255" lon="10.80211271926286"><ele>618.0</ele><time>2026-04-18T08:12:30Z</time></trkpt><trkpt lat="44.43726921022057" lon="10.802137944760203"><ele>618.0</ele><time>2026-04-18T08:12:31Z</time></trkpt><trkpt lat="44.437211008410536" lon="10.802187595390397"><ele>618.0</ele><time>2026-04-18T08:12:32Z</time></trkpt><trkpt lat="44.43710087175701" lon="10.80221564644771"><ele>617.0</ele><time>2026-04-18T08:12:34Z</time></trkpt><trkpt lat="44.43700387592206" lon="10.802108941428918"><ele>616.0</ele><time>2026-04-18T08:12:36Z</time></trkpt><trkpt lat="44.43689135835019" lon="10.802027933977008"><ele>615.0</ele><time>2026-04-18T08:12:37Z</time></trkpt><trkpt lat="44.43680090461091" lon="10.80194899831134"><ele>614.0</ele><time>2026-04-18T08:12:38Z</time></trkpt><trkpt lat="44.43672940317286" lon="10.801862640342021"><ele>615.4285714285713</ele><time>2026-04-18T08:12:39Z</time></trkpt><trkpt lat="44.436672383265915" lon="10.801790549330402"><ele>616.8571428571429</ele><time>2026-04-18T08:12:40Z</time></trkpt><trkpt lat="44.43660724256257" lon="10.801719360008805"><ele>618.2857142857142</ele><time>2026-04-18T08:12:41Z</time></trkpt><trkpt lat="44.4365482412633" lon="10.801669403134424"><ele>619.7142857142857</ele><time>2026-04-18T08:12:42Z</time></trkpt><trkpt lat="44.436497806160126" lon="10.801610930465584"><ele>621.1428571428571</ele><time>2026-04-18T08:12:43Z</time></trkpt><trkpt lat="44.43644557946764" lon="10.801551968538082"><ele>622.5714285714286</ele><time>2026-04-18T08:12:44Z</time></trkpt><trkpt lat="44.436387182432135" lon="10.80149320922125"><ele>624.0</ele><time>2026-04-18T08:12:45Z</time></trkpt><trkpt lat="44.43634442468508" lon="10.801420254770203"><ele>620.8333333333334</ele><time>2026-04-18T08:12:46Z</time></trkpt><trkpt lat="44.43629146843764" lon="10.801368231202256"><ele>617.6666666666666</ele><time>2026-04-18T08:12:52Z</time></trkpt><trkpt lat="44.43621994134598" lon="10.801290598922193"><ele>614.5</ele><time>2026-04-18T08:12:54Z</time></trkpt><trkpt lat="44.43615552032129" lon="10.801238918385351"><ele>611.3333333333333</ele><time>2026-04-18T08:12:55Z</time></trkpt><trkpt lat="44.43608166077789" lon="10.801201094163734"><ele>608.1666666666666</ele><time>2026-04-18T08:12:56Z</time></trkpt><trkpt lat="44.436004380210505" lon="10.801172231551405"><ele>605.0</ele><time>2026-04-18T08:12:57Z</time></trkpt><trkpt lat="44.43592010107636" lon="10.801164015644764"><ele>605.0</ele><time>2026-04-18T08:12:58Z</time></trkpt><trkpt lat="44.43584528441898" lon="10.801136833252635"><ele>605.0</ele><time>2026-04-18T08:12:59Z</time></trkpt><trkpt lat="44.43577329243459" lon="10.801057816579053"><ele>605.0</ele><time>2026-04-18T08:13:00Z</time></trkpt><trkpt lat="44.43571917529135" lon="10.800960621768551"><ele>605.0</ele><time>2026-04-18T08:13:01Z</time></trkpt><trkpt lat="44.43567649187443" lon="10.800829018822144"><ele>605.0</ele><time>2026-04-18T08:13:02Z</time></trkpt><trkpt lat="44.435622153775235" lon="10.800699285198794"><ele>606.6</ele><time>2026-04-18T08:13:03Z</time></trkpt><trkpt lat="44.43556258379175" lon="10.80055706031458"><ele>608.2</ele><time>2026-04-18T08:13:04Z</time></trkpt><trkpt lat="44.435498093869306" lon="10.800437426451163"><ele>609.8</ele><time>2026-04-18T08:13:05Z</time></trkpt><trkpt lat="44.43545720641308" lon="10.800313416823377"><ele>611.4</ele><time>2026-04-18T08:13:06Z</time></trkpt><trkpt lat="44.43542633398836" lon="10.800202954041874"><ele>613.0</ele><time>2026-04-18T08:13:07Z</time></trkpt><trkpt lat="44.43540607386127" lon="10.800102781545103"><ele>614.4</ele><time>2026-04-18T08:13:08Z</time></trkpt><trkpt lat="44.4353836031566" lon="10.800004927768033"><ele>615.8</ele><time>2026-04-18T08:13:09Z</time></trkpt><trkpt lat="44.435318735307206" lon="10.799932530706595"><ele>617.2</ele><time>2026-04-18T08:13:10Z</time></trkpt><trkpt lat="44.435225074827216" lon="10.799893743280775"><ele>618.6</ele><time>2026-04-18T08:13:11Z</time></trkpt><trkpt lat="44.435112292352535" lon="10.799844844580512"><ele>620.0</ele><time>2026-04-18T08:13:12Z</time></trkpt><trkpt lat="44.43498926597124" lon="10.799775192766528"><ele>620.0</ele><time>2026-04-18T08:13:13Z</time></trkpt><trkpt lat="44.43489560913493" lon="10.799706187692669"><ele>620.0</ele><time>2026-04-18T08:13:14Z</time></trkpt><trkpt lat="44.434808435735256" lon="10.799652223192677"><ele>620.0</ele><time>2026-04-18T08:13:15Z</time></trkpt><trkpt lat="44.434738136596984" lon="10.79960133781837"><ele>620.0</ele><time>2026-04-18T08:13:16Z</time></trkpt><trkpt lat="44.43467130945202" lon="10.799560766744406"><ele>620.0</ele><time>2026-04-18T08:13:17Z</time></trkpt><trkpt lat="44.43461112017571" lon="10.799507353293237"><ele>620.0</ele><time>2026-04-18T08:13:18Z</time></trkpt><trkpt lat="44.434535860715926" lon="10.7994319623629"><ele>619.8</ele><time>2026-04-18T08:13:19Z</time></trkpt><trkpt lat="44.43445614752875" lon="10.79934471491441"><ele>619.6</ele><time>2026-04-18T08:13:20Z</time></trkpt><trkpt lat="44.434389966842964" lon="10.79925565123119"><ele>619.4</ele><time>2026-04-18T08:13:21Z</time></trkpt><trkpt lat="44.43432900722849" lon="10.799158563576396"><ele>619.2</ele><time>2026-04-18T08:13:21.999Z</time></trkpt><trkpt lat="44.43427369006288" lon="10.7990442507456"><ele>619.0</ele><time>2026-04-18T08:13:22.999Z</time></trkpt><trkpt lat="44.434220520634284" lon="10.798943589423565"><ele>619.4</ele><time>2026-04-18T08:13:23.999Z</time></trkpt><trkpt lat="44.434163979210375" lon="10.798843086804144"><ele>619.8</ele><time>2026-04-18T08:13:24.999Z</time></trkpt><trkpt lat="44.43410031883121" lon="10.798746909310609"><ele>620.2</ele><time>2026-04-18T08:13:25.999Z</time></trkpt><trkpt lat="44.434036670821804" lon="10.798645708462846"><ele>620.6</ele><time>2026-04-18T08:13:26.999Z</time></trkpt><trkpt lat="44.43397646566061" lon="10.798533422581453"><ele>621.0</ele><time>2026-04-18T08:13:27.999Z</time></trkpt><trkpt lat="44.43390420029242" lon="10.798429091434626"><ele>621.2</ele><time>2026-04-18T08:13:28.999Z</time></trkpt><trkpt lat="44.43383528865207" lon="10.798310506880464"><ele>621.4000000000001</ele><time>2026-04-18T08:13:29.999Z</time></trkpt><trkpt lat="44.433761311084055" lon="10.798196435842957"><ele>621.6</ele><time>2026-04-18T08:13:30.999Z</time></trkpt><trkpt lat="44.43368474628792" lon="10.798087058242062"><ele>621.8000000000001</ele><time>2026-04-18T08:13:31.999Z</time></trkpt><trkpt lat="44.43360853171931" lon="10.79797781157131"><ele>622.0</ele><time>2026-04-18T08:13:32.999Z</time></trkpt><trkpt lat="44.433537555062074" lon="10.797871180755864"><ele>622.0</ele><time>2026-04-18T08:13:33.999Z</time></trkpt><trkpt lat="44.43347536640586" lon="10.797752005457127"><ele>622.0</ele><time>2026-04-18T08:13:34.999Z</time></trkpt><trkpt lat="44.43342211283429" lon="10.797625491358184"><ele>622.0</ele><time>2026-04-18T08:13:35.999Z</time></trkpt><trkpt lat="44.43337180617142" lon="10.797518186367453"><ele>622.0</ele><time>2026-04-18T08:13:36.999Z</time></trkpt><trkpt lat="44.43332589961988" lon="10.797383379656347"><ele>622.0</ele><time>2026-04-18T08:13:37.999Z</time></trkpt><trkpt lat="44.43327960509512" lon="10.797221728462908"><ele>623.25</ele><time>2026-04-18T08:13:38.999Z</time></trkpt><trkpt lat="44.433232908360196" lon="10.797072919475491"><ele>624.5</ele><time>2026-04-18T08:13:39.999Z</time></trkpt><trkpt lat="44.43317044613415" lon="10.796941599299952"><ele>625.75</ele><time>2026-04-18T08:13:40.999Z</time></trkpt><trkpt lat="44.43307941014168" lon="10.796840158402697"><ele>627.0</ele><time>2026-04-18T08:13:41.999Z</time></trkpt><trkpt lat="44.432988477421546" lon="10.796748309887722"><ele>628.4</ele><time>2026-04-18T08:13:42.999Z</time></trkpt><trkpt lat="44.43289711570915" lon="10.796656302299802"><ele>629.8000000000001</ele><time>2026-04-18T08:13:43.999Z</time></trkpt><trkpt lat="44.43279947017645" lon="10.79654996425021"><ele>631.2</ele><time>2026-04-18T08:13:44.999Z</time></trkpt><trkpt lat="44.43270928787325" lon="10.796461721436435"><ele>632.6</ele><time>2026-04-18T08:13:45.999Z</time></trkpt><trkpt lat="44.43263252111123" lon="10.796370109386478"><ele>634.0</ele><time>2026-04-18T08:13:46.999Z</time></trkpt><trkpt lat="44.432546163641156" lon="10.796312337845642"><ele>634.0</ele><time>2026-04-18T08:13:47.999Z</time></trkpt><trkpt lat="44.432455286667704" lon="10.796259295137464"><ele>634.0</ele><time>2026-04-18T08:13:48.999Z</time></trkpt><trkpt lat="44.43237543997998" lon="10.79618884884073"><ele>634.0</ele><time>2026-04-18T08:13:49.999Z</time></trkpt><trkpt lat="44.43230778725738" lon="10.796089244954764"><ele>634.0</ele><time>2026-04-18T08:13:50.999Z</time></trkpt><trkpt lat="44.432233434831474" lon="10.795999592940312"><ele>634.0</ele><time>2026-04-18T08:13:51.999Z</time></trkpt><trkpt lat="44.432167296299475" lon="10.795954285575622"><ele>636.3333333333334</ele><time>2026-04-18T08:13:52.999Z</time></trkpt><trkpt lat="44.43210411815844" lon="10.79592003616144"><ele>638.6666666666667</ele><time>2026-04-18T08:13:53.999Z</time></trkpt><trkpt lat="44.43203214915313" lon="10.795891142299029"><ele>641.0</ele><time>2026-04-18T08:13:55.999Z</time></trkpt><trkpt lat="44.4319663076569" lon="10.795808542528535"><ele>643.3333333333334</ele><time>2026-04-18T08:13:57.999Z</time></trkpt><trkpt lat="44.43188703068569" lon="10.795807218753579"><ele>645.6666666666666</ele><time>2026-04-18T08:13:58.999Z</time></trkpt><trkpt lat="44.43178788642479" lon="10.795775392882184"><ele>648.0</ele><time>2026-04-18T08:13:59.999Z</time></trkpt><trkpt lat="44.4317004132778" lon="10.79572315504487"><ele>648.0</ele><time>2026-04-18T08:14:00.999Z</time></trkpt><trkpt lat="44.431614771566394" lon="10.79563985177576"><ele>648.0</ele><time>2026-04-18T08:14:02Z</time></trkpt><trkpt lat="44.431535391263594" lon="10.795543298819466"><ele>648.0</ele><time>2026-04-18T08:14:03Z</time></trkpt><trkpt lat="44.43145419266244" lon="10.795448878469875"><ele>648.0</ele><time>2026-04-18T08:14:04Z</time></trkpt><trkpt lat="44.431368620263804" lon="10.795359434582181"><ele>648.0</ele><time>2026-04-18T08:14:05Z</time></trkpt><trkpt lat="44.431305161261776" lon="10.795290500794028"><ele>647.0</ele><time>2026-04-18T08:14:06Z</time></trkpt><trkpt lat="44.43124728498067" lon="10.79522834017351"><ele>646.0</ele><time>2026-04-18T08:14:07Z</time></trkpt><trkpt lat="44.431191726027436" lon="10.795173511029128"><ele>645.0</ele><time>2026-04-18T08:14:08Z</time></trkpt><trkpt lat="44.43113721188568" lon="10.795113399037259"><ele>644.0</ele><time>2026-04-18T08:14:09Z</time></trkpt><trkpt lat="44.43107775238167" lon="10.795062392132442"><ele>643.0</ele><time>2026-04-18T08:14:10Z</time></trkpt><trkpt lat="44.431011875084515" lon="10.795014193525102"><ele>642.0</ele><time>2026-04-18T08:14:11Z</time></trkpt><trkpt lat="44.43094201475386" lon="10.794966006645637"><ele>641.0</ele><time>2026-04-18T08:14:12Z</time></trkpt><trkpt lat="44.430878870480576" lon="10.794927336357414"><ele>643.5</ele><time>2026-04-18T08:14:13Z</time></trkpt><trkpt lat="44.43081241858818" lon="10.794872117466783"><ele>646.0</ele><time>2026-04-18T08:14:14Z</time></trkpt><trkpt lat="44.430748328863075" lon="10.794801126291599"><ele>648.5</ele><time>2026-04-18T08:14:15Z</time></trkpt><trkpt lat="44.43069038353876" lon="10.794720105701611"><ele>651.0</ele><time>2026-04-18T08:14:16Z</time></trkpt><trkpt lat="44.430639101584525" lon="10.794641139019499"><ele>653.5</ele><time>2026-04-18T08:14:17Z</time></trkpt><trkpt lat="44.43057862267849" lon="10.79455527246022"><ele>656.0</ele><time>2026-04-18T08:14:18Z</time></trkpt><trkpt lat="44.43051501880822" lon="10.794454560506853"><ele>654.4</ele><time>2026-04-18T08:14:19Z</time></trkpt><trkpt lat="44.43045492095357" lon="10.794352663014656"><ele>652.8</ele><time>2026-04-18T08:14:20Z</time></trkpt><trkpt lat="44.43039394130827" lon="10.794257794244341"><ele>651.1999999999999</ele><time>2026-04-18T08:14:21Z</time></trkpt><trkpt lat="44.43033409341391" lon="10.794158422127829"><ele>649.5999999999999</ele><time>2026-04-18T08:14:22Z</time></trkpt><trkpt lat="44.43027745265026" lon="10.794064021774702"><ele>648.0</ele><time>2026-04-18T08:14:23Z</time></trkpt><trkpt lat="44.430221731438166" lon="10.793963928107061"><ele>651.2</ele><time>2026-04-18T08:14:24Z</time></trkpt><trkpt lat="44.43016665568104" lon="10.793872742680085"><ele>654.4</ele><time>2026-04-18T08:14:25Z</time></trkpt><trkpt lat="44.43012293773517" lon="10.793781869935964"><ele>657.6</ele><time>2026-04-18T08:14:26Z</time></trkpt><trkpt lat="44.430121381423675" lon="10.793690795047144"><ele>660.8000000000001</ele><time>2026-04-18T08:14:27Z</time></trkpt><trkpt lat="44.43010108974793" lon="10.793500633003873"><ele>664.0</ele><time>2026-04-18T08:14:29Z</time></trkpt><trkpt lat="44.43013387733832" lon="10.79337695648426"><ele>667.6666666666667</ele><time>2026-04-18T08:14:30Z</time></trkpt><trkpt lat="44.4301287524501" lon="10.79328099076822"><ele>671.3333333333334</ele><time>2026-04-18T08:14:31Z</time></trkpt><trkpt lat="44.43009108606921" lon="10.793147267342475"><ele>675.0</ele><time>2026-04-18T08:14:33Z</time></trkpt><trkpt lat="44.43001083810839" lon="10.79310416967739"><ele>678.6666666666666</ele><time>2026-04-18T08:14:34Z</time></trkpt><trkpt lat="44.42992006149328" lon="10.79311325743674"><ele>682.3333333333333</ele><time>2026-04-18T08:14:35Z</time></trkpt><trkpt lat="44.42982119251654" lon="10.793115590085684"><ele>686.0</ele><time>2026-04-18T08:14:36Z</time></trkpt><trkpt lat="44.4297304215949" lon="10.793108912675855"><ele>685.0</ele><time>2026-04-18T08:14:37Z</time></trkpt><trkpt lat="44.42963261546664" lon="10.793095725536883"><ele>684.0</ele><time>2026-04-18T08:14:38Z</time></trkpt><trkpt lat="44.42952664881221" lon="10.793063848275908"><ele>683.0</ele><time>2026-04-18T08:14:39Z</time></trkpt><trkpt lat="44.42940520897162" lon="10.79303368195504"><ele>682.0</ele><time>2026-04-18T08:14:40Z</time></trkpt><trkpt lat="44.42928858139386" lon="10.793002346049397"><ele>681.0</ele><time>2026-04-18T08:14:41Z</time></trkpt><trkpt lat="44.429166684334774" lon="10.792977924718633"><ele>681.0</ele><time>2026-04-18T08:14:42Z</time></trkpt><trkpt lat="44.429065439987156" lon="10.79295230558871"><ele>681.0</ele><time>2026-04-18T08:14:43Z</time></trkpt><trkpt lat="44.428975869724695" lon="10.792908832904063"><ele>681.0</ele><time>2026-04-18T08:14:44Z</time></trkpt><trkpt lat="44.42888491177345" lon="10.79288527263425"><ele>681.0</ele><time>2026-04-18T08:14:45Z</time></trkpt><trkpt lat="44.428811679391494" lon="10.792831822030362"><ele>681.0</ele><time>2026-04-18T08:14:46Z</time></trkpt><trkpt lat="44.42873746922454" lon="10.7928146930621"><ele>681.0</ele><time>2026-04-18T08:14:47Z</time></trkpt><trkpt lat="44.428668047363594" lon="10.792763404977503"><ele>680.1999999999999</ele><time>2026-04-18T08:14:48Z</time></trkpt><trkpt lat="44.42860872659771" lon="10.79271278724517"><ele>679.4</ele><time>2026-04-18T08:14:49Z</time></trkpt><trkpt lat="44.42852972095427" lon="10.7926795648084"><ele>678.6</ele><time>2026-04-18T08:14:50Z</time></trkpt><trkpt lat="44.42840616043664" lon="10.792743063328395"><ele>677.8</ele><time>2026-04-18T08:14:51Z</time></trkpt><trkpt lat="44.42831771789186" lon="10.792802938248311"><ele>677.0</ele><time>2026-04-18T08:14:52Z</time></trkpt><trkpt lat="44.428243819156364" lon="10.792831762124939"><ele>677.0</ele><time>2026-04-18T08:14:53Z</time></trkpt><trkpt lat="44.428145735621236" lon="10.79285465157224"><ele>677.0</ele><time>2026-04-18T08:14:54Z</time></trkpt><trkpt lat="44.42805666189929" lon="10.79285456108852"><ele>677.0</ele><time>2026-04-18T08:14:55Z</time></trkpt><trkpt lat="44.42796716685955" lon="10.79287779268799"><ele>677.0</ele><time>2026-04-18T08:14:56Z</time></trkpt><trkpt lat="44.42785619408758" lon="10.792904000667484"><ele>677.0</ele><time>2026-04-18T08:14:57Z</time></trkpt><trkpt lat="44.42776369943758" lon="10.792888292729572"><ele>678.3333333333333</ele><time>2026-04-18T08:14:58Z</time></trkpt><trkpt lat="44.42767825870948" lon="10.79287919607567"><ele>679.6666666666666</ele><time>2026-04-18T08:14:59Z</time></trkpt><trkpt lat="44.42758882069126" lon="10.79288479712721"><ele>681.0</ele><time>2026-04-18T08:15:00Z</time></trkpt><trkpt lat="44.427495711169165" lon="10.792891581504444"><ele>682.3333333333334</ele><time>2026-04-18T08:15:01Z</time></trkpt><trkpt lat="44.42741463634408" lon="10.792932735460623"><ele>683.6666666666667</ele><time>2026-04-18T08:15:02Z</time></trkpt><trkpt lat="44.42735848744962" lon="10.793004448108139"><ele>685.0</ele><time>2026-04-18T08:15:03Z</time></trkpt><trkpt lat="44.42729618573428" lon="10.793108347154176"><ele>685.0</ele><time>2026-04-18T08:15:04Z</time></trkpt><trkpt lat="44.42724872165576" lon="10.793221540211192"><ele>685.0</ele><time>2026-04-18T08:15:05Z</time></trkpt><trkpt lat="44.42720409166004" lon="10.793331755571668"><ele>685.0</ele><time>2026-04-18T08:15:06Z</time></trkpt><trkpt lat="44.42715060111153" lon="10.793378276734886"><ele>685.0</ele><time>2026-04-18T08:15:07Z</time></trkpt><trkpt lat="44.427080838120254" lon="10.793409268961556"><ele>685.0</ele><time>2026-04-18T08:15:08Z</time></trkpt><trkpt lat="44.42700777904597" lon="10.793407124460739"><ele>685.0</ele><time>2026-04-18T08:15:09Z</time></trkpt><trkpt lat="44.426900654294265" lon="10.79341465992923"><ele>687.2</ele><time>2026-04-18T08:15:10Z</time></trkpt><trkpt lat="44.42680603938576" lon="10.7934105734698"><ele>689.4</ele><time>2026-04-18T08:15:11Z</time></trkpt><trkpt lat="44.42671395075757" lon="10.793415099825253"><ele>691.5999999999999</ele><time>2026-04-18T08:15:12Z</time></trkpt><trkpt lat="44.426628016542516" lon="10.793408465233338"><ele>693.8</ele><time>2026-04-18T08:15:13Z</time></trkpt><trkpt lat="44.42652604255208" lon="10.793401364821522"><ele>696.0</ele><time>2026-04-18T08:15:14Z</time></trkpt><trkpt lat="44.42644227440589" lon="10.79338357384464"><ele>696.0</ele><time>2026-04-18T08:15:15Z</time></trkpt><trkpt lat="44.42635590906628" lon="10.793360187485579"><ele>696.0</ele><time>2026-04-18T08:15:16Z</time></trkpt><trkpt lat="44.426248757148706" lon="10.793316807181707"><ele>696.0</ele><time>2026-04-18T08:15:17Z</time></trkpt><trkpt lat="44.42613532185539" lon="10.793259695478385"><ele>696.0</ele><time>2026-04-18T08:15:18Z</time></trkpt><trkpt lat="44.42602001052035" lon="10.793198713354489"><ele>696.0</ele><time>2026-04-18T08:15:19Z</time></trkpt><trkpt lat="44.425907558175076" lon="10.793126870819428"><ele>696.1999999999999</ele><time>2026-04-18T08:15:20Z</time></trkpt><trkpt lat="44.42580728380149" lon="10.793072222182474"><ele>696.4</ele><time>2026-04-18T08:15:21Z</time></trkpt><trkpt lat="44.42571082565179" lon="10.792995722138421"><ele>696.6</ele><time>2026-04-18T08:15:22Z</time></trkpt><trkpt lat="44.425622084530175" lon="10.792916948589907"><ele>696.8</ele><time>2026-04-18T08:15:23Z</time></trkpt><trkpt lat="44.425534557165825" lon="10.792834289612534"><ele>697.0</ele><time>2026-04-18T08:15:24Z</time></trkpt><trkpt lat="44.42545692746521" lon="10.792755784087158"><ele>703.2</ele><time>2026-04-18T08:15:25Z</time></trkpt><trkpt lat="44.42537347299513" lon="10.792661792743843"><ele>709.4000000000001</ele><time>2026-04-18T08:15:26Z</time></trkpt><trkpt lat="44.42529105840931" lon="10.792560917763604"><ele>715.5999999999999</ele><time>2026-04-18T08:15:27Z</time></trkpt><trkpt lat="44.42520307496318" lon="10.792477320485615"><ele>721.8</ele><time>2026-04-18T08:15:28Z</time></trkpt><trkpt lat="44.4251121878105" lon="10.792406673647431"><ele>728.0</ele><time>2026-04-18T08:15:29Z</time></trkpt><trkpt lat="44.42502475250696" lon="10.79233802396527"><ele>728.0</ele><time>2026-04-18T08:15:30Z</time></trkpt><trkpt lat="44.42494095508287" lon="10.792287018324872"><ele>728.0</ele><time>2026-04-18T08:15:30.999Z</time></trkpt><trkpt lat="44.4248665848385" lon="10.792223160507088"><ele>728.0</ele><time>2026-04-18T08:15:31.999Z</time></trkpt><trkpt lat="44.42479687137327" lon="10.792149919151978"><ele>728.0</ele><time>2026-04-18T08:15:32.999Z</time></trkpt><trkpt lat="44.424727082237915" lon="10.79206433894033"><ele>728.0</ele><time>2026-04-18T08:15:33.999Z</time></trkpt><trkpt lat="44.42466167971661" lon="10.79204825682409"><ele>728.0</ele><time>2026-04-18T08:15:34.999Z</time></trkpt><trkpt lat="44.4245865431658" lon="10.792038009053803"><ele>730.4</ele><time>2026-04-18T08:15:35.999Z</time></trkpt><trkpt lat="44.42450542180103" lon="10.79205979445369"><ele>732.8</ele><time>2026-04-18T08:15:36.999Z</time></trkpt><trkpt lat="44.424410160818574" lon="10.792096152281147"><ele>735.2</ele><time>2026-04-18T08:15:37.999Z</time></trkpt><trkpt lat="44.42433024120635" lon="10.792114551821637"><ele>737.6</ele><time>2026-04-18T08:15:38.999Z</time></trkpt><trkpt lat="44.42424295431392" lon="10.79215352634961"><ele>740.0</ele><time>2026-04-18T08:15:39.999Z</time></trkpt><trkpt lat="44.42414065002973" lon="10.792201298117721"><ele>740.0</ele><time>2026-04-18T08:15:40.999Z</time></trkpt><trkpt lat="44.4240405656426" lon="10.792280941975912"><ele>740.0</ele><time>2026-04-18T08:15:41.999Z</time></trkpt><trkpt lat="44.423955528177274" lon="10.792383572090895"><ele>740.0</ele><time>2026-04-18T08:15:42.999Z</time></trkpt><trkpt lat="44.42385948530213" lon="10.792417020897483"><ele>740.0</ele><time>2026-04-18T08:15:43.999Z</time></trkpt><trkpt lat="44.423772799992626" lon="10.79244836009393"><ele>740.0</ele><time>2026-04-18T08:15:44.999Z</time></trkpt><trkpt lat="44.42370077492195" lon="10.79244816911321"><ele>742.4</ele><time>2026-04-18T08:15:45.999Z</time></trkpt><trkpt lat="44.42363231669316" lon="10.79243285272998"><ele>744.8</ele><time>2026-04-18T08:15:46.999Z</time></trkpt><trkpt lat="44.42353699419677" lon="10.79240887819244"><ele>747.2</ele><time>2026-04-18T08:15:47.999Z</time></trkpt><trkpt lat="44.423434798238254" lon="10.7924045641699"><ele>749.6</ele><time>2026-04-18T08:15:48.999Z</time></trkpt><trkpt lat="44.423340502271735" lon="10.792395492528987"><ele>752.0</ele><time>2026-04-18T08:15:49.999Z</time></trkpt><trkpt lat="44.4232371011747" lon="10.79236416980165"><ele>752.0</ele><time>2026-04-18T08:15:50.999Z</time></trkpt><trkpt lat="44.423141181989145" lon="10.792382208316907"><ele>752.0</ele><time>2026-04-18T08:15:51.999Z</time></trkpt><trkpt lat="44.42303132680439" lon="10.792364314568141"><ele>752.0</ele><time>2026-04-18T08:15:52.999Z</time></trkpt><trkpt lat="44.42292190718499" lon="10.79234996271852"><ele>752.0</ele><time>2026-04-18T08:15:53.999Z</time></trkpt><trkpt lat="44.42283251948582" lon="10.792339124291649"><ele>752.0</ele><time>2026-04-18T08:15:54.999Z</time></trkpt><trkpt lat="44.42275801537172" lon="10.792359304899653"><ele>755.0</ele><time>2026-04-18T08:15:55.999Z</time></trkpt><trkpt lat="44.42266749441568" lon="10.792370519209149"><ele>758.0</ele><time>2026-04-18T08:15:56.999Z</time></trkpt><trkpt lat="44.422584647120225" lon="10.792374694442277"><ele>761.0</ele><time>2026-04-18T08:15:57.999Z</time></trkpt><trkpt lat="44.4224564037571" lon="10.792372951006918"><ele>764.0</ele><time>2026-04-18T08:15:59.999Z</time></trkpt><trkpt lat="44.422343503304596" lon="10.792388872687972"><ele>767.0</ele><time>2026-04-18T08:16:01.999Z</time></trkpt><trkpt lat="44.42225107252271" lon="10.792493879838293"><ele>767.0</ele><time>2026-04-18T08:16:03.999Z</time></trkpt><trkpt lat="44.422201667624236" lon="10.792575061788826"><ele>767.0</ele><time>2026-04-18T08:16:04.999Z</time></trkpt><trkpt lat="44.422157650064044" lon="10.79266213370652"><ele>767.0</ele><time>2026-04-18T08:16:05.999Z</time></trkpt><trkpt lat="44.42212094122096" lon="10.792778480424648"><ele>767.0</ele><time>2026-04-18T08:16:06.999Z</time></trkpt><trkpt lat="44.42208810929771" lon="10.792893640944088"><ele>767.0</ele><time>2026-04-18T08:16:08Z</time></trkpt><trkpt lat="44.42208328339556" lon="10.79301132873336"><ele>767.0</ele><time>2026-04-18T08:16:09Z</time></trkpt><trkpt lat="44.42208427856907" lon="10.793133459141036"><ele>769.8</ele><time>2026-04-18T08:16:10Z</time></trkpt><trkpt lat="44.42209547309443" lon="10.79323120569961"><ele>772.6</ele><time>2026-04-18T08:16:11Z</time></trkpt><trkpt lat="44.42206259434448" lon="10.793332962969945"><ele>775.4</ele><time>2026-04-18T08:16:13Z</time></trkpt><trkpt lat="44.4219358617844" lon="10.793230497864393"><ele>778.1999999999999</ele><time>2026-04-18T08:16:16Z</time></trkpt><trkpt lat="44.421961808078564" lon="10.793083808879368"><ele>781.0</ele><time>2026-04-18T08:16:17Z</time></trkpt><trkpt lat="44.42197320063618" lon="10.792970358331694"><ele>781.0</ele><time>2026-04-18T08:16:18Z</time></trkpt><trkpt lat="44.42197924722884" lon="10.792856432663074"><ele>781.0</ele><time>2026-04-18T08:16:19Z</time></trkpt><trkpt lat="44.42200135409808" lon="10.792735211069642"><ele>781.0</ele><time>2026-04-18T08:16:20Z</time></trkpt><trkpt lat="44.42203122608978" lon="10.792600564643958"><ele>781.0</ele><time>2026-04-18T08:16:21Z</time></trkpt><trkpt lat="44.42206423119147" lon="10.792461758140156"><ele>781.0</ele><time>2026-04-18T08:16:22Z</time></trkpt><trkpt lat="44.42208710930308" lon="10.792316063202604"><ele>779.25</ele><time>2026-04-18T08:16:23Z</time></trkpt><trkpt lat="44.42210573960634" lon="10.792153742505127"><ele>777.5</ele><time>2026-04-18T08:16:24Z</time></trkpt><trkpt lat="44.422130780626404" lon="10.79201606516301"><ele>775.75</ele><time>2026-04-18T08:16:25Z</time></trkpt><trkpt lat="44.42215675838967" lon="10.791846286924118"><ele>774.0</ele><time>2026-04-18T08:16:26Z</time></trkpt><trkpt lat="44.42218071113713" lon="10.791651698330126"><ele>774.0</ele><time>2026-04-18T08:16:27Z</time></trkpt><trkpt lat="44.42219720189802" lon="10.791439915908374"><ele>774.0</ele><time>2026-04-18T08:16:28Z</time></trkpt><trkpt lat="44.422226964082746" lon="10.79122575483553"><ele>774.0</ele><time>2026-04-18T08:16:29Z</time></trkpt><trkpt lat="44.42225282023437" lon="10.79105705825943"><ele>774.0</ele><time>2026-04-18T08:16:30Z</time></trkpt><trkpt lat="44.42228484121565" lon="10.790916929794147"><ele>775.6666666666666</ele><time>2026-04-18T08:16:31Z</time></trkpt><trkpt lat="44.422319928435" lon="10.790833032106194"><ele>777.3333333333333</ele><time>2026-04-18T08:16:32Z</time></trkpt><trkpt lat="44.42235841727793" lon="10.790744367721901"><ele>779.0</ele><time>2026-04-18T08:16:33Z</time></trkpt><trkpt lat="44.422405365378694" lon="10.79062411673982"><ele>780.6666666666666</ele><time>2026-04-18T08:16:35Z</time></trkpt><trkpt lat="44.42245662983627" lon="10.790517419230259"><ele>782.3333333333333</ele><time>2026-04-18T08:16:37Z</time></trkpt><trkpt lat="44.42248816892909" lon="10.79043196792605"><ele>784.0</ele><time>2026-04-18T08:16:38Z</time></trkpt><trkpt lat="44.42251755823227" lon="10.790335025363797"><ele>783.9999999999999</ele><time>2026-04-18T08:16:39Z</time></trkpt><trkpt lat="44.422552248636386" lon="10.790240096559781"><ele>784.0</ele><time>2026-04-18T08:16:40Z</time></trkpt><trkpt lat="44.422583247024974" lon="10.790149455479149"><ele>784.0</ele><time>2026-04-18T08:16:41Z</time></trkpt><trkpt lat="44.42261031405011" lon="10.790057284288237"><ele>784.0</ele><time>2026-04-18T08:16:42Z</time></trkpt><trkpt lat="44.42264761372848" lon="10.789939291776864"><ele>783.9999999999999</ele><time>2026-04-18T08:16:44Z</time></trkpt><trkpt lat="44.42268227999731" lon="10.789835403478579"><ele>784.0</ele><time>2026-04-18T08:16:47Z</time></trkpt><trkpt lat="44.42271611215972" lon="10.78974603345993"><ele>785.8000000000001</ele><time>2026-04-18T08:16:53Z</time></trkpt><trkpt lat="44.422607308436255" lon="10.789559292701876"><ele>787.6</ele><time>2026-04-18T08:16:57Z</time></trkpt><trkpt lat="44.42253174078083" lon="10.789535577200619"><ele>789.4</ele><time>2026-04-18T08:16:58Z</time></trkpt><trkpt lat="44.42246021405404" lon="10.789497019836768"><ele>791.2</ele><time>2026-04-18T08:16:59Z</time></trkpt><trkpt lat="44.42239569351704" lon="10.789463556897445"><ele>793.0</ele><time>2026-04-18T08:17:00Z</time></trkpt><trkpt lat="44.422340307608415" lon="10.789417175983788"><ele>792.9999999999999</ele><time>2026-04-18T08:17:01Z</time></trkpt><trkpt lat="44.42227850389268" lon="10.789358073230616"><ele>793.0</ele><time>2026-04-18T08:17:02Z</time></trkpt><trkpt lat="44.4221858341484" lon="10.789300185783556"><ele>793.0</ele><time>2026-04-18T08:17:04Z</time></trkpt><trkpt lat="44.4221074803176" lon="10.789237648101112"><ele>793.0</ele><time>2026-04-18T08:17:06Z</time></trkpt><trkpt lat="44.422028938826166" lon="10.789177065989673"><ele>792.9999999999999</ele><time>2026-04-18T08:17:08Z</time></trkpt><trkpt lat="44.4219501477808" lon="10.78911594475126"><ele>793.0</ele><time>2026-04-18T08:17:10Z</time></trkpt><trkpt lat="44.4219266365665" lon="10.788998921926076"><ele>793.0</ele><time>2026-04-18T08:17:13Z</time></trkpt><trkpt lat="44.42200250394732" lon="10.788901652636378"><ele>793.0</ele><time>2026-04-18T08:17:15Z</time></trkpt><trkpt lat="44.422114642902166" lon="10.78882431852616"><ele>793.0</ele><time>2026-04-18T08:17:17Z</time></trkpt><trkpt lat="44.4221952938014" lon="10.788773664352714"><ele>793.0</ele><time>2026-04-18T08:17:18Z</time></trkpt><trkpt lat="44.422300430823576" lon="10.788727512002062"><ele>793.0</ele><time>2026-04-18T08:17:19Z</time></trkpt><trkpt lat="44.42237431929251" lon="10.78868308671812"><ele>792.9999999999999</ele><time>2026-04-18T08:17:20Z</time></trkpt><trkpt lat="44.422455481772424" lon="10.78863423867073"><ele>793.0</ele><time>2026-04-18T08:17:21Z</time></trkpt><trkpt lat="44.42253499805605" lon="10.788581053272441"><ele>793.0</ele><time>2026-04-18T08:17:22Z</time></trkpt><trkpt lat="44.42260096061341" lon="10.788536012469315"><ele>793.0</ele><time>2026-04-18T08:17:22.999Z</time></trkpt><trkpt lat="44.42266024032593" lon="10.788497116824617"><ele>792.9999999999999</ele><time>2026-04-18T08:17:23.999Z</time></trkpt><trkpt lat="44.42277779318178" lon="10.788428414160629"><ele>793.0</ele><time>2026-04-18T08:17:25.999Z</time></trkpt><trkpt lat="44.42282284327548" lon="10.788267815839987"><ele>793.2</ele><time>2026-04-18T08:17:26.999Z</time></trkpt><trkpt lat="44.42288153691547" lon="10.788184756227244"><ele>793.4</ele><time>2026-04-18T08:17:27.999Z</time></trkpt><trkpt lat="44.42292291120377" lon="10.788094123956547"><ele>793.6</ele><time>2026-04-18T08:17:28.999Z</time></trkpt><trkpt lat="44.42294287150411" lon="10.787916184416362"><ele>793.8000000000001</ele><time>2026-04-18T08:17:30.999Z</time></trkpt><trkpt lat="44.42305715071725" lon="10.787868651986933"><ele>794.0</ele><time>2026-04-18T08:17:31.999Z</time></trkpt><trkpt lat="44.4228728777409" lon="10.787655169753192"><ele>790.3333333333334</ele><time>2026-04-18T08:17:32.999Z</time></trkpt><trkpt lat="44.42285003034397" lon="10.78754076123446"><ele>786.6666666666667</ele><time>2026-04-18T08:17:33.999Z</time></trkpt><trkpt lat="44.422813082410364" lon="10.787453452815283"><ele>783.0</ele><time>2026-04-18T08:17:34.999Z</time></trkpt><trkpt lat="44.422773290386644" lon="10.787351254518203"><ele>779.3333333333333</ele><time>2026-04-18T08:17:35.999Z</time></trkpt><trkpt lat="44.422744999338526" lon="10.787219764187903"><ele>775.6666666666666</ele><time>2026-04-18T08:17:36.999Z</time></trkpt><trkpt lat="44.42270723347579" lon="10.787124036279632"><ele>772.0</ele><time>2026-04-18T08:17:37.999Z</time></trkpt><trkpt lat="44.42268953870459" lon="10.787001152278394"><ele>772.0</ele><time>2026-04-18T08:17:38.999Z</time></trkpt><trkpt lat="44.42264945102098" lon="10.78690014142602"><ele>772.0</ele><time>2026-04-18T08:17:39.999Z</time></trkpt><trkpt lat="44.4226336109517" lon="10.786773735411119"><ele>772.0</ele><time>2026-04-18T08:17:40.999Z</time></trkpt><trkpt lat="44.42267721413993" lon="10.786639970816774"><ele>772.0</ele><time>2026-04-18T08:17:41.999Z</time></trkpt><trkpt lat="44.42270198090884" lon="10.786492444402349"><ele>772.0</ele><time>2026-04-18T08:17:42.999Z</time></trkpt><trkpt lat="44.422738575751026" lon="10.786351263339647"><ele>770.0</ele><time>2026-04-18T08:17:43.999Z</time></trkpt><trkpt lat="44.42280825184107" lon="10.78623779208495"><ele>768.0</ele><time>2026-04-18T08:17:44.999Z</time></trkpt><trkpt lat="44.422855167308" lon="10.786117926821674"><ele>766.0</ele><time>2026-04-18T08:17:45.999Z</time></trkpt><trkpt lat="44.42290559428943" lon="10.786009569532245"><ele>764.0</ele><time>2026-04-18T08:17:46.999Z</time></trkpt><trkpt lat="44.42294212841979" lon="10.785889894474975"><ele>762.0</ele><time>2026-04-18T08:17:47.999Z</time></trkpt><trkpt lat="44.42295736657839" lon="10.785769480746017"><ele>759.4000000000001</ele><time>2026-04-18T08:17:48.999Z</time></trkpt><trkpt lat="44.42294729464478" lon="10.785635695535266"><ele>756.8000000000001</ele><time>2026-04-18T08:17:49.999Z</time></trkpt><trkpt lat="44.42291308539219" lon="10.785520443033256"><ele>754.2</ele><time>2026-04-18T08:17:50.999Z</time></trkpt><trkpt lat="44.4228553990145" lon="10.785417336708372"><ele>751.6</ele><time>2026-04-18T08:17:51.999Z</time></trkpt><trkpt lat="44.42279811888937" lon="10.78531996521426"><ele>749.0</ele><time>2026-04-18T08:17:52.999Z</time></trkpt><trkpt lat="44.42273611016103" lon="10.785240535451281"><ele>748.6</ele><time>2026-04-18T08:17:53.999Z</time></trkpt><trkpt lat="44.42267990887557" lon="10.78515674166489"><ele>748.2</ele><time>2026-04-18T08:17:54.999Z</time></trkpt><trkpt lat="44.422612311253225" lon="10.785046385505987"><ele>747.8000000000001</ele><time>2026-04-18T08:17:55.999Z</time></trkpt><trkpt lat="44.422543187262086" lon="10.784925432660684"><ele>747.4000000000001</ele><time>2026-04-18T08:17:56.999Z</time></trkpt><trkpt lat="44.42249472039254" lon="10.784810632967256"><ele>747.0</ele><time>2026-04-18T08:17:57.999Z</time></trkpt><trkpt lat="44.422436725383605" lon="10.78470966695033"><ele>747.0</ele><time>2026-04-18T08:17:58.999Z</time></trkpt><trkpt lat="44.42237697179381" lon="10.784597519470287"><ele>747.0</ele><time>2026-04-18T08:17:59.999Z</time></trkpt><trkpt lat="44.422292790443045" lon="10.78448293780276"><ele>747.0</ele><time>2026-04-18T08:18:00.999Z</time></trkpt><trkpt lat="44.42218642078523" lon="10.784387770260963"><ele>747.0</ele><time>2026-04-18T08:18:01.999Z</time></trkpt><trkpt lat="44.42207327575603" lon="10.784313944065355"><ele>741.5</ele><time>2026-04-18T08:18:02.999Z</time></trkpt><trkpt lat="44.42196479262708" lon="10.784253421776846"><ele>736.0</ele><time>2026-04-18T08:18:03.999Z</time></trkpt><trkpt lat="44.42185469804025" lon="10.784194396819533"><ele>730.5</ele><time>2026-04-18T08:18:04.999Z</time></trkpt><trkpt lat="44.42174515397857" lon="10.78413907069128"><ele>725.0</ele><time>2026-04-18T08:18:05.999Z</time></trkpt><trkpt lat="44.42164735031271" lon="10.784062038654323"><ele>725.0</ele><time>2026-04-18T08:18:06.999Z</time></trkpt><trkpt lat="44.42156139560662" lon="10.783987337039093"><ele>725.0</ele><time>2026-04-18T08:18:07.999Z</time></trkpt><trkpt lat="44.42147451943007" lon="10.783909183838961"><ele>725.0</ele><time>2026-04-18T08:18:08.999Z</time></trkpt><trkpt lat="44.421385131350455" lon="10.783853137385414"><ele>725.0</ele><time>2026-04-18T08:18:09.999Z</time></trkpt><trkpt lat="44.421280941034404" lon="10.783803983326852"><ele>725.0</ele><time>2026-04-18T08:18:10.999Z</time></trkpt><trkpt lat="44.421179833288114" lon="10.783770770160551"><ele>723.3333333333333</ele><time>2026-04-18T08:18:11.999Z</time></trkpt><trkpt lat="44.42108263797021" lon="10.78374794912866"><ele>721.6666666666666</ele><time>2026-04-18T08:18:12.999Z</time></trkpt><trkpt lat="44.42100196140315" lon="10.78373037761833"><ele>720.0</ele><time>2026-04-18T08:18:14Z</time></trkpt><trkpt lat="44.42091821897602" lon="10.783725361509712"><ele>718.3333333333334</ele><time>2026-04-18T08:18:15Z</time></trkpt><trkpt lat="44.420844640584264" lon="10.783706554797247"><ele>716.6666666666667</ele><time>2026-04-18T08:18:16Z</time></trkpt><trkpt lat="44.420763897358505" lon="10.783684616325493"><ele>715.0</ele><time>2026-04-18T08:18:17Z</time></trkpt><trkpt lat="44.42068632984043" lon="10.78365683192436"><ele>715.0</ele><time>2026-04-18T08:18:18Z</time></trkpt><trkpt lat="44.42061074545945" lon="10.78364131753777"><ele>715.0</ele><time>2026-04-18T08:18:19Z</time></trkpt><trkpt lat="44.42053703268696" lon="10.783587760580968"><ele>715.0</ele><time>2026-04-18T08:18:20Z</time></trkpt><trkpt lat="44.420471532774435" lon="10.783531635335214"><ele>715.0</ele><time>2026-04-18T08:18:21Z</time></trkpt><trkpt lat="44.42039178514475" lon="10.783479191517568"><ele>715.0</ele><time>2026-04-18T08:18:22Z</time></trkpt><trkpt lat="44.42030901445076" lon="10.783446741586383"><ele>715.0</ele><time>2026-04-18T08:18:23Z</time></trkpt><trkpt lat="44.420240894286074" lon="10.783410919915559"><ele>712.5</ele><time>2026-04-18T08:18:24Z</time></trkpt><trkpt lat="44.42017699418976" lon="10.783389889630662"><ele>710.0</ele><time>2026-04-18T08:18:25Z</time></trkpt><trkpt lat="44.420088681213684" lon="10.783327820379794"><ele>707.5</ele><time>2026-04-18T08:18:27Z</time></trkpt><trkpt lat="44.42002810767364" lon="10.783292459474966"><ele>705.0</ele><time>2026-04-18T08:18:29Z</time></trkpt><trkpt lat="44.419962318232656" lon="10.783254060284328"><ele>702.5</ele><time>2026-04-18T08:18:42Z</time></trkpt><trkpt lat="44.41991602686584" lon="10.783193485291099"><ele>700.0</ele><time>2026-04-18T08:18:46Z</time></trkpt><trkpt lat="44.420099691123944" lon="10.783176061373043"><ele>700.0</ele><time>2026-04-18T08:18:51Z</time></trkpt><trkpt lat="44.42023974724645" lon="10.783216524400432"><ele>700.0</ele><time>2026-04-18T08:18:54Z</time></trkpt><trkpt lat="44.420329568167" lon="10.783213687278735"><ele>700.0</ele><time>2026-04-18T08:18:55Z</time></trkpt><trkpt lat="44.42045982002313" lon="10.78315854107828"><ele>700.0</ele><time>2026-04-18T08:18:57Z</time></trkpt><trkpt lat="44.42057104307594" lon="10.78316293765894"><ele>701.8</ele><time>2026-04-18T08:18:59Z</time></trkpt><trkpt lat="44.420674138634595" lon="10.783121696703015"><ele>703.6</ele><time>2026-04-18T08:19:01Z</time></trkpt><trkpt lat="44.42075258004793" lon="10.783096093056775"><ele>705.4000000000001</ele><time>2026-04-18T08:19:02Z</time></trkpt><trkpt lat="44.42082619229511" lon="10.783087898812235"><ele>707.2</ele><time>2026-04-18T08:19:03Z</time></trkpt><trkpt lat="44.42089871433072" lon="10.783052520382451"><ele>709.0</ele><time>2026-04-18T08:19:04Z</time></trkpt><trkpt lat="44.42101860391219" lon="10.782978158105754"><ele>709.0</ele><time>2026-04-18T08:19:06Z</time></trkpt><trkpt lat="44.42112368966177" lon="10.782938536378335"><ele>709.0</ele><time>2026-04-18T08:19:08Z</time></trkpt><trkpt lat="44.42123277770923" lon="10.782958044403317"><ele>709.0</ele><time>2026-04-18T08:19:10Z</time></trkpt><trkpt lat="44.421296420014286" lon="10.782973265149492"><ele>709.0</ele><time>2026-04-18T08:19:11Z</time></trkpt><trkpt lat="44.42148244579491" lon="10.782895866385065"><ele>707.6666666666667</ele><time>2026-04-18T08:19:18Z</time></trkpt><trkpt lat="44.42153839297795" lon="10.782839412776372"><ele>706.3333333333334</ele><time>2026-04-18T08:19:20Z</time></trkpt><trkpt lat="44.421610710255045" lon="10.782764676571976"><ele>705.0</ele><time>2026-04-18T08:19:23Z</time></trkpt><trkpt lat="44.42166798986157" lon="10.78266999612116"><ele>703.6666666666666</ele><time>2026-04-18T08:19:25Z</time></trkpt><trkpt lat="44.42173739293172" lon="10.782591032432238"><ele>702.3333333333333</ele><time>2026-04-18T08:19:27Z</time></trkpt><trkpt lat="44.42182268772117" lon="10.78256261734648"><ele>701.0</ele><time>2026-04-18T08:19:29Z</time></trkpt><trkpt lat="44.42187747964755" lon="10.782487011084166"><ele>701.0</ele><time>2026-04-18T08:19:33Z</time></trkpt><trkpt lat="44.42195487936884" lon="10.782397552642601"><ele>701.0</ele><time>2026-04-18T08:19:35Z</time></trkpt><trkpt lat="44.42197620976237" lon="10.782278791343714"><ele>701.0</ele><time>2026-04-18T08:19:37Z</time></trkpt><trkpt lat="44.4219527922448" lon="10.782189641574847"><ele>701.0</ele><time>2026-04-18T08:19:40.999Z</time></trkpt><trkpt lat="44.42195640152616" lon="10.78206377880631"><ele>701.0</ele><time>2026-04-18T08:19:43.999Z</time></trkpt><trkpt lat="44.42190490763599" lon="10.782005215463782"><ele>701.0</ele><time>2026-04-18T08:19:45.999Z</time></trkpt><trkpt lat="44.421781846846045" lon="10.781929733707939"><ele>701.0</ele><time>2026-04-18T08:19:47.999Z</time></trkpt><trkpt lat="44.421712350217966" lon="10.781908335655698"><ele>701.0</ele><time>2026-04-18T08:19:48.999Z</time></trkpt><trkpt lat="44.421648547031516" lon="10.781908813908471"><ele>701.0</ele><time>2026-04-18T08:19:49.999Z</time></trkpt><trkpt lat="44.42155896052343" lon="10.781903516524888"><ele>701.0</ele><time>2026-04-18T08:19:51.999Z</time></trkpt><trkpt lat="44.421495972574284" lon="10.781884846601201"><ele>701.0</ele><time>2026-04-18T08:19:53.999Z</time></trkpt><trkpt lat="44.42141736565334" lon="10.78185846284505"><ele>701.0</ele><time>2026-04-18T08:19:55.999Z</time></trkpt><trkpt lat="44.4213352803526" lon="10.781799165429504"><ele>701.1999999999999</ele><time>2026-04-18T08:19:57.999Z</time></trkpt><trkpt lat="44.42128535127769" lon="10.781700047095608"><ele>701.4</ele><time>2026-04-18T08:19:59.999Z</time></trkpt><trkpt lat="44.42129247300923" lon="10.781583245945702"><ele>701.6</ele><time>2026-04-18T08:20:01.999Z</time></trkpt><trkpt lat="44.42128607763872" lon="10.781474986376686"><ele>701.8</ele><time>2026-04-18T08:20:04.999Z</time></trkpt><trkpt lat="44.42125652179085" lon="10.78130608072759"><ele>702.0</ele><time>2026-04-18T08:20:06.999Z</time></trkpt><trkpt lat="44.421191043579725" lon="10.781155172298886"><ele>702.0</ele><time>2026-04-18T08:20:07.999Z</time></trkpt><trkpt lat="44.42115156446564" lon="10.781043808668334"><ele>702.0</ele><time>2026-04-18T08:20:08.999Z</time></trkpt><trkpt lat="44.421116265960706" lon="10.780947090726558"><ele>702.0</ele><time>2026-04-18T08:20:09.999Z</time></trkpt><trkpt lat="44.42111243247269" lon="10.780849335574521"><ele>702.0</ele><time>2026-04-18T08:20:12.999Z</time></trkpt><trkpt lat="44.421099445500836" lon="10.780728268471206"><ele>702.0</ele><time>2026-04-18T08:20:33Z</time></trkpt><trkpt lat="44.421142752413516" lon="10.78061540167634"><ele>702.0</ele><time>2026-04-18T08:20:35Z</time></trkpt><trkpt lat="44.42125513362978" lon="10.78048124804559"><ele>705.0</ele><time>2026-04-18T08:20:37Z</time></trkpt><trkpt lat="44.421339628883096" lon="10.78041185549322"><ele>708.0</ele><time>2026-04-18T08:20:38Z</time></trkpt><trkpt lat="44.42143035957827" lon="10.780316580937791"><ele>711.0</ele><time>2026-04-18T08:20:39Z</time></trkpt><trkpt lat="44.421527747428904" lon="10.780218166718491"><ele>714.0</ele><time>2026-04-18T08:20:40Z</time></trkpt><trkpt lat="44.421636532386714" lon="10.780072194611067"><ele>715.6</ele><time>2026-04-18T08:20:41Z</time></trkpt><trkpt lat="44.4217259783084" lon="10.779960664191032"><ele>717.2</ele><time>2026-04-18T08:20:42Z</time></trkpt><trkpt lat="44.421814196731404" lon="10.77985383255432"><ele>718.8000000000001</ele><time>2026-04-18T08:20:43Z</time></trkpt><trkpt lat="44.4218969644897" lon="10.779791473774914"><ele>720.4000000000001</ele><time>2026-04-18T08:20:44Z</time></trkpt><trkpt lat="44.421993118344396" lon="10.779717778431264"><ele>722.0</ele><time>2026-04-18T08:20:45Z</time></trkpt><trkpt lat="44.422092413001046" lon="10.779665982649558"><ele>722.8</ele><time>2026-04-18T08:20:46Z</time></trkpt><trkpt lat="44.42216525394149" lon="10.779674000015257"><ele>723.6</ele><time>2026-04-18T08:20:47Z</time></trkpt><trkpt lat="44.4222411954505" lon="10.779705463952356"><ele>724.4</ele><time>2026-04-18T08:20:48Z</time></trkpt><trkpt lat="44.42235757008019" lon="10.779765097895792"><ele>725.1999999999999</ele><time>2026-04-18T08:20:49Z</time></trkpt><trkpt lat="44.42246623853794" lon="10.779798093928147"><ele>726.0</ele><time>2026-04-18T08:20:50Z</time></trkpt><trkpt lat="44.42256686017347" lon="10.779814513173967"><ele>726.0</ele><time>2026-04-18T08:20:51Z</time></trkpt><trkpt lat="44.42265653104858" lon="10.779848366918568"><ele>726.0</ele><time>2026-04-18T08:20:52Z</time></trkpt><trkpt lat="44.42276373687619" lon="10.779934122667894"><ele>726.0</ele><time>2026-04-18T08:20:53Z</time></trkpt><trkpt lat="44.42287244571147" lon="10.780014331127475"><ele>726.0</ele><time>2026-04-18T08:20:54Z</time></trkpt><trkpt lat="44.42297768993815" lon="10.780065869716681"><ele>727.0</ele><time>2026-04-18T08:20:55Z</time></trkpt><trkpt lat="44.42307652694434" lon="10.78012334837973"><ele>728.0</ele><time>2026-04-18T08:20:56Z</time></trkpt><trkpt lat="44.423175992093185" lon="10.780188296648808"><ele>729.0</ele><time>2026-04-18T08:20:57Z</time></trkpt><trkpt lat="44.42325328179979" lon="10.7802424918765"><ele>730.0</ele><time>2026-04-18T08:20:58Z</time></trkpt><trkpt lat="44.42333510514241" lon="10.78029486995734"><ele>731.0</ele><time>2026-04-18T08:20:59Z</time></trkpt><trkpt lat="44.42341753011074" lon="10.780354661693888"><ele>731.4</ele><time>2026-04-18T08:21:00Z</time></trkpt><trkpt lat="44.42348546386598" lon="10.780387816380093"><ele>731.8</ele><time>2026-04-18T08:21:01Z</time></trkpt><trkpt lat="44.42361675760022" lon="10.780388331545636"><ele>732.1999999999999</ele><time>2026-04-18T08:21:03Z</time></trkpt><trkpt lat="44.42368951956229" lon="10.780354586166112"><ele>732.5999999999999</ele><time>2026-04-18T08:21:04Z</time></trkpt><trkpt lat="44.42379413403285" lon="10.780293599300267"><ele>733.0</ele><time>2026-04-18T08:21:05Z</time></trkpt><trkpt lat="44.42390469257874" lon="10.780244410521796"><ele>733.0</ele><time>2026-04-18T08:21:06Z</time></trkpt><trkpt lat="44.423994049234906" lon="10.780198557617712"><ele>733.0</ele><time>2026-04-18T08:21:07Z</time></trkpt><trkpt lat="44.42408790273407" lon="10.780142688641666"><ele>733.0</ele><time>2026-04-18T08:21:08Z</time></trkpt><trkpt lat="44.42419070989748" lon="10.780067391039724"><ele>733.0</ele><time>2026-04-18T08:21:09Z</time></trkpt><trkpt lat="44.424288432881184" lon="10.780006235500641"><ele>733.0</ele><time>2026-04-18T08:21:10Z</time></trkpt><trkpt lat="44.424375444781894" lon="10.779924734233935"><ele>733.5999999999999</ele><time>2026-04-18T08:21:11Z</time></trkpt><trkpt lat="44.4244549948814" lon="10.779828231118676"><ele>734.1999999999999</ele><time>2026-04-18T08:21:12Z</time></trkpt><trkpt lat="44.424541726963156" lon="10.779738921539382"><ele>734.8</ele><time>2026-04-18T08:21:13Z</time></trkpt><trkpt lat="44.424629593482436" lon="10.779674593414693"><ele>735.4</ele><time>2026-04-18T08:21:14Z</time></trkpt><trkpt lat="44.42472268223211" lon="10.779621120316119"><ele>736.0</ele><time>2026-04-18T08:21:15Z</time></trkpt><trkpt lat="44.42480951638959" lon="10.779543401712191"><ele>736.0</ele><time>2026-04-18T08:21:16Z</time></trkpt><trkpt lat="44.42490137426588" lon="10.77943946156825"><ele>736.0</ele><time>2026-04-18T08:21:17Z</time></trkpt><trkpt lat="44.424960835305235" lon="10.77934508585729"><ele>736.0</ele><time>2026-04-18T08:21:18Z</time></trkpt><trkpt lat="44.42502554033216" lon="10.779283675031149"><ele>736.0</ele><time>2026-04-18T08:21:19Z</time></trkpt><trkpt lat="44.425069290901504" lon="10.779193408003566"><ele>736.0</ele><time>2026-04-18T08:21:20Z</time></trkpt><trkpt lat="44.42513249036442" lon="10.779139338953605"><ele>736.0</ele><time>2026-04-18T08:21:21Z</time></trkpt><trkpt lat="44.42519365177752" lon="10.779100242564933"><ele>736.8333333333334</ele><time>2026-04-18T08:21:22Z</time></trkpt><trkpt lat="44.425266516996935" lon="10.779062635687211"><ele>737.6666666666667</ele><time>2026-04-18T08:21:23Z</time></trkpt><trkpt lat="44.425362161191174" lon="10.779054177305394"><ele>738.5</ele><time>2026-04-18T08:21:24Z</time></trkpt><trkpt lat="44.425441845557835" lon="10.779033967701956"><ele>739.3333333333334</ele><time>2026-04-18T08:21:25Z</time></trkpt><trkpt lat="44.42549995435772" lon="10.778984478286239"><ele>740.1666666666666</ele><time>2026-04-18T08:21:26Z</time></trkpt><trkpt lat="44.425552990643844" lon="10.778928752501422"><ele>741.0</ele><time>2026-04-18T08:21:27Z</time></trkpt><trkpt lat="44.425615936262076" lon="10.778835620168564"><ele>741.8</ele><time>2026-04-18T08:21:28Z</time></trkpt><trkpt lat="44.4257195948549" lon="10.77890463120635"><ele>742.5999999999999</ele><time>2026-04-18T08:21:29Z</time></trkpt><trkpt lat="44.42584107469374" lon="10.778870528379821"><ele>743.4</ele><time>2026-04-18T08:21:31Z</time></trkpt><trkpt lat="44.42592725580012" lon="10.778881207451033"><ele>744.2</ele><time>2026-04-18T08:21:32Z</time></trkpt><trkpt lat="44.42600529947699" lon="10.778882547694472"><ele>745.0</ele><time>2026-04-18T08:21:32.999Z</time></trkpt><trkpt lat="44.42609314875516" lon="10.778868157725721"><ele>745.0</ele><time>2026-04-18T08:21:33.999Z</time></trkpt><trkpt lat="44.42616343898437" lon="10.778828216213096"><ele>745.0</ele><time>2026-04-18T08:21:34.999Z</time></trkpt><trkpt lat="44.42622362125546" lon="10.778765273765126"><ele>745.0</ele><time>2026-04-18T08:21:35.999Z</time></trkpt><trkpt lat="44.426347671756176" lon="10.77859815198009"><ele>745.0</ele><time>2026-04-18T08:21:37.999Z</time></trkpt><trkpt lat="44.426381288666164" lon="10.77846116961349"><ele>745.0</ele><time>2026-04-18T08:21:38.999Z</time></trkpt><trkpt lat="44.426413308257715" lon="10.77837129600635"><ele>746.0</ele><time>2026-04-18T08:21:39.999Z</time></trkpt><trkpt lat="44.42646384737306" lon="10.778295530121646"><ele>747.0</ele><time>2026-04-18T08:21:40.999Z</time></trkpt><trkpt lat="44.42655290869704" lon="10.778289390877072"><ele>748.0</ele><time>2026-04-18T08:21:42.999Z</time></trkpt><trkpt lat="44.42661953739689" lon="10.778299643444472"><ele>749.0</ele><time>2026-04-18T08:21:45.999Z</time></trkpt><trkpt lat="44.42663900104981" lon="10.778106555308732"><ele>750.0</ele><time>2026-04-18T08:22:01.999Z</time></trkpt><trkpt lat="44.42663024663383" lon="10.777936482404147"><ele>750.0</ele><time>2026-04-18T08:22:03.999Z</time></trkpt><trkpt lat="44.42663538819007" lon="10.777832081804071"><ele>750.0</ele><time>2026-04-18T08:22:04.999Z</time></trkpt><trkpt lat="44.426646259023364" lon="10.777717952045732"><ele>750.0</ele><time>2026-04-18T08:22:05.999Z</time></trkpt><trkpt lat="44.42665416372531" lon="10.77760750416955"><ele>750.0</ele><time>2026-04-18T08:22:06.999Z</time></trkpt><trkpt lat="44.42672743346492" lon="10.777533151133683"><ele>750.0</ele><time>2026-04-18T08:22:07.999Z</time></trkpt><trkpt lat="44.42679792277243" lon="10.777471664309926"><ele>750.0</ele><time>2026-04-18T08:22:08.999Z</time></trkpt><trkpt lat="44.426877434603796" lon="10.777434029512259"><ele>751.8</ele><time>2026-04-18T08:22:09.999Z</time></trkpt><trkpt lat="44.42696583580616" lon="10.777384412432252"><ele>753.6</ele><time>2026-04-18T08:22:10.999Z</time></trkpt><trkpt lat="44.427047318688274" lon="10.777295424784661"><ele>755.4000000000001</ele><time>2026-04-18T08:22:11.999Z</time></trkpt><trkpt lat="44.42709091469118" lon="10.777213407931754"><ele>757.2</ele><time>2026-04-18T08:22:12.999Z</time></trkpt><trkpt lat="44.42710991351774" lon="10.777103862047358"><ele>759.0</ele><time>2026-04-18T08:22:13.999Z</time></trkpt><trkpt lat="44.42710075242878" lon="10.776959472143528"><ele>759.0</ele><time>2026-04-18T08:22:14.999Z</time></trkpt><trkpt lat="44.4270874137724" lon="10.776826762245744"><ele>759.0</ele><time>2026-04-18T08:22:15.999Z</time></trkpt><trkpt lat="44.427084848661536" lon="10.776654864113311"><ele>759.0</ele><time>2026-04-18T08:22:16.999Z</time></trkpt><trkpt lat="44.427082717268604" lon="10.776501616737242"><ele>759.0</ele><time>2026-04-18T08:22:17.999Z</time></trkpt><trkpt lat="44.4270951380263" lon="10.776378829468161"><ele>759.0</ele><time>2026-04-18T08:22:18.999Z</time></trkpt><trkpt lat="44.42717046248569" lon="10.776301766221561"><ele>759.0</ele><time>2026-04-18T08:22:19.999Z</time></trkpt><trkpt lat="44.42725301043958" lon="10.77628014818845"><ele>759.0</ele><time>2026-04-18T08:22:20.999Z</time></trkpt><trkpt lat="44.42734778984078" lon="10.776235242204018"><ele>759.0</ele><time>2026-04-18T08:22:21.999Z</time></trkpt><trkpt lat="44.427456568495785" lon="10.776159181381137"><ele>759.0</ele><time>2026-04-18T08:22:22.999Z</time></trkpt><trkpt lat="44.42757133397766" lon="10.77611721465055"><ele>759.0</ele><time>2026-04-18T08:22:23.999Z</time></trkpt><trkpt lat="44.42767121333261" lon="10.77605660588034"><ele>760.8333333333334</ele><time>2026-04-18T08:22:24.999Z</time></trkpt><trkpt lat="44.42776020610847" lon="10.775998212570991"><ele>762.6666666666667</ele><time>2026-04-18T08:22:26Z</time></trkpt><trkpt lat="44.4278291110496" lon="10.77591916972028"><ele>764.5</ele><time>2026-04-18T08:22:27Z</time></trkpt><trkpt lat="44.42789171947266" lon="10.77584716414434"><ele>766.3333333333334</ele><time>2026-04-18T08:22:28Z</time></trkpt><trkpt lat="44.42791106939012" lon="10.775747574266136"><ele>768.1666666666667</ele><time>2026-04-18T08:22:29Z</time></trkpt><trkpt lat="44.42789028854243" lon="10.775658346751342"><ele>770.0</ele><time>2026-04-18T08:22:30Z</time></trkpt><trkpt lat="44.42772932763604" lon="10.775572252166773"><ele>770.0</ele><time>2026-04-18T08:22:32Z</time></trkpt><trkpt lat="44.427622881728674" lon="10.775618188993665"><ele>770.0</ele><time>2026-04-18T08:22:33Z</time></trkpt><trkpt lat="44.4275142412169" lon="10.775692509809202"><ele>770.0</ele><time>2026-04-18T08:22:34Z</time></trkpt><trkpt lat="44.427390172099805" lon="10.775769196609835"><ele>770.0</ele><time>2026-04-18T08:22:35Z</time></trkpt><trkpt lat="44.42724007600917" lon="10.775757931331283"><ele>772.6666666666667</ele><time>2026-04-18T08:22:36Z</time></trkpt><trkpt lat="44.42707979979533" lon="10.77575503135001"><ele>775.3333333333333</ele><time>2026-04-18T08:22:37Z</time></trkpt><trkpt lat="44.426918246735895" lon="10.77578100086523"><ele>778.0</ele><time>2026-04-18T08:22:38Z</time></trkpt><trkpt lat="44.426784179721054" lon="10.775860470212761"><ele>778.0</ele><time>2026-04-18T08:22:39Z</time></trkpt><trkpt lat="44.42667393407228" lon="10.775974213870409"><ele>778.0</ele><time>2026-04-18T08:22:40Z</time></trkpt><trkpt lat="44.42653793098135" lon="10.776010718756135"><ele>778.0</ele><time>2026-04-18T08:22:41Z</time></trkpt><trkpt lat="44.4263905445873" lon="10.776032122747175"><ele>778.0</ele><time>2026-04-18T08:22:42Z</time></trkpt><trkpt lat="44.4262436284057" lon="10.776080303723782"><ele>776.5</ele><time>2026-04-18T08:22:43Z</time></trkpt><trkpt lat="44.426095224992935" lon="10.77613551379906"><ele>775.0</ele><time>2026-04-18T08:22:44Z</time></trkpt><trkpt lat="44.425954589858875" lon="10.776211745600955"><ele>773.5</ele><time>2026-04-18T08:22:45Z</time></trkpt><trkpt lat="44.42582994374205" lon="10.77628820912549"><ele>772.0</ele><time>2026-04-18T08:22:46Z</time></trkpt><trkpt lat="44.425710584721806" lon="10.776355745700243"><ele>772.0</ele><time>2026-04-18T08:22:47Z</time></trkpt><trkpt lat="44.425588334205685" lon="10.776386933511162"><ele>772.0</ele><time>2026-04-18T08:22:48Z</time></trkpt><trkpt lat="44.42545784235875" lon="10.776407719235914"><ele>772.0</ele><time>2026-04-18T08:22:49Z</time></trkpt><trkpt lat="44.42533575234639" lon="10.776418831918365"><ele>772.0</ele><time>2026-04-18T08:22:50Z</time></trkpt><trkpt lat="44.42520796926846" lon="10.776417551867462"><ele>773.6666666666666</ele><time>2026-04-18T08:22:51Z</time></trkpt><trkpt lat="44.425056459144486" lon="10.776440652135493"><ele>775.3333333333333</ele><time>2026-04-18T08:22:52Z</time></trkpt><trkpt lat="44.424911483788776" lon="10.776464507592548"><ele>777.0</ele><time>2026-04-18T08:22:53Z</time></trkpt><trkpt lat="44.42475649142112" lon="10.776469249557827"><ele>779.0</ele><time>2026-04-18T08:22:54Z</time></trkpt><trkpt lat="44.42460946961257" lon="10.776475012015316"><ele>781.0</ele><time>2026-04-18T08:22:55Z</time></trkpt><trkpt lat="44.42448036618487" lon="10.776481734405982"><ele>783.0</ele><time>2026-04-18T08:22:56Z</time></trkpt><trkpt lat="44.42435185247371" lon="10.776485113479856"><ele>785.0</ele><time>2026-04-18T08:22:57Z</time></trkpt><trkpt lat="44.42422687394034" lon="10.776471049320122"><ele>785.0</ele><time>2026-04-18T08:22:58Z</time></trkpt><trkpt lat="44.42410149029876" lon="10.776450210572902"><ele>785.0</ele><time>2026-04-18T08:22:59Z</time></trkpt><trkpt lat="44.42397743525436" lon="10.776419670067098"><ele>785.0</ele><time>2026-04-18T08:23:00Z</time></trkpt><trkpt lat="44.42384405967027" lon="10.776425891964022"><ele>785.0</ele><time>2026-04-18T08:23:01Z</time></trkpt><trkpt lat="44.423697266561284" lon="10.776493127798457"><ele>787.75</ele><time>2026-04-18T08:23:02Z</time></trkpt><trkpt lat="44.423574220833814" lon="10.776549312345711"><ele>790.5</ele><time>2026-04-18T08:23:03Z</time></trkpt><trkpt lat="44.42345092157949" lon="10.776567940411333"><ele>793.25</ele><time>2026-04-18T08:23:04Z</time></trkpt><trkpt lat="44.42332336537389" lon="10.77654499796682"><ele>796.0</ele><time>2026-04-18T08:23:05Z</time></trkpt><trkpt lat="44.423207480126955" lon="10.776480202533342"><ele>796.0</ele><time>2026-04-18T08:23:06Z</time></trkpt><trkpt lat="44.423079555033155" lon="10.776387602091573"><ele>796.0</ele><time>2026-04-18T08:23:07Z</time></trkpt><trkpt lat="44.4229536395113" lon="10.776300834149605"><ele>796.0</ele><time>2026-04-18T08:23:08Z</time></trkpt><trkpt lat="44.4228182691085" lon="10.776235638895262"><ele>796.0</ele><time>2026-04-18T08:23:09Z</time></trkpt><trkpt lat="44.42267327344232" lon="10.776191454158788"><ele>796.5</ele><time>2026-04-18T08:23:10Z</time></trkpt><trkpt lat="44.42252051423012" lon="10.77615505514622"><ele>797.0</ele><time>2026-04-18T08:23:11Z</time></trkpt><trkpt lat="44.422370600853554" lon="10.776112471235582"><ele>797.5</ele><time>2026-04-18T08:23:12Z</time></trkpt><trkpt lat="44.4222487893366" lon="10.776083824733341"><ele>798.0</ele><time>2026-04-18T08:23:13Z</time></trkpt><trkpt lat="44.422144400063424" lon="10.776053645997411"><ele>799.0</ele><time>2026-04-18T08:23:14Z</time></trkpt><trkpt lat="44.42205948044225" lon="10.776024807366063"><ele>800.0</ele><time>2026-04-18T08:23:15Z</time></trkpt><trkpt lat="44.42199893059028" lon="10.775963469784857"><ele>801.0</ele><time>2026-04-18T08:23:16Z</time></trkpt><trkpt lat="44.4220014122304" lon="10.77575795000232"><ele>802.0</ele><time>2026-04-18T08:23:18Z</time></trkpt><trkpt lat="44.42203322483411" lon="10.775657429089822"><ele>803.0</ele><time>2026-04-18T08:23:19Z</time></trkpt><trkpt lat="44.42209661637525" lon="10.775516757498425"><ele>805.0</ele><time>2026-04-18T08:23:20Z</time></trkpt><trkpt lat="44.422234473214736" lon="10.775527612085773"><ele>807.0</ele><time>2026-04-18T08:23:21Z</time></trkpt><trkpt lat="44.42237026494192" lon="10.77544189947443"><ele>809.0</ele><time>2026-04-18T08:23:22Z</time></trkpt><trkpt lat="44.42250441729852" lon="10.775358777947721"><ele>811.0</ele><time>2026-04-18T08:23:23Z</time></trkpt><trkpt lat="44.422630225238294" lon="10.77525812990114"><ele>810.75</ele><time>2026-04-18T08:23:24Z</time></trkpt><trkpt lat="44.42274435494631" lon="10.775178861791703"><ele>810.5</ele><time>2026-04-18T08:23:25Z</time></trkpt><trkpt lat="44.42284862198544" lon="10.775077124773048"><ele>810.25</ele><time>2026-04-18T08:23:26Z</time></trkpt><trkpt lat="44.42295619659439" lon="10.774970280443275"><ele>810.0</ele><time>2026-04-18T08:23:27Z</time></trkpt><trkpt lat="44.423040426848935" lon="10.774863337391212"><ele>810.0</ele><time>2026-04-18T08:23:28Z</time></trkpt><trkpt lat="44.42312187263485" lon="10.774781538423992"><ele>810.0</ele><time>2026-04-18T08:23:29Z</time></trkpt><trkpt lat="44.42319331570154" lon="10.774705419164208"><ele>810.0</ele><time>2026-04-18T08:23:30Z</time></trkpt><trkpt lat="44.423256029076526" lon="10.77465427803891"><ele>810.0</ele><time>2026-04-18T08:23:31Z</time></trkpt><trkpt lat="44.42330731507409" lon="10.774517781856305"><ele>810.0</ele><time>2026-04-18T08:23:33Z</time></trkpt><trkpt lat="44.4233132819605" lon="10.774424031937215"><ele>810.0</ele><time>2026-04-18T08:23:34Z</time></trkpt><trkpt lat="44.42332992835088" lon="10.774323273177966"><ele>812.0</ele><time>2026-04-18T08:23:35Z</time></trkpt><trkpt lat="44.42337153552238" lon="10.774223168124081"><ele>814.0</ele><time>2026-04-18T08:23:36Z</time></trkpt><trkpt lat="44.423281885119174" lon="10.774110940496472"><ele>816.0</ele><time>2026-04-18T08:23:36.999Z</time></trkpt><trkpt lat="44.42327252320846" lon="10.773989427344842"><ele>818.0</ele><time>2026-04-18T08:23:37.999Z</time></trkpt><trkpt lat="44.42319179823153" lon="10.77398319316427"><ele>820.0</ele><time>2026-04-18T08:23:38.999Z</time></trkpt><trkpt lat="44.42317480222676" lon="10.773889094315429"><ele>822.0</ele><time>2026-04-18T08:23:39.999Z</time></trkpt><trkpt lat="44.42326072500904" lon="10.773634032788467"><ele>825.6666666666667</ele><time>2026-04-18T08:23:40.999Z</time></trkpt><trkpt lat="44.423591546312075" lon="10.773485779769153"><ele>829.3333333333334</ele><time>2026-04-18T08:23:41.999Z</time></trkpt><trkpt lat="44.42363599127779" lon="10.773381308100388"><ele>833.0</ele><time>2026-04-18T08:23:42.999Z</time></trkpt><trkpt lat="44.42368467766646" lon="10.773274325493317"><ele>833.0000000000001</ele><time>2026-04-18T08:23:43.999Z</time></trkpt><trkpt lat="44.423729877534846" lon="10.773183976922557"><ele>833.0</ele><time>2026-04-18T08:23:44.999Z</time></trkpt><trkpt lat="44.423771361210775" lon="10.773095070260423"><ele>833.0</ele><time>2026-04-18T08:23:46.999Z</time></trkpt><trkpt lat="44.42378192758778" lon="10.772918760727283"><ele>833.0</ele><time>2026-04-18T08:23:48.999Z</time></trkpt><trkpt lat="44.42381406995405" lon="10.772807456463127"><ele>833.0000000000001</ele><time>2026-04-18T08:23:49.999Z</time></trkpt><trkpt lat="44.423841526665974" lon="10.772703897072493"><ele>833.0</ele><time>2026-04-18T08:23:50.999Z</time></trkpt><trkpt lat="44.42387657184656" lon="10.77261210780882"><ele>836.3333333333334</ele><time>2026-04-18T08:23:51.999Z</time></trkpt><trkpt lat="44.423910594927115" lon="10.772517495505797"><ele>839.6666666666667</ele><time>2026-04-18T08:23:52.999Z</time></trkpt><trkpt lat="44.42395180888812" lon="10.772406522978242"><ele>843.0</ele><time>2026-04-18T08:23:53.999Z</time></trkpt><trkpt lat="44.42398371853241" lon="10.772295686555758"><ele>846.3333333333333</ele><time>2026-04-18T08:23:54.999Z</time></trkpt><trkpt lat="44.424044956953374" lon="10.772251577565026"><ele>849.6666666666666</ele><time>2026-04-18T08:23:55.999Z</time></trkpt><trkpt lat="44.424123256581076" lon="10.772122199858634"><ele>853.0</ele><time>2026-04-18T08:23:57.999Z</time></trkpt><trkpt lat="44.42419823848365" lon="10.771977821571776"><ele>853.0</ele><time>2026-04-18T08:23:59.999Z</time></trkpt><trkpt lat="44.42426311452267" lon="10.771922993421724"><ele>853.0</ele><time>2026-04-18T08:24:00.999Z</time></trkpt><trkpt lat="44.4243205932684" lon="10.771850213096844"><ele>853.0</ele><time>2026-04-18T08:24:01.999Z</time></trkpt><trkpt lat="44.42437519034008" lon="10.771755766428376"><ele>853.0</ele><time>2026-04-18T08:24:02.999Z</time></trkpt><trkpt lat="44.42444837767418" lon="10.77164984266774"><ele>853.0</ele><time>2026-04-18T08:24:03.999Z</time></trkpt><trkpt lat="44.42452152548156" lon="10.771536710977053"><ele>852.8333333333333</ele><time>2026-04-18T08:24:04.999Z</time></trkpt><trkpt lat="44.424589114604245" lon="10.77146050526792"><ele>852.6666666666666</ele><time>2026-04-18T08:24:05.999Z</time></trkpt><trkpt lat="44.42464009602938" lon="10.771351078311092"><ele>852.5</ele><time>2026-04-18T08:24:06.999Z</time></trkpt><trkpt lat="44.424712630600695" lon="10.771266148754078"><ele>852.3333333333333</ele><time>2026-04-18T08:24:07.999Z</time></trkpt><trkpt lat="44.4247622675714" lon="10.77118466518872"><ele>852.1666666666666</ele><time>2026-04-18T08:24:08.999Z</time></trkpt><trkpt lat="44.42480954245872" lon="10.77109016916418"><ele>852.0</ele><time>2026-04-18T08:24:09.999Z</time></trkpt><trkpt lat="44.42487298795863" lon="10.771015876319161"><ele>851.4000000000001</ele><time>2026-04-18T08:24:10.999Z</time></trkpt><trkpt lat="44.42492189870228" lon="10.770938822389347"><ele>850.8000000000001</ele><time>2026-04-18T08:24:11.999Z</time></trkpt><trkpt lat="44.42499641844443" lon="10.770828060998006"><ele>850.2</ele><time>2026-04-18T08:24:13.999Z</time></trkpt><trkpt lat="44.42504764929478" lon="10.770740715073401"><ele>849.6</ele><time>2026-04-18T08:24:15.999Z</time></trkpt><trkpt lat="44.42509166545865" lon="10.770671372116285"><ele>849.0</ele><time>2026-04-18T08:24:18.999Z</time></trkpt><trkpt lat="44.42524094619927" lon="10.77061839932405"><ele>849.0</ele><time>2026-04-18T08:24:20.999Z</time></trkpt><trkpt lat="44.42531488525779" lon="10.77055341165628"><ele>849.0</ele><time>2026-04-18T08:24:21.999Z</time></trkpt><trkpt lat="44.42538331669855" lon="10.770468961877949"><ele>849.0</ele><time>2026-04-18T08:24:22.999Z</time></trkpt><trkpt lat="44.425451455064085" lon="10.7703540034348"><ele>849.0</ele><time>2026-04-18T08:24:23.999Z</time></trkpt><trkpt lat="44.425505765668824" lon="10.77021300161949"><ele>849.0</ele><time>2026-04-18T08:24:24.999Z</time></trkpt><trkpt lat="44.425543020835775" lon="10.77004397541414"><ele>848.5</ele><time>2026-04-18T08:24:25.999Z</time></trkpt><trkpt lat="44.425545987879914" lon="10.769869998014437"><ele>848.0</ele><time>2026-04-18T08:24:26.999Z</time></trkpt><trkpt lat="44.42550932421705" lon="10.769681014127798"><ele>847.5</ele><time>2026-04-18T08:24:27.999Z</time></trkpt><trkpt lat="44.42547272760144" lon="10.769481195091084"><ele>847.0</ele><time>2026-04-18T08:24:28.999Z</time></trkpt><trkpt lat="44.4254452362006" lon="10.769292352016922"><ele>848.25</ele><time>2026-04-18T08:24:29.999Z</time></trkpt><trkpt lat="44.42540807621627" lon="10.769108798780184"><ele>849.5</ele><time>2026-04-18T08:24:30.999Z</time></trkpt><trkpt lat="44.42537970686216" lon="10.768921872387423"><ele>850.75</ele><time>2026-04-18T08:24:32Z</time></trkpt><trkpt lat="44.42535158621483" lon="10.768767832754866"><ele>852.0</ele><time>2026-04-18T08:24:33Z</time></trkpt><trkpt lat="44.42532993342563" lon="10.76861940485561"><ele>853.25</ele><time>2026-04-18T08:24:34Z</time></trkpt><trkpt lat="44.425302119671485" lon="10.768471495028281"><ele>854.5</ele><time>2026-04-18T08:24:35Z</time></trkpt><trkpt lat="44.42528234781493" lon="10.76831818600389"><ele>855.75</ele><time>2026-04-18T08:24:36Z</time></trkpt><trkpt lat="44.425268025294116" lon="10.768155117184332"><ele>857.0</ele><time>2026-04-18T08:24:37Z</time></trkpt><trkpt lat="44.42525099048529" lon="10.76799613279874"><ele>857.0</ele><time>2026-04-18T08:24:38Z</time></trkpt><trkpt lat="44.42522443554858" lon="10.767843963981026"><ele>857.0</ele><time>2026-04-18T08:24:39Z</time></trkpt><trkpt lat="44.42519744192687" lon="10.767680421086471"><ele>857.0</ele><time>2026-04-18T08:24:40Z</time></trkpt><trkpt lat="44.425166331933916" lon="10.76751889296262"><ele>857.0</ele><time>2026-04-18T08:24:41Z</time></trkpt><trkpt lat="44.425130575794064" lon="10.767363819867017"><ele>857.8</ele><time>2026-04-18T08:24:42Z</time></trkpt><trkpt lat="44.42510842987437" lon="10.767220033895999"><ele>858.6</ele><time>2026-04-18T08:24:43Z</time></trkpt><trkpt lat="44.42509806353089" lon="10.767098249237145"><ele>859.3999999999999</ele><time>2026-04-18T08:24:44Z</time></trkpt><trkpt lat="44.425112233000206" lon="10.766995137281704"><ele>860.1999999999999</ele><time>2026-04-18T08:24:45Z</time></trkpt><trkpt lat="44.425155410146054" lon="10.76687451090677"><ele>861.0</ele><time>2026-04-18T08:24:46Z</time></trkpt><trkpt lat="44.42521849302002" lon="10.766759268578163"><ele>861.5</ele><time>2026-04-18T08:24:47Z</time></trkpt><trkpt lat="44.42527603792439" lon="10.766683813835174"><ele>862.0</ele><time>2026-04-18T08:24:48Z</time></trkpt><trkpt lat="44.425351651537724" lon="10.766674853702634"><ele>862.5</ele><time>2026-04-18T08:24:49Z</time></trkpt><trkpt lat="44.42541394758564" lon="10.766743396501155"><ele>863.0</ele><time>2026-04-18T08:24:50Z</time></trkpt><trkpt lat="44.425487235603185" lon="10.76680625388693"><ele>863.5</ele><time>2026-04-18T08:24:51Z</time></trkpt><trkpt lat="44.42557279526594" lon="10.766886850899603"><ele>864.0</ele><time>2026-04-18T08:24:52Z</time></trkpt><trkpt lat="44.42566999258321" lon="10.766961306571352"><ele>865.0</ele><time>2026-04-18T08:24:53Z</time></trkpt><trkpt lat="44.42578836211896" lon="10.767011130920583"><ele>866.0000000000001</ele><time>2026-04-18T08:24:54Z</time></trkpt><trkpt lat="44.425888195366674" lon="10.767046571354427"><ele>867.0000000000001</ele><time>2026-04-18T08:24:55Z</time></trkpt><trkpt lat="44.4259783044408" lon="10.767023288187149"><ele>868.0</ele><time>2026-04-18T08:24:56Z</time></trkpt><trkpt lat="44.426061161362185" lon="10.766994759585135"><ele>869.0</ele><time>2026-04-18T08:24:57Z</time></trkpt><trkpt lat="44.426159876913665" lon="10.766992433586948"><ele>869.0000000000001</ele><time>2026-04-18T08:24:58Z</time></trkpt><trkpt lat="44.42625674586363" lon="10.766947116031554"><ele>869.0</ele><time>2026-04-18T08:24:59Z</time></trkpt><trkpt lat="44.42634605853095" lon="10.766926223843875"><ele>869.0</ele><time>2026-04-18T08:25:00Z</time></trkpt><trkpt lat="44.42641483111103" lon="10.766869415186164"><ele>869.0</ele><time>2026-04-18T08:25:01Z</time></trkpt><trkpt lat="44.42646877381626" lon="10.766806684138514"><ele>869.0000000000001</ele><time>2026-04-18T08:25:02Z</time></trkpt><trkpt lat="44.426515666959816" lon="10.766726679549787"><ele>869.0</ele><time>2026-04-18T08:25:03Z</time></trkpt><trkpt lat="44.42656085287065" lon="10.766618016353961"><ele>869.0</ele><time>2026-04-18T08:25:04Z</time></trkpt><trkpt lat="44.42658898957507" lon="10.766498506906832"><ele>869.0000000000001</ele><time>2026-04-18T08:25:05Z</time></trkpt><trkpt lat="44.42660600388884" lon="10.766357835386128"><ele>869.0000000000001</ele><time>2026-04-18T08:25:06Z</time></trkpt><trkpt lat="44.42661585355882" lon="10.766186540691477"><ele>869.0</ele><time>2026-04-18T08:25:07Z</time></trkpt><trkpt lat="44.426618529674016" lon="10.766018497429666"><ele>869.0</ele><time>2026-04-18T08:25:08Z</time></trkpt><trkpt lat="44.42661047253889" lon="10.765862920124151"><ele>869.4000000000001</ele><time>2026-04-18T08:25:09Z</time></trkpt><trkpt lat="44.426608726918516" lon="10.765715267613666"><ele>869.8000000000001</ele><time>2026-04-18T08:25:10Z</time></trkpt><trkpt lat="44.42659917829811" lon="10.765559005683032"><ele>870.1999999999999</ele><time>2026-04-18T08:25:11Z</time></trkpt><trkpt lat="44.42658658673549" lon="10.765407435129827"><ele>870.5999999999999</ele><time>2026-04-18T08:25:12Z</time></trkpt><trkpt lat="44.426554941639" lon="10.765252817560395"><ele>871.0</ele><time>2026-04-18T08:25:13Z</time></trkpt><trkpt lat="44.42651430413723" lon="10.765141397571915"><ele>871.4999999999999</ele><time>2026-04-18T08:25:14Z</time></trkpt><trkpt lat="44.42647539047228" lon="10.76503156157877"><ele>872.0</ele><time>2026-04-18T08:25:15Z</time></trkpt><trkpt lat="44.42644685120414" lon="10.76492289988841"><ele>872.5</ele><time>2026-04-18T08:25:16Z</time></trkpt><trkpt lat="44.426422942600965" lon="10.76481714879352"><ele>873.0</ele><time>2026-04-18T08:25:17Z</time></trkpt><trkpt lat="44.42639176268677" lon="10.764693775223556"><ele>873.4999999999999</ele><time>2026-04-18T08:25:19Z</time></trkpt><trkpt lat="44.426369405645865" lon="10.764573156845303"><ele>874.0</ele><time>2026-04-18T08:25:20Z</time></trkpt><trkpt lat="44.42633923701671" lon="10.764477035449831"><ele>874.0</ele><time>2026-04-18T08:25:21Z</time></trkpt><trkpt lat="44.426316758301354" lon="10.7643912615003"><ele>874.0000000000001</ele><time>2026-04-18T08:25:22Z</time></trkpt><trkpt lat="44.426276658698505" lon="10.76429054397017"><ele>874.0000000000001</ele><time>2026-04-18T08:25:23Z</time></trkpt><trkpt lat="44.426229672265805" lon="10.764157830796774"><ele>874.0</ele><time>2026-04-18T08:25:24Z</time></trkpt><trkpt lat="44.42620381379505" lon="10.764003655877637"><ele>874.0</ele><time>2026-04-18T08:25:25Z</time></trkpt><trkpt lat="44.42614407445839" lon="10.763885894687427"><ele>874.8000000000001</ele><time>2026-04-18T08:25:26Z</time></trkpt><trkpt lat="44.4260672103955" lon="10.763746455887684"><ele>875.6000000000001</ele><time>2026-04-18T08:25:27Z</time></trkpt><trkpt lat="44.42604266871325" lon="10.763654492455913"><ele>876.4</ele><time>2026-04-18T08:25:28Z</time></trkpt><trkpt lat="44.426005615180365" lon="10.763561146083102"><ele>877.2</ele><time>2026-04-18T08:25:29Z</time></trkpt><trkpt lat="44.42596537671029" lon="10.763491648067484"><ele>878.0</ele><time>2026-04-18T08:25:31Z</time></trkpt><trkpt lat="44.42588445281768" lon="10.763332857226082"><ele>878.0</ele><time>2026-04-18T08:25:33Z</time></trkpt><trkpt lat="44.42581361671633" lon="10.763193834367831"><ele>878.0</ele><time>2026-04-18T08:25:35Z</time></trkpt><trkpt lat="44.42573257267597" lon="10.763030751162534"><ele>878.0</ele><time>2026-04-18T08:25:35.999Z</time></trkpt><trkpt lat="44.425542081909676" lon="10.762653589238717"><ele>875.25</ele><time>2026-04-18T08:25:36.999Z</time></trkpt><trkpt lat="44.42546412758612" lon="10.762446943048108"><ele>872.5</ele><time>2026-04-18T08:25:37.999Z</time></trkpt><trkpt lat="44.425408399111724" lon="10.762336152741614"><ele>869.75</ele><time>2026-04-18T08:25:38.999Z</time></trkpt><trkpt lat="44.42535979033031" lon="10.762226693530724"><ele>867.0</ele><time>2026-04-18T08:25:39.999Z</time></trkpt><trkpt lat="44.425324430079826" lon="10.76204839055355"><ele>867.0</ele><time>2026-04-18T08:25:41.999Z</time></trkpt><trkpt lat="44.425311260637734" lon="10.76191381390326"><ele>867.0</ele><time>2026-04-18T08:25:42.999Z</time></trkpt><trkpt lat="44.42532054215927" lon="10.76175239954072"><ele>867.0</ele><time>2026-04-18T08:25:43.999Z</time></trkpt><trkpt lat="44.425338892115214" lon="10.761624361063932"><ele>867.0</ele><time>2026-04-18T08:25:44.999Z</time></trkpt><trkpt lat="44.425381691734806" lon="10.761545969872813"><ele>867.0</ele><time>2026-04-18T08:25:45.999Z</time></trkpt><trkpt lat="44.42542669155933" lon="10.761454136499582"><ele>868.0</ele><time>2026-04-18T08:25:46.999Z</time></trkpt><trkpt lat="44.42548837920442" lon="10.761369702031393"><ele>869.0</ele><time>2026-04-18T08:25:47.999Z</time></trkpt><trkpt lat="44.425583948089056" lon="10.761275508060853"><ele>870.0</ele><time>2026-04-18T08:25:48.999Z</time></trkpt><trkpt lat="44.425656175280885" lon="10.761151325065027"><ele>871.0</ele><time>2026-04-18T08:25:49.999Z</time></trkpt><trkpt lat="44.42573150508039" lon="10.76107374617723"><ele>872.0</ele><time>2026-04-18T08:25:50.999Z</time></trkpt><trkpt lat="44.425761451515314" lon="10.76096615618039"><ele>872.0</ele><time>2026-04-18T08:25:51.999Z</time></trkpt><trkpt lat="44.42577328767169" lon="10.760825905317944"><ele>872.0</ele><time>2026-04-18T08:25:52.999Z</time></trkpt><trkpt lat="44.42575501914622" lon="10.760652675869967"><ele>872.0</ele><time>2026-04-18T08:25:53.999Z</time></trkpt><trkpt lat="44.425733909838094" lon="10.760468651091962"><ele>872.0</ele><time>2026-04-18T08:25:54.999Z</time></trkpt><trkpt lat="44.42571535113672" lon="10.760297703736638"><ele>871.8</ele><time>2026-04-18T08:25:55.999Z</time></trkpt><trkpt lat="44.425702237222744" lon="10.760160977406318"><ele>871.6</ele><time>2026-04-18T08:25:56.999Z</time></trkpt><trkpt lat="44.42570013844021" lon="10.76004062107635"><ele>871.3999999999999</ele><time>2026-04-18T08:25:57.999Z</time></trkpt><trkpt lat="44.42569196621344" lon="10.759914398107103"><ele>871.1999999999999</ele><time>2026-04-18T08:25:58.999Z</time></trkpt><trkpt lat="44.425691235391106" lon="10.75978541181836"><ele>871.0</ele><time>2026-04-18T08:25:59.999Z</time></trkpt><trkpt lat="44.4256942025622" lon="10.759655769357751"><ele>870.9999999999999</ele><time>2026-04-18T08:26:00.999Z</time></trkpt><trkpt lat="44.42569075376915" lon="10.75956197407103"><ele>871.0</ele><time>2026-04-18T08:26:01.999Z</time></trkpt><trkpt lat="44.42567615611033" lon="10.759455748436205"><ele>871.0</ele><time>2026-04-18T08:26:02.999Z</time></trkpt><trkpt lat="44.42569701752624" lon="10.759344546477823"><ele>871.0</ele><time>2026-04-18T08:26:03.999Z</time></trkpt><trkpt lat="44.42572043478049" lon="10.759211422005642"><ele>870.9999999999999</ele><time>2026-04-18T08:26:05.999Z</time></trkpt><trkpt lat="44.42575098459451" lon="10.75911580236582"><ele>871.0</ele><time>2026-04-18T08:26:06.999Z</time></trkpt><trkpt lat="44.42577946398742" lon="10.759014937132006"><ele>870.5999999999999</ele><time>2026-04-18T08:26:07.999Z</time></trkpt><trkpt lat="44.425797237408325" lon="10.758911770146828"><ele>870.1999999999999</ele><time>2026-04-18T08:26:08.999Z</time></trkpt><trkpt lat="44.42579378496838" lon="10.758791378003172"><ele>869.8000000000001</ele><time>2026-04-18T08:26:09.999Z</time></trkpt><trkpt lat="44.42574037091423" lon="10.75867550472132"><ele>869.4000000000001</ele><time>2026-04-18T08:26:10.999Z</time></trkpt><trkpt lat="44.42568880571283" lon="10.758482883093894"><ele>869.0</ele><time>2026-04-18T08:26:12.999Z</time></trkpt><trkpt lat="44.42564857587767" lon="10.758284483701914"><ele>868.8000000000001</ele><time>2026-04-18T08:26:13.999Z</time></trkpt><trkpt lat="44.42562707695437" lon="10.758175586961714"><ele>868.6000000000001</ele><time>2026-04-18T08:26:14.999Z</time></trkpt><trkpt lat="44.4256307169817" lon="10.758028318534452"><ele>868.4</ele><time>2026-04-18T08:26:15.999Z</time></trkpt><trkpt lat="44.42563052400781" lon="10.75791830648026"><ele>868.2</ele><time>2026-04-18T08:26:16.999Z</time></trkpt><trkpt lat="44.42560621539763" lon="10.757742198512185"><ele>868.0</ele><time>2026-04-18T08:26:17.999Z</time></trkpt><trkpt lat="44.425698334416964" lon="10.757520766366941"><ele>869.0</ele><time>2026-04-18T08:26:19.999Z</time></trkpt><trkpt lat="44.42574272533747" lon="10.757396116682012"><ele>870.0</ele><time>2026-04-18T08:26:20.999Z</time></trkpt><trkpt lat="44.425788692212656" lon="10.757231541126062"><ele>871.0</ele><time>2026-04-18T08:26:22.999Z</time></trkpt><trkpt lat="44.42583670512945" lon="10.757102741263436"><ele>872.0</ele><time>2026-04-18T08:26:23.999Z</time></trkpt><trkpt lat="44.42589711453448" lon="10.756947715660884"><ele>872.0000000000001</ele><time>2026-04-18T08:26:24.999Z</time></trkpt><trkpt lat="44.425946389919815" lon="10.75682205924291"><ele>872.0</ele><time>2026-04-18T08:26:26.999Z</time></trkpt><trkpt lat="44.4259835679103" lon="10.756726373873633"><ele>872.0</ele><time>2026-04-18T08:26:27.999Z</time></trkpt><trkpt lat="44.42604778851615" lon="10.756605173321597"><ele>872.0</ele><time>2026-04-18T08:26:29.999Z</time></trkpt><trkpt lat="44.4260637401398" lon="10.756510018961793"><ele>872.0000000000001</ele><time>2026-04-18T08:26:30.999Z</time></trkpt><trkpt lat="44.42611626789448" lon="10.756406224241314"><ele>872.0</ele><time>2026-04-18T08:26:31.999Z</time></trkpt><trkpt lat="44.42614575142206" lon="10.75632386715568"><ele>872.0</ele><time>2026-04-18T08:26:32.999Z</time></trkpt><trkpt lat="44.426171171336016" lon="10.756151684329952"><ele>872.0</ele><time>2026-04-18T08:26:34.999Z</time></trkpt><trkpt lat="44.42620004127308" lon="10.755995667797624"><ele>872.0</ele><time>2026-04-18T08:26:36.999Z</time></trkpt><trkpt lat="44.4262301631589" lon="10.755912696841555"><ele>872.0</ele><time>2026-04-18T08:26:38Z</time></trkpt><trkpt lat="44.426279032605" lon="10.755766855218935"><ele>872.0</ele><time>2026-04-18T08:26:40Z</time></trkpt><trkpt lat="44.42631103503825" lon="10.755631200668947"><ele>872.2</ele><time>2026-04-18T08:26:42Z</time></trkpt><trkpt lat="44.42634219635646" lon="10.755517886482593"><ele>872.4000000000001</ele><time>2026-04-18T08:26:44Z</time></trkpt><trkpt lat="44.42636844732368" lon="10.75538575347399"><ele>872.5999999999999</ele><time>2026-04-18T08:26:46Z</time></trkpt><trkpt lat="44.42643209751441" lon="10.75524229800859"><ele>872.8</ele><time>2026-04-18T08:26:48Z</time></trkpt><trkpt lat="44.42648248902212" lon="10.755087997408703"><ele>873.0</ele><time>2026-04-18T08:26:50Z</time></trkpt><trkpt lat="44.42649884801831" lon="10.754983072997467"><ele>871.8333333333334</ele><time>2026-04-18T08:26:51Z</time></trkpt><trkpt lat="44.42652570711126" lon="10.754878068011376"><ele>870.6666666666667</ele><time>2026-04-18T08:26:52Z</time></trkpt><trkpt lat="44.42654477673648" lon="10.754763908525483"><ele>869.5</ele><time>2026-04-18T08:26:53Z</time></trkpt><trkpt lat="44.426569970856576" lon="10.754653449073132"><ele>868.3333333333334</ele><time>2026-04-18T08:26:54Z</time></trkpt><trkpt lat="44.42660828053729" lon="10.754552853381014"><ele>867.1666666666667</ele><time>2026-04-18T08:26:55Z</time></trkpt><trkpt lat="44.42663738701975" lon="10.754452285717722"><ele>866.0</ele><time>2026-04-18T08:26:56Z</time></trkpt><trkpt lat="44.42666417373403" lon="10.754358193601073"><ele>864.6666666666667</ele><time>2026-04-18T08:26:57Z</time></trkpt><trkpt lat="44.426692020590394" lon="10.75426009089119"><ele>863.3333333333334</ele><time>2026-04-18T08:26:58Z</time></trkpt><trkpt lat="44.426718107579426" lon="10.754168188110727"><ele>862.0</ele><time>2026-04-18T08:26:59Z</time></trkpt><trkpt lat="44.426747543984455" lon="10.75406029195779"><ele>860.6666666666667</ele><time>2026-04-18T08:27:00Z</time></trkpt><trkpt lat="44.42677734343408" lon="10.753951091971535"><ele>859.3333333333334</ele><time>2026-04-18T08:27:01Z</time></trkpt><trkpt lat="44.42680252845096" lon="10.753846393944084"><ele>858.0</ele><time>2026-04-18T08:27:02Z</time></trkpt><trkpt lat="44.42682480318353" lon="10.753740745536103"><ele>858.0</ele><time>2026-04-18T08:27:03Z</time></trkpt><trkpt lat="44.426830572857455" lon="10.753631795974009"><ele>858.0</ele><time>2026-04-18T08:27:04Z</time></trkpt><trkpt lat="44.42685655382447" lon="10.753530131248548"><ele>858.0</ele><time>2026-04-18T08:27:05Z</time></trkpt><trkpt lat="44.42688012245595" lon="10.753435659366671"><ele>858.0</ele><time>2026-04-18T08:27:07Z</time></trkpt><trkpt lat="44.426911385051014" lon="10.753313450378473"><ele>858.0</ele><time>2026-04-18T08:27:38Z</time></trkpt><trkpt lat="44.42691964178998" lon="10.753224125269918"><ele>858.0</ele><time>2026-04-18T08:27:39Z</time></trkpt><trkpt lat="44.42694690500154" lon="10.753129770772869"><ele>856.5</ele><time>2026-04-18T08:27:40Z</time></trkpt><trkpt lat="44.42698683839489" lon="10.753009074981575"><ele>855.0</ele><time>2026-04-18T08:27:41Z</time></trkpt><trkpt lat="44.427028513082576" lon="10.75288481920664"><ele>853.5</ele><time>2026-04-18T08:27:41.999Z</time></trkpt><trkpt lat="44.42702445178317" lon="10.752745396053701"><ele>852.0</ele><time>2026-04-18T08:27:42.999Z</time></trkpt><trkpt lat="44.42704923132442" lon="10.752640809307245"><ele>850.5</ele><time>2026-04-18T08:27:43.999Z</time></trkpt><trkpt lat="44.427049992922534" lon="10.752533779307251"><ele>849.0</ele><time>2026-04-18T08:27:44.999Z</time></trkpt><trkpt lat="44.427081775482584" lon="10.752408846145427"><ele>848.1666666666666</ele><time>2026-04-18T08:27:46.999Z</time></trkpt><trkpt lat="44.42712095663586" lon="10.752337984482725"><ele>847.3333333333333</ele><time>2026-04-18T08:27:48.999Z</time></trkpt><trkpt lat="44.42718159508269" lon="10.75223319755755"><ele>846.5</ele><time>2026-04-18T08:27:51.999Z</time></trkpt><trkpt lat="44.427214374422384" lon="10.752152216951956"><ele>845.6666666666666</ele><time>2026-04-18T08:27:53.999Z</time></trkpt><trkpt lat="44.4273193567434" lon="10.752081899850877"><ele>844.8333333333333</ele><time>2026-04-18T08:27:56.999Z</time></trkpt><trkpt lat="44.42737647836356" lon="10.752019237124125"><ele>844.0</ele><time>2026-04-18T08:27:57.999Z</time></trkpt><trkpt lat="44.42733769758032" lon="10.751799607370131"><ele>843.8333333333333</ele><time>2026-04-18T08:27:58.999Z</time></trkpt><trkpt lat="44.42737896767797" lon="10.751700767903891"><ele>843.6666666666666</ele><time>2026-04-18T08:27:59.999Z</time></trkpt><trkpt lat="44.42741170691771" lon="10.751617652486074"><ele>843.5</ele><time>2026-04-18T08:28:00.999Z</time></trkpt><trkpt lat="44.42743043038662" lon="10.751527958772895"><ele>843.3333333333333</ele><time>2026-04-18T08:28:01.999Z</time></trkpt><trkpt lat="44.427465484399576" lon="10.751446754496843"><ele>843.1666666666666</ele><time>2026-04-18T08:28:02.999Z</time></trkpt><trkpt lat="44.42749238457665" lon="10.751362682073418"><ele>843.0</ele><time>2026-04-18T08:28:03.999Z</time></trkpt><trkpt lat="44.42752751742411" lon="10.751221634271701"><ele>843.0</ele><time>2026-04-18T08:28:05.999Z</time></trkpt><trkpt lat="44.427561546072965" lon="10.751107541195436"><ele>843.0</ele><time>2026-04-18T08:28:07.999Z</time></trkpt><trkpt lat="44.42762438236817" lon="10.750992044391507"><ele>843.0</ele><time>2026-04-18T08:28:09.999Z</time></trkpt><trkpt lat="44.42771316228449" lon="10.750894554507772"><ele>843.0</ele><time>2026-04-18T08:28:11.999Z</time></trkpt><trkpt lat="44.427818318281716" lon="10.750755256647828"><ele>841.1666666666666</ele><time>2026-04-18T08:28:13.999Z</time></trkpt><trkpt lat="44.42787857119942" lon="10.75067000384764"><ele>839.3333333333333</ele><time>2026-04-18T08:28:14.999Z</time></trkpt><trkpt lat="44.427936574099505" lon="10.750601407644211"><ele>837.5</ele><time>2026-04-18T08:28:15.999Z</time></trkpt><trkpt lat="44.42798591516375" lon="10.750510890619978"><ele>835.6666666666666</ele><time>2026-04-18T08:28:16.999Z</time></trkpt><trkpt lat="44.42803993074413" lon="10.75045077079297"><ele>833.8333333333333</ele><time>2026-04-18T08:28:17.999Z</time></trkpt><trkpt lat="44.4280888736548" lon="10.750382181473123"><ele>832.0</ele><time>2026-04-18T08:28:18.999Z</time></trkpt><trkpt lat="44.42817901416677" lon="10.750280548289366"><ele>831.9999999999999</ele><time>2026-04-18T08:28:20.999Z</time></trkpt><trkpt lat="44.42824244765985" lon="10.750227776852764"><ele>832.0</ele><time>2026-04-18T08:28:21.999Z</time></trkpt><trkpt lat="44.42830089465741" lon="10.750184409331686"><ele>832.0</ele><time>2026-04-18T08:28:22.999Z</time></trkpt><trkpt lat="44.42835946687966" lon="10.750146555376938"><ele>832.0</ele><time>2026-04-18T08:28:23.999Z</time></trkpt><trkpt lat="44.42845618705198" lon="10.750087957563554"><ele>831.9999999999999</ele><time>2026-04-18T08:28:25.999Z</time></trkpt><trkpt lat="44.42855668375892" lon="10.75002655460698"><ele>832.0</ele><time>2026-04-18T08:28:27.999Z</time></trkpt><trkpt lat="44.42865057790372" lon="10.74997238922431"><ele>828.4000000000001</ele><time>2026-04-18T08:28:29.999Z</time></trkpt><trkpt lat="44.428724196140806" lon="10.749898820845232"><ele>824.8000000000001</ele><time>2026-04-18T08:28:31.999Z</time></trkpt><trkpt lat="44.42879963883427" lon="10.749831801209192"><ele>821.2</ele><time>2026-04-18T08:28:33.999Z</time></trkpt><trkpt lat="44.42890978699511" lon="10.74976000170832"><ele>817.6</ele><time>2026-04-18T08:28:35.999Z</time></trkpt><trkpt lat="44.42899554674335" lon="10.749699272826934"><ele>814.0</ele><time>2026-04-18T08:28:37.999Z</time></trkpt><trkpt lat="44.42907115661651" lon="10.749689473973524"><ele>814.0</ele><time>2026-04-18T08:28:39.999Z</time></trkpt><trkpt lat="44.42913726937996" lon="10.749651853083293"><ele>814.0</ele><time>2026-04-18T08:28:41.999Z</time></trkpt><trkpt lat="44.42924312189733" lon="10.749616754718463"><ele>814.0</ele><time>2026-04-18T08:28:44Z</time></trkpt><trkpt lat="44.42932581143408" lon="10.749638778038376"><ele>814.0</ele><time>2026-04-18T08:28:46Z</time></trkpt><trkpt lat="44.42939167957735" lon="10.749749393761917"><ele>814.0</ele><time>2026-04-18T08:28:48Z</time></trkpt><trkpt lat="44.429431638263004" lon="10.749889116989408"><ele>813.9999999999999</ele><time>2026-04-18T08:28:50Z</time></trkpt><trkpt lat="44.429450740430504" lon="10.749984066574186"><ele>814.0</ele><time>2026-04-18T08:28:52Z</time></trkpt><trkpt lat="44.42947339046284" lon="10.75007716937149"><ele>814.0</ele><time>2026-04-18T08:28:55Z</time></trkpt><trkpt lat="44.429544135229676" lon="10.750017742152155"><ele>814.0</ele><time>2026-04-18T08:29:24Z</time></trkpt><trkpt lat="44.42955036426649" lon="10.749882344173038"><ele>813.9999999999999</ele><time>2026-04-18T08:29:28Z</time></trkpt><trkpt lat="44.42955999781126" lon="10.749784743267703"><ele>814.0</ele><time>2026-04-18T08:29:30Z</time></trkpt><trkpt lat="44.429562957297264" lon="10.749652013439086"><ele>814.0000000000001</ele><time>2026-04-18T08:29:32Z</time></trkpt><trkpt lat="44.42957565177284" lon="10.749564653516687"><ele>814.0</ele><time>2026-04-18T08:29:34Z</time></trkpt><trkpt lat="44.429597644018806" lon="10.749465501653374"><ele>814.0</ele><time>2026-04-18T08:29:36Z</time></trkpt><trkpt lat="44.42961394568723" lon="10.749379925674942"><ele>814.0</ele><time>2026-04-18T08:29:38Z</time></trkpt><trkpt lat="44.42959830768418" lon="10.749283731391056"><ele>814.0</ele><time>2026-04-18T08:29:40Z</time></trkpt><trkpt lat="44.42956482116648" lon="10.749208910304374"><ele>814.0000000000001</ele><time>2026-04-18T08:29:41Z</time></trkpt><trkpt lat="44.42947189384003" lon="10.749127194398138"><ele>814.0</ele><time>2026-04-18T08:29:43Z</time></trkpt><trkpt lat="44.4293840913825" lon="10.749081311050643"><ele>810.1666666666666</ele><time>2026-04-18T08:29:45Z</time></trkpt><trkpt lat="44.42930763277723" lon="10.749050398841828"><ele>806.3333333333333</ele><time>2026-04-18T08:29:47Z</time></trkpt><trkpt lat="44.42920841919422" lon="10.748986110229161"><ele>802.5</ele><time>2026-04-18T08:29:48.999Z</time></trkpt><trkpt lat="44.429135034927015" lon="10.748920822423678"><ele>798.6666666666667</ele><time>2026-04-18T08:29:50.999Z</time></trkpt><trkpt lat="44.42906578403035" lon="10.748874967013183"><ele>794.8333333333334</ele><time>2026-04-18T08:29:52.999Z</time></trkpt><trkpt lat="44.42898038943581" lon="10.748824176529475"><ele>791.0</ele><time>2026-04-18T08:29:54.999Z</time></trkpt><trkpt lat="44.42888895647977" lon="10.748815734093892"><ele>791.0000000000001</ele><time>2026-04-18T08:29:56.999Z</time></trkpt><trkpt lat="44.42881850339485" lon="10.748790050884953"><ele>791.0</ele><time>2026-04-18T08:29:58.999Z</time></trkpt><trkpt lat="44.4287404228127" lon="10.748758698116221"><ele>791.0</ele><time>2026-04-18T08:30:00.999Z</time></trkpt><trkpt lat="44.42866095968719" lon="10.748716982468203"><ele>791.0</ele><time>2026-04-18T08:30:02.999Z</time></trkpt><trkpt lat="44.42856620018148" lon="10.748678045935188"><ele>791.0000000000001</ele><time>2026-04-18T08:30:04.999Z</time></trkpt><trkpt lat="44.42851778093108" lon="10.74859497150783"><ele>791.0</ele><time>2026-04-18T08:30:07.999Z</time></trkpt><trkpt lat="44.428519845572445" lon="10.748503552748755"><ele>786.6666666666667</ele><time>2026-04-18T08:30:09.999Z</time></trkpt><trkpt lat="44.42855953527635" lon="10.748370762494526"><ele>782.3333333333334</ele><time>2026-04-18T08:30:12.999Z</time></trkpt><trkpt lat="44.42862488560154" lon="10.74833189455674"><ele>778.0</ele><time>2026-04-18T08:30:14.999Z</time></trkpt><trkpt lat="44.42869440009127" lon="10.748248646679318"><ele>773.6666666666667</ele><time>2026-04-18T08:30:16.999Z</time></trkpt><trkpt lat="44.42875561783919" lon="10.748192953944214"><ele>769.3333333333334</ele><time>2026-04-18T08:30:18.999Z</time></trkpt><trkpt lat="44.428801193226214" lon="10.748101471440524"><ele>765.0</ele><time>2026-04-18T08:30:21.999Z</time></trkpt><trkpt lat="44.428847776742444" lon="10.748025598990534"><ele>765.0</ele><time>2026-04-18T08:30:24.999Z</time></trkpt><trkpt lat="44.42890177527032" lon="10.747872756525076"><ele>765.0</ele><time>2026-04-18T08:30:26.999Z</time></trkpt><trkpt lat="44.42891988292096" lon="10.747727602852706"><ele>765.0</ele><time>2026-04-18T08:30:28.999Z</time></trkpt><trkpt lat="44.42892641594398" lon="10.747609232158263"><ele>765.0</ele><time>2026-04-18T08:30:30.999Z</time></trkpt><trkpt lat="44.42894092953405" lon="10.747488259516867"><ele>765.0</ele><time>2026-04-18T08:30:32.999Z</time></trkpt><trkpt lat="44.42888617839809" lon="10.747283647143878"><ele>760.8333333333334</ele><time>2026-04-18T08:30:34.999Z</time></trkpt><trkpt lat="44.42885830496535" lon="10.74713591953182"><ele>756.6666666666666</ele><time>2026-04-18T08:30:36.999Z</time></trkpt><trkpt lat="44.42884180685112" lon="10.747001127673983"><ele>752.5</ele><time>2026-04-18T08:30:38.999Z</time></trkpt><trkpt lat="44.4288366967911" lon="10.746858238899266"><ele>748.3333333333333</ele><time>2026-04-18T08:30:40.999Z</time></trkpt><trkpt lat="44.42883364405295" lon="10.746760780788092"><ele>744.1666666666666</ele><time>2026-04-18T08:30:42.999Z</time></trkpt><trkpt lat="44.42883376139775" lon="10.746671008464636"><ele>740.0</ele><time>2026-04-18T08:30:43.999Z</time></trkpt><trkpt lat="44.428793162651786" lon="10.74656791003596"><ele>738.0</ele><time>2026-04-18T08:30:45.999Z</time></trkpt><trkpt lat="44.42872184405847" lon="10.746541093839987"><ele>736.0</ele><time>2026-04-18T08:30:46.999Z</time></trkpt><trkpt lat="44.428591500086114" lon="10.746566023410509"><ele>734.0</ele><time>2026-04-18T08:30:48.999Z</time></trkpt><trkpt lat="44.42846963625555" lon="10.746596019646539"><ele>732.0</ele><time>2026-04-18T08:30:51Z</time></trkpt><trkpt lat="44.42840555104036" lon="10.746653405238472"><ele>730.0</ele><time>2026-04-18T08:30:53Z</time></trkpt><trkpt lat="44.428342331532654" lon="10.746673652124585"><ele>730.0</ele><time>2026-04-18T08:30:56Z</time></trkpt><trkpt lat="44.42835354197032" lon="10.746568491711182"><ele>730.0</ele><time>2026-04-18T08:31:09Z</time></trkpt><trkpt lat="44.42838126339121" lon="10.746482511524539"><ele>730.0</ele><time>2026-04-18T08:31:11Z</time></trkpt><trkpt lat="44.42845245701162" lon="10.746365497878628"><ele>730.0</ele><time>2026-04-18T08:31:13Z</time></trkpt><trkpt lat="44.42849767791438" lon="10.746297347502932"><ele>730.0</ele><time>2026-04-18T08:31:14Z</time></trkpt><trkpt lat="44.42857584266888" lon="10.74626453772676"><ele>730.0</ele><time>2026-04-18T08:31:15Z</time></trkpt><trkpt lat="44.42863422822333" lon="10.746196723739297"><ele>730.0</ele><time>2026-04-18T08:31:16Z</time></trkpt><trkpt lat="44.42869021932511" lon="10.746105095790732"><ele>730.0</ele><time>2026-04-18T08:31:17Z</time></trkpt><trkpt lat="44.42877184213145" lon="10.746017074224488"><ele>730.0</ele><time>2026-04-18T08:31:18Z</time></trkpt><trkpt lat="44.42883156950863" lon="10.745925464539337"><ele>730.0</ele><time>2026-04-18T08:31:19Z</time></trkpt><trkpt lat="44.42887255996313" lon="10.74585495116681"><ele>730.0</ele><time>2026-04-18T08:31:20Z</time></trkpt><trkpt lat="44.42891140951929" lon="10.745784950219953"><ele>730.0</ele><time>2026-04-18T08:31:21Z</time></trkpt><trkpt lat="44.42896455460281" lon="10.745730141725401"><ele>726.4</ele><time>2026-04-18T08:31:22Z</time></trkpt><trkpt lat="44.428997843475564" lon="10.745640051201143"><ele>722.8</ele><time>2026-04-18T08:31:23Z</time></trkpt><trkpt lat="44.4290413441234" lon="10.745573596147263"><ele>719.2</ele><time>2026-04-18T08:31:24Z</time></trkpt><trkpt lat="44.42911746426273" lon="10.74548654005504"><ele>715.6</ele><time>2026-04-18T08:31:26Z</time></trkpt><trkpt lat="44.42918817485383" lon="10.745426541824962"><ele>712.0</ele><time>2026-04-18T08:31:28Z</time></trkpt><trkpt lat="44.429271066605516" lon="10.745119831946257"><ele>711.3333333333334</ele><time>2026-04-18T08:31:35Z</time></trkpt><trkpt lat="44.42926856901442" lon="10.744980199908174"><ele>710.6666666666667</ele><time>2026-04-18T08:31:36Z</time></trkpt><trkpt lat="44.42927615369841" lon="10.744863249755275"><ele>710.0</ele><time>2026-04-18T08:31:37Z</time></trkpt><trkpt lat="44.42928839871425" lon="10.744764069823065"><ele>709.3333333333334</ele><time>2026-04-18T08:31:38Z</time></trkpt><trkpt lat="44.42930194776774" lon="10.744628475435233"><ele>708.6666666666666</ele><time>2026-04-18T08:31:40Z</time></trkpt><trkpt lat="44.42929064223896" lon="10.744538444854323"><ele>708.0</ele><time>2026-04-18T08:31:43Z</time></trkpt><trkpt lat="44.429222787655775" lon="10.744613697921949"><ele>708.0</ele><time>2026-04-18T08:31:46Z</time></trkpt><trkpt lat="44.42920335838509" lon="10.744708538917344"><ele>708.0</ele><time>2026-04-18T08:31:47Z</time></trkpt><trkpt lat="44.42918803148945" lon="10.74482431394208"><ele>708.0</ele><time>2026-04-18T08:31:48Z</time></trkpt><trkpt lat="44.429162256203966" lon="10.744907104109874"><ele>708.0</ele><time>2026-04-18T08:31:49Z</time></trkpt><trkpt lat="44.42911152524291" lon="10.744973305298751"><ele>708.0</ele><time>2026-04-18T08:31:50Z</time></trkpt><trkpt lat="44.429037170126485" lon="10.744976499231115"><ele>708.0</ele><time>2026-04-18T08:31:51Z</time></trkpt><trkpt lat="44.42896102971637" lon="10.744936873388841"><ele>708.0</ele><time>2026-04-18T08:31:52Z</time></trkpt><trkpt lat="44.428851698866474" lon="10.744959898602856"><ele>706.0</ele><time>2026-04-18T08:31:52.999Z</time></trkpt><trkpt lat="44.42875513622081" lon="10.744960376614044"><ele>704.0</ele><time>2026-04-18T08:31:53.999Z</time></trkpt><trkpt lat="44.42866340568246" lon="10.74497259119454"><ele>702.0</ele><time>2026-04-18T08:31:54.999Z</time></trkpt><trkpt lat="44.42857186737161" lon="10.744990088089958"><ele>700.0</ele><time>2026-04-18T08:31:55.999Z</time></trkpt><trkpt lat="44.42848594479656" lon="10.745011776792499"><ele>698.0</ele><time>2026-04-18T08:31:56.999Z</time></trkpt><trkpt lat="44.428398233434145" lon="10.745054507424348"><ele>698.0</ele><time>2026-04-18T08:31:57.999Z</time></trkpt><trkpt lat="44.428325817239575" lon="10.745105970521442"><ele>698.0</ele><time>2026-04-18T08:31:58.999Z</time></trkpt><trkpt lat="44.42826340621029" lon="10.745212086900729"><ele>698.0</ele><time>2026-04-18T08:31:59.999Z</time></trkpt><trkpt lat="44.42817656340167" lon="10.745306827098611"><ele>698.0</ele><time>2026-04-18T08:32:00.999Z</time></trkpt><trkpt lat="44.42806467943242" lon="10.745401360951078"><ele>698.0</ele><time>2026-04-18T08:32:01.999Z</time></trkpt><trkpt lat="44.42796513896532" lon="10.745470518480406"><ele>698.4</ele><time>2026-04-18T08:32:02.999Z</time></trkpt><trkpt lat="44.4278667265329" lon="10.7454475871637"><ele>698.8</ele><time>2026-04-18T08:32:03.999Z</time></trkpt><trkpt lat="44.42775902576698" lon="10.745415867543931"><ele>699.2</ele><time>2026-04-18T08:32:04.999Z</time></trkpt><trkpt lat="44.427663413178614" lon="10.745336450399716"><ele>699.6</ele><time>2026-04-18T08:32:05.999Z</time></trkpt><trkpt lat="44.42756169691257" lon="10.74523921521137"><ele>700.0</ele><time>2026-04-18T08:32:06.999Z</time></trkpt><trkpt lat="44.427465076554974" lon="10.745185823561195"><ele>697.6</ele><time>2026-04-18T08:32:07.999Z</time></trkpt><trkpt lat="44.42737085684777" lon="10.74515350704462"><ele>695.2</ele><time>2026-04-18T08:32:08.999Z</time></trkpt><trkpt lat="44.42728262761966" lon="10.745140003112752"><ele>692.8</ele><time>2026-04-18T08:32:09.999Z</time></trkpt><trkpt lat="44.4271868406356" lon="10.745156130399314"><ele>690.4</ele><time>2026-04-18T08:32:10.999Z</time></trkpt><trkpt lat="44.42709234147933" lon="10.745197084165527"><ele>688.0</ele><time>2026-04-18T08:32:11.999Z</time></trkpt><trkpt lat="44.426986712424565" lon="10.745279356920946"><ele>688.0</ele><time>2026-04-18T08:32:12.999Z</time></trkpt><trkpt lat="44.42685696478935" lon="10.745375561125616"><ele>688.0</ele><time>2026-04-18T08:32:13.999Z</time></trkpt><trkpt lat="44.4267313979247" lon="10.745418934317293"><ele>688.0</ele><time>2026-04-18T08:32:14.999Z</time></trkpt><trkpt lat="44.4266164839293" lon="10.745445439785403"><ele>688.0</ele><time>2026-04-18T08:32:15.999Z</time></trkpt><trkpt lat="44.42651328488305" lon="10.745454767634326"><ele>688.0</ele><time>2026-04-18T08:32:16.999Z</time></trkpt><trkpt lat="44.4264105412458" lon="10.745470531073874"><ele>688.0</ele><time>2026-04-18T08:32:17.999Z</time></trkpt><trkpt lat="44.42632585554015" lon="10.745457346636314"><ele>688.0</ele><time>2026-04-18T08:32:18.999Z</time></trkpt><trkpt lat="44.42625357413719" lon="10.7454174869592"><ele>688.0</ele><time>2026-04-18T08:32:19.999Z</time></trkpt><trkpt lat="44.426185049150284" lon="10.745334377233783"><ele>688.0</ele><time>2026-04-18T08:32:20.999Z</time></trkpt><trkpt lat="44.42612148492075" lon="10.745218848893334"><ele>683.25</ele><time>2026-04-18T08:32:21.999Z</time></trkpt><trkpt lat="44.42603208669355" lon="10.745196416128461"><ele>678.5</ele><time>2026-04-18T08:32:22.999Z</time></trkpt><trkpt lat="44.42591091625259" lon="10.745120450730715"><ele>673.75</ele><time>2026-04-18T08:32:24.999Z</time></trkpt><trkpt lat="44.42575343224822" lon="10.745134782809567"><ele>669.0</ele><time>2026-04-18T08:32:26.999Z</time></trkpt><trkpt lat="44.42568805174048" lon="10.745183065627543"><ele>668.2</ele><time>2026-04-18T08:32:27.999Z</time></trkpt><trkpt lat="44.4256094736242" lon="10.745228801934688"><ele>667.4000000000001</ele><time>2026-04-18T08:32:28.999Z</time></trkpt><trkpt lat="44.425518340150695" lon="10.745278128533434"><ele>666.6</ele><time>2026-04-18T08:32:29.999Z</time></trkpt><trkpt lat="44.425430143663185" lon="10.745339495993372"><ele>665.8</ele><time>2026-04-18T08:32:30.999Z</time></trkpt><trkpt lat="44.4253501695782" lon="10.74541703675372"><ele>665.0</ele><time>2026-04-18T08:32:31.999Z</time></trkpt><trkpt lat="44.42528686337024" lon="10.745515182552536"><ele>665.0</ele><time>2026-04-18T08:32:32.999Z</time></trkpt><trkpt lat="44.42520410122427" lon="10.745617684259255"><ele>665.0</ele><time>2026-04-18T08:32:33.999Z</time></trkpt><trkpt lat="44.42515222868113" lon="10.745772592029027"><ele>665.0</ele><time>2026-04-18T08:32:34.999Z</time></trkpt><trkpt lat="44.42510594416515" lon="10.745938987343488"><ele>665.0</ele><time>2026-04-18T08:32:35.999Z</time></trkpt><trkpt lat="44.4250741057477" lon="10.746087460641203"><ele>665.1666666666666</ele><time>2026-04-18T08:32:36.999Z</time></trkpt><trkpt lat="44.42503942777856" lon="10.746200613181088"><ele>665.3333333333333</ele><time>2026-04-18T08:32:37.999Z</time></trkpt><trkpt lat="44.425005768110545" lon="10.74631387403223"><ele>665.5</ele><time>2026-04-18T08:32:38.999Z</time></trkpt><trkpt lat="44.42497820023799" lon="10.74640435457851"><ele>665.6666666666666</ele><time>2026-04-18T08:32:39.999Z</time></trkpt><trkpt lat="44.424945969482216" lon="10.746510481331377"><ele>665.8333333333334</ele><time>2026-04-18T08:32:40.999Z</time></trkpt><trkpt lat="44.424915284153904" lon="10.74659963827095"><ele>666.0</ele><time>2026-04-18T08:32:41.999Z</time></trkpt><trkpt lat="44.42487527764328" lon="10.746728774544437"><ele>666.0</ele><time>2026-04-18T08:32:42.999Z</time></trkpt><trkpt lat="44.42483443431227" lon="10.746863746423289"><ele>666.0</ele><time>2026-04-18T08:32:43.999Z</time></trkpt><trkpt lat="44.42477964339923" lon="10.746987880112195"><ele>666.0</ele><time>2026-04-18T08:32:44.999Z</time></trkpt><trkpt lat="44.424697298270374" lon="10.747087305926906"><ele>666.0</ele><time>2026-04-18T08:32:45.999Z</time></trkpt><trkpt lat="44.42459687952761" lon="10.747167345550523"><ele>666.0</ele><time>2026-04-18T08:32:46.999Z</time></trkpt><trkpt lat="44.424496047475344" lon="10.74722290097506"><ele>667.1999999999999</ele><time>2026-04-18T08:32:47.999Z</time></trkpt><trkpt lat="44.4244037108373" lon="10.747296139254395"><ele>668.4</ele><time>2026-04-18T08:32:48.999Z</time></trkpt><trkpt lat="44.42432179365693" lon="10.747376935313758"><ele>669.6</ele><time>2026-04-18T08:32:49.999Z</time></trkpt><trkpt lat="44.42426427454879" lon="10.747486562154092"><ele>670.8</ele><time>2026-04-18T08:32:50.999Z</time></trkpt><trkpt lat="44.424216443251986" lon="10.747638997485554"><ele>672.0</ele><time>2026-04-18T08:32:51.999Z</time></trkpt><trkpt lat="44.424160406829145" lon="10.747829271562402"><ele>672.0</ele><time>2026-04-18T08:32:52.999Z</time></trkpt><trkpt lat="44.424109134440414" lon="10.74803539442001"><ele>672.0</ele><time>2026-04-18T08:32:53.999Z</time></trkpt><trkpt lat="44.42403533101323" lon="10.748231427381013"><ele>672.0</ele><time>2026-04-18T08:32:54.999Z</time></trkpt><trkpt lat="44.42396601808302" lon="10.748420950423414"><ele>670.25</ele><time>2026-04-18T08:32:56Z</time></trkpt><trkpt lat="44.423903930551674" lon="10.748587690550046"><ele>668.5</ele><time>2026-04-18T08:32:57Z</time></trkpt><trkpt lat="44.42384147287753" lon="10.748742552800602"><ele>666.75</ele><time>2026-04-18T08:32:58Z</time></trkpt><trkpt lat="44.42378279432636" lon="10.748888569061814"><ele>665.0</ele><time>2026-04-18T08:32:59Z</time></trkpt><trkpt lat="44.42372758222355" lon="10.749025153760075"><ele>665.0</ele><time>2026-04-18T08:33:00Z</time></trkpt><trkpt lat="44.42367292716646" lon="10.749153833111432"><ele>665.0</ele><time>2026-04-18T08:33:01Z</time></trkpt><trkpt lat="44.42358794405575" lon="10.749238248069837"><ele>665.0</ele><time>2026-04-18T08:33:02Z</time></trkpt><trkpt lat="44.42349564829678" lon="10.749291726766106"><ele>665.0</ele><time>2026-04-18T08:33:03Z</time></trkpt><trkpt lat="44.42333489222928" lon="10.74927774657881"><ele>665.0</ele><time>2026-04-18T08:33:04Z</time></trkpt><trkpt lat="44.42318547841663" lon="10.749293837977735"><ele>665.0</ele><time>2026-04-18T08:33:05Z</time></trkpt><trkpt lat="44.42303540427636" lon="10.74925421500098"><ele>665.0</ele><time>2026-04-18T08:33:06Z</time></trkpt><trkpt lat="44.42292105395022" lon="10.749213705710591"><ele>665.0</ele><time>2026-04-18T08:33:07Z</time></trkpt><trkpt lat="44.42281249561524" lon="10.749195325644818"><ele>664.5</ele><time>2026-04-18T08:33:08Z</time></trkpt><trkpt lat="44.42271664766273" lon="10.749151616647762"><ele>664.0</ele><time>2026-04-18T08:33:09Z</time></trkpt><trkpt lat="44.422616732031" lon="10.749133137725918"><ele>663.5</ele><time>2026-04-18T08:33:10Z</time></trkpt><trkpt lat="44.422494015004695" lon="10.74914403307185"><ele>663.0</ele><time>2026-04-18T08:33:11Z</time></trkpt><trkpt lat="44.42236986180823" lon="10.749168320024129"><ele>663.0</ele><time>2026-04-18T08:33:12Z</time></trkpt><trkpt lat="44.42223491338045" lon="10.749197315419718"><ele>663.0</ele><time>2026-04-18T08:33:13Z</time></trkpt><trkpt lat="44.4221185389611" lon="10.749220652802132"><ele>663.0</ele><time>2026-04-18T08:33:14Z</time></trkpt><trkpt lat="44.42201434097637" lon="10.749250270099438"><ele>663.0</ele><time>2026-04-18T08:33:15Z</time></trkpt><trkpt lat="44.42193025766902" lon="10.749266512960409"><ele>663.0</ele><time>2026-04-18T08:33:16Z</time></trkpt><trkpt lat="44.421852537644746" lon="10.749290626172213"><ele>662.3333333333334</ele><time>2026-04-18T08:33:17Z</time></trkpt><trkpt lat="44.42176847718886" lon="10.749279971457325"><ele>661.6666666666666</ele><time>2026-04-18T08:33:18Z</time></trkpt><trkpt lat="44.42170383789472" lon="10.749257698593704"><ele>661.0</ele><time>2026-04-18T08:33:19Z</time></trkpt><trkpt lat="44.42160623217487" lon="10.74917945047993"><ele>660.3333333333333</ele><time>2026-04-18T08:33:21Z</time></trkpt><trkpt lat="44.42153615092926" lon="10.749162299934357"><ele>659.6666666666666</ele><time>2026-04-18T08:33:22Z</time></trkpt><trkpt lat="44.42146982672824" lon="10.749108845944294"><ele>659.0</ele><time>2026-04-18T08:33:23Z</time></trkpt><trkpt lat="44.421386600687924" lon="10.749083376176934"><ele>659.0</ele><time>2026-04-18T08:33:24Z</time></trkpt><trkpt lat="44.42131702045234" lon="10.749091074521612"><ele>659.0</ele><time>2026-04-18T08:33:25Z</time></trkpt><trkpt lat="44.42124652096755" lon="10.749065681259676"><ele>659.0</ele><time>2026-04-18T08:33:26Z</time></trkpt><trkpt lat="44.42112675259613" lon="10.74904802730075"><ele>659.0</ele><time>2026-04-18T08:33:28Z</time></trkpt><trkpt lat="44.42105669151617" lon="10.749017211531838"><ele>659.0</ele><time>2026-04-18T08:33:30Z</time></trkpt><trkpt lat="44.42100659348868" lon="10.749195706447923"><ele>657.8333333333333</ele><time>2026-04-18T08:33:31Z</time></trkpt><trkpt lat="44.42098007446459" lon="10.749302264105696"><ele>656.6666666666666</ele><time>2026-04-18T08:33:32Z</time></trkpt><trkpt lat="44.42096085717063" lon="10.749397702093324"><ele>655.5</ele><time>2026-04-18T08:33:33Z</time></trkpt><trkpt lat="44.420914355550565" lon="10.749565476358715"><ele>654.3333333333334</ele><time>2026-04-18T08:33:35Z</time></trkpt><trkpt lat="44.42086930368335" lon="10.749659932945505"><ele>653.1666666666667</ele><time>2026-04-18T08:33:36Z</time></trkpt><trkpt lat="44.42084274518352" lon="10.749757776027762"><ele>652.0</ele><time>2026-04-18T08:33:37Z</time></trkpt><trkpt lat="44.42082398258009" lon="10.74987012985112"><ele>651.4000000000001</ele><time>2026-04-18T08:33:38Z</time></trkpt><trkpt lat="44.420828956069634" lon="10.749982585561542"><ele>650.8000000000001</ele><time>2026-04-18T08:33:39Z</time></trkpt><trkpt lat="44.42082254281571" lon="10.75009795894104"><ele>650.2</ele><time>2026-04-18T08:33:40Z</time></trkpt><trkpt lat="44.4208175744674" lon="10.750241858173187"><ele>649.6</ele><time>2026-04-18T08:33:41Z</time></trkpt><trkpt lat="44.42080950777164" lon="10.75037700524373"><ele>649.0</ele><time>2026-04-18T08:33:42Z</time></trkpt><trkpt lat="44.42080737342747" lon="10.750515643296549"><ele>648.8000000000001</ele><time>2026-04-18T08:33:43Z</time></trkpt><trkpt lat="44.42081382090511" lon="10.750643879397964"><ele>648.6</ele><time>2026-04-18T08:33:44Z</time></trkpt><trkpt lat="44.42079568885916" lon="10.750828819557047"><ele>648.4</ele><time>2026-04-18T08:33:46Z</time></trkpt><trkpt lat="44.42079218372081" lon="10.750922752189732"><ele>648.2</ele><time>2026-04-18T08:33:47Z</time></trkpt><trkpt lat="44.42076745703084" lon="10.751007682055578"><ele>648.0</ele><time>2026-04-18T08:33:48Z</time></trkpt><trkpt lat="44.420696930260334" lon="10.751137658115848"><ele>648.0</ele><time>2026-04-18T08:33:50Z</time></trkpt><trkpt lat="44.42059385834099" lon="10.75123023848383"><ele>648.0</ele><time>2026-04-18T08:33:52Z</time></trkpt><trkpt lat="44.42049697698926" lon="10.751287979664673"><ele>648.0</ele><time>2026-04-18T08:33:53Z</time></trkpt><trkpt lat="44.42040592987253" lon="10.751368531529318"><ele>648.0</ele><time>2026-04-18T08:33:54Z</time></trkpt><trkpt lat="44.42031950976634" lon="10.751445153649014"><ele>648.0</ele><time>2026-04-18T08:33:55Z</time></trkpt><trkpt lat="44.420232533406" lon="10.751521824488968"><ele>643.8</ele><time>2026-04-18T08:33:56Z</time></trkpt><trkpt lat="44.42014037054499" lon="10.7515869644627"><ele>639.5999999999999</ele><time>2026-04-18T08:33:57Z</time></trkpt><trkpt lat="44.42005919504601" lon="10.751651030469453"><ele>635.4000000000001</ele><time>2026-04-18T08:33:58Z</time></trkpt><trkpt lat="44.41997789821469" lon="10.751715192281653"><ele>631.2</ele><time>2026-04-18T08:33:59Z</time></trkpt><trkpt lat="44.419901117140064" lon="10.75179191703714"><ele>627.0</ele><time>2026-04-18T08:34:00Z</time></trkpt><trkpt lat="44.41981867649402" lon="10.751830526867169"><ele>626.5</ele><time>2026-04-18T08:34:00.999Z</time></trkpt><trkpt lat="44.41974148910941" lon="10.75188200352407"><ele>626.0</ele><time>2026-04-18T08:34:01.999Z</time></trkpt><trkpt lat="44.41967372654292" lon="10.751948099050534"><ele>625.5</ele><time>2026-04-18T08:34:02.999Z</time></trkpt><trkpt lat="44.41962777365281" lon="10.752018433246842"><ele>625.0</ele><time>2026-04-18T08:34:03.999Z</time></trkpt><trkpt lat="44.41957819073279" lon="10.752094641787666"><ele>624.5</ele><time>2026-04-18T08:34:04.999Z</time></trkpt><trkpt lat="44.4195384798744" lon="10.75222648127302"><ele>624.0</ele><time>2026-04-18T08:34:05.999Z</time></trkpt><trkpt lat="44.41951152391454" lon="10.752331038718706"><ele>621.0</ele><time>2026-04-18T08:34:06.999Z</time></trkpt><trkpt lat="44.419482206321824" lon="10.752421900785302"><ele>618.0</ele><time>2026-04-18T08:34:07.999Z</time></trkpt><trkpt lat="44.41951620549491" lon="10.75263714897778"><ele>615.0</ele><time>2026-04-18T08:34:09.999Z</time></trkpt><trkpt lat="44.41955266427999" lon="10.752762117878135"><ele>612.0</ele><time>2026-04-18T08:34:10.999Z</time></trkpt><trkpt lat="44.4195976839076" lon="10.752876838429835"><ele>609.0</ele><time>2026-04-18T08:34:11.999Z</time></trkpt><trkpt lat="44.419638950454036" lon="10.752994868459963"><ele>609.6666666666666</ele><time>2026-04-18T08:34:12.999Z</time></trkpt><trkpt lat="44.41968346084137" lon="10.753116509853124"><ele>610.3333333333334</ele><time>2026-04-18T08:34:13.999Z</time></trkpt><trkpt lat="44.41971797993025" lon="10.753222787919377"><ele>611.0</ele><time>2026-04-18T08:34:14.999Z</time></trkpt><trkpt lat="44.41973968028143" lon="10.753320331625359"><ele>611.6666666666667</ele><time>2026-04-18T08:34:15.999Z</time></trkpt><trkpt lat="44.41975881902368" lon="10.753419469359859"><ele>612.3333333333334</ele><time>2026-04-18T08:34:16.999Z</time></trkpt><trkpt lat="44.41978328041892" lon="10.753501386472081"><ele>613.0</ele><time>2026-04-18T08:34:17.999Z</time></trkpt><trkpt lat="44.41985044760732" lon="10.75362923344117"><ele>611.0</ele><time>2026-04-18T08:34:19.999Z</time></trkpt><trkpt lat="44.41991246229747" lon="10.753690567841694"><ele>609.0</ele><time>2026-04-18T08:34:20.999Z</time></trkpt><trkpt lat="44.41997061758885" lon="10.753791524149303"><ele>607.0</ele><time>2026-04-18T08:34:21.999Z</time></trkpt><trkpt lat="44.420023288228926" lon="10.753876144107196"><ele>605.0</ele><time>2026-04-18T08:34:22.999Z</time></trkpt><trkpt lat="44.420075989058695" lon="10.753984785996366"><ele>603.0</ele><time>2026-04-18T08:34:23.999Z</time></trkpt><trkpt lat="44.42012704687299" lon="10.754071379125849"><ele>601.0</ele><time>2026-04-18T08:34:24.999Z</time></trkpt><trkpt lat="44.42017730593474" lon="10.754158773200455"><ele>601.0</ele><time>2026-04-18T08:34:25.999Z</time></trkpt><trkpt lat="44.420186224408575" lon="10.75430983462499"><ele>601.0</ele><time>2026-04-18T08:34:27.999Z</time></trkpt><trkpt lat="44.42016388084509" lon="10.754400186102716"><ele>601.0</ele><time>2026-04-18T08:34:28.999Z</time></trkpt><trkpt lat="44.42011902798414" lon="10.754483664281112"><ele>601.0</ele><time>2026-04-18T08:34:29.999Z</time></trkpt><trkpt lat="44.420091141003375" lon="10.754581528038852"><ele>601.0</ele><time>2026-04-18T08:34:30.999Z</time></trkpt><trkpt lat="44.42006974177851" lon="10.75466786548439"><ele>601.0</ele><time>2026-04-18T08:34:31.999Z</time></trkpt><trkpt lat="44.42003633121937" lon="10.754769164134037"><ele>601.5</ele><time>2026-04-18T08:34:32.999Z</time></trkpt><trkpt lat="44.42000931888215" lon="10.7548776984212"><ele>602.0</ele><time>2026-04-18T08:34:33.999Z</time></trkpt><trkpt lat="44.41997112914543" lon="10.75498584178192"><ele>602.5</ele><time>2026-04-18T08:34:34.999Z</time></trkpt><trkpt lat="44.41991424312015" lon="10.755083800306938"><ele>603.0</ele><time>2026-04-18T08:34:35.999Z</time></trkpt><trkpt lat="44.419856699015725" lon="10.75516767042532"><ele>603.5</ele><time>2026-04-18T08:34:36.999Z</time></trkpt><trkpt lat="44.41979014511932" lon="10.755227113939938"><ele>604.0</ele><time>2026-04-18T08:34:37.999Z</time></trkpt><trkpt lat="44.41973011821101" lon="10.755307042360643"><ele>599.6</ele><time>2026-04-18T08:34:38.999Z</time></trkpt><trkpt lat="44.41962549793026" lon="10.755392858136135"><ele>595.2</ele><time>2026-04-18T08:34:40.999Z</time></trkpt><trkpt lat="44.41956807916112" lon="10.755539776945808"><ele>590.8000000000001</ele><time>2026-04-18T08:34:42.999Z</time></trkpt><trkpt lat="44.4195621663186" lon="10.755634849661202"><ele>586.4</ele><time>2026-04-18T08:34:43.999Z</time></trkpt><trkpt lat="44.41956525720996" lon="10.755739469561204"><ele>582.0</ele><time>2026-04-18T08:34:44.999Z</time></trkpt><trkpt lat="44.41956235804334" lon="10.75583620262162"><ele>582.0</ele><time>2026-04-18T08:34:45.999Z</time></trkpt><trkpt lat="44.41954936272782" lon="10.75592382841769"><ele>582.0</ele><time>2026-04-18T08:34:46.999Z</time></trkpt><trkpt lat="44.419511691564985" lon="10.75602940589249"><ele>582.0</ele><time>2026-04-18T08:34:47.999Z</time></trkpt><trkpt lat="44.41942217567117" lon="10.756118393996354"><ele>582.0</ele><time>2026-04-18T08:34:49.999Z</time></trkpt><trkpt lat="44.41933685330609" lon="10.756186304518243"><ele>582.0</ele><time>2026-04-18T08:34:51.999Z</time></trkpt><trkpt lat="44.41927402830601" lon="10.756231211734026"><ele>582.0</ele><time>2026-04-18T08:34:52.999Z</time></trkpt><trkpt lat="44.419193038539234" lon="10.756302023752722"><ele>579.8000000000001</ele><time>2026-04-18T08:34:53.999Z</time></trkpt><trkpt lat="44.419095136415145" lon="10.756372922400697"><ele>577.6</ele><time>2026-04-18T08:34:54.999Z</time></trkpt><trkpt lat="44.4190135203055" lon="10.75642919796088"><ele>575.4000000000001</ele><time>2026-04-18T08:34:55.999Z</time></trkpt><trkpt lat="44.41893452453307" lon="10.7564933166569"><ele>573.2</ele><time>2026-04-18T08:34:56.999Z</time></trkpt><trkpt lat="44.41884907324905" lon="10.756515901216108"><ele>571.0</ele><time>2026-04-18T08:34:57.999Z</time></trkpt><trkpt lat="44.41877051553449" lon="10.756548042073964"><ele>571.0</ele><time>2026-04-18T08:34:58.999Z</time></trkpt><trkpt lat="44.418682335748905" lon="10.756575331928175"><ele>571.0</ele><time>2026-04-18T08:34:59.999Z</time></trkpt><trkpt lat="44.4186171423652" lon="10.756581873051053"><ele>571.0</ele><time>2026-04-18T08:35:00.999Z</time></trkpt><trkpt lat="44.41849990630727" lon="10.756585792494686"><ele>571.0</ele><time>2026-04-18T08:35:03Z</time></trkpt><trkpt lat="44.418411104055856" lon="10.756675862514227"><ele>571.0</ele><time>2026-04-18T08:35:05Z</time></trkpt><trkpt lat="44.41836712031516" lon="10.75674799728777"><ele>572.3333333333334</ele><time>2026-04-18T08:35:06Z</time></trkpt><trkpt lat="44.418299631165695" lon="10.756889044837235"><ele>573.6666666666667</ele><time>2026-04-18T08:35:08Z</time></trkpt><trkpt lat="44.41826033899723" lon="10.756969016821666"><ele>575.0</ele><time>2026-04-18T08:35:09Z</time></trkpt><trkpt lat="44.41823057618805" lon="10.757070500070444"><ele>576.3333333333334</ele><time>2026-04-18T08:35:10Z</time></trkpt><trkpt lat="44.41817527907703" lon="10.75717157804364"><ele>577.6666666666666</ele><time>2026-04-18T08:35:11Z</time></trkpt><trkpt lat="44.41813857091574" lon="10.757260546728732"><ele>579.0</ele><time>2026-04-18T08:35:12Z</time></trkpt><trkpt lat="44.418107688986105" lon="10.757361596170139"><ele>579.0</ele><time>2026-04-18T08:35:13Z</time></trkpt><trkpt lat="44.418069210174245" lon="10.757461120526608"><ele>579.0</ele><time>2026-04-18T08:35:14Z</time></trkpt><trkpt lat="44.41804249259224" lon="10.757542911090102"><ele>579.0</ele><time>2026-04-18T08:35:15Z</time></trkpt><trkpt lat="44.41799931056763" lon="10.757629883643773"><ele>579.0</ele><time>2026-04-18T08:35:16Z</time></trkpt><trkpt lat="44.417969825847706" lon="10.757722101537095"><ele>579.0</ele><time>2026-04-18T08:35:17Z</time></trkpt><trkpt lat="44.417934375449626" lon="10.757831608288136"><ele>579.0</ele><time>2026-04-18T08:35:18Z</time></trkpt><trkpt lat="44.4179058688807" lon="10.757940568717384"><ele>576.6</ele><time>2026-04-18T08:35:19Z</time></trkpt><trkpt lat="44.41786072587801" lon="10.75806903863002"><ele>574.2</ele><time>2026-04-18T08:35:20Z</time></trkpt><trkpt lat="44.417821690640466" lon="10.758145884619688"><ele>571.8000000000001</ele><time>2026-04-18T08:35:21Z</time></trkpt><trkpt lat="44.41776723201656" lon="10.758253647498286"><ele>569.4</ele><time>2026-04-18T08:35:23Z</time></trkpt><trkpt lat="44.41771324461041" lon="10.758335533948678"><ele>567.0</ele><time>2026-04-18T08:35:26Z</time></trkpt><trkpt lat="44.41764152838167" lon="10.758548630590886"><ele>567.0</ele><time>2026-04-18T08:36:31.999Z</time></trkpt><trkpt lat="44.41756170375313" lon="10.758622178541009"><ele>567.0</ele><time>2026-04-18T08:36:32.999Z</time></trkpt><trkpt lat="44.417410765019525" lon="10.758591577796897"><ele>567.0</ele><time>2026-04-18T08:36:33.999Z</time></trkpt><trkpt lat="44.417335087624195" lon="10.758637966575671"><ele>567.0</ele><time>2026-04-18T08:36:34.999Z</time></trkpt><trkpt lat="44.41726104059138" lon="10.758673673992998"><ele>567.0</ele><time>2026-04-18T08:36:35.999Z</time></trkpt><trkpt lat="44.41719184354435" lon="10.758706594352775"><ele>562.4</ele><time>2026-04-18T08:36:36.999Z</time></trkpt><trkpt lat="44.4170997203963" lon="10.75871767330165"><ele>557.8000000000001</ele><time>2026-04-18T08:36:37.999Z</time></trkpt><trkpt lat="44.41699248302281" lon="10.758804636189556"><ele>553.2</ele><time>2026-04-18T08:36:38.999Z</time></trkpt><trkpt lat="44.41692758367886" lon="10.758932465223925"><ele>548.6</ele><time>2026-04-18T08:36:39.999Z</time></trkpt><trkpt lat="44.41688923269329" lon="10.759064684141206"><ele>544.0</ele><time>2026-04-18T08:36:40.999Z</time></trkpt><trkpt lat="44.41686334491886" lon="10.759217268747744"><ele>544.8</ele><time>2026-04-18T08:36:42.999Z</time></trkpt><trkpt lat="44.41689640249957" lon="10.759367950576351"><ele>545.5999999999999</ele><time>2026-04-18T08:36:43.999Z</time></trkpt><trkpt lat="44.41691850076859" lon="10.759475558850065"><ele>546.4</ele><time>2026-04-18T08:36:45.999Z</time></trkpt><trkpt lat="44.416905378257" lon="10.759643577545715"><ele>547.1999999999999</ele><time>2026-04-18T08:36:47.999Z</time></trkpt><trkpt lat="44.41687638701925" lon="10.759757142780666"><ele>548.0</ele><time>2026-04-18T08:36:48.999Z</time></trkpt><trkpt lat="44.416848808512405" lon="10.759887562220216"><ele>548.0</ele><time>2026-04-18T08:36:49.999Z</time></trkpt><trkpt lat="44.41682234752107" lon="10.760094130813735"><ele>548.0</ele><time>2026-04-18T08:36:50.999Z</time></trkpt><trkpt lat="44.41679903357502" lon="10.760244451581453"><ele>548.0</ele><time>2026-04-18T08:36:51.999Z</time></trkpt><trkpt lat="44.41678128548781" lon="10.760362554978192"><ele>548.0</ele><time>2026-04-18T08:36:52.999Z</time></trkpt><trkpt lat="44.41672539960812" lon="10.76047332916792"><ele>548.0</ele><time>2026-04-18T08:36:53.999Z</time></trkpt><trkpt lat="44.416682617168284" lon="10.760560719429753"><ele>549.8</ele><time>2026-04-18T08:36:54.999Z</time></trkpt><trkpt lat="44.41660905716695" lon="10.760686884338927"><ele>551.5999999999999</ele><time>2026-04-18T08:36:56.999Z</time></trkpt><trkpt lat="44.41656248010975" lon="10.760752501464655"><ele>553.4000000000001</ele><time>2026-04-18T08:36:57.999Z</time></trkpt><trkpt lat="44.416503061029516" lon="10.760869513757834"><ele>555.2</ele><time>2026-04-18T08:36:59.999Z</time></trkpt><trkpt lat="44.41641798965956" lon="10.760983192153425"><ele>557.0</ele><time>2026-04-18T08:37:01.999Z</time></trkpt><trkpt lat="44.4163737730722" lon="10.761057094999051"><ele>558.0</ele><time>2026-04-18T08:37:02.999Z</time></trkpt><trkpt lat="44.41633917689536" lon="10.761135246445699"><ele>559.0</ele><time>2026-04-18T08:37:03.999Z</time></trkpt><trkpt lat="44.41630696802615" lon="10.761220006790078"><ele>560.0</ele><time>2026-04-18T08:37:04.999Z</time></trkpt><trkpt lat="44.41625860064634" lon="10.76132404953758"><ele>561.0</ele><time>2026-04-18T08:37:05.999Z</time></trkpt><trkpt lat="44.41621438232241" lon="10.76141473147704"><ele>562.0</ele><time>2026-04-18T08:37:06.999Z</time></trkpt><trkpt lat="44.416166020996144" lon="10.761518891875744"><ele>563.0</ele><time>2026-04-18T08:37:08Z</time></trkpt><trkpt lat="44.41612370809536" lon="10.76162579648505"><ele>558.0</ele><time>2026-04-18T08:37:09Z</time></trkpt><trkpt lat="44.41609959645836" lon="10.761734951243493"><ele>553.0</ele><time>2026-04-18T08:37:10Z</time></trkpt><trkpt lat="44.41606320871418" lon="10.761834914228803"><ele>548.0</ele><time>2026-04-18T08:37:11Z</time></trkpt><trkpt lat="44.41601963383123" lon="10.761933378609475"><ele>543.0</ele><time>2026-04-18T08:37:12Z</time></trkpt><trkpt lat="44.41597659810285" lon="10.7620184082148"><ele>538.0</ele><time>2026-04-18T08:37:13Z</time></trkpt><trkpt lat="44.41593150296567" lon="10.762111666954521"><ele>533.0</ele><time>2026-04-18T08:37:14Z</time></trkpt><trkpt lat="44.415906198737034" lon="10.76221804013098"><ele>533.0</ele><time>2026-04-18T08:37:15Z</time></trkpt><trkpt lat="44.41588658745821" lon="10.76233673875373"><ele>533.0</ele><time>2026-04-18T08:37:16Z</time></trkpt><trkpt lat="44.41587821010397" lon="10.762444995665279"><ele>533.0</ele><time>2026-04-18T08:37:17Z</time></trkpt><trkpt lat="44.41584773210218" lon="10.762534947499772"><ele>533.0</ele><time>2026-04-18T08:37:18Z</time></trkpt><trkpt lat="44.41581570897961" lon="10.762616191295836"><ele>533.0</ele><time>2026-04-18T08:37:19Z</time></trkpt><trkpt lat="44.41577653420563" lon="10.762709643291206"><ele>533.0</ele><time>2026-04-18T08:37:20Z</time></trkpt><trkpt lat="44.415746792243226" lon="10.76281355404998"><ele>533.2857142857142</ele><time>2026-04-18T08:37:21Z</time></trkpt><trkpt lat="44.41570421252053" lon="10.76291373547368"><ele>533.5714285714286</ele><time>2026-04-18T08:37:22Z</time></trkpt><trkpt lat="44.41565070177756" lon="10.762989319436988"><ele>533.8571428571429</ele><time>2026-04-18T08:37:23Z</time></trkpt><trkpt lat="44.415603827536884" lon="10.76306641803617"><ele>534.1428571428571</ele><time>2026-04-18T08:37:24Z</time></trkpt><trkpt lat="44.415564262812346" lon="10.763149979677323"><ele>534.4285714285714</ele><time>2026-04-18T08:37:25Z</time></trkpt><trkpt lat="44.415497169565235" lon="10.763203468308566"><ele>534.7142857142857</ele><time>2026-04-18T08:37:26Z</time></trkpt><trkpt lat="44.415453088410835" lon="10.763274019168056"><ele>535.0</ele><time>2026-04-18T08:37:27Z</time></trkpt><trkpt lat="44.4153838191629" lon="10.763328733533298"><ele>532.6666666666667</ele><time>2026-04-18T08:37:28Z</time></trkpt><trkpt lat="44.41529871174416" lon="10.763331911145485"><ele>530.3333333333334</ele><time>2026-04-18T08:37:29Z</time></trkpt><trkpt lat="44.415211762813456" lon="10.763380227896992"><ele>528.0</ele><time>2026-04-18T08:37:30Z</time></trkpt><trkpt lat="44.41513544969759" lon="10.76337265514737"><ele>525.6666666666666</ele><time>2026-04-18T08:37:31Z</time></trkpt><trkpt lat="44.41506917113504" lon="10.763481339518025"><ele>523.3333333333333</ele><time>2026-04-18T08:37:32Z</time></trkpt><trkpt lat="44.41500611016285" lon="10.763568624560056"><ele>521.0</ele><time>2026-04-18T08:37:33Z</time></trkpt><trkpt lat="44.4149570038612" lon="10.763657337297834"><ele>521.0</ele><time>2026-04-18T08:37:34Z</time></trkpt><trkpt lat="44.414893231638004" lon="10.763746772146408"><ele>521.0</ele><time>2026-04-18T08:37:35Z</time></trkpt><trkpt lat="44.414817159489445" lon="10.763847603522036"><ele>521.0</ele><time>2026-04-18T08:37:36Z</time></trkpt><trkpt lat="44.414754722152104" lon="10.76394013290653"><ele>521.0</ele><time>2026-04-18T08:37:37Z</time></trkpt><trkpt lat="44.41467598392858" lon="10.764017571531197"><ele>521.0</ele><time>2026-04-18T08:37:38Z</time></trkpt><trkpt lat="44.41458145585147" lon="10.764070887428888"><ele>523.0</ele><time>2026-04-18T08:37:39Z</time></trkpt><trkpt lat="44.41446223836782" lon="10.764114997682192"><ele>525.0</ele><time>2026-04-18T08:37:40Z</time></trkpt><trkpt lat="44.41435914142256" lon="10.764198052653825"><ele>527.0</ele><time>2026-04-18T08:37:41Z</time></trkpt><trkpt lat="44.41422382357785" lon="10.76426668034319"><ele>529.0</ele><time>2026-04-18T08:37:42Z</time></trkpt><trkpt lat="44.41410912875047" lon="10.764335065954194"><ele>529.75</ele><time>2026-04-18T08:37:43Z</time></trkpt><trkpt lat="44.414026634800884" lon="10.764442661494666"><ele>530.5</ele><time>2026-04-18T08:37:44Z</time></trkpt><trkpt lat="44.41395310329651" lon="10.764541107641293"><ele>531.25</ele><time>2026-04-18T08:37:45Z</time></trkpt><trkpt lat="44.41386019658756" lon="10.764606933056177"><ele>532.0</ele><time>2026-04-18T08:37:46Z</time></trkpt><trkpt lat="44.41370682682191" lon="10.764699008038923"><ele>534.2</ele><time>2026-04-18T08:37:48Z</time></trkpt><trkpt lat="44.41361204441872" lon="10.76466313483543"><ele>536.4000000000001</ele><time>2026-04-18T08:37:49Z</time></trkpt><trkpt lat="44.413501559768044" lon="10.764666775951587"><ele>538.5999999999999</ele><time>2026-04-18T08:37:50Z</time></trkpt><trkpt lat="44.4134062978777" lon="10.764674843578927"><ele>540.8</ele><time>2026-04-18T08:37:51Z</time></trkpt><trkpt lat="44.413330380529835" lon="10.764780443336917"><ele>543.0</ele><time>2026-04-18T08:37:52Z</time></trkpt><trkpt lat="44.41323551184703" lon="10.764842943900014"><ele>543.0</ele><time>2026-04-18T08:37:53Z</time></trkpt><trkpt lat="44.4131461690643" lon="10.76488550413532"><ele>543.0</ele><time>2026-04-18T08:37:54Z</time></trkpt><trkpt lat="44.41303772199633" lon="10.764857817609723"><ele>543.0</ele><time>2026-04-18T08:37:56Z</time></trkpt><trkpt lat="44.41302898643471" lon="10.764720028510718"><ele>543.0</ele><time>2026-04-18T08:37:58Z</time></trkpt><trkpt lat="44.41309949201874" lon="10.764613142977149"><ele>543.0</ele><time>2026-04-18T08:38:00Z</time></trkpt><trkpt lat="44.413135932665696" lon="10.764520491275801"><ele>543.0</ele><time>2026-04-18T08:38:01Z</time></trkpt><trkpt lat="44.413188134064335" lon="10.76438797851469"><ele>543.0</ele><time>2026-04-18T08:38:02Z</time></trkpt><trkpt lat="44.41324987208966" lon="10.764186328217653"><ele>543.0</ele><time>2026-04-18T08:38:03Z</time></trkpt><trkpt lat="44.41326692683125" lon="10.764087474874367"><ele>543.0</ele><time>2026-04-18T08:38:04Z</time></trkpt><trkpt lat="44.41326023782942" lon="10.763960762654461"><ele>543.0</ele><time>2026-04-18T08:38:05Z</time></trkpt><trkpt lat="44.41324474899979" lon="10.763873334411677"><ele>544.4</ele><time>2026-04-18T08:38:06Z</time></trkpt><trkpt lat="44.413205465540024" lon="10.763714387500466"><ele>545.8</ele><time>2026-04-18T08:38:07Z</time></trkpt><trkpt lat="44.41316936883099" lon="10.763588236638341"><ele>547.2</ele><time>2026-04-18T08:38:08Z</time></trkpt><trkpt lat="44.41311650275373" lon="10.76349151346981"><ele>548.6</ele><time>2026-04-18T08:38:09Z</time></trkpt><trkpt lat="44.41306471127433" lon="10.763419025127265"><ele>550.0</ele><time>2026-04-18T08:38:10Z</time></trkpt><trkpt lat="44.412999083212426" lon="10.763284316430639"><ele>554.75</ele><time>2026-04-18T08:38:11Z</time></trkpt><trkpt lat="44.41288665002075" lon="10.763203045051045"><ele>559.5</ele><time>2026-04-18T08:38:13Z</time></trkpt><trkpt lat="44.41277919084754" lon="10.763224358586768"><ele>564.25</ele><time>2026-04-18T08:38:15Z</time></trkpt><trkpt lat="44.41267708573247" lon="10.763376141451305"><ele>569.0</ele><time>2026-04-18T08:38:15.999Z</time></trkpt><trkpt lat="44.412574437775774" lon="10.763445931273147"><ele>569.0</ele><time>2026-04-18T08:38:16.999Z</time></trkpt><trkpt lat="44.412510570953735" lon="10.763517909137528"><ele>569.0</ele><time>2026-04-18T08:38:17.999Z</time></trkpt><trkpt lat="44.41239207219305" lon="10.763506562528924"><ele>569.0</ele><time>2026-04-18T08:38:19.999Z</time></trkpt><trkpt lat="44.412334615978914" lon="10.76343875742725"><ele>569.0</ele><time>2026-04-18T08:38:20.999Z</time></trkpt><trkpt lat="44.412244225388456" lon="10.763396535387452"><ele>569.0</ele><time>2026-04-18T08:38:21.999Z</time></trkpt><trkpt lat="44.412153500402624" lon="10.763347472736605"><ele>572.0</ele><time>2026-04-18T08:38:22.999Z</time></trkpt><trkpt lat="44.41206726530223" lon="10.76332186964146"><ele>575.0</ele><time>2026-04-18T08:38:23.999Z</time></trkpt><trkpt lat="44.41197790656981" lon="10.7633219948654"><ele>578.0</ele><time>2026-04-18T08:38:24.999Z</time></trkpt><trkpt lat="44.41190419756157" lon="10.763354848891503"><ele>581.0</ele><time>2026-04-18T08:38:25.999Z</time></trkpt><trkpt lat="44.4118291603528" lon="10.763312940265896"><ele>584.0</ele><time>2026-04-18T08:38:26.999Z</time></trkpt><trkpt lat="44.41173829395476" lon="10.763263429982254"><ele>587.0</ele><time>2026-04-18T08:38:27.999Z</time></trkpt><trkpt lat="44.41163155015388" lon="10.763204059424666"><ele>587.0</ele><time>2026-04-18T08:38:28.999Z</time></trkpt><trkpt lat="44.41149537284563" lon="10.763154910160232"><ele>587.0</ele><time>2026-04-18T08:38:29.999Z</time></trkpt><trkpt lat="44.41139456411372" lon="10.763093657599299"><ele>587.0</ele><time>2026-04-18T08:38:30.999Z</time></trkpt><trkpt lat="44.41133031101654" lon="10.763076655913942"><ele>587.0</ele><time>2026-04-18T08:38:31.999Z</time></trkpt><trkpt lat="44.41126814418072" lon="10.76309290474856"><ele>587.0</ele><time>2026-04-18T08:38:32.999Z</time></trkpt><trkpt lat="44.41120620520525" lon="10.763147585444349"><ele>588.8333333333333</ele><time>2026-04-18T08:38:33.999Z</time></trkpt><trkpt lat="44.41112850828579" lon="10.763211214525532"><ele>590.6666666666666</ele><time>2026-04-18T08:38:34.999Z</time></trkpt><trkpt lat="44.41104577925385" lon="10.763206375175029"><ele>592.5</ele><time>2026-04-18T08:38:35.999Z</time></trkpt><trkpt lat="44.410935905822406" lon="10.763216607596444"><ele>594.3333333333334</ele><time>2026-04-18T08:38:36.999Z</time></trkpt><trkpt lat="44.410864240805196" lon="10.763223024272891"><ele>596.1666666666667</ele><time>2026-04-18T08:38:37.999Z</time></trkpt><trkpt lat="44.41080846183214" lon="10.76328261140841"><ele>598.0</ele><time>2026-04-18T08:38:38.999Z</time></trkpt><trkpt lat="44.410741945154" lon="10.763381699625786"><ele>598.0</ele><time>2026-04-18T08:38:39.999Z</time></trkpt><trkpt lat="44.41064989476525" lon="10.763471600943925"><ele>598.0</ele><time>2026-04-18T08:38:40.999Z</time></trkpt><trkpt lat="44.41053905384987" lon="10.76354555818461"><ele>598.0</ele><time>2026-04-18T08:38:41.999Z</time></trkpt><trkpt lat="44.41041108365118" lon="10.763667393591687"><ele>598.0</ele><time>2026-04-18T08:38:42.999Z</time></trkpt><trkpt lat="44.41029220762421" lon="10.76374316201581"><ele>599.5</ele><time>2026-04-18T08:38:43.999Z</time></trkpt><trkpt lat="44.41017826801105" lon="10.763768580805305"><ele>601.0</ele><time>2026-04-18T08:38:44.999Z</time></trkpt><trkpt lat="44.41004660955518" lon="10.763709110145019"><ele>602.5</ele><time>2026-04-18T08:38:45.999Z</time></trkpt><trkpt lat="44.40990273564721" lon="10.763670647498277"><ele>604.0</ele><time>2026-04-18T08:38:46.999Z</time></trkpt><trkpt lat="44.40977969358133" lon="10.763636150453053"><ele>604.0</ele><time>2026-04-18T08:38:47.999Z</time></trkpt><trkpt lat="44.409665180353144" lon="10.763603207863028"><ele>604.0</ele><time>2026-04-18T08:38:48.999Z</time></trkpt><trkpt lat="44.40954001708706" lon="10.763568309623613"><ele>604.0</ele><time>2026-04-18T08:38:49.999Z</time></trkpt><trkpt lat="44.40940585413938" lon="10.763562364006491"><ele>604.0</ele><time>2026-04-18T08:38:50.999Z</time></trkpt><trkpt lat="44.40928744304554" lon="10.763519889719744"><ele>606.25</ele><time>2026-04-18T08:38:51.999Z</time></trkpt><trkpt lat="44.40915888974739" lon="10.763492601563238"><ele>608.5</ele><time>2026-04-18T08:38:52.999Z</time></trkpt><trkpt lat="44.409027059754" lon="10.763465651883852"><ele>610.75</ele><time>2026-04-18T08:38:53.999Z</time></trkpt><trkpt lat="44.40891602759619" lon="10.763443004222484"><ele>613.0</ele><time>2026-04-18T08:38:54.999Z</time></trkpt><trkpt lat="44.408834443078455" lon="10.763425757605859"><ele>615.1999999999999</ele><time>2026-04-18T08:38:55.999Z</time></trkpt><trkpt lat="44.408766038662925" lon="10.76342459426492"><ele>617.4</ele><time>2026-04-18T08:38:56.999Z</time></trkpt><trkpt lat="44.4086440837066" lon="10.763422048180557"><ele>619.5999999999999</ele><time>2026-04-18T08:38:58.999Z</time></trkpt><trkpt lat="44.40854873461799" lon="10.76355026209346"><ele>621.8</ele><time>2026-04-18T08:38:59.999Z</time></trkpt><trkpt lat="44.40847067591346" lon="10.763590900551598"><ele>624.0</ele><time>2026-04-18T08:39:00.999Z</time></trkpt><trkpt lat="44.4083990557618" lon="10.763625483773126"><ele>624.5</ele><time>2026-04-18T08:39:01.999Z</time></trkpt><trkpt lat="44.40822741891823" lon="10.76370732212108"><ele>625.0</ele><time>2026-04-18T08:39:03.999Z</time></trkpt><trkpt lat="44.40813508690215" lon="10.763763392211244"><ele>625.5</ele><time>2026-04-18T08:39:04.999Z</time></trkpt><trkpt lat="44.40805194017749" lon="10.76383024990723"><ele>626.0</ele><time>2026-04-18T08:39:05.999Z</time></trkpt><trkpt lat="44.40798902364802" lon="10.76390264437484"><ele>626.0</ele><time>2026-04-18T08:39:06.999Z</time></trkpt><trkpt lat="44.40796666336388" lon="10.764050180373104"><ele>626.0</ele><time>2026-04-18T08:39:08.999Z</time></trkpt><trkpt lat="44.408003871461105" lon="10.764169564635225"><ele>626.0</ele><time>2026-04-18T08:39:30Z</time></trkpt><trkpt lat="44.4081312398074" lon="10.76423716833357"><ele>626.0</ele><time>2026-04-18T08:39:32Z</time></trkpt><trkpt lat="44.40823971329211" lon="10.764333970742548"><ele>625.8</ele><time>2026-04-18T08:39:33Z</time></trkpt><trkpt lat="44.40830678372543" lon="10.764474508873773"><ele>625.6</ele><time>2026-04-18T08:39:34Z</time></trkpt><trkpt lat="44.40835282686853" lon="10.76460693275366"><ele>625.4</ele><time>2026-04-18T08:39:35Z</time></trkpt><trkpt lat="44.40840246573683" lon="10.764723425946588"><ele>625.2</ele><time>2026-04-18T08:39:36Z</time></trkpt><trkpt lat="44.408437166942456" lon="10.764846308224362"><ele>625.0</ele><time>2026-04-18T08:39:37Z</time></trkpt><trkpt lat="44.40843146503159" lon="10.764976322804477"><ele>625.0</ele><time>2026-04-18T08:39:38Z</time></trkpt><trkpt lat="44.40841735434607" lon="10.765107268737733"><ele>625.0</ele><time>2026-04-18T08:39:39Z</time></trkpt><trkpt lat="44.4083837459598" lon="10.765255231967394"><ele>625.0</ele><time>2026-04-18T08:39:40Z</time></trkpt><trkpt lat="44.40835204701205" lon="10.765400071321405"><ele>625.0</ele><time>2026-04-18T08:39:41Z</time></trkpt><trkpt lat="44.40832161548841" lon="10.765547428235656"><ele>625.0</ele><time>2026-04-18T08:39:42Z</time></trkpt><trkpt lat="44.408294833790706" lon="10.765688859045696"><ele>624.4</ele><time>2026-04-18T08:39:43Z</time></trkpt><trkpt lat="44.408300497970544" lon="10.765808373023773"><ele>623.8</ele><time>2026-04-18T08:39:44Z</time></trkpt><trkpt lat="44.4082941838059" lon="10.765949091107526"><ele>623.2</ele><time>2026-04-18T08:39:45Z</time></trkpt><trkpt lat="44.4083035314516" lon="10.766101867161296"><ele>622.6</ele><time>2026-04-18T08:39:46Z</time></trkpt><trkpt lat="44.408329106549" lon="10.766244128923727"><ele>622.0</ele><time>2026-04-18T08:39:47Z</time></trkpt><trkpt lat="44.40834070024505" lon="10.766378653195806"><ele>620.8000000000001</ele><time>2026-04-18T08:39:48Z</time></trkpt><trkpt lat="44.40837006146301" lon="10.766501421929076"><ele>619.6</ele><time>2026-04-18T08:39:49Z</time></trkpt><trkpt lat="44.408420418303585" lon="10.766608761019937"><ele>618.4000000000001</ele><time>2026-04-18T08:39:50Z</time></trkpt><trkpt lat="44.40847636118309" lon="10.76672869506771"><ele>617.2</ele><time>2026-04-18T08:39:51Z</time></trkpt><trkpt lat="44.40856940944138" lon="10.766862316603717"><ele>616.0</ele><time>2026-04-18T08:39:52Z</time></trkpt><trkpt lat="44.40865577249206" lon="10.76700677175064"><ele>615.6666666666667</ele><time>2026-04-18T08:39:53Z</time></trkpt><trkpt lat="44.408753715536186" lon="10.767138065936662"><ele>615.3333333333334</ele><time>2026-04-18T08:39:54Z</time></trkpt><trkpt lat="44.40888972441182" lon="10.767283786152674"><ele>615.0</ele><time>2026-04-18T08:39:55Z</time></trkpt><trkpt lat="44.40899317182375" lon="10.76746103383046"><ele>615.3333333333334</ele><time>2026-04-18T08:39:56Z</time></trkpt><trkpt lat="44.40912310963697" lon="10.767622983436633"><ele>615.6666666666667</ele><time>2026-04-18T08:39:57Z</time></trkpt><trkpt lat="44.409240224044076" lon="10.767753620932574"><ele>616.0</ele><time>2026-04-18T08:39:58Z</time></trkpt><trkpt lat="44.40936092895377" lon="10.767867630761423"><ele>616.0</ele><time>2026-04-18T08:39:59Z</time></trkpt><trkpt lat="44.409458454083754" lon="10.767956915592398"><ele>616.0</ele><time>2026-04-18T08:40:00Z</time></trkpt><trkpt lat="44.409544921223144" lon="10.768028871337611"><ele>616.0</ele><time>2026-04-18T08:40:01Z</time></trkpt><trkpt lat="44.409650141097465" lon="10.768087096276277"><ele>616.0</ele><time>2026-04-18T08:40:02Z</time></trkpt><trkpt lat="44.40973452123021" lon="10.768151562484308"><ele>616.0</ele><time>2026-04-18T08:40:03Z</time></trkpt><trkpt lat="44.40982330772653" lon="10.76822028361227"><ele>615.5</ele><time>2026-04-18T08:40:04Z</time></trkpt><trkpt lat="44.40990521749059" lon="10.768291344319852"><ele>615.0</ele><time>2026-04-18T08:40:05Z</time></trkpt><trkpt lat="44.409966977526416" lon="10.768378347458718"><ele>614.5</ele><time>2026-04-18T08:40:06Z</time></trkpt><trkpt lat="44.41009311913543" lon="10.768481313860946"><ele>614.0</ele><time>2026-04-18T08:40:07Z</time></trkpt><trkpt lat="44.41019735629742" lon="10.768565153901607"><ele>615.5</ele><time>2026-04-18T08:40:08Z</time></trkpt><trkpt lat="44.41031295864219" lon="10.768683396702231"><ele>617.0</ele><time>2026-04-18T08:40:09Z</time></trkpt><trkpt lat="44.410409578990446" lon="10.768783464069786"><ele>618.5</ele><time>2026-04-18T08:40:10Z</time></trkpt><trkpt lat="44.410493134933354" lon="10.768902753239306"><ele>620.0</ele><time>2026-04-18T08:40:11Z</time></trkpt><trkpt lat="44.4105808439994" lon="10.769021018218478"><ele>620.0</ele><time>2026-04-18T08:40:12Z</time></trkpt><trkpt lat="44.41066732760172" lon="10.769132437868066"><ele>620.0</ele><time>2026-04-18T08:40:13Z</time></trkpt><trkpt lat="44.41074620237511" lon="10.769310089865883"><ele>620.0</ele><time>2026-04-18T08:40:14Z</time></trkpt><trkpt lat="44.41083961675391" lon="10.769454689080263"><ele>620.0</ele><time>2026-04-18T08:40:15Z</time></trkpt><trkpt lat="44.410913109636965" lon="10.769602752396052"><ele>623.25</ele><time>2026-04-18T08:40:16Z</time></trkpt><trkpt lat="44.41098296130891" lon="10.76976623692905"><ele>626.5</ele><time>2026-04-18T08:40:17Z</time></trkpt><trkpt lat="44.411061068011186" lon="10.769956464075541"><ele>629.75</ele><time>2026-04-18T08:40:18Z</time></trkpt><trkpt lat="44.4111016453619" lon="10.770129221573631"><ele>633.0</ele><time>2026-04-18T08:40:19Z</time></trkpt><trkpt lat="44.41114696434852" lon="10.77029580949177"><ele>632.5</ele><time>2026-04-18T08:40:20Z</time></trkpt><trkpt lat="44.41120199497624" lon="10.770463630392632"><ele>632.0</ele><time>2026-04-18T08:40:21Z</time></trkpt><trkpt lat="44.41127577155072" lon="10.770604462763217"><ele>631.5</ele><time>2026-04-18T08:40:22Z</time></trkpt><trkpt lat="44.41135458137663" lon="10.770741297500694"><ele>631.0</ele><time>2026-04-18T08:40:23Z</time></trkpt><trkpt lat="44.41143381884456" lon="10.770880345909221"><ele>631.0</ele><time>2026-04-18T08:40:24Z</time></trkpt><trkpt lat="44.41150569138325" lon="10.771008746435776"><ele>631.0</ele><time>2026-04-18T08:40:25Z</time></trkpt><trkpt lat="44.41157311545885" lon="10.771129725352102"><ele>631.0</ele><time>2026-04-18T08:40:25.999Z</time></trkpt><trkpt lat="44.411647885266625" lon="10.771263884693091"><ele>631.0</ele><time>2026-04-18T08:40:26.999Z</time></trkpt><trkpt lat="44.41172683831899" lon="10.771386330741873"><ele>633.8</ele><time>2026-04-18T08:40:27.999Z</time></trkpt><trkpt lat="44.41178113295324" lon="10.771543364893644"><ele>636.6</ele><time>2026-04-18T08:40:28.999Z</time></trkpt><trkpt lat="44.411831399660194" lon="10.771669178382952"><ele>639.4</ele><time>2026-04-18T08:40:29.999Z</time></trkpt><trkpt lat="44.41188932624347" lon="10.771776768456876"><ele>642.2</ele><time>2026-04-18T08:40:30.999Z</time></trkpt><trkpt lat="44.41194456552725" lon="10.771888635698783"><ele>645.0</ele><time>2026-04-18T08:40:31.999Z</time></trkpt><trkpt lat="44.41201389827062" lon="10.772017119709473"><ele>645.8</ele><time>2026-04-18T08:40:32.999Z</time></trkpt><trkpt lat="44.41209119221154" lon="10.77216078691176"><ele>646.6</ele><time>2026-04-18T08:40:33.999Z</time></trkpt><trkpt lat="44.41214102175641" lon="10.772272839812295"><ele>647.4000000000001</ele><time>2026-04-18T08:40:34.999Z</time></trkpt><trkpt lat="44.412196968042316" lon="10.772392719512402"><ele>648.2</ele><time>2026-04-18T08:40:35.999Z</time></trkpt><trkpt lat="44.41224868691189" lon="10.772510718066961"><ele>649.0</ele><time>2026-04-18T08:40:36.999Z</time></trkpt><trkpt lat="44.412291843822416" lon="10.772642052836538"><ele>650.75</ele><time>2026-04-18T08:40:37.999Z</time></trkpt><trkpt lat="44.41232760691243" lon="10.772799971579847"><ele>652.5</ele><time>2026-04-18T08:40:38.999Z</time></trkpt><trkpt lat="44.41235505914097" lon="10.77296094055727"><ele>654.25</ele><time>2026-04-18T08:40:39.999Z</time></trkpt><trkpt lat="44.412387234366605" lon="10.773116605853405"><ele>656.0</ele><time>2026-04-18T08:40:40.999Z</time></trkpt><trkpt lat="44.41241753493193" lon="10.773267265563994"><ele>656.0</ele><time>2026-04-18T08:40:41.999Z</time></trkpt><trkpt lat="44.412459347611104" lon="10.77340841139695"><ele>656.0</ele><time>2026-04-18T08:40:42.999Z</time></trkpt><trkpt lat="44.41250392632638" lon="10.773556304845192"><ele>656.0</ele><time>2026-04-18T08:40:43.999Z</time></trkpt><trkpt lat="44.41253090530503" lon="10.773693414643558"><ele>656.0</ele><time>2026-04-18T08:40:44.999Z</time></trkpt><trkpt lat="44.412538864945844" lon="10.773817996953296"><ele>656.0</ele><time>2026-04-18T08:40:45.999Z</time></trkpt><trkpt lat="44.41251796801041" lon="10.773921182346482"><ele>657.8</ele><time>2026-04-18T08:40:46.999Z</time></trkpt><trkpt lat="44.412529649575966" lon="10.774029591876795"><ele>659.5999999999999</ele><time>2026-04-18T08:40:47.999Z</time></trkpt><trkpt lat="44.41259444263121" lon="10.774129456982852"><ele>661.4</ele><time>2026-04-18T08:40:48.999Z</time></trkpt><trkpt lat="44.41271985427596" lon="10.774120354507989"><ele>663.2</ele><time>2026-04-18T08:40:49.999Z</time></trkpt><trkpt lat="44.412848485809455" lon="10.774150707570838"><ele>665.0</ele><time>2026-04-18T08:40:50.999Z</time></trkpt><trkpt lat="44.41296806928429" lon="10.774245896639249"><ele>664.2</ele><time>2026-04-18T08:40:51.999Z</time></trkpt><trkpt lat="44.41308353294186" lon="10.774343593500626"><ele>663.4</ele><time>2026-04-18T08:40:52.999Z</time></trkpt><trkpt lat="44.41316348082419" lon="10.774427666002545"><ele>662.5999999999999</ele><time>2026-04-18T08:40:53.999Z</time></trkpt><trkpt lat="44.41322677327392" lon="10.77451437252394"><ele>661.8</ele><time>2026-04-18T08:40:54.999Z</time></trkpt><trkpt lat="44.413280563175455" lon="10.7746079831937"><ele>661.0</ele><time>2026-04-18T08:40:55.999Z</time></trkpt><trkpt lat="44.4132820567582" lon="10.774732586694284"><ele>661.0</ele><time>2026-04-18T08:40:56.999Z</time></trkpt><trkpt lat="44.41327489807835" lon="10.77489239716173"><ele>661.0</ele><time>2026-04-18T08:40:57.999Z</time></trkpt><trkpt lat="44.41326737321477" lon="10.775076459603925"><ele>661.0</ele><time>2026-04-18T08:40:58.999Z</time></trkpt><trkpt lat="44.413248802269145" lon="10.775266363785654"><ele>661.0</ele><time>2026-04-18T08:40:59.999Z</time></trkpt><trkpt lat="44.41323972330517" lon="10.77544798250266"><ele>661.25</ele><time>2026-04-18T08:41:00.999Z</time></trkpt><trkpt lat="44.41323295229186" lon="10.775634879402023"><ele>661.5</ele><time>2026-04-18T08:41:01.999Z</time></trkpt><trkpt lat="44.413209123471496" lon="10.775821400066626"><ele>661.75</ele><time>2026-04-18T08:41:02.999Z</time></trkpt><trkpt lat="44.41321997445128" lon="10.77600422805725"><ele>662.0</ele><time>2026-04-18T08:41:03.999Z</time></trkpt><trkpt lat="44.41320705339051" lon="10.776173444526336"><ele>662.75</ele><time>2026-04-18T08:41:04.999Z</time></trkpt><trkpt lat="44.413194437337616" lon="10.77634748359655"><ele>663.5</ele><time>2026-04-18T08:41:05.999Z</time></trkpt><trkpt lat="44.41319219711222" lon="10.77653842877004"><ele>664.25</ele><time>2026-04-18T08:41:06.999Z</time></trkpt><trkpt lat="44.41318231604409" lon="10.776706525048633"><ele>665.0</ele><time>2026-04-18T08:41:07.999Z</time></trkpt><trkpt lat="44.413170435173775" lon="10.776849448869704"><ele>663.8</ele><time>2026-04-18T08:41:08.999Z</time></trkpt><trkpt lat="44.41313226655493" lon="10.776976210977992"><ele>662.6</ele><time>2026-04-18T08:41:09.999Z</time></trkpt><trkpt lat="44.41304779435552" lon="10.777061233831427"><ele>661.4000000000001</ele><time>2026-04-18T08:41:10.999Z</time></trkpt><trkpt lat="44.41295896461716" lon="10.777155840740873"><ele>660.2</ele><time>2026-04-18T08:41:11.999Z</time></trkpt><trkpt lat="44.412853850431524" lon="10.77725568672603"><ele>659.0</ele><time>2026-04-18T08:41:12.999Z</time></trkpt><trkpt lat="44.412750547212994" lon="10.777350307835132"><ele>662.2</ele><time>2026-04-18T08:41:13.999Z</time></trkpt><trkpt lat="44.41266862864728" lon="10.777424519140627"><ele>665.4000000000001</ele><time>2026-04-18T08:41:14.999Z</time></trkpt><trkpt lat="44.41258520386769" lon="10.777489745123628"><ele>668.6</ele><time>2026-04-18T08:41:15.999Z</time></trkpt><trkpt lat="44.41250702943842" lon="10.777530353611704"><ele>671.8</ele><time>2026-04-18T08:41:16.999Z</time></trkpt><trkpt lat="44.41241193702005" lon="10.77754230488298"><ele>675.0</ele><time>2026-04-18T08:41:17.999Z</time></trkpt><trkpt lat="44.41231495396982" lon="10.777501071699788"><ele>675.0</ele><time>2026-04-18T08:41:18.999Z</time></trkpt><trkpt lat="44.412216062518326" lon="10.777464707119174"><ele>675.0</ele><time>2026-04-18T08:41:20Z</time></trkpt><trkpt lat="44.41212588034074" lon="10.777426468601515"><ele>675.0</ele><time>2026-04-18T08:41:21Z</time></trkpt><trkpt lat="44.412041053768625" lon="10.77741617408725"><ele>675.0</ele><time>2026-04-18T08:41:22Z</time></trkpt><trkpt lat="44.41196865685584" lon="10.77746266510495"><ele>675.0</ele><time>2026-04-18T08:41:23Z</time></trkpt><trkpt lat="44.411891105304086" lon="10.77751052150422"><ele>675.0</ele><time>2026-04-18T08:41:24Z</time></trkpt><trkpt lat="44.41181481719855" lon="10.777589411160996"><ele>675.4</ele><time>2026-04-18T08:41:25Z</time></trkpt><trkpt lat="44.41174983026953" lon="10.777700309637746"><ele>675.8</ele><time>2026-04-18T08:41:26Z</time></trkpt><trkpt lat="44.411667475191344" lon="10.777816627675163"><ele>676.2</ele><time>2026-04-18T08:41:27Z</time></trkpt><trkpt lat="44.411602605660136" lon="10.777968357759663"><ele>676.6</ele><time>2026-04-18T08:41:28Z</time></trkpt><trkpt lat="44.41157301857304" lon="10.77810453959742"><ele>677.0</ele><time>2026-04-18T08:41:29Z</time></trkpt><trkpt lat="44.41150513847184" lon="10.778207378970997"><ele>677.0</ele><time>2026-04-18T08:41:30Z</time></trkpt><trkpt lat="44.41144042785758" lon="10.778309122452251"><ele>677.0</ele><time>2026-04-18T08:41:31Z</time></trkpt><trkpt lat="44.41137112433052" lon="10.778394667330431"><ele>677.0</ele><time>2026-04-18T08:41:32Z</time></trkpt><trkpt lat="44.41128727569224" lon="10.778454128390356"><ele>677.0</ele><time>2026-04-18T08:41:33Z</time></trkpt><trkpt lat="44.41120073212667" lon="10.778520633660216"><ele>677.0</ele><time>2026-04-18T08:41:34Z</time></trkpt><trkpt lat="44.411132768181695" lon="10.778620887638304"><ele>678.4000000000001</ele><time>2026-04-18T08:41:35Z</time></trkpt><trkpt lat="44.411068607683504" lon="10.77873412020459"><ele>679.8000000000001</ele><time>2026-04-18T08:41:36Z</time></trkpt><trkpt lat="44.410998891946235" lon="10.778861434192372"><ele>681.2</ele><time>2026-04-18T08:41:37Z</time></trkpt><trkpt lat="44.41093971014937" lon="10.778988179159008"><ele>682.6</ele><time>2026-04-18T08:41:38Z</time></trkpt><trkpt lat="44.410867514368455" lon="10.779044195526057"><ele>684.0</ele><time>2026-04-18T08:41:39Z</time></trkpt><trkpt lat="44.41077762727767" lon="10.779063135910535"><ele>684.0</ele><time>2026-04-18T08:41:40Z</time></trkpt><trkpt lat="44.41066490340596" lon="10.779115012732548"><ele>684.0</ele><time>2026-04-18T08:41:41Z</time></trkpt><trkpt lat="44.41056452191488" lon="10.7791700098497"><ele>684.0</ele><time>2026-04-18T08:41:42Z</time></trkpt><trkpt lat="44.41048747788034" lon="10.779230696934984"><ele>684.0</ele><time>2026-04-18T08:41:43Z</time></trkpt><trkpt lat="44.41041758561042" lon="10.77933088963127"><ele>684.0</ele><time>2026-04-18T08:41:44Z</time></trkpt><trkpt lat="44.41038409214864" lon="10.779473553551899"><ele>687.75</ele><time>2026-04-18T08:41:45Z</time></trkpt><trkpt lat="44.41033528963324" lon="10.779619623602239"><ele>691.5</ele><time>2026-04-18T08:41:46Z</time></trkpt><trkpt lat="44.41029435737749" lon="10.779787313563011"><ele>695.25</ele><time>2026-04-18T08:41:47Z</time></trkpt><trkpt lat="44.41025867429964" lon="10.779976354570978"><ele>699.0</ele><time>2026-04-18T08:41:48Z</time></trkpt><trkpt lat="44.410232362270015" lon="10.780167864930425"><ele>698.6</ele><time>2026-04-18T08:41:49Z</time></trkpt><trkpt lat="44.4102015465852" lon="10.780339343274559"><ele>698.2</ele><time>2026-04-18T08:41:50Z</time></trkpt><trkpt lat="44.41017233253223" lon="10.780497187513587"><ele>697.8000000000001</ele><time>2026-04-18T08:41:51Z</time></trkpt><trkpt lat="44.41014439450882" lon="10.780637053384977"><ele>697.4000000000001</ele><time>2026-04-18T08:41:52Z</time></trkpt><trkpt lat="44.41011209965286" lon="10.780763777913933"><ele>697.0</ele><time>2026-04-18T08:41:53Z</time></trkpt><trkpt lat="44.41005515101124" lon="10.780860713599015"><ele>697.0</ele><time>2026-04-18T08:41:54Z</time></trkpt><trkpt lat="44.4099742124209" lon="10.78094066037503"><ele>697.0</ele><time>2026-04-18T08:41:55Z</time></trkpt><trkpt lat="44.40986639551983" lon="10.780975081145534"><ele>697.0</ele><time>2026-04-18T08:41:56Z</time></trkpt><trkpt lat="44.40977428763773" lon="10.78107279606301"><ele>697.0</ele><time>2026-04-18T08:41:57Z</time></trkpt><trkpt lat="44.409705011348485" lon="10.78116504305922"><ele>697.0</ele><time>2026-04-18T08:41:58Z</time></trkpt><trkpt lat="44.409681413111116" lon="10.781295628152998"><ele>696.25</ele><time>2026-04-18T08:41:59Z</time></trkpt><trkpt lat="44.409686420498424" lon="10.781466286682106"><ele>695.5</ele><time>2026-04-18T08:42:00Z</time></trkpt><trkpt lat="44.409704946622" lon="10.781645558035935"><ele>694.75</ele><time>2026-04-18T08:42:01Z</time></trkpt><trkpt lat="44.409744711495044" lon="10.781829080981096"><ele>694.0</ele><time>2026-04-18T08:42:02Z</time></trkpt><trkpt lat="44.409814177541946" lon="10.782036847884571"><ele>695.5</ele><time>2026-04-18T08:42:03Z</time></trkpt><trkpt lat="44.40991246619863" lon="10.782204826809446"><ele>697.0</ele><time>2026-04-18T08:42:04Z</time></trkpt><trkpt lat="44.4100235532926" lon="10.78232829763071"><ele>698.5</ele><time>2026-04-18T08:42:05Z</time></trkpt><trkpt lat="44.410093893498676" lon="10.782472257590738"><ele>700.0</ele><time>2026-04-18T08:42:06Z</time></trkpt><trkpt lat="44.4101723898494" lon="10.782570943608702"><ele>700.0</ele><time>2026-04-18T08:42:07Z</time></trkpt><trkpt lat="44.41023290299474" lon="10.782674060298024"><ele>700.0</ele><time>2026-04-18T08:42:08Z</time></trkpt><trkpt lat="44.410291971531485" lon="10.782768622307957"><ele>700.0</ele><time>2026-04-18T08:42:09Z</time></trkpt><trkpt lat="44.410354086782505" lon="10.782844688232306"><ele>700.0</ele><time>2026-04-18T08:42:10Z</time></trkpt><trkpt lat="44.41045815667933" lon="10.782866045374695"><ele>700.0</ele><time>2026-04-18T08:42:11Z</time></trkpt><trkpt lat="44.410579812076925" lon="10.782857825350565"><ele>702.8</ele><time>2026-04-18T08:42:12Z</time></trkpt><trkpt lat="44.41069340184331" lon="10.782898801662983"><ele>705.6</ele><time>2026-04-18T08:42:13Z</time></trkpt><trkpt lat="44.4107884334519" lon="10.782957517024567"><ele>708.4000000000001</ele><time>2026-04-18T08:42:14Z</time></trkpt><trkpt lat="44.410882083747474" lon="10.783035157214897"><ele>711.2</ele><time>2026-04-18T08:42:15Z</time></trkpt><trkpt lat="44.41098210049031" lon="10.783113707753639"><ele>714.0</ele><time>2026-04-18T08:42:16Z</time></trkpt><trkpt lat="44.41108809407535" lon="10.783142491825924"><ele>714.0</ele><time>2026-04-18T08:42:17Z</time></trkpt><trkpt lat="44.411196041551406" lon="10.783176250617744"><ele>714.0</ele><time>2026-04-18T08:42:18Z</time></trkpt><trkpt lat="44.41129905950045" lon="10.783222011732262"><ele>714.0</ele><time>2026-04-18T08:42:20Z</time></trkpt><trkpt lat="44.411342529682564" lon="10.783287170479044"><ele>714.0</ele><time>2026-04-18T08:42:21Z</time></trkpt><trkpt lat="44.411339571020015" lon="10.783380544577934"><ele>714.0</ele><time>2026-04-18T08:42:22Z</time></trkpt><trkpt lat="44.41128054261118" lon="10.783477400922951"><ele>714.0</ele><time>2026-04-18T08:42:22.999Z</time></trkpt><trkpt lat="44.41125098540839" lon="10.783637237088135"><ele>715.5</ele><time>2026-04-18T08:42:23.999Z</time></trkpt><trkpt lat="44.41124116097181" lon="10.783749304329518"><ele>717.0</ele><time>2026-04-18T08:42:24.999Z</time></trkpt><trkpt lat="44.411274998435935" lon="10.78387830426952"><ele>718.5</ele><time>2026-04-18T08:42:25.999Z</time></trkpt><trkpt lat="44.41130719020849" lon="10.78401045008923"><ele>720.0</ele><time>2026-04-18T08:42:26.999Z</time></trkpt><trkpt lat="44.41135886935788" lon="10.78411181312707"><ele>721.5</ele><time>2026-04-18T08:42:27.999Z</time></trkpt><trkpt lat="44.4114261715457" lon="10.784133036919611"><ele>723.0</ele><time>2026-04-18T08:42:28.999Z</time></trkpt><trkpt lat="44.41154252913047" lon="10.784119660283215"><ele>723.0</ele><time>2026-04-18T08:42:29.999Z</time></trkpt><trkpt lat="44.41164416848249" lon="10.784115979252741"><ele>723.0</ele><time>2026-04-18T08:42:30.999Z</time></trkpt><trkpt lat="44.41170294828926" lon="10.784148049101956"><ele>723.0</ele><time>2026-04-18T08:42:31.999Z</time></trkpt><trkpt lat="44.411660088021826" lon="10.784331061967578"><ele>723.0</ele><time>2026-04-18T08:42:33.999Z</time></trkpt><trkpt lat="44.411563900117535" lon="10.78441029904828"><ele>723.0</ele><time>2026-04-18T08:42:34.999Z</time></trkpt><trkpt lat="44.4114825816772" lon="10.784460457619058"><ele>724.2</ele><time>2026-04-18T08:42:35.999Z</time></trkpt><trkpt lat="44.411421965587095" lon="10.784563858432797"><ele>725.4</ele><time>2026-04-18T08:42:36.999Z</time></trkpt><trkpt lat="44.41138167637887" lon="10.784704703952896"><ele>726.6</ele><time>2026-04-18T08:42:37.999Z</time></trkpt><trkpt lat="44.41134125156449" lon="10.784847360509854"><ele>727.8000000000001</ele><time>2026-04-18T08:42:38.999Z</time></trkpt><trkpt lat="44.411301999092146" lon="10.784975507724454"><ele>729.0</ele><time>2026-04-18T08:42:39.999Z</time></trkpt><trkpt lat="44.411261423421806" lon="10.785111198263"><ele>730.8000000000001</ele><time>2026-04-18T08:42:40.999Z</time></trkpt><trkpt lat="44.411217886341554" lon="10.785239209654026"><ele>732.6</ele><time>2026-04-18T08:42:41.999Z</time></trkpt><trkpt lat="44.41116905454985" lon="10.785360267685443"><ele>734.4</ele><time>2026-04-18T08:42:42.999Z</time></trkpt><trkpt lat="44.411101047828275" lon="10.78549023307735"><ele>736.2</ele><time>2026-04-18T08:42:43.999Z</time></trkpt><trkpt lat="44.41104694155437" lon="10.785615208738136"><ele>738.0</ele><time>2026-04-18T08:42:44.999Z</time></trkpt><trkpt lat="44.41098611612313" lon="10.785743791694161"><ele>738.0</ele><time>2026-04-18T08:42:45.999Z</time></trkpt><trkpt lat="44.41092926767808" lon="10.785866848552995"><ele>738.0</ele><time>2026-04-18T08:42:46.999Z</time></trkpt><trkpt lat="44.41087912227964" lon="10.785986965198799"><ele>738.0</ele><time>2026-04-18T08:42:47.999Z</time></trkpt><trkpt lat="44.410853084333375" lon="10.78612043071146"><ele>738.0</ele><time>2026-04-18T08:42:48.999Z</time></trkpt><trkpt lat="44.410828996891304" lon="10.786257606260714"><ele>738.0</ele><time>2026-04-18T08:42:49.999Z</time></trkpt><trkpt lat="44.41079049490413" lon="10.786359686333995"><ele>738.1428571428571</ele><time>2026-04-18T08:42:50.999Z</time></trkpt><trkpt lat="44.41077255304967" lon="10.786473582321012"><ele>738.2857142857142</ele><time>2026-04-18T08:42:51.999Z</time></trkpt><trkpt lat="44.41074185148125" lon="10.786560409843096"><ele>738.4285714285714</ele><time>2026-04-18T08:42:52.999Z</time></trkpt><trkpt lat="44.410708051625186" lon="10.786636482009367"><ele>738.5714285714286</ele><time>2026-04-18T08:42:53.999Z</time></trkpt><trkpt lat="44.41065902107532" lon="10.786700121061664"><ele>738.7142857142858</ele><time>2026-04-18T08:42:54.999Z</time></trkpt><trkpt lat="44.41059530730997" lon="10.786744743992024"><ele>738.8571428571429</ele><time>2026-04-18T08:42:55.999Z</time></trkpt><trkpt lat="44.41053721601608" lon="10.786782699839122"><ele>739.0</ele><time>2026-04-18T08:42:56.999Z</time></trkpt><trkpt lat="44.410466824560544" lon="10.786781516974147"><ele>741.4000000000001</ele><time>2026-04-18T08:42:58.999Z</time></trkpt><trkpt lat="44.4103889780377" lon="10.786799093791732"><ele>743.8</ele><time>2026-04-18T08:43:00.999Z</time></trkpt><trkpt lat="44.41034939701864" lon="10.786599009887238"><ele>746.2</ele><time>2026-04-18T08:43:01.999Z</time></trkpt><trkpt lat="44.410282692849854" lon="10.786480040801196"><ele>748.5999999999999</ele><time>2026-04-18T08:43:02.999Z</time></trkpt><trkpt lat="44.41021938972961" lon="10.786358745681131"><ele>751.0</ele><time>2026-04-18T08:43:03.999Z</time></trkpt><trkpt lat="44.41015278307007" lon="10.786270300243904"><ele>751.0</ele><time>2026-04-18T08:43:04.999Z</time></trkpt><trkpt lat="44.41006744171268" lon="10.786191781077193"><ele>751.0</ele><time>2026-04-18T08:43:05.999Z</time></trkpt><trkpt lat="44.40997103337644" lon="10.786151804672421"><ele>751.0</ele><time>2026-04-18T08:43:06.999Z</time></trkpt><trkpt lat="44.409871104384045" lon="10.786136538344275"><ele>751.0</ele><time>2026-04-18T08:43:07.999Z</time></trkpt><trkpt lat="44.40976696707411" lon="10.786118727993243"><ele>751.0</ele><time>2026-04-18T08:43:08.999Z</time></trkpt><trkpt lat="44.40965892380287" lon="10.78609406133059"><ele>750.0</ele><time>2026-04-18T08:43:09.999Z</time></trkpt><trkpt lat="44.409553622837564" lon="10.786069167442264"><ele>749.0</ele><time>2026-04-18T08:43:10.999Z</time></trkpt><trkpt lat="44.40944458430468" lon="10.786041591680684"><ele>748.0</ele><time>2026-04-18T08:43:11.999Z</time></trkpt><trkpt lat="44.409333051506906" lon="10.786002620416141"><ele>747.0</ele><time>2026-04-18T08:43:12.999Z</time></trkpt><trkpt lat="44.40921921006199" lon="10.786021788849787"><ele>746.0</ele><time>2026-04-18T08:43:13.999Z</time></trkpt><trkpt lat="44.40912428906287" lon="10.786074738907592"><ele>749.75</ele><time>2026-04-18T08:43:14.999Z</time></trkpt><trkpt lat="44.4090275479908" lon="10.786157071658518"><ele>753.5</ele><time>2026-04-18T08:43:15.999Z</time></trkpt><trkpt lat="44.40890664570184" lon="10.78623594950266"><ele>757.25</ele><time>2026-04-18T08:43:16.999Z</time></trkpt><trkpt lat="44.40877188029797" lon="10.786296862192243"><ele>761.0</ele><time>2026-04-18T08:43:17.999Z</time></trkpt><trkpt lat="44.40863169654795" lon="10.786320137544886"><ele>762.3333333333333</ele><time>2026-04-18T08:43:18.999Z</time></trkpt><trkpt lat="44.40847792913872" lon="10.786328525091564"><ele>763.6666666666666</ele><time>2026-04-18T08:43:19.999Z</time></trkpt><trkpt lat="44.40832744206529" lon="10.786324529828747"><ele>765.0</ele><time>2026-04-18T08:43:20.999Z</time></trkpt><trkpt lat="44.40818127102411" lon="10.78632225699891"><ele>765.0</ele><time>2026-04-18T08:43:21.999Z</time></trkpt><trkpt lat="44.40804620666028" lon="10.78633054338424"><ele>765.0</ele><time>2026-04-18T08:43:22.999Z</time></trkpt><trkpt lat="44.40791531342746" lon="10.786336027692458"><ele>765.0</ele><time>2026-04-18T08:43:23.999Z</time></trkpt><trkpt lat="44.407788369388925" lon="10.786341594434887"><ele>765.0</ele><time>2026-04-18T08:43:24.999Z</time></trkpt><trkpt lat="44.407659774891634" lon="10.78633508850054"><ele>765.75</ele><time>2026-04-18T08:43:26Z</time></trkpt><trkpt lat="44.4075323289389" lon="10.786305254810818"><ele>766.5</ele><time>2026-04-18T08:43:27Z</time></trkpt><trkpt lat="44.407398292259174" lon="10.786261923978106"><ele>767.25</ele><time>2026-04-18T08:43:28Z</time></trkpt><trkpt lat="44.40726352702566" lon="10.786218158798293"><ele>768.0</ele><time>2026-04-18T08:43:29Z</time></trkpt><trkpt lat="44.40712690689503" lon="10.786168315127934"><ele>768.5</ele><time>2026-04-18T08:43:30Z</time></trkpt><trkpt lat="44.40700341547889" lon="10.786125063503032"><ele>769.0</ele><time>2026-04-18T08:43:31Z</time></trkpt><trkpt lat="44.40687964681925" lon="10.78610933141314"><ele>769.5</ele><time>2026-04-18T08:43:32Z</time></trkpt><trkpt lat="44.40675616656819" lon="10.786132653563849"><ele>770.0</ele><time>2026-04-18T08:43:33Z</time></trkpt><trkpt lat="44.40663578495605" lon="10.786195735632687"><ele>770.0</ele><time>2026-04-18T08:43:34Z</time></trkpt><trkpt lat="44.406507294631325" lon="10.786270581990838"><ele>770.0</ele><time>2026-04-18T08:43:35Z</time></trkpt><trkpt lat="44.406388749743314" lon="10.786333745617744"><ele>770.0</ele><time>2026-04-18T08:43:36Z</time></trkpt><trkpt lat="44.40628216081018" lon="10.786339481864779"><ele>770.0</ele><time>2026-04-18T08:43:37Z</time></trkpt><trkpt lat="44.4061658900318" lon="10.786305257862553"><ele>769.25</ele><time>2026-04-18T08:43:38Z</time></trkpt><trkpt lat="44.40605286213656" lon="10.78621566156099"><ele>768.5</ele><time>2026-04-18T08:43:39Z</time></trkpt><trkpt lat="44.4059489249357" lon="10.786085924735747"><ele>767.75</ele><time>2026-04-18T08:43:40Z</time></trkpt><trkpt lat="44.40586344358892" lon="10.785916005116112"><ele>767.0</ele><time>2026-04-18T08:43:41Z</time></trkpt><trkpt lat="44.405750035543974" lon="10.785761245014667"><ele>767.0</ele><time>2026-04-18T08:43:42Z</time></trkpt><trkpt lat="44.40564535555983" lon="10.785591210067771"><ele>767.0</ele><time>2026-04-18T08:43:43Z</time></trkpt><trkpt lat="44.40556311613859" lon="10.785455715802897"><ele>767.0</ele><time>2026-04-18T08:43:44Z</time></trkpt><trkpt lat="44.40549624567671" lon="10.785294324164822"><ele>767.0</ele><time>2026-04-18T08:43:45Z</time></trkpt><trkpt lat="44.40545737120858" lon="10.78513210293598"><ele>770.0</ele><time>2026-04-18T08:43:46Z</time></trkpt><trkpt lat="44.40541811069952" lon="10.784979049351577"><ele>773.0</ele><time>2026-04-18T08:43:47Z</time></trkpt><trkpt lat="44.40534338983795" lon="10.784840156926718"><ele>776.0</ele><time>2026-04-18T08:43:48Z</time></trkpt><trkpt lat="44.40523053609432" lon="10.784708987169768"><ele>779.0</ele><time>2026-04-18T08:43:49Z</time></trkpt><trkpt lat="44.405117271625315" lon="10.784604585262404"><ele>779.0</ele><time>2026-04-18T08:43:50Z</time></trkpt><trkpt lat="44.40501973944922" lon="10.784528656249433"><ele>779.0</ele><time>2026-04-18T08:43:51Z</time></trkpt><trkpt lat="44.40495034633449" lon="10.78440972558301"><ele>779.0</ele><time>2026-04-18T08:43:52Z</time></trkpt><trkpt lat="44.40487246776776" lon="10.78429537908263"><ele>779.0</ele><time>2026-04-18T08:43:53Z</time></trkpt><trkpt lat="44.40486071663115" lon="10.78410987494669"><ele>778.3333333333334</ele><time>2026-04-18T08:43:54Z</time></trkpt><trkpt lat="44.404820601847895" lon="10.78388535352672"><ele>777.6666666666667</ele><time>2026-04-18T08:43:55Z</time></trkpt><trkpt lat="44.40478651687047" lon="10.783651963319679"><ele>777.0</ele><time>2026-04-18T08:43:56Z</time></trkpt><trkpt lat="44.4047684685504" lon="10.783449690417548"><ele>777.0</ele><time>2026-04-18T08:43:57Z</time></trkpt><trkpt lat="44.40476383391356" lon="10.783268400990243"><ele>777.0</ele><time>2026-04-18T08:43:58Z</time></trkpt><trkpt lat="44.40476921280931" lon="10.783084349697498"><ele>777.0</ele><time>2026-04-18T08:43:59Z</time></trkpt><trkpt lat="44.404770119396076" lon="10.782915442677755"><ele>777.0</ele><time>2026-04-18T08:44:00Z</time></trkpt><trkpt lat="44.40477585272752" lon="10.782764361131864"><ele>778.25</ele><time>2026-04-18T08:44:01Z</time></trkpt><trkpt lat="44.40476841859395" lon="10.78259718579913"><ele>779.5</ele><time>2026-04-18T08:44:02Z</time></trkpt><trkpt lat="44.404748782764486" lon="10.782423286898352"><ele>780.75</ele><time>2026-04-18T08:44:03Z</time></trkpt><trkpt lat="44.40472179357545" lon="10.7822493821418"><ele>782.0</ele><time>2026-04-18T08:44:04Z</time></trkpt><trkpt lat="44.404694257198244" lon="10.782068246172607"><ele>782.0</ele><time>2026-04-18T08:44:05Z</time></trkpt><trkpt lat="44.40468642892271" lon="10.781891910349806"><ele>782.0</ele><time>2026-04-18T08:44:06Z</time></trkpt><trkpt lat="44.404708625397326" lon="10.78173040907216"><ele>782.0</ele><time>2026-04-18T08:44:07Z</time></trkpt><trkpt lat="44.40474371770753" lon="10.781540545496942"><ele>782.0</ele><time>2026-04-18T08:44:08Z</time></trkpt><trkpt lat="44.40478380363883" lon="10.781368866518397"><ele>782.6</ele><time>2026-04-18T08:44:09Z</time></trkpt><trkpt lat="44.404820202325176" lon="10.781235180394816"><ele>783.2</ele><time>2026-04-18T08:44:10Z</time></trkpt><trkpt lat="44.404853117853605" lon="10.78109127492096"><ele>783.8</ele><time>2026-04-18T08:44:11Z</time></trkpt><trkpt lat="44.40486468740074" lon="10.780934567800545"><ele>784.4</ele><time>2026-04-18T08:44:12Z</time></trkpt><trkpt lat="44.40486126721942" lon="10.78078836727982"><ele>785.0</ele><time>2026-04-18T08:44:13Z</time></trkpt><trkpt lat="44.40483730904522" lon="10.78062012074255"><ele>786.0</ele><time>2026-04-18T08:44:14Z</time></trkpt><trkpt lat="44.40481678607612" lon="10.780443526812917"><ele>787.0</ele><time>2026-04-18T08:44:15Z</time></trkpt><trkpt lat="44.40481118384062" lon="10.780259007137376"><ele>788.0</ele><time>2026-04-18T08:44:16Z</time></trkpt><trkpt lat="44.40484136469114" lon="10.780077515238562"><ele>789.0</ele><time>2026-04-18T08:44:17Z</time></trkpt><trkpt lat="44.404890411844356" lon="10.779909963135154"><ele>790.0</ele><time>2026-04-18T08:44:18Z</time></trkpt><trkpt lat="44.404946402393676" lon="10.779744497404282"><ele>791.0</ele><time>2026-04-18T08:44:19Z</time></trkpt><trkpt lat="44.40500752183406" lon="10.779596946738343"><ele>792.0</ele><time>2026-04-18T08:44:20Z</time></trkpt><trkpt lat="44.4050558006974" lon="10.779457282803081"><ele>793.0</ele><time>2026-04-18T08:44:21Z</time></trkpt><trkpt lat="44.405053681754715" lon="10.779302670996787"><ele>793.5</ele><time>2026-04-18T08:44:22Z</time></trkpt><trkpt lat="44.40502753384625" lon="10.779138502469225"><ele>794.0</ele><time>2026-04-18T08:44:23Z</time></trkpt><trkpt lat="44.40493596906171" lon="10.778976535927528"><ele>794.5</ele><time>2026-04-18T08:44:24Z</time></trkpt><trkpt lat="44.404850272121315" lon="10.778890658647903"><ele>795.0</ele><time>2026-04-18T08:44:25Z</time></trkpt><trkpt lat="44.40477679551705" lon="10.778808754515806"><ele>795.0</ele><time>2026-04-18T08:44:26Z</time></trkpt><trkpt lat="44.40471523274401" lon="10.778733641665951"><ele>795.0</ele><time>2026-04-18T08:44:26.999Z</time></trkpt><trkpt lat="44.40465676107901" lon="10.778668864306425"><ele>795.0</ele><time>2026-04-18T08:44:27.999Z</time></trkpt><trkpt lat="44.404601922461524" lon="10.778603854863466"><ele>795.0</ele><time>2026-04-18T08:44:28.999Z</time></trkpt><trkpt lat="44.404556538716754" lon="10.778539285634889"><ele>795.0</ele><time>2026-04-18T08:44:29.999Z</time></trkpt><trkpt lat="44.40448801437587" lon="10.778426851297791"><ele>795.0</ele><time>2026-04-18T08:44:31.999Z</time></trkpt><trkpt lat="44.40445653774619" lon="10.778316045659814"><ele>795.1666666666666</ele><time>2026-04-18T08:44:33.999Z</time></trkpt><trkpt lat="44.40444357383825" lon="10.778229252234627"><ele>795.3333333333333</ele><time>2026-04-18T08:44:35.999Z</time></trkpt><trkpt lat="44.40457244999268" lon="10.778186059754361"><ele>795.5</ele><time>2026-04-18T08:44:36.999Z</time></trkpt><trkpt lat="44.404644307540025" lon="10.778125821339808"><ele>795.6666666666666</ele><time>2026-04-18T08:44:37.999Z</time></trkpt><trkpt lat="44.40471342240202" lon="10.778067882181551"><ele>795.8333333333333</ele><time>2026-04-18T08:44:38.999Z</time></trkpt><trkpt lat="44.40477749425642" lon="10.77801439250873"><ele>796.0</ele><time>2026-04-18T08:44:39.999Z</time></trkpt><trkpt lat="44.40484346561831" lon="10.777954807195618"><ele>796.0</ele><time>2026-04-18T08:44:40.999Z</time></trkpt><trkpt lat="44.40491421438723" lon="10.777889290703433"><ele>796.0</ele><time>2026-04-18T08:44:41.999Z</time></trkpt><trkpt lat="44.404984620142535" lon="10.77780527885063"><ele>796.0</ele><time>2026-04-18T08:44:42.999Z</time></trkpt><trkpt lat="44.405038222867475" lon="10.77768575851326"><ele>796.0</ele><time>2026-04-18T08:44:43.999Z</time></trkpt><trkpt lat="44.40508612215047" lon="10.777573513793248"><ele>796.0</ele><time>2026-04-18T08:44:44.999Z</time></trkpt><trkpt lat="44.40513176900599" lon="10.777467584728077"><ele>795.8</ele><time>2026-04-18T08:44:45.999Z</time></trkpt><trkpt lat="44.405188700921585" lon="10.777333328911055"><ele>795.5999999999999</ele><time>2026-04-18T08:44:46.999Z</time></trkpt><trkpt lat="44.40524609800996" lon="10.777198486584215"><ele>795.4</ele><time>2026-04-18T08:44:47.999Z</time></trkpt><trkpt lat="44.405294520862164" lon="10.777084727423222"><ele>795.2</ele><time>2026-04-18T08:44:48.999Z</time></trkpt><trkpt lat="44.40532760488861" lon="10.776967984563115"><ele>795.0</ele><time>2026-04-18T08:44:49.999Z</time></trkpt><trkpt lat="44.40538764825031" lon="10.776846899339743"><ele>794.1666666666666</ele><time>2026-04-18T08:44:50.999Z</time></trkpt><trkpt lat="44.40544912083378" lon="10.776700369367928"><ele>793.3333333333333</ele><time>2026-04-18T08:44:51.999Z</time></trkpt><trkpt lat="44.405504087741825" lon="10.77658668458311"><ele>792.5</ele><time>2026-04-18T08:44:52.999Z</time></trkpt><trkpt lat="44.40555567676145" lon="10.776491845921143"><ele>791.6666666666666</ele><time>2026-04-18T08:44:53.999Z</time></trkpt><trkpt lat="44.405604859246964" lon="10.77640451875876"><ele>790.8333333333333</ele><time>2026-04-18T08:44:54.999Z</time></trkpt><trkpt lat="44.40564432558311" lon="10.776334303268582"><ele>790.0</ele><time>2026-04-18T08:44:55.999Z</time></trkpt><trkpt lat="44.405716787824616" lon="10.776234227736712"><ele>790.0</ele><time>2026-04-18T08:44:57.999Z</time></trkpt><trkpt lat="44.40580131145942" lon="10.776156253531623"><ele>790.0</ele><time>2026-04-18T08:44:59.999Z</time></trkpt><trkpt lat="44.4059024623508" lon="10.77614723557492"><ele>790.0</ele><time>2026-04-18T08:45:01.999Z</time></trkpt><trkpt lat="44.406014322595546" lon="10.77621098422902"><ele>790.0</ele><time>2026-04-18T08:45:03.999Z</time></trkpt><trkpt lat="44.40608018361181" lon="10.776277337403625"><ele>790.0</ele><time>2026-04-18T08:45:04.999Z</time></trkpt><trkpt lat="44.40613876325731" lon="10.77632065281411"><ele>790.0</ele><time>2026-04-18T08:45:05.999Z</time></trkpt><trkpt lat="44.40620174671231" lon="10.776347027620409"><ele>790.0</ele><time>2026-04-18T08:45:06.999Z</time></trkpt><trkpt lat="44.4062675164838" lon="10.776369436808745"><ele>790.0</ele><time>2026-04-18T08:45:07.999Z</time></trkpt><trkpt lat="44.40633594519026" lon="10.776391225376033"><ele>790.0</ele><time>2026-04-18T08:45:08.999Z</time></trkpt><trkpt lat="44.40640585689958" lon="10.77642890256815"><ele>790.0</ele><time>2026-04-18T08:45:09.999Z</time></trkpt><trkpt lat="44.406468010802314" lon="10.776459818384977"><ele>790.0</ele><time>2026-04-18T08:45:10.999Z</time></trkpt><trkpt lat="44.40652972830223" lon="10.776485386693764"><ele>790.0</ele><time>2026-04-18T08:45:11.999Z</time></trkpt><trkpt lat="44.40659851354953" lon="10.776627570607358"><ele>789.0</ele><time>2026-04-18T08:45:13.999Z</time></trkpt><trkpt lat="44.40666072881431" lon="10.776782331616934"><ele>788.0</ele><time>2026-04-18T08:45:15.999Z</time></trkpt><trkpt lat="44.406672327792386" lon="10.77687672514308"><ele>787.0</ele><time>2026-04-18T08:45:16.999Z</time></trkpt><trkpt lat="44.40670061926274" lon="10.776963957286458"><ele>786.0</ele><time>2026-04-18T08:45:17.999Z</time></trkpt><trkpt lat="44.40674331024998" lon="10.77711928647717"><ele>785.0</ele><time>2026-04-18T08:45:19.999Z</time></trkpt><trkpt lat="44.40681426523396" lon="10.777229088940885"><ele>784.2</ele><time>2026-04-18T08:45:21.999Z</time></trkpt><trkpt lat="44.40694553032215" lon="10.777280913301345"><ele>783.4</ele><time>2026-04-18T08:45:23.999Z</time></trkpt><trkpt lat="44.40704133443202" lon="10.77730945905113"><ele>782.5999999999999</ele><time>2026-04-18T08:45:24.999Z</time></trkpt><trkpt lat="44.40713802041554" lon="10.777318868929717"><ele>781.8</ele><time>2026-04-18T08:45:25.999Z</time></trkpt><trkpt lat="44.40722043504871" lon="10.777304454753518"><ele>781.0</ele><time>2026-04-18T08:45:26.999Z</time></trkpt><trkpt lat="44.4073098381971" lon="10.777306555370282"><ele>779.9999999999999</ele><time>2026-04-18T08:45:27.999Z</time></trkpt><trkpt lat="44.4074300844892" lon="10.777307149321132"><ele>779.0</ele><time>2026-04-18T08:45:28.999Z</time></trkpt><trkpt lat="44.407528771393544" lon="10.777287100939459"><ele>778.0</ele><time>2026-04-18T08:45:29.999Z</time></trkpt><trkpt lat="44.407608814648" lon="10.777260864804385"><ele>777.0</ele><time>2026-04-18T08:45:30.999Z</time></trkpt><trkpt lat="44.407673190994736" lon="10.777242015518333"><ele>775.9999999999999</ele><time>2026-04-18T08:45:32Z</time></trkpt><trkpt lat="44.4077418224369" lon="10.77722067939256"><ele>775.0</ele><time>2026-04-18T08:45:33Z</time></trkpt><trkpt lat="44.4078193900794" lon="10.777199005306676"><ele>775.0</ele><time>2026-04-18T08:45:34Z</time></trkpt><trkpt lat="44.407942186822616" lon="10.777169476758287"><ele>775.0</ele><time>2026-04-18T08:45:36Z</time></trkpt><trkpt lat="44.408062123341345" lon="10.777095287000545"><ele>775.0</ele><time>2026-04-18T08:45:38Z</time></trkpt><trkpt lat="44.40813237067145" lon="10.777025792140739"><ele>775.0</ele><time>2026-04-18T08:45:40Z</time></trkpt><trkpt lat="44.408217305487696" lon="10.776900272822411"><ele>774.6666666666666</ele><time>2026-04-18T08:45:42Z</time></trkpt><trkpt lat="44.408256752853674" lon="10.776806179031878"><ele>774.3333333333333</ele><time>2026-04-18T08:45:43Z</time></trkpt><trkpt lat="44.40829694313119" lon="10.776713685467753"><ele>774.0</ele><time>2026-04-18T08:45:44Z</time></trkpt><trkpt lat="44.40832947546518" lon="10.776629756549497"><ele>773.6666666666667</ele><time>2026-04-18T08:45:45Z</time></trkpt><trkpt lat="44.408382480777334" lon="10.776483235921356"><ele>773.3333333333334</ele><time>2026-04-18T08:45:47Z</time></trkpt><trkpt lat="44.40844116979937" lon="10.776362492972558"><ele>773.0</ele><time>2026-04-18T08:45:49Z</time></trkpt><trkpt lat="44.40849260934005" lon="10.776284848750253"><ele>773.0000000000001</ele><time>2026-04-18T08:45:51Z</time></trkpt><trkpt lat="44.408544247667436" lon="10.776210664513462"><ele>773.0</ele><time>2026-04-18T08:45:53Z</time></trkpt><trkpt lat="44.408630376176895" lon="10.776086935554805"><ele>773.0</ele><time>2026-04-18T08:45:55Z</time></trkpt><trkpt lat="44.408681940575036" lon="10.776011743190246"><ele>773.0</ele><time>2026-04-18T08:45:56Z</time></trkpt><trkpt lat="44.408730705886796" lon="10.775936837318202"><ele>773.0000000000001</ele><time>2026-04-18T08:45:57Z</time></trkpt><trkpt lat="44.4087774169033" lon="10.775857775932234"><ele>773.0</ele><time>2026-04-18T08:45:59Z</time></trkpt><trkpt lat="44.40881854836128" lon="10.775783388693885"><ele>771.5</ele><time>2026-04-18T08:46:01Z</time></trkpt><trkpt lat="44.4088727196297" lon="10.77568541868786"><ele>770.0</ele><time>2026-04-18T08:46:03Z</time></trkpt><trkpt lat="44.40873728806945" lon="10.775484263308174"><ele>768.5</ele><time>2026-04-18T08:46:08Z</time></trkpt><trkpt lat="44.40881558808602" lon="10.775567061415986"><ele>767.0</ele><time>2026-04-18T08:46:10Z</time></trkpt><trkpt lat="44.408884891340485" lon="10.77561244776249"><ele>762.6</ele><time>2026-04-18T08:46:12Z</time></trkpt><trkpt lat="44.408940340364445" lon="10.775560796300168"><ele>758.2</ele><time>2026-04-18T08:46:14Z</time></trkpt><trkpt lat="44.40901587178004" lon="10.77543996385836"><ele>753.8</ele><time>2026-04-18T08:46:16Z</time></trkpt><trkpt lat="44.409111184025484" lon="10.775381873040757"><ele>749.4</ele><time>2026-04-18T08:46:18Z</time></trkpt><trkpt lat="44.409206350003046" lon="10.775348008221094"><ele>745.0</ele><time>2026-04-18T08:46:20Z</time></trkpt><trkpt lat="44.40926718758925" lon="10.775277589825505"><ele>743.4</ele><time>2026-04-18T08:46:22Z</time></trkpt><trkpt lat="44.40928394871999" lon="10.775171190580084"><ele>741.8</ele><time>2026-04-18T08:46:24Z</time></trkpt><trkpt lat="44.4093120127398" lon="10.775078079498037"><ele>740.2</ele><time>2026-04-18T08:46:25Z</time></trkpt><trkpt lat="44.409311902918056" lon="10.77489516329747"><ele>738.6</ele><time>2026-04-18T08:46:27Z</time></trkpt><trkpt lat="44.409281182835514" lon="10.774750302203527"><ele>737.0</ele><time>2026-04-18T08:46:29Z</time></trkpt><trkpt lat="44.409273475259425" lon="10.774606965229694"><ele>737.0</ele><time>2026-04-18T08:46:31Z</time></trkpt><trkpt lat="44.40925244180746" lon="10.774482590207054"><ele>737.0</ele><time>2026-04-18T08:46:33Z</time></trkpt><trkpt lat="44.409241529941795" lon="10.774369273113972"><ele>737.0</ele><time>2026-04-18T08:46:35Z</time></trkpt><trkpt lat="44.409276943232584" lon="10.774263349721855"><ele>737.0</ele><time>2026-04-18T08:46:37Z</time></trkpt><trkpt lat="44.40932301638308" lon="10.774173919809808"><ele>737.0</ele><time>2026-04-18T08:46:38.999Z</time></trkpt><trkpt lat="44.40936211607893" lon="10.774084428454435"><ele>737.0</ele><time>2026-04-18T08:46:41.999Z</time></trkpt><trkpt lat="44.40938730711398" lon="10.773987341200959"><ele>734.5</ele><time>2026-04-18T08:46:45.999Z</time></trkpt><trkpt lat="44.40943757344088" lon="10.77391284295246"><ele>732.0</ele><time>2026-04-18T08:46:49.999Z</time></trkpt><trkpt lat="44.40925318357642" lon="10.773673032235685"><ele>729.5</ele><time>2026-04-18T08:46:51.999Z</time></trkpt><trkpt lat="44.40926006489401" lon="10.7735568672358"><ele>727.0</ele><time>2026-04-18T08:46:54.999Z</time></trkpt><trkpt lat="44.40927567993002" lon="10.773470830164946"><ele>724.6666666666667</ele><time>2026-04-18T08:46:56.999Z</time></trkpt><trkpt lat="44.40925015126208" lon="10.773349933517542"><ele>722.3333333333334</ele><time>2026-04-18T08:46:59.999Z</time></trkpt><trkpt lat="44.409230680187335" lon="10.773225714302518"><ele>720.0</ele><time>2026-04-18T08:47:01.999Z</time></trkpt><trkpt lat="44.40923088507174" lon="10.773099225945025"><ele>717.6666666666666</ele><time>2026-04-18T08:47:03.999Z</time></trkpt><trkpt lat="44.40923080234365" lon="10.772977970212622"><ele>715.3333333333333</ele><time>2026-04-18T08:47:06.999Z</time></trkpt><trkpt lat="44.40920961038107" lon="10.772891880866888"><ele>713.0</ele><time>2026-04-18T08:47:08.999Z</time></trkpt><trkpt lat="44.40917055291177" lon="10.772817276747649"><ele>713.0</ele><time>2026-04-18T08:47:10.999Z</time></trkpt><trkpt lat="44.40911287185526" lon="10.772726289676529"><ele>713.0</ele><time>2026-04-18T08:47:13.999Z</time></trkpt><trkpt lat="44.40906379843493" lon="10.772623266334271"><ele>713.0</ele><time>2026-04-18T08:47:15.999Z</time></trkpt><trkpt lat="44.409038694898705" lon="10.772540067304433"><ele>713.0</ele><time>2026-04-18T08:47:17.999Z</time></trkpt><trkpt lat="44.40900295339046" lon="10.772419933433268"><ele>713.0</ele><time>2026-04-18T08:47:19.999Z</time></trkpt><trkpt lat="44.40894714729319" lon="10.772306548542403"><ele>713.0</ele><time>2026-04-18T08:47:21.999Z</time></trkpt><trkpt lat="44.408881383715304" lon="10.772218381243468"><ele>709.6666666666666</ele><time>2026-04-18T08:47:23.999Z</time></trkpt><trkpt lat="44.40882356669411" lon="10.772144271013232"><ele>706.3333333333333</ele><time>2026-04-18T08:47:25.999Z</time></trkpt><trkpt lat="44.40877805406296" lon="10.772069796553613"><ele>703.0</ele><time>2026-04-18T08:47:27.999Z</time></trkpt><trkpt lat="44.40871734477581" lon="10.772019707479098"><ele>699.6666666666666</ele><time>2026-04-18T08:47:29.999Z</time></trkpt><trkpt lat="44.40865158410545" lon="10.772040275015073"><ele>696.3333333333334</ele><time>2026-04-18T08:47:31.999Z</time></trkpt><trkpt lat="44.408584969719215" lon="10.772079620806435"><ele>693.0</ele><time>2026-04-18T08:47:33.999Z</time></trkpt><trkpt lat="44.40849038358472" lon="10.772088292566842"><ele>693.0</ele><time>2026-04-18T08:47:35.999Z</time></trkpt><trkpt lat="44.4083720685922" lon="10.772096588687265"><ele>693.0</ele><time>2026-04-18T08:47:38Z</time></trkpt><trkpt lat="44.40826978058367" lon="10.772114639633966"><ele>693.0</ele><time>2026-04-18T08:47:40Z</time></trkpt><trkpt lat="44.40816620404072" lon="10.772170578798816"><ele>693.0</ele><time>2026-04-18T08:47:42Z</time></trkpt><trkpt lat="44.408067220133546" lon="10.772179726292523"><ele>693.0</ele><time>2026-04-18T08:47:44Z</time></trkpt><trkpt lat="44.40799203074667" lon="10.772098208481676"><ele>693.8333333333334</ele><time>2026-04-18T08:47:46Z</time></trkpt><trkpt lat="44.40794646700212" lon="10.771937335157109"><ele>694.6666666666666</ele><time>2026-04-18T08:47:48Z</time></trkpt><trkpt lat="44.407923666557785" lon="10.771831937304787"><ele>695.5</ele><time>2026-04-18T08:47:49Z</time></trkpt><trkpt lat="44.40789407223316" lon="10.771730342821048"><ele>696.3333333333333</ele><time>2026-04-18T08:47:50Z</time></trkpt><trkpt lat="44.407865076899284" lon="10.771628895610508"><ele>697.1666666666666</ele><time>2026-04-18T08:47:51Z</time></trkpt><trkpt lat="44.407841808642175" lon="10.77152547131689"><ele>698.0</ele><time>2026-04-18T08:47:52Z</time></trkpt><trkpt lat="44.40781656695166" lon="10.771432041582727"><ele>695.4</ele><time>2026-04-18T08:47:53Z</time></trkpt><trkpt lat="44.407792405827806" lon="10.771334858439053"><ele>692.8</ele><time>2026-04-18T08:47:54Z</time></trkpt><trkpt lat="44.40781770861771" lon="10.771183464670171"><ele>690.2</ele><time>2026-04-18T08:47:55Z</time></trkpt><trkpt lat="44.40775226867027" lon="10.771085945207625"><ele>687.6</ele><time>2026-04-18T08:47:57Z</time></trkpt><trkpt lat="44.40768583767018" lon="10.770928356460585"><ele>685.0</ele><time>2026-04-18T08:47:59Z</time></trkpt><trkpt lat="44.407658203574115" lon="10.77083681556847"><ele>683.4</ele><time>2026-04-18T08:48:00Z</time></trkpt><trkpt lat="44.40763658987552" lon="10.77073732930773"><ele>681.8</ele><time>2026-04-18T08:48:01Z</time></trkpt><trkpt lat="44.407584253313274" lon="10.770577286345947"><ele>680.2</ele><time>2026-04-18T08:48:03Z</time></trkpt><trkpt lat="44.407522007983" lon="10.770420341457518"><ele>678.6</ele><time>2026-04-18T08:48:05Z</time></trkpt><trkpt lat="44.40744730209803" lon="10.770289537075719"><ele>677.0</ele><time>2026-04-18T08:48:07Z</time></trkpt><trkpt lat="44.407366973912666" lon="10.770171911885022"><ele>675.8</ele><time>2026-04-18T08:48:09Z</time></trkpt><trkpt lat="44.40732661216531" lon="10.770098724644035"><ele>674.6</ele><time>2026-04-18T08:48:10Z</time></trkpt><trkpt lat="44.4072412189405" lon="10.769981009411644"><ele>673.4</ele><time>2026-04-18T08:48:12Z</time></trkpt><trkpt lat="44.40718789650461" lon="10.7698459573233"><ele>672.1999999999999</ele><time>2026-04-18T08:48:14Z</time></trkpt><trkpt lat="44.40710489200144" lon="10.769736762575437"><ele>671.0</ele><time>2026-04-18T08:48:16Z</time></trkpt><trkpt lat="44.406994343421644" lon="10.769645988541694"><ele>674.0</ele><time>2026-04-18T08:48:18Z</time></trkpt><trkpt lat="44.406933384939784" lon="10.769609693275273"><ele>677.0</ele><time>2026-04-18T08:48:19Z</time></trkpt><trkpt lat="44.40684193580953" lon="10.769560971073012"><ele>680.0</ele><time>2026-04-18T08:48:21Z</time></trkpt><trkpt lat="44.40676497569533" lon="10.769519967848526"><ele>683.0</ele><time>2026-04-18T08:48:23Z</time></trkpt><trkpt lat="44.406685715157714" lon="10.769477738994613"><ele>686.0</ele><time>2026-04-18T08:48:26Z</time></trkpt><trkpt lat="44.406533212207854" lon="10.769639773978518"><ele>686.0</ele><time>2026-04-18T08:48:29Z</time></trkpt><trkpt lat="44.40641861496633" lon="10.769680083283586"><ele>686.0</ele><time>2026-04-18T08:48:31Z</time></trkpt><trkpt lat="44.40629682046016" lon="10.769729066314001"><ele>686.0</ele><time>2026-04-18T08:48:33Z</time></trkpt><trkpt lat="44.406222361647814" lon="10.769739722263223"><ele>686.0</ele><time>2026-04-18T08:48:34Z</time></trkpt><trkpt lat="44.40613266894733" lon="10.769766569772946"><ele>686.0</ele><time>2026-04-18T08:48:35Z</time></trkpt><trkpt lat="44.406047688797834" lon="10.769787836356974"><ele>685.8333333333333</ele><time>2026-04-18T08:48:36Z</time></trkpt><trkpt lat="44.40597716268117" lon="10.769800578502512"><ele>685.6666666666666</ele><time>2026-04-18T08:48:37Z</time></trkpt><trkpt lat="44.405890862353026" lon="10.769819562581628"><ele>685.5</ele><time>2026-04-18T08:48:39Z</time></trkpt><trkpt lat="44.40580527594576" lon="10.769891262912624"><ele>685.3333333333334</ele><time>2026-04-18T08:48:41Z</time></trkpt><trkpt lat="44.40574444121521" lon="10.769918372606202"><ele>685.1666666666667</ele><time>2026-04-18T08:48:43Z</time></trkpt><trkpt lat="44.405667748995114" lon="10.769882730362886"><ele>685.0</ele><time>2026-04-18T08:48:45Z</time></trkpt><trkpt lat="44.40561545920384" lon="10.769805922080252"><ele>685.0</ele><time>2026-04-18T08:48:46Z</time></trkpt><trkpt lat="44.40555622714903" lon="10.769736621115161"><ele>685.0</ele><time>2026-04-18T08:48:47Z</time></trkpt><trkpt lat="44.405473212691874" lon="10.769699497102408"><ele>685.0</ele><time>2026-04-18T08:48:47.999Z</time></trkpt><trkpt lat="44.40540226889263" lon="10.769679628321393"><ele>685.0</ele><time>2026-04-18T08:48:48.999Z</time></trkpt><trkpt lat="44.40527230244443" lon="10.769642580808929"><ele>685.0</ele><time>2026-04-18T08:48:50.999Z</time></trkpt><trkpt lat="44.40520174123512" lon="10.769637613546427"><ele>685.0</ele><time>2026-04-18T08:48:51.999Z</time></trkpt><trkpt lat="44.40510358604037" lon="10.769646933837132"><ele>683.8</ele><time>2026-04-18T08:48:53.999Z</time></trkpt><trkpt lat="44.40502029216471" lon="10.769657650965856"><ele>682.6</ele><time>2026-04-18T08:48:55.999Z</time></trkpt><trkpt lat="44.404903129273514" lon="10.769553415674816"><ele>681.4000000000001</ele><time>2026-04-18T08:48:57.999Z</time></trkpt><trkpt lat="44.404821452052104" lon="10.76945939120523"><ele>680.2</ele><time>2026-04-18T08:48:58.999Z</time></trkpt><trkpt lat="44.40476918793095" lon="10.769349877915047"><ele>679.0</ele><time>2026-04-18T08:48:59.999Z</time></trkpt><trkpt lat="44.4047104563903" lon="10.769255728974017"><ele>681.6</ele><time>2026-04-18T08:49:00.999Z</time></trkpt><trkpt lat="44.40464726900357" lon="10.769187021956267"><ele>684.2</ele><time>2026-04-18T08:49:01.999Z</time></trkpt><trkpt lat="44.40457451116875" lon="10.769043183658889"><ele>686.8000000000001</ele><time>2026-04-18T08:49:03.999Z</time></trkpt><trkpt lat="44.40453279208129" lon="10.76894840313456"><ele>689.4000000000001</ele><time>2026-04-18T08:49:04.999Z</time></trkpt><trkpt lat="44.40445957101711" lon="10.768841127520892"><ele>692.0</ele><time>2026-04-18T08:49:06.999Z</time></trkpt><trkpt lat="44.4043767886179" lon="10.768794703455045"><ele>692.0</ele><time>2026-04-18T08:49:08.999Z</time></trkpt><trkpt lat="44.40429110106139" lon="10.76875769364632"><ele>692.0</ele><time>2026-04-18T08:49:10.999Z</time></trkpt><trkpt lat="44.404187831181524" lon="10.768696740020495"><ele>692.0</ele><time>2026-04-18T08:49:12.999Z</time></trkpt><trkpt lat="44.40412487233228" lon="10.768636862926149"><ele>692.0</ele><time>2026-04-18T08:49:13.999Z</time></trkpt><trkpt lat="44.40405733181809" lon="10.768570421423034"><ele>692.0</ele><time>2026-04-18T08:49:14.999Z</time></trkpt><trkpt lat="44.40399360737028" lon="10.768510319971053"><ele>692.0</ele><time>2026-04-18T08:49:15.999Z</time></trkpt><trkpt lat="44.403925775765025" lon="10.768440721644376"><ele>690.4285714285714</ele><time>2026-04-18T08:49:16.999Z</time></trkpt><trkpt lat="44.40385585320695" lon="10.76836992819483"><ele>688.8571428571429</ele><time>2026-04-18T08:49:18.999Z</time></trkpt><trkpt lat="44.403789609104734" lon="10.768402863149682"><ele>687.2857142857143</ele><time>2026-04-18T08:50:26Z</time></trkpt><trkpt lat="44.40385241045164" lon="10.768370509079032"><ele>685.7142857142858</ele><time>2026-04-18T08:51:47.999Z</time></trkpt><trkpt lat="44.40379429164796" lon="10.768332125289275"><ele>684.1428571428571</ele><time>2026-04-18T08:53:18.999Z</time></trkpt><trkpt lat="44.40372068110119" lon="10.768315416966157"><ele>682.5714285714287</ele><time>2026-04-18T08:53:21.999Z</time></trkpt><trkpt lat="44.40364590902128" lon="10.768329583788088"><ele>681.0</ele><time>2026-04-18T08:53:24.999Z</time></trkpt><trkpt lat="44.403554045987924" lon="10.768342002032124"><ele>681.0000000000001</ele><time>2026-04-18T08:53:27.999Z</time></trkpt><trkpt lat="44.40346924319037" lon="10.76832228539553"><ele>681.0</ele><time>2026-04-18T08:53:32.999Z</time></trkpt><trkpt lat="44.40340635581129" lon="10.768317101391425"><ele>681.0</ele><time>2026-04-18T08:53:35.999Z</time></trkpt><trkpt lat="44.403340147643554" lon="10.768310490985577"><ele>681.0</ele><time>2026-04-18T08:53:38.999Z</time></trkpt><trkpt lat="44.403266066141214" lon="10.768316883759844"><ele>681.0</ele><time>2026-04-18T08:53:41.999Z</time></trkpt><trkpt lat="44.40318672208897" lon="10.768311460259142"><ele>681.0000000000001</ele><time>2026-04-18T08:53:44.999Z</time></trkpt><trkpt lat="44.403114040839185" lon="10.76828514458263"><ele>681.0</ele><time>2026-04-18T08:53:48.999Z</time></trkpt><trkpt lat="44.40306294998439" lon="10.768232157912655"><ele>681.0000000000001</ele><time>2026-04-18T08:54:26.998Z</time></trkpt><trkpt lat="44.40299691864782" lon="10.768178932728162"><ele>681.0</ele><time>2026-04-18T08:54:29.998Z</time></trkpt><trkpt lat="44.402974145272964" lon="10.768275209506575"><ele>681.0</ele><time>2026-04-18T08:54:46.999Z</time></trkpt><trkpt lat="44.40292359499276" lon="10.76820041872479"><ele>681.0</ele><time>2026-04-18T08:57:22Z</time></trkpt><trkpt lat="44.40297224152211" lon="10.76812267745318"><ele>681.0</ele><time>2026-04-18T08:57:24Z</time></trkpt><trkpt lat="44.40301567612032" lon="10.768051952080702"><ele>681.0000000000001</ele><time>2026-04-18T08:57:26Z</time></trkpt><trkpt lat="44.403025101322534" lon="10.767957568571617"><ele>681.0</ele><time>2026-04-18T08:57:27Z</time></trkpt><trkpt lat="44.40298717502275" lon="10.767869728759722"><ele>682.8333333333334</ele><time>2026-04-18T08:57:29Z</time></trkpt><trkpt lat="44.402929096827926" lon="10.767919395249592"><ele>684.6666666666666</ele><time>2026-04-18T08:57:33Z</time></trkpt><trkpt lat="44.402872008752766" lon="10.767969819571226"><ele>686.5</ele><time>2026-04-18T08:59:48.001Z</time></trkpt><trkpt lat="44.40279424875808" lon="10.767944531403892"><ele>688.3333333333333</ele><time>2026-04-18T09:00:25.001Z</time></trkpt><trkpt lat="44.40265837417035" lon="10.767938757156948"><ele>690.1666666666666</ele><time>2026-04-18T09:00:51.001Z</time></trkpt><trkpt lat="44.40270774598138" lon="10.767879406288742"><ele>692.0</ele><time>2026-04-18T09:01:32.001Z</time></trkpt><trkpt lat="44.40277437304357" lon="10.767834362050616"><ele>692.0</ele><time>2026-04-18T09:01:38.001Z</time></trkpt><trkpt lat="44.40287080580157" lon="10.76788336566005"><ele>692.0</ele><time>2026-04-18T09:01:49.002Z</time></trkpt><trkpt lat="44.40279203806547" lon="10.767877778911572"><ele>692.0</ele><time>2026-04-18T09:01:50.002Z</time></trkpt><trkpt lat="44.40272554601449" lon="10.767899604223159"><ele>692.0</ele><time>2026-04-18T09:01:57.002Z</time></trkpt><trkpt lat="44.40280989783846" lon="10.767914715476849"><ele>692.0</ele><time>2026-04-18T09:02:14.002Z</time></trkpt><trkpt lat="44.40289232842827" lon="10.767925997088335"><ele>692.0</ele><time>2026-04-18T09:02:19.002Z</time></trkpt><trkpt lat="44.40296039794039" lon="10.767874484618881"><ele>692.0</ele><time>2026-04-18T09:02:28Z</time></trkpt><trkpt lat="44.403016103920955" lon="10.767819476063192"><ele>692.0</ele><time>2026-04-18T09:03:05Z</time></trkpt><trkpt lat="44.40294628793618" lon="10.767854464725717"><ele>692.0</ele><time>2026-04-18T09:03:21Z</time></trkpt><trkpt lat="44.402902613713266" lon="10.76792272386697"><ele>692.0</ele><time>2026-04-18T09:07:51.001Z</time></trkpt><trkpt lat="44.402871296880505" lon="10.767771664873042"><ele>692.0</ele><time>2026-04-18T09:09:52.001Z</time></trkpt><trkpt lat="44.402838723207445" lon="10.76785179065642"><ele>692.0</ele><time>2026-04-18T09:10:49.001Z</time></trkpt><trkpt lat="44.40286033649558" lon="10.767992559082181"><ele>692.0</ele><time>2026-04-18T09:11:04.001Z</time></trkpt><trkpt lat="44.40279632619113" lon="10.767937217725693"><ele>692.0</ele><time>2026-04-18T09:11:13.001Z</time></trkpt><trkpt lat="44.40273010700792" lon="10.767938804742004"><ele>692.0</ele><time>2026-04-18T09:11:23.001Z</time></trkpt><trkpt lat="44.40266220977701" lon="10.767945602085957"><ele>692.0</ele><time>2026-04-18T09:12:15Z</time></trkpt><trkpt lat="44.4025906058546" lon="10.767967279315153"><ele>692.0</ele><time>2026-04-18T09:12:18Z</time></trkpt><trkpt lat="44.40252512014304" lon="10.767988494615423"><ele>692.0</ele><time>2026-04-18T09:12:20Z</time></trkpt><trkpt lat="44.402458476905416" lon="10.768009085339079"><ele>692.0</ele><time>2026-04-18T09:12:22Z</time></trkpt><trkpt lat="44.40238086572613" lon="10.768013730528333"><ele>692.0</ele><time>2026-04-18T09:12:25Z</time></trkpt><trkpt lat="44.40230561557013" lon="10.767953530856621"><ele>692.0</ele><time>2026-04-18T09:12:28Z</time></trkpt><trkpt lat="44.40225870576667" lon="10.767878170299136"><ele>692.0</ele><time>2026-04-18T09:12:30Z</time></trkpt><trkpt lat="44.40218259818828" lon="10.767806054242987"><ele>692.0</ele><time>2026-04-18T09:12:35Z</time></trkpt><trkpt lat="44.40214855190544" lon="10.767683961040035"><ele>692.0</ele><time>2026-04-18T09:12:39Z</time></trkpt><trkpt lat="44.40207174319548" lon="10.767595060827784"><ele>692.0</ele><time>2026-04-18T09:12:42Z</time></trkpt><trkpt lat="44.40205923770533" lon="10.767490112705799"><ele>694.1666666666666</ele><time>2026-04-18T09:12:45Z</time></trkpt><trkpt lat="44.40202598482139" lon="10.767315439572274"><ele>696.3333333333333</ele><time>2026-04-18T09:12:48Z</time></trkpt><trkpt lat="44.402004701451844" lon="10.76723075736321"><ele>698.5</ele><time>2026-04-18T09:12:51.001Z</time></trkpt><trkpt lat="44.40201094491153" lon="10.767137597042046"><ele>700.6666666666666</ele><time>2026-04-18T09:12:53.001Z</time></trkpt><trkpt lat="44.40200261727157" lon="10.767016082051644"><ele>702.8333333333334</ele><time>2026-04-18T09:12:56.001Z</time></trkpt><trkpt lat="44.4019712908807" lon="10.76692053269154"><ele>705.0</ele><time>2026-04-18T09:13:02.001Z</time></trkpt><trkpt lat="44.401956373892844" lon="10.766796238390112"><ele>706.8333333333334</ele><time>2026-04-18T09:13:04.001Z</time></trkpt><trkpt lat="44.40194229952229" lon="10.766709846300014"><ele>708.6666666666666</ele><time>2026-04-18T09:13:09.001Z</time></trkpt><trkpt lat="44.401926783381775" lon="10.766582401689417"><ele>710.5</ele><time>2026-04-18T09:13:12Z</time></trkpt><trkpt lat="44.40193465374753" lon="10.766459022956882"><ele>712.3333333333333</ele><time>2026-04-18T09:13:14Z</time></trkpt><trkpt lat="44.40194517928166" lon="10.766371025221721"><ele>714.1666666666666</ele><time>2026-04-18T09:13:17Z</time></trkpt><trkpt lat="44.40196023065762" lon="10.76624920668322"><ele>716.0</ele><time>2026-04-18T09:13:20Z</time></trkpt><trkpt lat="44.40198517142585" lon="10.766140360794042"><ele>717.1428571428572</ele><time>2026-04-18T09:13:23Z</time></trkpt><trkpt lat="44.40196311232813" lon="10.766024424414303"><ele>718.2857142857143</ele><time>2026-04-18T09:13:26Z</time></trkpt><trkpt lat="44.40193246600316" lon="10.765947161299184"><ele>719.4285714285714</ele><time>2026-04-18T09:13:28Z</time></trkpt><trkpt lat="44.40189736492837" lon="10.765853396876985"><ele>720.5714285714287</ele><time>2026-04-18T09:13:32Z</time></trkpt><trkpt lat="44.40185763276231" lon="10.765774035106451"><ele>721.7142857142857</ele><time>2026-04-18T09:13:35Z</time></trkpt><trkpt lat="44.40178147113538" lon="10.765764214100038"><ele>722.8571428571429</ele><time>2026-04-18T09:17:51Z</time></trkpt><trkpt lat="44.4017091863111" lon="10.765801406883872"><ele>724.0</ele><time>2026-04-18T09:17:55Z</time></trkpt><trkpt lat="44.4016633779747" lon="10.765731495153055"><ele>724.0</ele><time>2026-04-18T09:17:59Z</time></trkpt><trkpt lat="44.40169024261987" lon="10.765651523626053"><ele>724.0</ele><time>2026-04-18T09:18:01Z</time></trkpt><trkpt lat="44.4016857759279" lon="10.765513059353273"><ele>724.0</ele><time>2026-04-18T09:18:03Z</time></trkpt><trkpt lat="44.40166964242387" lon="10.765421459429687"><ele>724.0</ele><time>2026-04-18T09:18:04Z</time></trkpt><trkpt lat="44.40164293548158" lon="10.765252190108086"><ele>724.0</ele><time>2026-04-18T09:18:06Z</time></trkpt><trkpt lat="44.401673158262454" lon="10.76513781865692"><ele>724.0</ele><time>2026-04-18T09:18:07Z</time></trkpt><trkpt lat="44.40164602323728" lon="10.765021845249194"><ele>722.3333333333334</ele><time>2026-04-18T09:18:08Z</time></trkpt><trkpt lat="44.40161868894525" lon="10.764919861892592"><ele>720.6666666666667</ele><time>2026-04-18T09:18:09Z</time></trkpt><trkpt lat="44.40158719151559" lon="10.764810951766917"><ele>719.0</ele><time>2026-04-18T09:18:10Z</time></trkpt><trkpt lat="44.4015586656983" lon="10.764712316679804"><ele>717.3333333333334</ele><time>2026-04-18T09:18:11Z</time></trkpt><trkpt lat="44.40152873427056" lon="10.76460581309275"><ele>715.6666666666666</ele><time>2026-04-18T09:18:12Z</time></trkpt><trkpt lat="44.40150555678237" lon="10.764505589935048"><ele>714.0</ele><time>2026-04-18T09:18:13Z</time></trkpt><trkpt lat="44.4014879310184" lon="10.764411049397282"><ele>712.1666666666666</ele><time>2026-04-18T09:18:14Z</time></trkpt><trkpt lat="44.401485924866854" lon="10.764313727567933"><ele>710.3333333333334</ele><time>2026-04-18T09:18:15Z</time></trkpt><trkpt lat="44.40149045980066" lon="10.764200442357167"><ele>708.5</ele><time>2026-04-18T09:18:16Z</time></trkpt><trkpt lat="44.40149424681918" lon="10.764094649268477"><ele>706.6666666666667</ele><time>2026-04-18T09:18:17Z</time></trkpt><trkpt lat="44.401490430707334" lon="10.763994506987112"><ele>704.8333333333334</ele><time>2026-04-18T09:18:18Z</time></trkpt><trkpt lat="44.40147036070351" lon="10.763879684898766"><ele>703.0</ele><time>2026-04-18T09:18:19Z</time></trkpt><trkpt lat="44.40144226380262" lon="10.76368278245071"><ele>703.0</ele><time>2026-04-18T09:18:21Z</time></trkpt><trkpt lat="44.40142167407955" lon="10.76355980336709"><ele>703.0</ele><time>2026-04-18T09:18:22Z</time></trkpt><trkpt lat="44.401401769763126" lon="10.763459134858996"><ele>703.0</ele><time>2026-04-18T09:18:23Z</time></trkpt><trkpt lat="44.40137370883666" lon="10.763352348676806"><ele>703.0</ele><time>2026-04-18T09:18:24Z</time></trkpt><trkpt lat="44.401337428467116" lon="10.763273033929606"><ele>703.0</ele><time>2026-04-18T09:18:25Z</time></trkpt><trkpt lat="44.40128761210022" lon="10.763201113783536"><ele>703.0</ele><time>2026-04-18T09:18:26Z</time></trkpt><trkpt lat="44.40121319097254" lon="10.76311936488451"><ele>700.3333333333334</ele><time>2026-04-18T09:18:27Z</time></trkpt><trkpt lat="44.401186529647596" lon="10.76302266447111"><ele>697.6666666666667</ele><time>2026-04-18T09:18:28Z</time></trkpt><trkpt lat="44.40116402886394" lon="10.762938979997488"><ele>695.0</ele><time>2026-04-18T09:18:29Z</time></trkpt><trkpt lat="44.40114375678301" lon="10.762736256650856"><ele>692.3333333333334</ele><time>2026-04-18T09:18:31Z</time></trkpt><trkpt lat="44.40113299179417" lon="10.762634769180107"><ele>689.6666666666666</ele><time>2026-04-18T09:18:31.999Z</time></trkpt><trkpt lat="44.40112228062718" lon="10.762529132115548"><ele>687.0</ele><time>2026-04-18T09:18:32.999Z</time></trkpt><trkpt lat="44.40111262009115" lon="10.76243385673166"><ele>686.0</ele><time>2026-04-18T09:18:33.999Z</time></trkpt><trkpt lat="44.40110039755977" lon="10.76231331402813"><ele>685.0</ele><time>2026-04-18T09:18:34.999Z</time></trkpt><trkpt lat="44.40108969780838" lon="10.76220778949896"><ele>684.0</ele><time>2026-04-18T09:18:35.999Z</time></trkpt><trkpt lat="44.401079850450294" lon="10.762110671590314"><ele>683.0</ele><time>2026-04-18T09:18:36.999Z</time></trkpt><trkpt lat="44.40107086153783" lon="10.762023433565775"><ele>682.0</ele><time>2026-04-18T09:18:37.999Z</time></trkpt><trkpt lat="44.40106079028972" lon="10.761928158266"><ele>681.0</ele><time>2026-04-18T09:18:38.999Z</time></trkpt><trkpt lat="44.401046332543025" lon="10.761818492747064"><ele>680.0</ele><time>2026-04-18T09:18:39.999Z</time></trkpt><trkpt lat="44.40103088531562" lon="10.761712928861355"><ele>678.4</ele><time>2026-04-18T09:18:40.999Z</time></trkpt><trkpt lat="44.40100191180031" lon="10.761629767358187"><ele>676.8</ele><time>2026-04-18T09:18:41.999Z</time></trkpt><trkpt lat="44.400989808941034" lon="10.761447677086933"><ele>675.2</ele><time>2026-04-18T09:18:43.999Z</time></trkpt><trkpt lat="44.400973655513376" lon="10.761343365901093"><ele>673.6</ele><time>2026-04-18T09:18:44.999Z</time></trkpt><trkpt lat="44.40095910560609" lon="10.761239937028101"><ele>672.0</ele><time>2026-04-18T09:18:45.999Z</time></trkpt><trkpt lat="44.40094125858933" lon="10.761054788897448"><ele>670.4000000000001</ele><time>2026-04-18T09:18:47.999Z</time></trkpt><trkpt lat="44.400945951194835" lon="10.760961077463886"><ele>668.8000000000001</ele><time>2026-04-18T09:18:48.999Z</time></trkpt><trkpt lat="44.400935371932256" lon="10.760806238566907"><ele>667.2</ele><time>2026-04-18T09:18:50.999Z</time></trkpt><trkpt lat="44.40089645750099" lon="10.760674799122429"><ele>665.6</ele><time>2026-04-18T09:18:52.999Z</time></trkpt><trkpt lat="44.4008084436969" lon="10.760602144860696"><ele>664.0</ele><time>2026-04-18T09:18:54.999Z</time></trkpt><trkpt lat="44.400725776848844" lon="10.760532281225766"><ele>664.0</ele><time>2026-04-18T09:18:56.999Z</time></trkpt><trkpt lat="44.400649358949586" lon="10.760434356117823"><ele>664.0</ele><time>2026-04-18T09:18:58.999Z</time></trkpt><trkpt lat="44.400586363622224" lon="10.760352646941836"><ele>664.0</ele><time>2026-04-18T09:19:00.999Z</time></trkpt><trkpt lat="44.400536487094" lon="10.76028383694371"><ele>664.0</ele><time>2026-04-18T09:19:02.999Z</time></trkpt><trkpt lat="44.40047240081329" lon="10.760189936999637"><ele>664.0</ele><time>2026-04-18T09:19:05.999Z</time></trkpt><trkpt lat="44.40038022876815" lon="10.760171286479858"><ele>664.0</ele><time>2026-04-18T09:19:09Z</time></trkpt><trkpt lat="44.400297699511334" lon="10.76015262323846"><ele>662.5</ele><time>2026-04-18T09:19:11Z</time></trkpt><trkpt lat="44.40021154477034" lon="10.760142118275956"><ele>661.0</ele><time>2026-04-18T09:19:13Z</time></trkpt><trkpt lat="44.400142078979876" lon="10.76011032112083"><ele>659.5</ele><time>2026-04-18T09:19:15Z</time></trkpt><trkpt lat="44.400078683099316" lon="10.760104289993336"><ele>658.0</ele><time>2026-04-18T09:19:17Z</time></trkpt><trkpt lat="44.39999421623962" lon="10.760099424313045"><ele>656.5</ele><time>2026-04-18T09:19:25Z</time></trkpt><trkpt lat="44.399886877299124" lon="10.760063094869459"><ele>655.0</ele><time>2026-04-18T09:19:28Z</time></trkpt><trkpt lat="44.39978420797379" lon="10.759990755017135"><ele>655.0</ele><time>2026-04-18T09:19:30Z</time></trkpt><trkpt lat="44.399726859454375" lon="10.759848210450475"><ele>655.0</ele><time>2026-04-18T09:19:32Z</time></trkpt><trkpt lat="44.39973194449478" lon="10.75975784577823"><ele>655.0</ele><time>2026-04-18T09:19:33Z</time></trkpt><trkpt lat="44.399769287862945" lon="10.759674621155611"><ele>655.0</ele><time>2026-04-18T09:19:34Z</time></trkpt><trkpt lat="44.3997631266197" lon="10.75955500606323"><ele>655.0</ele><time>2026-04-18T09:19:36Z</time></trkpt><trkpt lat="44.39974444630163" lon="10.759445646917314"><ele>655.0</ele><time>2026-04-18T09:19:39Z</time></trkpt><trkpt lat="44.39959656842447" lon="10.7595223622598"><ele>654.6666666666667</ele><time>2026-04-18T09:19:40Z</time></trkpt><trkpt lat="44.399567023073374" lon="10.759600808111719"><ele>654.3333333333334</ele><time>2026-04-18T09:22:51.999Z</time></trkpt><trkpt lat="44.39951778365517" lon="10.759518803377565"><ele>654.0</ele><time>2026-04-18T09:24:52Z</time></trkpt><trkpt lat="44.39940481722003" lon="10.759497498119265"><ele>653.6666666666666</ele><time>2026-04-18T09:25:58Z</time></trkpt><trkpt lat="44.399474426194" lon="10.759448279960825"><ele>653.3333333333333</ele><time>2026-04-18T09:26:02Z</time></trkpt><trkpt lat="44.399517792934" lon="10.759377229570118"><ele>653.0</ele><time>2026-04-18T09:26:03Z</time></trkpt><trkpt lat="44.3995565098306" lon="10.759269026953818"><ele>653.0</ele><time>2026-04-18T09:26:06.018Z</time></trkpt><trkpt lat="44.39946999672364" lon="10.75956809096699"><ele>653.0</ele><time>2026-04-18T09:26:24.431Z</time></trkpt><trkpt lat="44.39946851040229" lon="10.759465270129017"><ele>653.0</ele><time>2026-04-18T09:27:31.999Z</time></trkpt><trkpt lat="44.399499524346375" lon="10.759553803940861"><ele>653.0</ele><time>2026-04-18T09:27:36.999Z</time></trkpt><trkpt lat="44.39959836903819" lon="10.75955082814651"><ele>653.0</ele><time>2026-04-18T09:27:49Z</time></trkpt><trkpt lat="44.399531832074906" lon="10.759596692307174"><ele>653.0</ele><time>2026-04-18T09:28:27Z</time></trkpt></trkseg></trk></gpx>